<?xml version='1.0' encoding='UTF-8'?><gpx version="1.1" creator="JPX - https://github.com/jenetics/jpx" xmlns="http://www.topografix.com/GPX/1/1"><trk><trkseg><trkpt lat="46.0274187" lon="11.9127829"><ele>286.0</ele><time>2026-04-11T13:23:53.534Z</time></trkpt><trkpt lat="46.0274039" lon="11.9126787"><ele>286.0</ele><time>2026-04-11T13:23:56.535Z</time></trkpt><trkpt lat="46.027416" lon="11.9125846"><ele>286.0</ele><time>2026-04-11T13:23:59.534Z</time></trkpt><trkpt lat="46.0275481" lon="11.9125726"><ele>286.0</ele><time>2026-04-11T13:24:04.534Z</time></trkpt><trkpt lat="46.0276396" lon="11.9125652"><ele>286.0</ele><time>2026-04-11T13:24:07.535Z</time></trkpt><trkpt lat="46.0277052" lon="11.9125635"><ele>286.0</ele><time>2026-04-11T13:24:09.534Z</time></trkpt><trkpt lat="46.0277685" lon="11.9125619"><ele>286.1428571428571</ele><time>2026-04-11T13:24:11.536Z</time></trkpt><trkpt lat="46.0278384" lon="11.9125602"><ele>286.2857142857143</ele><time>2026-04-11T13:24:13.535Z</time></trkpt><trkpt lat="46.0279059" lon="11.9125585"><ele>286.42857142857144</ele><time>2026-04-11T13:24:15.535Z</time></trkpt><trkpt lat="46.0279951" lon="11.9125563"><ele>286.57142857142856</ele><time>2026-04-11T13:24:18.539Z</time></trkpt><trkpt lat="46.0280635" lon="11.9125476"><ele>286.7142857142857</ele><time>2026-04-11T13:24:20.533Z</time></trkpt><trkpt lat="46.0281288" lon="11.9125412"><ele>286.85714285714283</ele><time>2026-04-11T13:24:22.534Z</time></trkpt><trkpt lat="46.0281918" lon="11.912538"><ele>287.0</ele><time>2026-04-11T13:24:24.534Z</time></trkpt><trkpt lat="46.0282589" lon="11.9125347"><ele>287.0</ele><time>2026-04-11T13:24:26.536Z</time></trkpt><trkpt lat="46.0283246" lon="11.9125314"><ele>287.0</ele><time>2026-04-11T13:24:28.536Z</time></trkpt><trkpt lat="46.0283915" lon="11.912528"><ele>287.0</ele><time>2026-04-11T13:24:30.536Z</time></trkpt><trkpt lat="46.0284801" lon="11.9125236"><ele>287.0</ele><time>2026-04-11T13:24:33.536Z</time></trkpt><trkpt lat="46.0285471" lon="11.9125113"><ele>287.0</ele><time>2026-04-11T13:24:35.535Z</time></trkpt><trkpt lat="46.0286368" lon="11.9124924"><ele>287.0</ele><time>2026-04-11T13:24:38.534Z</time></trkpt><trkpt lat="46.0287066" lon="11.9124377"><ele>287.0</ele><time>2026-04-11T13:24:41.536Z</time></trkpt><trkpt lat="46.0287188" lon="11.9123063"><ele>287.0</ele><time>2026-04-11T13:24:44.536Z</time></trkpt><trkpt lat="46.0287074" lon="11.9122067"><ele>287.0</ele><time>2026-04-11T13:24:46.534Z</time></trkpt><trkpt lat="46.0286897" lon="11.9121017"><ele>287.0</ele><time>2026-04-11T13:24:48.534Z</time></trkpt><trkpt lat="46.0286675" lon="11.9119848"><ele>287.0</ele><time>2026-04-11T13:24:50.535Z</time></trkpt><trkpt lat="46.0286481" lon="11.9118826"><ele>287.0</ele><time>2026-04-11T13:24:52.534Z</time></trkpt><trkpt lat="46.0286361" lon="11.9117851"><ele>287.0</ele><time>2026-04-11T13:24:54.533Z</time></trkpt><trkpt lat="46.0286218" lon="11.9116753"><ele>287.0</ele><time>2026-04-11T13:24:56.534Z</time></trkpt><trkpt lat="46.0286129" lon="11.9115687"><ele>287.0</ele><time>2026-04-11T13:24:58.535Z</time></trkpt><trkpt lat="46.0286092" lon="11.9114575"><ele>287.0</ele><time>2026-04-11T13:25:00.536Z</time></trkpt><trkpt lat="46.0286051" lon="11.9113391"><ele>287.0</ele><time>2026-04-11T13:25:03.536Z</time></trkpt><trkpt lat="46.0285901" lon="11.9112453"><ele>287.0</ele><time>2026-04-11T13:25:06.535Z</time></trkpt><trkpt lat="46.0285777" lon="11.9111465"><ele>287.0</ele><time>2026-04-11T13:25:09.534Z</time></trkpt><trkpt lat="46.0285601" lon="11.9110353"><ele>287.0</ele><time>2026-04-11T13:25:12.538Z</time></trkpt><trkpt lat="46.028584" lon="11.9109388"><ele>287.0</ele><time>2026-04-11T13:27:12.535Z</time></trkpt><trkpt lat="46.0285779" lon="11.9108124"><ele>287.0</ele><time>2026-04-11T13:27:15.535Z</time></trkpt><trkpt lat="46.0285647" lon="11.9107114"><ele>287.0</ele><time>2026-04-11T13:27:17.534Z</time></trkpt><trkpt lat="46.0285604" lon="11.9106099"><ele>287.0</ele><time>2026-04-11T13:27:19.534Z</time></trkpt><trkpt lat="46.0285621" lon="11.9105032"><ele>287.0</ele><time>2026-04-11T13:27:21.534Z</time></trkpt><trkpt lat="46.0285623" lon="11.9103926"><ele>287.0</ele><time>2026-04-11T13:27:23.534Z</time></trkpt><trkpt lat="46.028564" lon="11.9102803"><ele>287.0</ele><time>2026-04-11T13:27:25.534Z</time></trkpt><trkpt lat="46.0285647" lon="11.9101676"><ele>287.0</ele><time>2026-04-11T13:27:27.534Z</time></trkpt><trkpt lat="46.0285614" lon="11.9100563"><ele>287.0</ele><time>2026-04-11T13:27:29.535Z</time></trkpt><trkpt lat="46.0285547" lon="11.9099456"><ele>287.0</ele><time>2026-04-11T13:27:31.537Z</time></trkpt><trkpt lat="46.0285427" lon="11.9098369"><ele>287.0</ele><time>2026-04-11T13:27:33.535Z</time></trkpt><trkpt lat="46.0285266" lon="11.9097254"><ele>286.83333333333337</ele><time>2026-04-11T13:27:35.534Z</time></trkpt><trkpt lat="46.0285141" lon="11.9096166"><ele>286.6666666666667</ele><time>2026-04-11T13:27:37.533Z</time></trkpt><trkpt lat="46.0285063" lon="11.9095069"><ele>286.5</ele><time>2026-04-11T13:27:39.536Z</time></trkpt><trkpt lat="46.0284948" lon="11.9093943"><ele>286.3333333333333</ele><time>2026-04-11T13:27:41.534Z</time></trkpt><trkpt lat="46.0284819" lon="11.9092802"><ele>286.16666666666663</ele><time>2026-04-11T13:27:43.534Z</time></trkpt><trkpt lat="46.0284671" lon="11.9091669"><ele>286.0</ele><time>2026-04-11T13:27:45.534Z</time></trkpt><trkpt lat="46.0284536" lon="11.9090502"><ele>285.99999999999994</ele><time>2026-04-11T13:27:47.534Z</time></trkpt><trkpt lat="46.0284415" lon="11.9089305"><ele>286.0</ele><time>2026-04-11T13:27:49.534Z</time></trkpt><trkpt lat="46.0284284" lon="11.908821"><ele>286.0</ele><time>2026-04-11T13:27:51.535Z</time></trkpt><trkpt lat="46.0284139" lon="11.9087172"><ele>286.0</ele><time>2026-04-11T13:27:53.535Z</time></trkpt><trkpt lat="46.0284046" lon="11.9086218"><ele>286.0</ele><time>2026-04-11T13:27:55.534Z</time></trkpt><trkpt lat="46.028388" lon="11.9085307"><ele>285.99999999999994</ele><time>2026-04-11T13:27:57.534Z</time></trkpt><trkpt lat="46.0283674" lon="11.908435"><ele>286.0</ele><time>2026-04-11T13:27:59.535Z</time></trkpt><trkpt lat="46.0283454" lon="11.9083331"><ele>286.16666666666663</ele><time>2026-04-11T13:28:01.533Z</time></trkpt><trkpt lat="46.0283243" lon="11.908227"><ele>286.3333333333333</ele><time>2026-04-11T13:28:03.536Z</time></trkpt><trkpt lat="46.0283098" lon="11.908118"><ele>286.5</ele><time>2026-04-11T13:28:05.535Z</time></trkpt><trkpt lat="46.028299" lon="11.9080133"><ele>286.6666666666667</ele><time>2026-04-11T13:28:07.537Z</time></trkpt><trkpt lat="46.0282955" lon="11.9079078"><ele>286.83333333333337</ele><time>2026-04-11T13:28:09.538Z</time></trkpt><trkpt lat="46.028297" lon="11.9077978"><ele>287.0</ele><time>2026-04-11T13:28:11.539Z</time></trkpt><trkpt lat="46.0283133" lon="11.9076907"><ele>287.0</ele><time>2026-04-11T13:28:13.539Z</time></trkpt><trkpt lat="46.028344" lon="11.9075941"><ele>287.0</ele><time>2026-04-11T13:28:15.534Z</time></trkpt><trkpt lat="46.0283779" lon="11.9075027"><ele>287.0</ele><time>2026-04-11T13:28:17.534Z</time></trkpt><trkpt lat="46.0283974" lon="11.9073921"><ele>287.0</ele><time>2026-04-11T13:28:19.537Z</time></trkpt><trkpt lat="46.0284134" lon="11.9072801"><ele>287.0</ele><time>2026-04-11T13:28:21.538Z</time></trkpt><trkpt lat="46.0284307" lon="11.9071729"><ele>287.0</ele><time>2026-04-11T13:28:23.537Z</time></trkpt><trkpt lat="46.0284488" lon="11.9070709"><ele>286.85714285714283</ele><time>2026-04-11T13:28:25.539Z</time></trkpt><trkpt lat="46.0284628" lon="11.9069764"><ele>286.7142857142857</ele><time>2026-04-11T13:28:27.538Z</time></trkpt><trkpt lat="46.0284679" lon="11.9068804"><ele>286.57142857142856</ele><time>2026-04-11T13:28:29.535Z</time></trkpt><trkpt lat="46.0284679" lon="11.90678"><ele>286.42857142857144</ele><time>2026-04-11T13:28:31.538Z</time></trkpt><trkpt lat="46.0284642" lon="11.9066735"><ele>286.2857142857143</ele><time>2026-04-11T13:28:33.538Z</time></trkpt><trkpt lat="46.0284659" lon="11.9065651"><ele>286.1428571428571</ele><time>2026-04-11T13:28:35.538Z</time></trkpt><trkpt lat="46.0284699" lon="11.9064604"><ele>286.0</ele><time>2026-04-11T13:28:37.537Z</time></trkpt><trkpt lat="46.0284805" lon="11.9063546"><ele>286.0</ele><time>2026-04-11T13:28:39.538Z</time></trkpt><trkpt lat="46.0284989" lon="11.9062492"><ele>286.0</ele><time>2026-04-11T13:28:41.539Z</time></trkpt><trkpt lat="46.02852" lon="11.9061471"><ele>286.0</ele><time>2026-04-11T13:28:43.539Z</time></trkpt><trkpt lat="46.0285521" lon="11.9060488"><ele>286.0</ele><time>2026-04-11T13:28:45.538Z</time></trkpt><trkpt lat="46.028584" lon="11.9059426"><ele>286.0</ele><time>2026-04-11T13:28:47.536Z</time></trkpt><trkpt lat="46.028609" lon="11.9058353"><ele>286.0</ele><time>2026-04-11T13:28:49.539Z</time></trkpt><trkpt lat="46.0286325" lon="11.9057328"><ele>286.16666666666663</ele><time>2026-04-11T13:28:51.539Z</time></trkpt><trkpt lat="46.028658" lon="11.9056359"><ele>286.3333333333333</ele><time>2026-04-11T13:28:53.538Z</time></trkpt><trkpt lat="46.0286814" lon="11.9055359"><ele>286.5</ele><time>2026-04-11T13:28:55.539Z</time></trkpt><trkpt lat="46.0287019" lon="11.9054267"><ele>286.6666666666667</ele><time>2026-04-11T13:28:57.539Z</time></trkpt><trkpt lat="46.0287254" lon="11.9053139"><ele>286.83333333333337</ele><time>2026-04-11T13:28:59.534Z</time></trkpt><trkpt lat="46.0287459" lon="11.9051929"><ele>287.0</ele><time>2026-04-11T13:29:01.539Z</time></trkpt><trkpt lat="46.0287611" lon="11.9050655"><ele>286.6666666666667</ele><time>2026-04-11T13:29:03.536Z</time></trkpt><trkpt lat="46.0287756" lon="11.9049413"><ele>286.33333333333337</ele><time>2026-04-11T13:29:05.538Z</time></trkpt><trkpt lat="46.0287778" lon="11.90483"><ele>286.0</ele><time>2026-04-11T13:29:07.537Z</time></trkpt><trkpt lat="46.0287464" lon="11.9047348"><ele>285.6666666666667</ele><time>2026-04-11T13:29:09.539Z</time></trkpt><trkpt lat="46.0287002" lon="11.9046422"><ele>285.3333333333333</ele><time>2026-04-11T13:29:11.538Z</time></trkpt><trkpt lat="46.0286566" lon="11.9045261"><ele>285.0</ele><time>2026-04-11T13:29:13.539Z</time></trkpt><trkpt lat="46.0285851" lon="11.9044292"><ele>285.0</ele><time>2026-04-11T13:29:15.539Z</time></trkpt><trkpt lat="46.0284894" lon="11.9044032"><ele>285.0</ele><time>2026-04-11T13:29:17.539Z</time></trkpt><trkpt lat="46.0283945" lon="11.9044048"><ele>285.0</ele><time>2026-04-11T13:29:19.538Z</time></trkpt><trkpt lat="46.0282962" lon="11.9044272"><ele>285.0</ele><time>2026-04-11T13:29:21.539Z</time></trkpt><trkpt lat="46.0282083" lon="11.9044483"><ele>285.0</ele><time>2026-04-11T13:29:23.538Z</time></trkpt><trkpt lat="46.0281257" lon="11.9044593"><ele>284.6666666666667</ele><time>2026-04-11T13:29:25.537Z</time></trkpt><trkpt lat="46.028046" lon="11.90445"><ele>284.3333333333333</ele><time>2026-04-11T13:29:27.537Z</time></trkpt><trkpt lat="46.0279713" lon="11.9044184"><ele>284.0</ele><time>2026-04-11T13:29:29.539Z</time></trkpt><trkpt lat="46.0278921" lon="11.9043978"><ele>283.66666666666663</ele><time>2026-04-11T13:29:31.535Z</time></trkpt><trkpt lat="46.0278053" lon="11.9043909"><ele>283.3333333333333</ele><time>2026-04-11T13:29:33.537Z</time></trkpt><trkpt lat="46.0277196" lon="11.9043946"><ele>283.0</ele><time>2026-04-11T13:29:35.535Z</time></trkpt><trkpt lat="46.0276391" lon="11.9044043"><ele>283.0</ele><time>2026-04-11T13:29:37.539Z</time></trkpt><trkpt lat="46.0275608" lon="11.9044284"><ele>283.0</ele><time>2026-04-11T13:29:39.537Z</time></trkpt><trkpt lat="46.0274827" lon="11.9044553"><ele>283.0</ele><time>2026-04-11T13:29:41.539Z</time></trkpt><trkpt lat="46.027404" lon="11.9044767"><ele>283.0</ele><time>2026-04-11T13:29:43.539Z</time></trkpt><trkpt lat="46.0273222" lon="11.9044752"><ele>283.0</ele><time>2026-04-11T13:29:45.539Z</time></trkpt><trkpt lat="46.0272402" lon="11.9044491"><ele>283.0</ele><time>2026-04-11T13:29:47.535Z</time></trkpt><trkpt lat="46.0271568" lon="11.9044339"><ele>283.0</ele><time>2026-04-11T13:29:49.537Z</time></trkpt><trkpt lat="46.0270752" lon="11.9044186"><ele>283.0</ele><time>2026-04-11T13:29:51.539Z</time></trkpt><trkpt lat="46.0269932" lon="11.9044001"><ele>283.0</ele><time>2026-04-11T13:29:53.539Z</time></trkpt><trkpt lat="46.0269126" lon="11.9043824"><ele>283.0</ele><time>2026-04-11T13:29:55.539Z</time></trkpt><trkpt lat="46.0268326" lon="11.9043697"><ele>283.0</ele><time>2026-04-11T13:29:57.538Z</time></trkpt><trkpt lat="46.0267555" lon="11.9043433"><ele>283.0</ele><time>2026-04-11T13:29:59.539Z</time></trkpt><trkpt lat="46.0266844" lon="11.9043113"><ele>282.7142857142857</ele><time>2026-04-11T13:30:01.538Z</time></trkpt><trkpt lat="46.026627" lon="11.9042626"><ele>282.42857142857144</ele><time>2026-04-11T13:30:03.54Z</time></trkpt><trkpt lat="46.026584" lon="11.904184"><ele>282.14285714285717</ele><time>2026-04-11T13:30:05.539Z</time></trkpt><trkpt lat="46.0265558" lon="11.9040965"><ele>281.8571428571429</ele><time>2026-04-11T13:30:07.538Z</time></trkpt><trkpt lat="46.026513" lon="11.9040285"><ele>281.57142857142856</ele><time>2026-04-11T13:30:09.539Z</time></trkpt><trkpt lat="46.0264505" lon="11.9040121"><ele>281.28571428571433</ele><time>2026-04-11T13:30:11.539Z</time></trkpt><trkpt lat="46.0263832" lon="11.9040426"><ele>281.0</ele><time>2026-04-11T13:30:13.539Z</time></trkpt><trkpt lat="46.0263222" lon="11.9040975"><ele>281.00000000000006</ele><time>2026-04-11T13:30:15.538Z</time></trkpt><trkpt lat="46.0262653" lon="11.9041601"><ele>281.0</ele><time>2026-04-11T13:30:17.537Z</time></trkpt><trkpt lat="46.0262059" lon="11.904223"><ele>281.0</ele><time>2026-04-11T13:30:19.537Z</time></trkpt><trkpt lat="46.0261402" lon="11.9042488"><ele>281.0</ele><time>2026-04-11T13:30:21.539Z</time></trkpt><trkpt lat="46.0260787" lon="11.9042089"><ele>281.0</ele><time>2026-04-11T13:30:23.535Z</time></trkpt><trkpt lat="46.026016" lon="11.9041451"><ele>281.00000000000006</ele><time>2026-04-11T13:30:25.537Z</time></trkpt><trkpt lat="46.0259494" lon="11.9040862"><ele>281.0</ele><time>2026-04-11T13:30:27.537Z</time></trkpt><trkpt lat="46.0258877" lon="11.9040223"><ele>281.0</ele><time>2026-04-11T13:30:29.538Z</time></trkpt><trkpt lat="46.025826" lon="11.9039562"><ele>281.0</ele><time>2026-04-11T13:30:31.538Z</time></trkpt><trkpt lat="46.025765" lon="11.9038896"><ele>281.0</ele><time>2026-04-11T13:30:33.537Z</time></trkpt><trkpt lat="46.025703" lon="11.9038292"><ele>281.0</ele><time>2026-04-11T13:30:35.539Z</time></trkpt><trkpt lat="46.025637" lon="11.9037772"><ele>281.0</ele><time>2026-04-11T13:30:37.538Z</time></trkpt><trkpt lat="46.0255673" lon="11.9037388"><ele>281.0</ele><time>2026-04-11T13:30:39.538Z</time></trkpt><trkpt lat="46.0254933" lon="11.9037312"><ele>281.1666666666667</ele><time>2026-04-11T13:30:41.538Z</time></trkpt><trkpt lat="46.0254202" lon="11.9037289"><ele>281.33333333333337</ele><time>2026-04-11T13:30:43.538Z</time></trkpt><trkpt lat="46.0253542" lon="11.9036254"><ele>281.5</ele><time>2026-04-11T13:30:46.538Z</time></trkpt><trkpt lat="46.0253361" lon="11.9035084"><ele>281.6666666666667</ele><time>2026-04-11T13:30:48.536Z</time></trkpt><trkpt lat="46.0253213" lon="11.903394"><ele>281.8333333333333</ele><time>2026-04-11T13:30:50.538Z</time></trkpt><trkpt lat="46.0253109" lon="11.9032812"><ele>282.0</ele><time>2026-04-11T13:30:52.537Z</time></trkpt><trkpt lat="46.0253032" lon="11.9031721"><ele>282.14285714285717</ele><time>2026-04-11T13:30:54.539Z</time></trkpt><trkpt lat="46.0252902" lon="11.9030639"><ele>282.2857142857143</ele><time>2026-04-11T13:30:56.539Z</time></trkpt><trkpt lat="46.0252791" lon="11.9029585"><ele>282.42857142857144</ele><time>2026-04-11T13:30:58.537Z</time></trkpt><trkpt lat="46.0252617" lon="11.902858"><ele>282.57142857142856</ele><time>2026-04-11T13:31:00.538Z</time></trkpt><trkpt lat="46.0252336" lon="11.9027653"><ele>282.7142857142857</ele><time>2026-04-11T13:31:02.536Z</time></trkpt><trkpt lat="46.0251955" lon="11.9026697"><ele>282.8571428571429</ele><time>2026-04-11T13:31:04.539Z</time></trkpt><trkpt lat="46.0251737" lon="11.9025593"><ele>283.0</ele><time>2026-04-11T13:31:06.539Z</time></trkpt><trkpt lat="46.0251602" lon="11.9024462"><ele>283.16666666666663</ele><time>2026-04-11T13:31:08.54Z</time></trkpt><trkpt lat="46.025146" lon="11.9023343"><ele>283.3333333333333</ele><time>2026-04-11T13:31:10.538Z</time></trkpt><trkpt lat="46.0251316" lon="11.9022236"><ele>283.5</ele><time>2026-04-11T13:31:12.537Z</time></trkpt><trkpt lat="46.0251176" lon="11.9021162"><ele>283.6666666666667</ele><time>2026-04-11T13:31:14.539Z</time></trkpt><trkpt lat="46.0251062" lon="11.9020215"><ele>283.83333333333337</ele><time>2026-04-11T13:31:16.539Z</time></trkpt><trkpt lat="46.0251016" lon="11.9019249"><ele>284.0</ele><time>2026-04-11T13:31:20.539Z</time></trkpt><trkpt lat="46.0250951" lon="11.9018051"><ele>284.0</ele><time>2026-04-11T13:31:23.539Z</time></trkpt><trkpt lat="46.025078" lon="11.901702"><ele>284.0</ele><time>2026-04-11T13:31:25.538Z</time></trkpt><trkpt lat="46.0250607" lon="11.9015915"><ele>284.0</ele><time>2026-04-11T13:31:27.538Z</time></trkpt><trkpt lat="46.0250485" lon="11.9014718"><ele>284.0</ele><time>2026-04-11T13:31:29.538Z</time></trkpt><trkpt lat="46.0250356" lon="11.9013493"><ele>284.0</ele><time>2026-04-11T13:31:31.537Z</time></trkpt><trkpt lat="46.0250185" lon="11.9012306"><ele>284.0</ele><time>2026-04-11T13:31:33.538Z</time></trkpt><trkpt lat="46.0250011" lon="11.9011181"><ele>284.0</ele><time>2026-04-11T13:31:35.537Z</time></trkpt><trkpt lat="46.0249823" lon="11.9010062"><ele>284.0</ele><time>2026-04-11T13:31:37.538Z</time></trkpt><trkpt lat="46.0249579" lon="11.9009007"><ele>284.0</ele><time>2026-04-11T13:31:39.537Z</time></trkpt><trkpt lat="46.0249323" lon="11.9007982"><ele>284.0</ele><time>2026-04-11T13:31:41.537Z</time></trkpt><trkpt lat="46.0249042" lon="11.9006989"><ele>284.0</ele><time>2026-04-11T13:31:43.538Z</time></trkpt><trkpt lat="46.0248779" lon="11.9006027"><ele>284.0</ele><time>2026-04-11T13:31:45.538Z</time></trkpt><trkpt lat="46.0248568" lon="11.9005056"><ele>283.83333333333337</ele><time>2026-04-11T13:31:47.539Z</time></trkpt><trkpt lat="46.0248408" lon="11.9004047"><ele>283.6666666666667</ele><time>2026-04-11T13:31:49.539Z</time></trkpt><trkpt lat="46.0248233" lon="11.9003017"><ele>283.5</ele><time>2026-04-11T13:31:51.535Z</time></trkpt><trkpt lat="46.0248015" lon="11.9001952"><ele>283.3333333333333</ele><time>2026-04-11T13:31:53.539Z</time></trkpt><trkpt lat="46.0247782" lon="11.9000894"><ele>283.16666666666663</ele><time>2026-04-11T13:31:55.539Z</time></trkpt><trkpt lat="46.0247525" lon="11.8999795"><ele>283.0</ele><time>2026-04-11T13:31:57.539Z</time></trkpt><trkpt lat="46.0247236" lon="11.8998706"><ele>283.0</ele><time>2026-04-11T13:31:59.538Z</time></trkpt><trkpt lat="46.0246982" lon="11.8997573"><ele>283.0</ele><time>2026-04-11T13:32:01.54Z</time></trkpt><trkpt lat="46.0246715" lon="11.8996444"><ele>283.0</ele><time>2026-04-11T13:32:03.54Z</time></trkpt><trkpt lat="46.0246412" lon="11.8995366"><ele>283.0</ele><time>2026-04-11T13:32:05.539Z</time></trkpt><trkpt lat="46.02461" lon="11.8994274"><ele>283.0</ele><time>2026-04-11T13:32:07.541Z</time></trkpt><trkpt lat="46.0245812" lon="11.8993169"><ele>283.0</ele><time>2026-04-11T13:32:09.537Z</time></trkpt><trkpt lat="46.0245496" lon="11.8992091"><ele>283.0</ele><time>2026-04-11T13:32:11.539Z</time></trkpt><trkpt lat="46.0245263" lon="11.8990981"><ele>283.0</ele><time>2026-04-11T13:32:13.537Z</time></trkpt><trkpt lat="46.0245018" lon="11.8989916"><ele>283.0</ele><time>2026-04-11T13:32:15.538Z</time></trkpt><trkpt lat="46.0244624" lon="11.8988823"><ele>283.0</ele><time>2026-04-11T13:32:17.539Z</time></trkpt><trkpt lat="46.0244216" lon="11.8987748"><ele>283.0</ele><time>2026-04-11T13:32:19.539Z</time></trkpt><trkpt lat="46.0243861" lon="11.8986987"><ele>283.0</ele><time>2026-04-11T13:32:21.537Z</time></trkpt><trkpt lat="46.024398" lon="11.8986032"><ele>283.0</ele><time>2026-04-11T13:32:26.538Z</time></trkpt><trkpt lat="46.0243208" lon="11.8986157"><ele>283.0</ele><time>2026-04-11T13:32:30.539Z</time></trkpt><trkpt lat="46.024243" lon="11.8986358"><ele>283.0</ele><time>2026-04-11T13:32:32.539Z</time></trkpt><trkpt lat="46.0241547" lon="11.8986206"><ele>283.0</ele><time>2026-04-11T13:32:34.538Z</time></trkpt><trkpt lat="46.0240767" lon="11.8986109"><ele>283.0</ele><time>2026-04-11T13:32:36.54Z</time></trkpt><trkpt lat="46.0240072" lon="11.8985765"><ele>283.0</ele><time>2026-04-11T13:32:38.539Z</time></trkpt><trkpt lat="46.0239597" lon="11.8985104"><ele>283.0</ele><time>2026-04-11T13:32:40.538Z</time></trkpt><trkpt lat="46.0239265" lon="11.8984122"><ele>283.0</ele><time>2026-04-11T13:32:42.539Z</time></trkpt><trkpt lat="46.0238982" lon="11.8983135"><ele>283.0</ele><time>2026-04-11T13:32:44.537Z</time></trkpt><trkpt lat="46.023875" lon="11.8981958"><ele>283.0</ele><time>2026-04-11T13:32:46.539Z</time></trkpt><trkpt lat="46.0238704" lon="11.8980867"><ele>283.0</ele><time>2026-04-11T13:32:48.537Z</time></trkpt><trkpt lat="46.0238786" lon="11.8979836"><ele>283.0</ele><time>2026-04-11T13:32:50.537Z</time></trkpt><trkpt lat="46.0238865" lon="11.897882"><ele>283.0</ele><time>2026-04-11T13:32:52.535Z</time></trkpt><trkpt lat="46.0239067" lon="11.8977889"><ele>283.0</ele><time>2026-04-11T13:32:54.538Z</time></trkpt><trkpt lat="46.0239439" lon="11.8977115"><ele>283.0</ele><time>2026-04-11T13:32:56.539Z</time></trkpt><trkpt lat="46.023976" lon="11.8975861"><ele>283.0</ele><time>2026-04-11T13:32:59.536Z</time></trkpt><trkpt lat="46.0239688" lon="11.8974895"><ele>283.0</ele><time>2026-04-11T13:33:01.539Z</time></trkpt><trkpt lat="46.0239628" lon="11.89739"><ele>283.0</ele><time>2026-04-11T13:33:03.537Z</time></trkpt><trkpt lat="46.0239541" lon="11.8972896"><ele>283.0</ele><time>2026-04-11T13:33:05.54Z</time></trkpt><trkpt lat="46.0239348" lon="11.8971997"><ele>283.0</ele><time>2026-04-11T13:33:07.539Z</time></trkpt><trkpt lat="46.0238806" lon="11.8971376"><ele>283.0</ele><time>2026-04-11T13:33:13.538Z</time></trkpt><trkpt lat="46.0238252" lon="11.8972175"><ele>283.0</ele><time>2026-04-11T13:33:17.534Z</time></trkpt><trkpt lat="46.0237556" lon="11.8971925"><ele>283.0</ele><time>2026-04-11T13:33:22.534Z</time></trkpt><trkpt lat="46.0236828" lon="11.8970965"><ele>283.0</ele><time>2026-04-11T13:33:25.535Z</time></trkpt><trkpt lat="46.0236328" lon="11.8970134"><ele>283.0</ele><time>2026-04-11T13:33:27.535Z</time></trkpt><trkpt lat="46.0235884" lon="11.8969318"><ele>283.0</ele><time>2026-04-11T13:33:29.538Z</time></trkpt><trkpt lat="46.0235562" lon="11.8968524"><ele>283.0</ele><time>2026-04-11T13:33:31.539Z</time></trkpt><trkpt lat="46.0235373" lon="11.8967443"><ele>283.0</ele><time>2026-04-11T13:33:33.539Z</time></trkpt><trkpt lat="46.0235188" lon="11.896626"><ele>283.0</ele><time>2026-04-11T13:33:35.538Z</time></trkpt><trkpt lat="46.0234968" lon="11.8965106"><ele>283.0</ele><time>2026-04-11T13:33:37.539Z</time></trkpt><trkpt lat="46.0234796" lon="11.8963971"><ele>283.0</ele><time>2026-04-11T13:33:39.539Z</time></trkpt><trkpt lat="46.0234643" lon="11.8962823"><ele>283.0</ele><time>2026-04-11T13:33:41.539Z</time></trkpt><trkpt lat="46.0234453" lon="11.8961671"><ele>283.0</ele><time>2026-04-11T13:33:43.539Z</time></trkpt><trkpt lat="46.0234221" lon="11.8960574"><ele>283.0</ele><time>2026-04-11T13:33:45.536Z</time></trkpt><trkpt lat="46.0233996" lon="11.8959573"><ele>283.0</ele><time>2026-04-11T13:33:47.537Z</time></trkpt><trkpt lat="46.0233737" lon="11.8958542"><ele>283.0</ele><time>2026-04-11T13:33:49.537Z</time></trkpt><trkpt lat="46.0233486" lon="11.8957424"><ele>283.0</ele><time>2026-04-11T13:33:51.535Z</time></trkpt><trkpt lat="46.0233201" lon="11.8956315"><ele>282.8333333333333</ele><time>2026-04-11T13:33:53.536Z</time></trkpt><trkpt lat="46.023301" lon="11.89552"><ele>282.66666666666663</ele><time>2026-04-11T13:33:55.539Z</time></trkpt><trkpt lat="46.0232805" lon="11.895405"><ele>282.5</ele><time>2026-04-11T13:33:57.539Z</time></trkpt><trkpt lat="46.0232667" lon="11.8952851"><ele>282.3333333333333</ele><time>2026-04-11T13:33:59.539Z</time></trkpt><trkpt lat="46.0232532" lon="11.8951651"><ele>282.1666666666667</ele><time>2026-04-11T13:34:01.538Z</time></trkpt><trkpt lat="46.0232386" lon="11.8950451"><ele>282.0</ele><time>2026-04-11T13:34:03.538Z</time></trkpt><trkpt lat="46.0232142" lon="11.894925"><ele>282.0</ele><time>2026-04-11T13:34:05.538Z</time></trkpt><trkpt lat="46.0231935" lon="11.8948078"><ele>282.0</ele><time>2026-04-11T13:34:07.539Z</time></trkpt><trkpt lat="46.0231724" lon="11.8946856"><ele>282.0</ele><time>2026-04-11T13:34:09.539Z</time></trkpt><trkpt lat="46.0231499" lon="11.8945623"><ele>282.0</ele><time>2026-04-11T13:34:11.539Z</time></trkpt><trkpt lat="46.0231271" lon="11.8944436"><ele>282.0</ele><time>2026-04-11T13:34:13.539Z</time></trkpt><trkpt lat="46.0231093" lon="11.8943302"><ele>282.0</ele><time>2026-04-11T13:34:15.538Z</time></trkpt><trkpt lat="46.0230906" lon="11.8942164"><ele>281.6666666666667</ele><time>2026-04-11T13:34:17.537Z</time></trkpt><trkpt lat="46.0230736" lon="11.8941016"><ele>281.3333333333333</ele><time>2026-04-11T13:34:19.539Z</time></trkpt><trkpt lat="46.0230567" lon="11.8939838"><ele>281.0</ele><time>2026-04-11T13:34:21.538Z</time></trkpt><trkpt lat="46.0230406" lon="11.8938627"><ele>280.66666666666663</ele><time>2026-04-11T13:34:23.539Z</time></trkpt><trkpt lat="46.0230263" lon="11.8937393"><ele>280.3333333333333</ele><time>2026-04-11T13:34:25.538Z</time></trkpt><trkpt lat="46.0230095" lon="11.8936187"><ele>280.0</ele><time>2026-04-11T13:34:27.538Z</time></trkpt><trkpt lat="46.0229965" lon="11.8934953"><ele>279.8333333333333</ele><time>2026-04-11T13:34:29.538Z</time></trkpt><trkpt lat="46.0229859" lon="11.8933779"><ele>279.66666666666663</ele><time>2026-04-11T13:34:31.539Z</time></trkpt><trkpt lat="46.0229752" lon="11.8932603"><ele>279.5</ele><time>2026-04-11T13:34:33.539Z</time></trkpt><trkpt lat="46.0229669" lon="11.8931439"><ele>279.3333333333333</ele><time>2026-04-11T13:34:35.54Z</time></trkpt><trkpt lat="46.022962" lon="11.8930283"><ele>279.1666666666667</ele><time>2026-04-11T13:34:37.538Z</time></trkpt><trkpt lat="46.0229532" lon="11.8929144"><ele>279.0</ele><time>2026-04-11T13:34:39.538Z</time></trkpt><trkpt lat="46.0229483" lon="11.8927987"><ele>278.99999999999994</ele><time>2026-04-11T13:34:41.538Z</time></trkpt><trkpt lat="46.0229465" lon="11.8926846"><ele>279.0</ele><time>2026-04-11T13:34:43.535Z</time></trkpt><trkpt lat="46.0229432" lon="11.8925749"><ele>279.0</ele><time>2026-04-11T13:34:45.538Z</time></trkpt><trkpt lat="46.0229467" lon="11.8924667"><ele>279.0</ele><time>2026-04-11T13:34:47.538Z</time></trkpt><trkpt lat="46.0229439" lon="11.8923713"><ele>279.0</ele><time>2026-04-11T13:34:49.537Z</time></trkpt><trkpt lat="46.0229414" lon="11.8922749"><ele>278.99999999999994</ele><time>2026-04-11T13:34:51.537Z</time></trkpt><trkpt lat="46.022932" lon="11.8921717"><ele>279.0</ele><time>2026-04-11T13:34:53.537Z</time></trkpt><trkpt lat="46.0229174" lon="11.8920606"><ele>279.1666666666667</ele><time>2026-04-11T13:34:55.539Z</time></trkpt><trkpt lat="46.0229029" lon="11.8919417"><ele>279.3333333333333</ele><time>2026-04-11T13:34:57.538Z</time></trkpt><trkpt lat="46.0228871" lon="11.8918198"><ele>279.5</ele><time>2026-04-11T13:34:59.536Z</time></trkpt><trkpt lat="46.0228711" lon="11.8917003"><ele>279.66666666666663</ele><time>2026-04-11T13:35:01.539Z</time></trkpt><trkpt lat="46.0228573" lon="11.8915772"><ele>279.8333333333333</ele><time>2026-04-11T13:35:03.538Z</time></trkpt><trkpt lat="46.0228437" lon="11.8914542"><ele>280.0</ele><time>2026-04-11T13:35:05.539Z</time></trkpt><trkpt lat="46.0228337" lon="11.891336"><ele>280.0</ele><time>2026-04-11T13:35:07.539Z</time></trkpt><trkpt lat="46.0228256" lon="11.8912157"><ele>280.0</ele><time>2026-04-11T13:35:09.536Z</time></trkpt><trkpt lat="46.0228208" lon="11.8910963"><ele>280.0</ele><time>2026-04-11T13:35:11.537Z</time></trkpt><trkpt lat="46.0228185" lon="11.8909764"><ele>280.0</ele><time>2026-04-11T13:35:13.537Z</time></trkpt><trkpt lat="46.0228187" lon="11.8908575"><ele>280.0</ele><time>2026-04-11T13:35:15.539Z</time></trkpt><trkpt lat="46.0228162" lon="11.8907367"><ele>280.0</ele><time>2026-04-11T13:35:17.538Z</time></trkpt><trkpt lat="46.0228155" lon="11.8906099"><ele>279.8333333333333</ele><time>2026-04-11T13:35:19.539Z</time></trkpt><trkpt lat="46.0228152" lon="11.8904841"><ele>279.66666666666663</ele><time>2026-04-11T13:35:21.537Z</time></trkpt><trkpt lat="46.0228183" lon="11.8903617"><ele>279.5</ele><time>2026-04-11T13:35:23.537Z</time></trkpt><trkpt lat="46.0228214" lon="11.8902388"><ele>279.3333333333333</ele><time>2026-04-11T13:35:25.539Z</time></trkpt><trkpt lat="46.0228238" lon="11.890115"><ele>279.1666666666667</ele><time>2026-04-11T13:35:27.539Z</time></trkpt><trkpt lat="46.0228262" lon="11.8899881"><ele>279.0</ele><time>2026-04-11T13:35:29.539Z</time></trkpt><trkpt lat="46.0228271" lon="11.8898619"><ele>279.0</ele><time>2026-04-11T13:35:31.537Z</time></trkpt><trkpt lat="46.0228217" lon="11.8897358"><ele>279.0</ele><time>2026-04-11T13:35:33.54Z</time></trkpt><trkpt lat="46.0228209" lon="11.8896111"><ele>279.0</ele><time>2026-04-11T13:35:35.538Z</time></trkpt><trkpt lat="46.0228207" lon="11.8894872"><ele>279.0</ele><time>2026-04-11T13:35:37.537Z</time></trkpt><trkpt lat="46.0228201" lon="11.8893596"><ele>279.0</ele><time>2026-04-11T13:35:39.536Z</time></trkpt><trkpt lat="46.0228184" lon="11.8892293"><ele>279.0</ele><time>2026-04-11T13:35:41.537Z</time></trkpt><trkpt lat="46.0228101" lon="11.8891011"><ele>279.2</ele><time>2026-04-11T13:35:43.538Z</time></trkpt><trkpt lat="46.0227927" lon="11.8889756"><ele>279.4</ele><time>2026-04-11T13:35:45.536Z</time></trkpt><trkpt lat="46.0227527" lon="11.8888555"><ele>279.6</ele><time>2026-04-11T13:35:47.539Z</time></trkpt><trkpt lat="46.0226991" lon="11.8887519"><ele>279.8</ele><time>2026-04-11T13:35:49.537Z</time></trkpt><trkpt lat="46.0226292" lon="11.8886615"><ele>280.0</ele><time>2026-04-11T13:35:51.539Z</time></trkpt><trkpt lat="46.0225549" lon="11.8885706"><ele>279.2</ele><time>2026-04-11T13:35:53.539Z</time></trkpt><trkpt lat="46.0224801" lon="11.8884731"><ele>278.4</ele><time>2026-04-11T13:35:55.536Z</time></trkpt><trkpt lat="46.0224071" lon="11.8883732"><ele>277.6</ele><time>2026-04-11T13:35:57.538Z</time></trkpt><trkpt lat="46.0223427" lon="11.8882588"><ele>276.8</ele><time>2026-04-11T13:35:59.537Z</time></trkpt><trkpt lat="46.0222843" lon="11.888137"><ele>276.0</ele><time>2026-04-11T13:36:01.538Z</time></trkpt><trkpt lat="46.0222261" lon="11.8880137"><ele>276.0</ele><time>2026-04-11T13:36:03.54Z</time></trkpt><trkpt lat="46.0221686" lon="11.8878863"><ele>276.0</ele><time>2026-04-11T13:36:05.537Z</time></trkpt><trkpt lat="46.022117" lon="11.8877503"><ele>276.0</ele><time>2026-04-11T13:36:07.537Z</time></trkpt><trkpt lat="46.022075" lon="11.8876094"><ele>276.0</ele><time>2026-04-11T13:36:09.538Z</time></trkpt><trkpt lat="46.0220287" lon="11.8874671"><ele>276.0</ele><time>2026-04-11T13:36:11.539Z</time></trkpt><trkpt lat="46.0219753" lon="11.8873246"><ele>276.0</ele><time>2026-04-11T13:36:13.539Z</time></trkpt><trkpt lat="46.0219145" lon="11.8871893"><ele>276.0</ele><time>2026-04-11T13:36:15.538Z</time></trkpt><trkpt lat="46.021843" lon="11.887065"><ele>276.0</ele><time>2026-04-11T13:36:17.539Z</time></trkpt><trkpt lat="46.0217629" lon="11.8869476"><ele>276.0</ele><time>2026-04-11T13:36:19.538Z</time></trkpt><trkpt lat="46.0216793" lon="11.8868281"><ele>275.40000000000003</ele><time>2026-04-11T13:36:21.538Z</time></trkpt><trkpt lat="46.0216036" lon="11.8867068"><ele>274.8</ele><time>2026-04-11T13:36:23.539Z</time></trkpt><trkpt lat="46.0215398" lon="11.8865753"><ele>274.20000000000005</ele><time>2026-04-11T13:36:25.536Z</time></trkpt><trkpt lat="46.0214995" lon="11.8864315"><ele>273.6</ele><time>2026-04-11T13:36:27.538Z</time></trkpt><trkpt lat="46.0214936" lon="11.886281"><ele>273.0</ele><time>2026-04-11T13:36:29.539Z</time></trkpt><trkpt lat="46.0215076" lon="11.8861332"><ele>273.0</ele><time>2026-04-11T13:36:31.538Z</time></trkpt><trkpt lat="46.021521" lon="11.8859875"><ele>273.0</ele><time>2026-04-11T13:36:33.537Z</time></trkpt><trkpt lat="46.0215434" lon="11.8858435"><ele>273.0</ele><time>2026-04-11T13:36:35.54Z</time></trkpt><trkpt lat="46.0215743" lon="11.8857016"><ele>273.0</ele><time>2026-04-11T13:36:37.538Z</time></trkpt><trkpt lat="46.0216166" lon="11.8855672"><ele>273.0</ele><time>2026-04-11T13:36:39.539Z</time></trkpt><trkpt lat="46.0216717" lon="11.8854407"><ele>273.0</ele><time>2026-04-11T13:36:41.538Z</time></trkpt><trkpt lat="46.0217373" lon="11.8853235"><ele>273.0</ele><time>2026-04-11T13:36:43.537Z</time></trkpt><trkpt lat="46.0218163" lon="11.8852201"><ele>273.0</ele><time>2026-04-11T13:36:45.538Z</time></trkpt><trkpt lat="46.0219066" lon="11.8851335"><ele>273.0</ele><time>2026-04-11T13:36:47.537Z</time></trkpt><trkpt lat="46.0220015" lon="11.8850642"><ele>273.0</ele><time>2026-04-11T13:36:49.538Z</time></trkpt><trkpt lat="46.0220971" lon="11.8850048"><ele>273.0</ele><time>2026-04-11T13:36:51.538Z</time></trkpt><trkpt lat="46.0221818" lon="11.8849258"><ele>273.0</ele><time>2026-04-11T13:36:53.539Z</time></trkpt><trkpt lat="46.0222508" lon="11.8848186"><ele>273.0</ele><time>2026-04-11T13:36:55.538Z</time></trkpt><trkpt lat="46.0222952" lon="11.884685"><ele>273.0</ele><time>2026-04-11T13:36:57.539Z</time></trkpt><trkpt lat="46.0223038" lon="11.8845342"><ele>273.0</ele><time>2026-04-11T13:36:59.538Z</time></trkpt><trkpt lat="46.0222922" lon="11.8843732"><ele>272.5</ele><time>2026-04-11T13:37:01.539Z</time></trkpt><trkpt lat="46.0222755" lon="11.8842117"><ele>272.0</ele><time>2026-04-11T13:37:03.536Z</time></trkpt><trkpt lat="46.0222604" lon="11.884053"><ele>271.5</ele><time>2026-04-11T13:37:05.539Z</time></trkpt><trkpt lat="46.022244" lon="11.8838933"><ele>271.0</ele><time>2026-04-11T13:37:07.539Z</time></trkpt><trkpt lat="46.022227" lon="11.8837314"><ele>271.0</ele><time>2026-04-11T13:37:09.537Z</time></trkpt><trkpt lat="46.0222105" lon="11.8835695"><ele>271.0</ele><time>2026-04-11T13:37:11.538Z</time></trkpt><trkpt lat="46.0221941" lon="11.8834068"><ele>271.0</ele><time>2026-04-11T13:37:13.538Z</time></trkpt><trkpt lat="46.0221762" lon="11.8832395"><ele>271.0</ele><time>2026-04-11T13:37:15.538Z</time></trkpt><trkpt lat="46.0221581" lon="11.8830734"><ele>271.0</ele><time>2026-04-11T13:37:17.539Z</time></trkpt><trkpt lat="46.0221405" lon="11.8829153"><ele>271.0</ele><time>2026-04-11T13:37:19.537Z</time></trkpt><trkpt lat="46.0221239" lon="11.8827608"><ele>271.0</ele><time>2026-04-11T13:37:21.538Z</time></trkpt><trkpt lat="46.0221087" lon="11.882607"><ele>271.0</ele><time>2026-04-11T13:37:23.539Z</time></trkpt><trkpt lat="46.0220941" lon="11.8824529"><ele>271.0</ele><time>2026-04-11T13:37:25.538Z</time></trkpt><trkpt lat="46.022081" lon="11.8822988"><ele>271.2</ele><time>2026-04-11T13:37:27.539Z</time></trkpt><trkpt lat="46.0220761" lon="11.8821465"><ele>271.40000000000003</ele><time>2026-04-11T13:37:29.539Z</time></trkpt><trkpt lat="46.022084" lon="11.8819936"><ele>271.6</ele><time>2026-04-11T13:37:31.539Z</time></trkpt><trkpt lat="46.0221069" lon="11.8818485"><ele>271.8</ele><time>2026-04-11T13:37:33.538Z</time></trkpt><trkpt lat="46.0221456" lon="11.8817131"><ele>272.0</ele><time>2026-04-11T13:37:35.538Z</time></trkpt><trkpt lat="46.0221858" lon="11.8815722"><ele>272.0</ele><time>2026-04-11T13:37:37.538Z</time></trkpt><trkpt lat="46.0222279" lon="11.8814287"><ele>272.0</ele><time>2026-04-11T13:37:39.539Z</time></trkpt><trkpt lat="46.0222687" lon="11.8812903"><ele>272.0</ele><time>2026-04-11T13:37:41.539Z</time></trkpt><trkpt lat="46.0222985" lon="11.8811516"><ele>272.0</ele><time>2026-04-11T13:37:43.539Z</time></trkpt><trkpt lat="46.0223181" lon="11.8810106"><ele>272.0</ele><time>2026-04-11T13:37:45.538Z</time></trkpt><trkpt lat="46.022328" lon="11.8808674"><ele>271.8</ele><time>2026-04-11T13:37:47.54Z</time></trkpt><trkpt lat="46.0223215" lon="11.8807215"><ele>271.6</ele><time>2026-04-11T13:37:49.539Z</time></trkpt><trkpt lat="46.0223054" lon="11.8805753"><ele>271.40000000000003</ele><time>2026-04-11T13:37:51.539Z</time></trkpt><trkpt lat="46.022292" lon="11.8804277"><ele>271.2</ele><time>2026-04-11T13:37:53.538Z</time></trkpt><trkpt lat="46.0222777" lon="11.880283"><ele>271.0</ele><time>2026-04-11T13:37:55.54Z</time></trkpt><trkpt lat="46.0222601" lon="11.8801398"><ele>271.2</ele><time>2026-04-11T13:37:57.54Z</time></trkpt><trkpt lat="46.0222494" lon="11.8799982"><ele>271.40000000000003</ele><time>2026-04-11T13:37:59.54Z</time></trkpt><trkpt lat="46.022237" lon="11.8798585"><ele>271.6</ele><time>2026-04-11T13:38:01.538Z</time></trkpt><trkpt lat="46.0222222" lon="11.879714"><ele>271.8</ele><time>2026-04-11T13:38:03.536Z</time></trkpt><trkpt lat="46.0221923" lon="11.8795655"><ele>272.0</ele><time>2026-04-11T13:38:05.54Z</time></trkpt><trkpt lat="46.0221611" lon="11.8794256"><ele>272.0</ele><time>2026-04-11T13:38:07.538Z</time></trkpt><trkpt lat="46.0221178" lon="11.8792969"><ele>272.0</ele><time>2026-04-11T13:38:09.537Z</time></trkpt><trkpt lat="46.0220575" lon="11.8791803"><ele>272.0</ele><time>2026-04-11T13:38:11.54Z</time></trkpt><trkpt lat="46.0219856" lon="11.8790752"><ele>272.0</ele><time>2026-04-11T13:38:13.537Z</time></trkpt><trkpt lat="46.0219082" lon="11.8789774"><ele>272.0</ele><time>2026-04-11T13:38:15.54Z</time></trkpt><trkpt lat="46.0218235" lon="11.8788858"><ele>272.0</ele><time>2026-04-11T13:38:17.538Z</time></trkpt><trkpt lat="46.021741" lon="11.8787916"><ele>272.0</ele><time>2026-04-11T13:38:19.54Z</time></trkpt><trkpt lat="46.0216643" lon="11.8786852"><ele>272.0</ele><time>2026-04-11T13:38:21.539Z</time></trkpt><trkpt lat="46.0215888" lon="11.8785824"><ele>272.0</ele><time>2026-04-11T13:38:23.54Z</time></trkpt><trkpt lat="46.0215086" lon="11.8784876"><ele>272.0</ele><time>2026-04-11T13:38:25.538Z</time></trkpt><trkpt lat="46.0214365" lon="11.8783813"><ele>272.4</ele><time>2026-04-11T13:38:27.539Z</time></trkpt><trkpt lat="46.0213633" lon="11.8782775"><ele>272.79999999999995</ele><time>2026-04-11T13:38:29.536Z</time></trkpt><trkpt lat="46.0212903" lon="11.8781768"><ele>273.2</ele><time>2026-04-11T13:38:31.54Z</time></trkpt><trkpt lat="46.021218" lon="11.8780763"><ele>273.59999999999997</ele><time>2026-04-11T13:38:33.54Z</time></trkpt><trkpt lat="46.0211435" lon="11.8779765"><ele>274.0</ele><time>2026-04-11T13:38:35.538Z</time></trkpt><trkpt lat="46.0210673" lon="11.8778751"><ele>274.0</ele><time>2026-04-11T13:38:37.539Z</time></trkpt><trkpt lat="46.0209923" lon="11.8777764"><ele>274.0</ele><time>2026-04-11T13:38:39.536Z</time></trkpt><trkpt lat="46.0209152" lon="11.8776809"><ele>274.0</ele><time>2026-04-11T13:38:41.54Z</time></trkpt><trkpt lat="46.0208408" lon="11.8775815"><ele>274.0</ele><time>2026-04-11T13:38:43.539Z</time></trkpt><trkpt lat="46.0207691" lon="11.8774803"><ele>274.0</ele><time>2026-04-11T13:38:45.539Z</time></trkpt><trkpt lat="46.0206989" lon="11.877383"><ele>274.2</ele><time>2026-04-11T13:38:47.537Z</time></trkpt><trkpt lat="46.0206275" lon="11.8772905"><ele>274.4</ele><time>2026-04-11T13:38:49.539Z</time></trkpt><trkpt lat="46.0205595" lon="11.8771984"><ele>274.6</ele><time>2026-04-11T13:38:51.538Z</time></trkpt><trkpt lat="46.0204908" lon="11.8771063"><ele>274.8</ele><time>2026-04-11T13:38:53.536Z</time></trkpt><trkpt lat="46.0204193" lon="11.8770163"><ele>275.0</ele><time>2026-04-11T13:38:55.539Z</time></trkpt><trkpt lat="46.0203407" lon="11.8769251"><ele>275.0</ele><time>2026-04-11T13:38:57.539Z</time></trkpt><trkpt lat="46.0202664" lon="11.8768264"><ele>275.0</ele><time>2026-04-11T13:38:59.538Z</time></trkpt><trkpt lat="46.0202035" lon="11.876717"><ele>275.0</ele><time>2026-04-11T13:39:01.54Z</time></trkpt><trkpt lat="46.020146" lon="11.8766052"><ele>275.0</ele><time>2026-04-11T13:39:03.539Z</time></trkpt><trkpt lat="46.0200958" lon="11.8764935"><ele>275.0</ele><time>2026-04-11T13:39:05.539Z</time></trkpt><trkpt lat="46.0200484" lon="11.8763829"><ele>275.0</ele><time>2026-04-11T13:39:07.538Z</time></trkpt><trkpt lat="46.0200022" lon="11.8762749"><ele>275.0</ele><time>2026-04-11T13:39:09.537Z</time></trkpt><trkpt lat="46.0199621" lon="11.8761613"><ele>275.0</ele><time>2026-04-11T13:39:11.539Z</time></trkpt><trkpt lat="46.0199326" lon="11.876047"><ele>275.0</ele><time>2026-04-11T13:39:13.54Z</time></trkpt><trkpt lat="46.0199051" lon="11.8759297"><ele>275.0</ele><time>2026-04-11T13:39:15.539Z</time></trkpt><trkpt lat="46.0198813" lon="11.875797"><ele>275.0</ele><time>2026-04-11T13:39:17.54Z</time></trkpt><trkpt lat="46.0198582" lon="11.8756505"><ele>275.0</ele><time>2026-04-11T13:39:19.538Z</time></trkpt><trkpt lat="46.0198329" lon="11.8755068"><ele>275.0</ele><time>2026-04-11T13:39:21.539Z</time></trkpt><trkpt lat="46.0198079" lon="11.8753576"><ele>275.0</ele><time>2026-04-11T13:39:23.539Z</time></trkpt><trkpt lat="46.0197806" lon="11.8752183"><ele>275.0</ele><time>2026-04-11T13:39:25.54Z</time></trkpt><trkpt lat="46.0197499" lon="11.8750845"><ele>275.0</ele><time>2026-04-11T13:39:27.537Z</time></trkpt><trkpt lat="46.0197229" lon="11.8749576"><ele>275.0</ele><time>2026-04-11T13:39:29.54Z</time></trkpt><trkpt lat="46.0196937" lon="11.8748344"><ele>275.0</ele><time>2026-04-11T13:39:31.54Z</time></trkpt><trkpt lat="46.0196563" lon="11.874709"><ele>275.0</ele><time>2026-04-11T13:39:33.539Z</time></trkpt><trkpt lat="46.0196112" lon="11.8745904"><ele>275.0</ele><time>2026-04-11T13:39:35.539Z</time></trkpt><trkpt lat="46.0195622" lon="11.8744703"><ele>275.0</ele><time>2026-04-11T13:39:37.539Z</time></trkpt><trkpt lat="46.0195176" lon="11.8743462"><ele>274.6</ele><time>2026-04-11T13:39:39.538Z</time></trkpt><trkpt lat="46.0194814" lon="11.8742211"><ele>274.2</ele><time>2026-04-11T13:39:41.538Z</time></trkpt><trkpt lat="46.0194463" lon="11.8740975"><ele>273.8</ele><time>2026-04-11T13:39:43.539Z</time></trkpt><trkpt lat="46.0194188" lon="11.8739721"><ele>273.4</ele><time>2026-04-11T13:39:45.536Z</time></trkpt><trkpt lat="46.0194157" lon="11.8738363"><ele>273.0</ele><time>2026-04-11T13:39:47.539Z</time></trkpt><trkpt lat="46.0194412" lon="11.8737062"><ele>273.0</ele><time>2026-04-11T13:39:49.54Z</time></trkpt><trkpt lat="46.0194815" lon="11.8735835"><ele>273.0</ele><time>2026-04-11T13:39:51.537Z</time></trkpt><trkpt lat="46.0195302" lon="11.8734671"><ele>273.0</ele><time>2026-04-11T13:39:53.538Z</time></trkpt><trkpt lat="46.0195775" lon="11.87335"><ele>273.0</ele><time>2026-04-11T13:39:55.538Z</time></trkpt><trkpt lat="46.0196197" lon="11.8732317"><ele>273.0</ele><time>2026-04-11T13:39:57.538Z</time></trkpt><trkpt lat="46.0196652" lon="11.8731087"><ele>273.4</ele><time>2026-04-11T13:39:59.537Z</time></trkpt><trkpt lat="46.019705" lon="11.8729808"><ele>273.8</ele><time>2026-04-11T13:40:01.538Z</time></trkpt><trkpt lat="46.0197422" lon="11.8728552"><ele>274.2</ele><time>2026-04-11T13:40:03.54Z</time></trkpt><trkpt lat="46.019781" lon="11.8727301"><ele>274.6</ele><time>2026-04-11T13:40:05.54Z</time></trkpt><trkpt lat="46.0198177" lon="11.8726066"><ele>275.0</ele><time>2026-04-11T13:40:07.54Z</time></trkpt><trkpt lat="46.0198562" lon="11.87248"><ele>275.0</ele><time>2026-04-11T13:40:09.538Z</time></trkpt><trkpt lat="46.0198883" lon="11.8723393"><ele>275.0</ele><time>2026-04-11T13:40:11.539Z</time></trkpt><trkpt lat="46.0199069" lon="11.8721964"><ele>275.0</ele><time>2026-04-11T13:40:13.537Z</time></trkpt><trkpt lat="46.019904" lon="11.8720528"><ele>275.0</ele><time>2026-04-11T13:40:15.537Z</time></trkpt><trkpt lat="46.0198824" lon="11.8719127"><ele>275.0</ele><time>2026-04-11T13:40:17.536Z</time></trkpt><trkpt lat="46.0198499" lon="11.8717779"><ele>275.2</ele><time>2026-04-11T13:40:19.539Z</time></trkpt><trkpt lat="46.0198056" lon="11.8716481"><ele>275.4</ele><time>2026-04-11T13:40:21.539Z</time></trkpt><trkpt lat="46.0197597" lon="11.8715175"><ele>275.6</ele><time>2026-04-11T13:40:23.54Z</time></trkpt><trkpt lat="46.019728" lon="11.87138"><ele>275.8</ele><time>2026-04-11T13:40:25.536Z</time></trkpt><trkpt lat="46.0197016" lon="11.8712397"><ele>276.0</ele><time>2026-04-11T13:40:27.538Z</time></trkpt><trkpt lat="46.0196762" lon="11.871097"><ele>276.0</ele><time>2026-04-11T13:40:29.54Z</time></trkpt><trkpt lat="46.0196489" lon="11.8709543"><ele>276.0</ele><time>2026-04-11T13:40:31.539Z</time></trkpt><trkpt lat="46.0196172" lon="11.8708126"><ele>276.0</ele><time>2026-04-11T13:40:33.54Z</time></trkpt><trkpt lat="46.0195866" lon="11.8706701"><ele>276.0</ele><time>2026-04-11T13:40:35.538Z</time></trkpt><trkpt lat="46.0195524" lon="11.8705304"><ele>276.0</ele><time>2026-04-11T13:40:37.541Z</time></trkpt><trkpt lat="46.0195128" lon="11.8703948"><ele>276.40000000000003</ele><time>2026-04-11T13:40:39.539Z</time></trkpt><trkpt lat="46.0194695" lon="11.8702635"><ele>276.8</ele><time>2026-04-11T13:40:41.539Z</time></trkpt><trkpt lat="46.0194258" lon="11.8701315"><ele>277.20000000000005</ele><time>2026-04-11T13:40:43.539Z</time></trkpt><trkpt lat="46.019381" lon="11.8700001"><ele>277.6</ele><time>2026-04-11T13:40:45.539Z</time></trkpt><trkpt lat="46.0193407" lon="11.8698689"><ele>278.0</ele><time>2026-04-11T13:40:47.537Z</time></trkpt><trkpt lat="46.0193" lon="11.8697375"><ele>278.2</ele><time>2026-04-11T13:40:49.539Z</time></trkpt><trkpt lat="46.019257" lon="11.8696043"><ele>278.4</ele><time>2026-04-11T13:40:51.539Z</time></trkpt><trkpt lat="46.0192115" lon="11.8694697"><ele>278.59999999999997</ele><time>2026-04-11T13:40:53.539Z</time></trkpt><trkpt lat="46.0191636" lon="11.8693395"><ele>278.8</ele><time>2026-04-11T13:40:55.538Z</time></trkpt><trkpt lat="46.0191094" lon="11.8692174"><ele>279.0</ele><time>2026-04-11T13:40:57.537Z</time></trkpt><trkpt lat="46.0190487" lon="11.8690981"><ele>279.4</ele><time>2026-04-11T13:40:59.538Z</time></trkpt><trkpt lat="46.0189785" lon="11.8689903"><ele>279.79999999999995</ele><time>2026-04-11T13:41:01.536Z</time></trkpt><trkpt lat="46.0188925" lon="11.8688944"><ele>280.20000000000005</ele><time>2026-04-11T13:41:03.536Z</time></trkpt><trkpt lat="46.0188081" lon="11.8688082"><ele>280.6</ele><time>2026-04-11T13:41:05.536Z</time></trkpt><trkpt lat="46.0187281" lon="11.8687251"><ele>281.0</ele><time>2026-04-11T13:41:07.537Z</time></trkpt><trkpt lat="46.0186556" lon="11.8686166"><ele>281.0</ele><time>2026-04-11T13:41:09.538Z</time></trkpt><trkpt lat="46.0185868" lon="11.8684991"><ele>281.0</ele><time>2026-04-11T13:41:11.539Z</time></trkpt><trkpt lat="46.0185267" lon="11.8683834"><ele>281.0</ele><time>2026-04-11T13:41:13.539Z</time></trkpt><trkpt lat="46.0184634" lon="11.8682732"><ele>281.0</ele><time>2026-04-11T13:41:15.539Z</time></trkpt><trkpt lat="46.0183866" lon="11.8681818"><ele>281.0</ele><time>2026-04-11T13:41:17.537Z</time></trkpt><trkpt lat="46.0183173" lon="11.8681188"><ele>281.1666666666667</ele><time>2026-04-11T13:41:19.536Z</time></trkpt><trkpt lat="46.0182382" lon="11.8680789"><ele>281.33333333333337</ele><time>2026-04-11T13:41:21.537Z</time></trkpt><trkpt lat="46.018168" lon="11.8680506"><ele>281.5</ele><time>2026-04-11T13:41:23.538Z</time></trkpt><trkpt lat="46.0181018" lon="11.868019"><ele>281.6666666666667</ele><time>2026-04-11T13:41:25.535Z</time></trkpt><trkpt lat="46.0180292" lon="11.8679259"><ele>281.8333333333333</ele><time>2026-04-11T13:41:27.534Z</time></trkpt><trkpt lat="46.0179558" lon="11.8678205"><ele>282.0</ele><time>2026-04-11T13:41:29.538Z</time></trkpt><trkpt lat="46.0178884" lon="11.8677191"><ele>282.0</ele><time>2026-04-11T13:41:31.539Z</time></trkpt><trkpt lat="46.0178292" lon="11.8676276"><ele>282.0</ele><time>2026-04-11T13:41:33.539Z</time></trkpt><trkpt lat="46.0177694" lon="11.8675576"><ele>282.0</ele><time>2026-04-11T13:41:35.538Z</time></trkpt><trkpt lat="46.017699" lon="11.8675559"><ele>282.0</ele><time>2026-04-11T13:41:37.536Z</time></trkpt><trkpt lat="46.0176433" lon="11.8676434"><ele>282.0</ele><time>2026-04-11T13:41:39.537Z</time></trkpt><trkpt lat="46.0176132" lon="11.8677686"><ele>282.0</ele><time>2026-04-11T13:41:41.538Z</time></trkpt><trkpt lat="46.0175871" lon="11.8678953"><ele>282.0</ele><time>2026-04-11T13:41:43.537Z</time></trkpt><trkpt lat="46.0175682" lon="11.8680176"><ele>282.0</ele><time>2026-04-11T13:41:45.539Z</time></trkpt><trkpt lat="46.0175391" lon="11.8681278"><ele>282.0</ele><time>2026-04-11T13:41:47.539Z</time></trkpt><trkpt lat="46.0174807" lon="11.8681826"><ele>282.0</ele><time>2026-04-11T13:41:49.539Z</time></trkpt><trkpt lat="46.0174003" lon="11.8681841"><ele>282.0</ele><time>2026-04-11T13:41:51.539Z</time></trkpt><trkpt lat="46.0173145" lon="11.868182"><ele>282.0</ele><time>2026-04-11T13:41:53.54Z</time></trkpt><trkpt lat="46.017224" lon="11.8681763"><ele>281.8</ele><time>2026-04-11T13:41:55.537Z</time></trkpt><trkpt lat="46.0171321" lon="11.8681712"><ele>281.6</ele><time>2026-04-11T13:41:57.537Z</time></trkpt><trkpt lat="46.0170336" lon="11.8681648"><ele>281.40000000000003</ele><time>2026-04-11T13:41:59.537Z</time></trkpt><trkpt lat="46.0169272" lon="11.8681618"><ele>281.2</ele><time>2026-04-11T13:42:01.537Z</time></trkpt><trkpt lat="46.0168273" lon="11.8681719"><ele>281.0</ele><time>2026-04-11T13:42:03.537Z</time></trkpt><trkpt lat="46.016726" lon="11.8681855"><ele>281.2</ele><time>2026-04-11T13:42:05.539Z</time></trkpt><trkpt lat="46.0166244" lon="11.8681951"><ele>281.40000000000003</ele><time>2026-04-11T13:42:07.539Z</time></trkpt><trkpt lat="46.0165196" lon="11.8682129"><ele>281.6</ele><time>2026-04-11T13:42:09.539Z</time></trkpt><trkpt lat="46.0164161" lon="11.8682283"><ele>281.8</ele><time>2026-04-11T13:42:11.539Z</time></trkpt><trkpt lat="46.016313" lon="11.8682573"><ele>282.0</ele><time>2026-04-11T13:42:13.54Z</time></trkpt><trkpt lat="46.0162156" lon="11.8682912"><ele>282.0</ele><time>2026-04-11T13:42:15.537Z</time></trkpt><trkpt lat="46.016119" lon="11.8683392"><ele>282.0</ele><time>2026-04-11T13:42:17.539Z</time></trkpt><trkpt lat="46.0160311" lon="11.8683947"><ele>282.0</ele><time>2026-04-11T13:42:19.537Z</time></trkpt><trkpt lat="46.0159468" lon="11.8684637"><ele>282.0</ele><time>2026-04-11T13:42:21.539Z</time></trkpt><trkpt lat="46.0158609" lon="11.8685342"><ele>282.0</ele><time>2026-04-11T13:42:23.54Z</time></trkpt><trkpt lat="46.0157759" lon="11.8686081"><ele>282.0</ele><time>2026-04-11T13:42:25.539Z</time></trkpt><trkpt lat="46.015689" lon="11.8686876"><ele>282.0</ele><time>2026-04-11T13:42:27.539Z</time></trkpt><trkpt lat="46.0156017" lon="11.8687722"><ele>282.0</ele><time>2026-04-11T13:42:29.54Z</time></trkpt><trkpt lat="46.015519" lon="11.8688609"><ele>282.0</ele><time>2026-04-11T13:42:31.539Z</time></trkpt><trkpt lat="46.0154326" lon="11.8689505"><ele>282.0</ele><time>2026-04-11T13:42:33.538Z</time></trkpt><trkpt lat="46.0153422" lon="11.8690304"><ele>282.0</ele><time>2026-04-11T13:42:35.537Z</time></trkpt><trkpt lat="46.0152519" lon="11.8691031"><ele>282.0</ele><time>2026-04-11T13:42:37.537Z</time></trkpt><trkpt lat="46.0151603" lon="11.8691796"><ele>282.0</ele><time>2026-04-11T13:42:39.536Z</time></trkpt><trkpt lat="46.0150677" lon="11.8692431"><ele>282.0</ele><time>2026-04-11T13:42:41.539Z</time></trkpt><trkpt lat="46.0149694" lon="11.8692808"><ele>282.0</ele><time>2026-04-11T13:42:43.534Z</time></trkpt><trkpt lat="46.0148633" lon="11.8692948"><ele>281.6</ele><time>2026-04-11T13:42:45.539Z</time></trkpt><trkpt lat="46.0147559" lon="11.8693169"><ele>281.2</ele><time>2026-04-11T13:42:47.539Z</time></trkpt><trkpt lat="46.0146538" lon="11.8693411"><ele>280.8</ele><time>2026-04-11T13:42:49.539Z</time></trkpt><trkpt lat="46.0145596" lon="11.8693694"><ele>280.4</ele><time>2026-04-11T13:42:51.539Z</time></trkpt><trkpt lat="46.0144685" lon="11.8694093"><ele>280.0</ele><time>2026-04-11T13:42:53.538Z</time></trkpt><trkpt lat="46.0143829" lon="11.869462"><ele>280.0</ele><time>2026-04-11T13:42:55.54Z</time></trkpt><trkpt lat="46.0142971" lon="11.8695237"><ele>280.0</ele><time>2026-04-11T13:42:57.537Z</time></trkpt><trkpt lat="46.0142099" lon="11.8695989"><ele>280.0</ele><time>2026-04-11T13:42:59.539Z</time></trkpt><trkpt lat="46.0141245" lon="11.8696763"><ele>280.0</ele><time>2026-04-11T13:43:01.539Z</time></trkpt><trkpt lat="46.0140406" lon="11.8697466"><ele>280.0</ele><time>2026-04-11T13:43:03.537Z</time></trkpt><trkpt lat="46.013958" lon="11.869811"><ele>280.4</ele><time>2026-04-11T13:43:05.539Z</time></trkpt><trkpt lat="46.0138707" lon="11.8698737"><ele>280.8</ele><time>2026-04-11T13:43:07.539Z</time></trkpt><trkpt lat="46.0137841" lon="11.8699386"><ele>281.2</ele><time>2026-04-11T13:43:09.539Z</time></trkpt><trkpt lat="46.0136972" lon="11.8699976"><ele>281.6</ele><time>2026-04-11T13:43:11.537Z</time></trkpt><trkpt lat="46.0136111" lon="11.8700478"><ele>282.0</ele><time>2026-04-11T13:43:13.538Z</time></trkpt><trkpt lat="46.0135257" lon="11.8701008"><ele>282.0</ele><time>2026-04-11T13:43:15.539Z</time></trkpt><trkpt lat="46.0134384" lon="11.8701656"><ele>282.0</ele><time>2026-04-11T13:43:17.539Z</time></trkpt><trkpt lat="46.0133529" lon="11.8702388"><ele>282.0</ele><time>2026-04-11T13:43:19.539Z</time></trkpt><trkpt lat="46.0132733" lon="11.8703108"><ele>282.0</ele><time>2026-04-11T13:43:21.539Z</time></trkpt><trkpt lat="46.0131984" lon="11.8703766"><ele>282.0</ele><time>2026-04-11T13:43:23.537Z</time></trkpt><trkpt lat="46.0131319" lon="11.8704311"><ele>282.14285714285717</ele><time>2026-04-11T13:43:25.536Z</time></trkpt><trkpt lat="46.0130768" lon="11.8704762"><ele>282.2857142857143</ele><time>2026-04-11T13:43:27.537Z</time></trkpt><trkpt lat="46.0130179" lon="11.8705357"><ele>282.42857142857144</ele><time>2026-04-11T13:43:31.537Z</time></trkpt><trkpt lat="46.0129532" lon="11.8705734"><ele>282.57142857142856</ele><time>2026-04-11T13:43:41.539Z</time></trkpt><trkpt lat="46.0128685" lon="11.8705374"><ele>282.7142857142857</ele><time>2026-04-11T13:43:44.54Z</time></trkpt><trkpt lat="46.0128013" lon="11.8705091"><ele>282.8571428571429</ele><time>2026-04-11T13:43:46.538Z</time></trkpt><trkpt lat="46.012725" lon="11.8705"><ele>283.0</ele><time>2026-04-11T13:43:48.537Z</time></trkpt><trkpt lat="46.0126366" lon="11.870495"><ele>283.0</ele><time>2026-04-11T13:43:50.539Z</time></trkpt><trkpt lat="46.0125499" lon="11.8704981"><ele>283.0</ele><time>2026-04-11T13:43:52.538Z</time></trkpt><trkpt lat="46.01246" lon="11.8705008"><ele>283.0</ele><time>2026-04-11T13:43:54.538Z</time></trkpt><trkpt lat="46.0123655" lon="11.870503"><ele>283.0</ele><time>2026-04-11T13:43:56.54Z</time></trkpt><trkpt lat="46.0122731" lon="11.8705099"><ele>283.0</ele><time>2026-04-11T13:43:58.538Z</time></trkpt><trkpt lat="46.0121837" lon="11.870516"><ele>283.0</ele><time>2026-04-11T13:44:00.539Z</time></trkpt><trkpt lat="46.0120954" lon="11.8705163"><ele>283.0</ele><time>2026-04-11T13:44:02.54Z</time></trkpt><trkpt lat="46.0120041" lon="11.8705139"><ele>283.0</ele><time>2026-04-11T13:44:04.537Z</time></trkpt><trkpt lat="46.0119126" lon="11.8705203"><ele>283.0</ele><time>2026-04-11T13:44:06.538Z</time></trkpt><trkpt lat="46.0118167" lon="11.8705295"><ele>283.0</ele><time>2026-04-11T13:44:08.54Z</time></trkpt><trkpt lat="46.0117241" lon="11.8705396"><ele>283.66666666666663</ele><time>2026-04-11T13:44:10.538Z</time></trkpt><trkpt lat="46.0116356" lon="11.8705467"><ele>284.3333333333333</ele><time>2026-04-11T13:44:12.539Z</time></trkpt><trkpt lat="46.0115497" lon="11.8705517"><ele>285.0</ele><time>2026-04-11T13:44:14.539Z</time></trkpt><trkpt lat="46.0114626" lon="11.870557"><ele>285.6666666666667</ele><time>2026-04-11T13:44:16.537Z</time></trkpt><trkpt lat="46.011374" lon="11.8705586"><ele>286.33333333333337</ele><time>2026-04-11T13:44:18.539Z</time></trkpt><trkpt lat="46.011282" lon="11.8705627"><ele>287.0</ele><time>2026-04-11T13:44:20.54Z</time></trkpt><trkpt lat="46.0111881" lon="11.8705735"><ele>287.0</ele><time>2026-04-11T13:44:22.539Z</time></trkpt><trkpt lat="46.0110964" lon="11.8705758"><ele>287.0</ele><time>2026-04-11T13:44:24.54Z</time></trkpt><trkpt lat="46.011006" lon="11.8705711"><ele>287.0</ele><time>2026-04-11T13:44:26.539Z</time></trkpt><trkpt lat="46.010916" lon="11.8705715"><ele>287.0</ele><time>2026-04-11T13:44:28.54Z</time></trkpt><trkpt lat="46.0108277" lon="11.8705751"><ele>287.0</ele><time>2026-04-11T13:44:30.539Z</time></trkpt><trkpt lat="46.010739" lon="11.8705794"><ele>287.0</ele><time>2026-04-11T13:44:32.54Z</time></trkpt><trkpt lat="46.0106449" lon="11.8705823"><ele>287.0</ele><time>2026-04-11T13:44:34.539Z</time></trkpt><trkpt lat="46.0105474" lon="11.8705864"><ele>287.0</ele><time>2026-04-11T13:44:36.538Z</time></trkpt><trkpt lat="46.0104535" lon="11.8705905"><ele>287.0</ele><time>2026-04-11T13:44:38.539Z</time></trkpt><trkpt lat="46.0103572" lon="11.8705981"><ele>287.0</ele><time>2026-04-11T13:44:40.538Z</time></trkpt><trkpt lat="46.0102598" lon="11.8706035"><ele>287.0</ele><time>2026-04-11T13:44:42.539Z</time></trkpt><trkpt lat="46.0101629" lon="11.870609"><ele>287.0</ele><time>2026-04-11T13:44:44.54Z</time></trkpt><trkpt lat="46.0100663" lon="11.8706173"><ele>287.0</ele><time>2026-04-11T13:44:46.539Z</time></trkpt><trkpt lat="46.0099725" lon="11.8706227"><ele>287.0</ele><time>2026-04-11T13:44:48.536Z</time></trkpt><trkpt lat="46.0098795" lon="11.8706252"><ele>287.0</ele><time>2026-04-11T13:44:50.538Z</time></trkpt><trkpt lat="46.0097878" lon="11.8706266"><ele>287.0</ele><time>2026-04-11T13:44:52.536Z</time></trkpt><trkpt lat="46.0096943" lon="11.870636"><ele>287.0</ele><time>2026-04-11T13:44:54.538Z</time></trkpt><trkpt lat="46.0095996" lon="11.87064"><ele>287.0</ele><time>2026-04-11T13:44:56.539Z</time></trkpt><trkpt lat="46.0095034" lon="11.8706465"><ele>287.0</ele><time>2026-04-11T13:44:58.539Z</time></trkpt><trkpt lat="46.0094091" lon="11.8706573"><ele>287.0</ele><time>2026-04-11T13:45:00.539Z</time></trkpt><trkpt lat="46.0093164" lon="11.8706655"><ele>287.0</ele><time>2026-04-11T13:45:02.535Z</time></trkpt><trkpt lat="46.0092234" lon="11.8706709"><ele>286.6666666666667</ele><time>2026-04-11T13:45:04.54Z</time></trkpt><trkpt lat="46.0091319" lon="11.8706717"><ele>286.33333333333337</ele><time>2026-04-11T13:45:06.54Z</time></trkpt><trkpt lat="46.0090403" lon="11.8706747"><ele>286.0</ele><time>2026-04-11T13:45:08.538Z</time></trkpt><trkpt lat="46.0089529" lon="11.8706785"><ele>285.6666666666667</ele><time>2026-04-11T13:45:10.538Z</time></trkpt><trkpt lat="46.0088708" lon="11.8706837"><ele>285.3333333333333</ele><time>2026-04-11T13:45:12.539Z</time></trkpt><trkpt lat="46.0087896" lon="11.8706899"><ele>285.0</ele><time>2026-04-11T13:45:14.538Z</time></trkpt><trkpt lat="46.0087086" lon="11.8706959"><ele>285.0</ele><time>2026-04-11T13:45:16.537Z</time></trkpt><trkpt lat="46.0086319" lon="11.8707039"><ele>285.0</ele><time>2026-04-11T13:45:18.539Z</time></trkpt><trkpt lat="46.0085606" lon="11.8707195"><ele>285.0</ele><time>2026-04-11T13:45:20.538Z</time></trkpt><trkpt lat="46.0084995" lon="11.8707531"><ele>285.0</ele><time>2026-04-11T13:45:22.538Z</time></trkpt><trkpt lat="46.0084394" lon="11.8707951"><ele>285.0</ele><time>2026-04-11T13:45:24.537Z</time></trkpt><trkpt lat="46.0083619" lon="11.8708648"><ele>285.0</ele><time>2026-04-11T13:45:27.538Z</time></trkpt><trkpt lat="46.0082811" lon="11.8709225"><ele>285.3333333333333</ele><time>2026-04-11T13:45:30.539Z</time></trkpt><trkpt lat="46.0081944" lon="11.8709569"><ele>285.6666666666667</ele><time>2026-04-11T13:45:33.538Z</time></trkpt><trkpt lat="46.0081007" lon="11.8709772"><ele>286.0</ele><time>2026-04-11T13:45:36.539Z</time></trkpt><trkpt lat="46.0080228" lon="11.8709133"><ele>286.33333333333337</ele><time>2026-04-11T13:45:39.539Z</time></trkpt><trkpt lat="46.007992" lon="11.8708312"><ele>286.6666666666667</ele><time>2026-04-11T13:45:41.54Z</time></trkpt><trkpt lat="46.0079629" lon="11.8707445"><ele>287.0</ele><time>2026-04-11T13:45:43.538Z</time></trkpt><trkpt lat="46.0079321" lon="11.8706593"><ele>287.0</ele><time>2026-04-11T13:45:45.539Z</time></trkpt><trkpt lat="46.0078866" lon="11.8705453"><ele>287.0</ele><time>2026-04-11T13:45:48.539Z</time></trkpt><trkpt lat="46.0078392" lon="11.870445"><ele>287.0</ele><time>2026-04-11T13:45:51.535Z</time></trkpt><trkpt lat="46.0077784" lon="11.8704111"><ele>287.0</ele><time>2026-04-11T13:45:54.536Z</time></trkpt><trkpt lat="46.0077019" lon="11.87041"><ele>287.0</ele><time>2026-04-11T13:45:57.538Z</time></trkpt><trkpt lat="46.0076269" lon="11.8704208"><ele>287.0</ele><time>2026-04-11T13:46:00.54Z</time></trkpt><trkpt lat="46.0075539" lon="11.8704555"><ele>287.33333333333337</ele><time>2026-04-11T13:46:03.535Z</time></trkpt><trkpt lat="46.0074914" lon="11.8704935"><ele>287.6666666666667</ele><time>2026-04-11T13:46:06.538Z</time></trkpt><trkpt lat="46.0074278" lon="11.8704737"><ele>288.0</ele><time>2026-04-11T13:46:11.539Z</time></trkpt><trkpt lat="46.0073487" lon="11.8704307"><ele>288.3333333333333</ele><time>2026-04-11T13:46:40.536Z</time></trkpt><trkpt lat="46.0072766" lon="11.8703858"><ele>288.66666666666663</ele><time>2026-04-11T13:46:43.539Z</time></trkpt><trkpt lat="46.007238" lon="11.8702905"><ele>289.0</ele><time>2026-04-11T13:46:46.539Z</time></trkpt><trkpt lat="46.0072244" lon="11.8701559"><ele>289.2857142857143</ele><time>2026-04-11T13:46:49.537Z</time></trkpt><trkpt lat="46.0072242" lon="11.8700583"><ele>289.57142857142856</ele><time>2026-04-11T13:46:51.538Z</time></trkpt><trkpt lat="46.0072194" lon="11.8699642"><ele>289.85714285714283</ele><time>2026-04-11T13:46:53.538Z</time></trkpt><trkpt lat="46.0072074" lon="11.8698319"><ele>290.1428571428571</ele><time>2026-04-11T13:46:56.537Z</time></trkpt><trkpt lat="46.0071919" lon="11.8697439"><ele>290.4285714285714</ele><time>2026-04-11T13:46:58.538Z</time></trkpt><trkpt lat="46.0071696" lon="11.8696168"><ele>290.7142857142857</ele><time>2026-04-11T13:47:01.537Z</time></trkpt><trkpt lat="46.0071562" lon="11.8695232"><ele>291.0</ele><time>2026-04-11T13:47:03.537Z</time></trkpt><trkpt lat="46.0071383" lon="11.8694291"><ele>291.0</ele><time>2026-04-11T13:47:05.535Z</time></trkpt><trkpt lat="46.0071235" lon="11.8693371"><ele>291.0</ele><time>2026-04-11T13:47:07.538Z</time></trkpt><trkpt lat="46.0071099" lon="11.8692457"><ele>291.0</ele><time>2026-04-11T13:47:09.537Z</time></trkpt><trkpt lat="46.007098" lon="11.8691553"><ele>291.0</ele><time>2026-04-11T13:47:11.539Z</time></trkpt><trkpt lat="46.0070758" lon="11.8690353"><ele>291.0</ele><time>2026-04-11T13:47:14.54Z</time></trkpt><trkpt lat="46.0070459" lon="11.8689506"><ele>291.0</ele><time>2026-04-11T13:47:16.538Z</time></trkpt><trkpt lat="46.0069957" lon="11.8688355"><ele>291.0</ele><time>2026-04-11T13:47:19.539Z</time></trkpt><trkpt lat="46.0069683" lon="11.8687349"><ele>291.1428571428571</ele><time>2026-04-11T13:47:21.539Z</time></trkpt><trkpt lat="46.0069367" lon="11.8686425"><ele>291.2857142857143</ele><time>2026-04-11T13:47:23.538Z</time></trkpt><trkpt lat="46.006881" lon="11.8685948"><ele>291.42857142857144</ele><time>2026-04-11T13:47:25.535Z</time></trkpt><trkpt lat="46.0068116" lon="11.8685885"><ele>291.57142857142856</ele><time>2026-04-11T13:47:27.539Z</time></trkpt><trkpt lat="46.0067335" lon="11.8685886"><ele>291.7142857142857</ele><time>2026-04-11T13:47:29.536Z</time></trkpt><trkpt lat="46.0066558" lon="11.8685924"><ele>291.85714285714283</ele><time>2026-04-11T13:47:31.537Z</time></trkpt><trkpt lat="46.0065781" lon="11.8686069"><ele>292.0</ele><time>2026-04-11T13:47:33.54Z</time></trkpt><trkpt lat="46.0065095" lon="11.8686394"><ele>292.2857142857143</ele><time>2026-04-11T13:47:35.54Z</time></trkpt><trkpt lat="46.0064412" lon="11.8686744"><ele>292.57142857142856</ele><time>2026-04-11T13:47:37.539Z</time></trkpt><trkpt lat="46.0063756" lon="11.8687076"><ele>292.8571428571429</ele><time>2026-04-11T13:47:39.536Z</time></trkpt><trkpt lat="46.0063105" lon="11.8687337"><ele>293.1428571428571</ele><time>2026-04-11T13:47:41.537Z</time></trkpt><trkpt lat="46.0062434" lon="11.8687597"><ele>293.42857142857144</ele><time>2026-04-11T13:47:43.54Z</time></trkpt><trkpt lat="46.0061736" lon="11.8687836"><ele>293.7142857142857</ele><time>2026-04-11T13:47:45.539Z</time></trkpt><trkpt lat="46.0061052" lon="11.8688095"><ele>294.0</ele><time>2026-04-11T13:47:47.537Z</time></trkpt><trkpt lat="46.0060309" lon="11.8688395"><ele>294.0</ele><time>2026-04-11T13:47:49.537Z</time></trkpt><trkpt lat="46.0059575" lon="11.8688733"><ele>294.0</ele><time>2026-04-11T13:47:51.539Z</time></trkpt><trkpt lat="46.0058855" lon="11.8688991"><ele>294.0</ele><time>2026-04-11T13:47:53.538Z</time></trkpt><trkpt lat="46.0058128" lon="11.868919"><ele>294.0</ele><time>2026-04-11T13:47:55.537Z</time></trkpt><trkpt lat="46.005737" lon="11.8689274"><ele>294.0</ele><time>2026-04-11T13:47:57.539Z</time></trkpt><trkpt lat="46.0056593" lon="11.8689278"><ele>294.0</ele><time>2026-04-11T13:47:59.535Z</time></trkpt><trkpt lat="46.0055832" lon="11.8689248"><ele>294.3333333333333</ele><time>2026-04-11T13:48:01.538Z</time></trkpt><trkpt lat="46.0055087" lon="11.8689093"><ele>294.6666666666667</ele><time>2026-04-11T13:48:03.539Z</time></trkpt><trkpt lat="46.0054352" lon="11.8688813"><ele>295.0</ele><time>2026-04-11T13:48:05.537Z</time></trkpt><trkpt lat="46.0053627" lon="11.8688433"><ele>295.33333333333337</ele><time>2026-04-11T13:48:07.538Z</time></trkpt><trkpt lat="46.0052906" lon="11.8687987"><ele>295.6666666666667</ele><time>2026-04-11T13:48:09.537Z</time></trkpt><trkpt lat="46.0052217" lon="11.8687462"><ele>296.0</ele><time>2026-04-11T13:48:11.539Z</time></trkpt><trkpt lat="46.005154" lon="11.8686857"><ele>296.0</ele><time>2026-04-11T13:48:13.539Z</time></trkpt><trkpt lat="46.0050832" lon="11.8686297"><ele>296.0</ele><time>2026-04-11T13:48:15.537Z</time></trkpt><trkpt lat="46.005012" lon="11.8685715"><ele>296.0</ele><time>2026-04-11T13:48:17.539Z</time></trkpt><trkpt lat="46.0049417" lon="11.8685102"><ele>296.0</ele><time>2026-04-11T13:48:19.539Z</time></trkpt><trkpt lat="46.004871" lon="11.8684512"><ele>296.0</ele><time>2026-04-11T13:48:21.539Z</time></trkpt><trkpt lat="46.004803" lon="11.8683902"><ele>296.0</ele><time>2026-04-11T13:48:23.538Z</time></trkpt><trkpt lat="46.0047354" lon="11.8683287"><ele>296.83333333333337</ele><time>2026-04-11T13:48:25.539Z</time></trkpt><trkpt lat="46.0046685" lon="11.8682666"><ele>297.6666666666667</ele><time>2026-04-11T13:48:27.538Z</time></trkpt><trkpt lat="46.0046036" lon="11.8682055"><ele>298.5</ele><time>2026-04-11T13:48:29.538Z</time></trkpt><trkpt lat="46.0045364" lon="11.8681424"><ele>299.3333333333333</ele><time>2026-04-11T13:48:31.539Z</time></trkpt><trkpt lat="46.0044702" lon="11.8680788"><ele>300.16666666666663</ele><time>2026-04-11T13:48:33.537Z</time></trkpt><trkpt lat="46.0044024" lon="11.8680144"><ele>301.0</ele><time>2026-04-11T13:48:35.539Z</time></trkpt><trkpt lat="46.0043314" lon="11.8679447"><ele>301.0</ele><time>2026-04-11T13:48:37.539Z</time></trkpt><trkpt lat="46.0042634" lon="11.8678723"><ele>301.0</ele><time>2026-04-11T13:48:39.538Z</time></trkpt><trkpt lat="46.0041944" lon="11.8678084"><ele>301.0</ele><time>2026-04-11T13:48:41.539Z</time></trkpt><trkpt lat="46.004127" lon="11.8677419"><ele>301.0</ele><time>2026-04-11T13:48:43.537Z</time></trkpt><trkpt lat="46.0040635" lon="11.8676746"><ele>301.0</ele><time>2026-04-11T13:48:45.539Z</time></trkpt><trkpt lat="46.0040014" lon="11.8676045"><ele>301.0</ele><time>2026-04-11T13:48:47.536Z</time></trkpt><trkpt lat="46.0039386" lon="11.867538"><ele>301.66666666666663</ele><time>2026-04-11T13:48:49.539Z</time></trkpt><trkpt lat="46.003874" lon="11.8674725"><ele>302.3333333333333</ele><time>2026-04-11T13:48:51.539Z</time></trkpt><trkpt lat="46.0038101" lon="11.8674065"><ele>303.0</ele><time>2026-04-11T13:48:53.538Z</time></trkpt><trkpt lat="46.0037447" lon="11.8673419"><ele>303.6666666666667</ele><time>2026-04-11T13:48:55.537Z</time></trkpt><trkpt lat="46.0036752" lon="11.8672734"><ele>304.33333333333337</ele><time>2026-04-11T13:48:57.536Z</time></trkpt><trkpt lat="46.0036073" lon="11.867205"><ele>305.0</ele><time>2026-04-11T13:48:59.538Z</time></trkpt><trkpt lat="46.0035397" lon="11.8671383"><ele>305.0</ele><time>2026-04-11T13:49:01.539Z</time></trkpt><trkpt lat="46.0034695" lon="11.867069"><ele>305.0</ele><time>2026-04-11T13:49:03.537Z</time></trkpt><trkpt lat="46.0033993" lon="11.8669967"><ele>305.0</ele><time>2026-04-11T13:49:05.534Z</time></trkpt><trkpt lat="46.0033272" lon="11.8669326"><ele>305.0</ele><time>2026-04-11T13:49:07.537Z</time></trkpt><trkpt lat="46.0032565" lon="11.8668725"><ele>305.0</ele><time>2026-04-11T13:49:09.538Z</time></trkpt><trkpt lat="46.0031848" lon="11.8668226"><ele>305.0</ele><time>2026-04-11T13:49:11.537Z</time></trkpt><trkpt lat="46.0031082" lon="11.8667828"><ele>305.5</ele><time>2026-04-11T13:49:13.538Z</time></trkpt><trkpt lat="46.0030296" lon="11.8667474"><ele>306.0</ele><time>2026-04-11T13:49:15.536Z</time></trkpt><trkpt lat="46.0029514" lon="11.8667146"><ele>306.5</ele><time>2026-04-11T13:49:17.538Z</time></trkpt><trkpt lat="46.0028729" lon="11.8666776"><ele>307.0</ele><time>2026-04-11T13:49:19.536Z</time></trkpt><trkpt lat="46.0027912" lon="11.8666399"><ele>307.5</ele><time>2026-04-11T13:49:21.538Z</time></trkpt><trkpt lat="46.0027161" lon="11.866598"><ele>308.0</ele><time>2026-04-11T13:49:23.539Z</time></trkpt><trkpt lat="46.0026413" lon="11.8665498"><ele>308.0</ele><time>2026-04-11T13:49:25.54Z</time></trkpt><trkpt lat="46.0025709" lon="11.8664998"><ele>308.0</ele><time>2026-04-11T13:49:27.539Z</time></trkpt><trkpt lat="46.0025062" lon="11.866448"><ele>308.0</ele><time>2026-04-11T13:49:29.539Z</time></trkpt><trkpt lat="46.002443" lon="11.8663915"><ele>308.0</ele><time>2026-04-11T13:49:31.539Z</time></trkpt><trkpt lat="46.0023788" lon="11.8663344"><ele>308.0</ele><time>2026-04-11T13:49:33.539Z</time></trkpt><trkpt lat="46.0023153" lon="11.8662752"><ele>308.0</ele><time>2026-04-11T13:49:35.536Z</time></trkpt><trkpt lat="46.0022513" lon="11.8662147"><ele>308.83333333333337</ele><time>2026-04-11T13:49:37.538Z</time></trkpt><trkpt lat="46.0021905" lon="11.8661568"><ele>309.6666666666667</ele><time>2026-04-11T13:49:39.536Z</time></trkpt><trkpt lat="46.0021271" lon="11.8661008"><ele>310.5</ele><time>2026-04-11T13:49:41.536Z</time></trkpt><trkpt lat="46.0020623" lon="11.8660448"><ele>311.3333333333333</ele><time>2026-04-11T13:49:43.538Z</time></trkpt><trkpt lat="46.0019955" lon="11.8659907"><ele>312.16666666666663</ele><time>2026-04-11T13:49:45.536Z</time></trkpt><trkpt lat="46.0019348" lon="11.8659216"><ele>313.0</ele><time>2026-04-11T13:49:47.538Z</time></trkpt><trkpt lat="46.0018768" lon="11.8658542"><ele>313.3333333333333</ele><time>2026-04-11T13:49:49.538Z</time></trkpt><trkpt lat="46.0018135" lon="11.8657858"><ele>313.66666666666663</ele><time>2026-04-11T13:49:51.536Z</time></trkpt><trkpt lat="46.001751" lon="11.8657145"><ele>314.0</ele><time>2026-04-11T13:49:53.54Z</time></trkpt><trkpt lat="46.0016874" lon="11.865649"><ele>314.3333333333333</ele><time>2026-04-11T13:49:55.538Z</time></trkpt><trkpt lat="46.0016248" lon="11.8655877"><ele>314.6666666666667</ele><time>2026-04-11T13:49:57.538Z</time></trkpt><trkpt lat="46.0015646" lon="11.8655336"><ele>315.0</ele><time>2026-04-11T13:49:59.539Z</time></trkpt><trkpt lat="46.0015036" lon="11.8654847"><ele>315.57142857142856</ele><time>2026-04-11T13:50:01.538Z</time></trkpt><trkpt lat="46.0014413" lon="11.8654411"><ele>316.1428571428571</ele><time>2026-04-11T13:50:03.539Z</time></trkpt><trkpt lat="46.0013784" lon="11.8654004"><ele>316.7142857142857</ele><time>2026-04-11T13:50:05.538Z</time></trkpt><trkpt lat="46.0013116" lon="11.8653618"><ele>317.2857142857143</ele><time>2026-04-11T13:50:07.537Z</time></trkpt><trkpt lat="46.0012487" lon="11.865327"><ele>317.85714285714283</ele><time>2026-04-11T13:50:09.537Z</time></trkpt><trkpt lat="46.0011651" lon="11.8652777"><ele>318.42857142857144</ele><time>2026-04-11T13:50:12.535Z</time></trkpt><trkpt lat="46.0011034" lon="11.8652516"><ele>319.0</ele><time>2026-04-11T13:50:14.537Z</time></trkpt><trkpt lat="46.0010392" lon="11.8652321"><ele>319.0</ele><time>2026-04-11T13:50:16.537Z</time></trkpt><trkpt lat="46.0009722" lon="11.8652149"><ele>319.0</ele><time>2026-04-11T13:50:18.538Z</time></trkpt><trkpt lat="46.0009043" lon="11.8652008"><ele>319.0</ele><time>2026-04-11T13:50:20.538Z</time></trkpt><trkpt lat="46.0008375" lon="11.8651833"><ele>319.0</ele><time>2026-04-11T13:50:22.537Z</time></trkpt><trkpt lat="46.0007708" lon="11.8651562"><ele>319.0</ele><time>2026-04-11T13:50:24.535Z</time></trkpt><trkpt lat="46.0006991" lon="11.8651362"><ele>319.0</ele><time>2026-04-11T13:50:26.539Z</time></trkpt><trkpt lat="46.0006273" lon="11.8651169"><ele>319.0</ele><time>2026-04-11T13:50:28.536Z</time></trkpt><trkpt lat="46.0005602" lon="11.8650816"><ele>319.2857142857143</ele><time>2026-04-11T13:50:30.537Z</time></trkpt><trkpt lat="46.0005012" lon="11.8650235"><ele>319.57142857142856</ele><time>2026-04-11T13:50:32.537Z</time></trkpt><trkpt lat="46.000441" lon="11.8649612"><ele>319.85714285714283</ele><time>2026-04-11T13:50:34.538Z</time></trkpt><trkpt lat="46.0003842" lon="11.8648954"><ele>320.1428571428571</ele><time>2026-04-11T13:50:36.537Z</time></trkpt><trkpt lat="46.0003261" lon="11.8648311"><ele>320.42857142857144</ele><time>2026-04-11T13:50:38.538Z</time></trkpt><trkpt lat="46.0002649" lon="11.8647685"><ele>320.71428571428567</ele><time>2026-04-11T13:50:40.538Z</time></trkpt><trkpt lat="46.000206" lon="11.864708"><ele>321.0</ele><time>2026-04-11T13:50:42.538Z</time></trkpt><trkpt lat="46.0001481" lon="11.8646464"><ele>320.99999999999994</ele><time>2026-04-11T13:50:44.538Z</time></trkpt><trkpt lat="46.0000847" lon="11.8645889"><ele>321.0</ele><time>2026-04-11T13:50:46.539Z</time></trkpt><trkpt lat="46.0000201" lon="11.8645313"><ele>321.0</ele><time>2026-04-11T13:50:48.537Z</time></trkpt><trkpt lat="45.9999597" lon="11.8644757"><ele>321.0</ele><time>2026-04-11T13:50:50.538Z</time></trkpt><trkpt lat="45.999902" lon="11.8644221"><ele>321.0</ele><time>2026-04-11T13:50:52.537Z</time></trkpt><trkpt lat="45.9998435" lon="11.8643684"><ele>320.99999999999994</ele><time>2026-04-11T13:50:54.539Z</time></trkpt><trkpt lat="45.9997803" lon="11.8643141"><ele>321.0</ele><time>2026-04-11T13:50:56.537Z</time></trkpt><trkpt lat="45.9997189" lon="11.8642559"><ele>321.0</ele><time>2026-04-11T13:50:58.538Z</time></trkpt><trkpt lat="45.9996582" lon="11.8641906"><ele>321.0</ele><time>2026-04-11T13:51:00.538Z</time></trkpt><trkpt lat="45.9995974" lon="11.8641244"><ele>321.0</ele><time>2026-04-11T13:51:02.537Z</time></trkpt><trkpt lat="45.9995411" lon="11.8640546"><ele>321.0</ele><time>2026-04-11T13:51:04.539Z</time></trkpt><trkpt lat="45.9994877" lon="11.863979"><ele>321.0</ele><time>2026-04-11T13:51:06.535Z</time></trkpt><trkpt lat="45.9994351" lon="11.8638998"><ele>321.0</ele><time>2026-04-11T13:51:08.539Z</time></trkpt><trkpt lat="45.9993878" lon="11.863817"><ele>321.0</ele><time>2026-04-11T13:51:10.538Z</time></trkpt><trkpt lat="45.9993426" lon="11.86373"><ele>321.0</ele><time>2026-04-11T13:51:12.539Z</time></trkpt><trkpt lat="45.9993012" lon="11.8636369"><ele>321.0</ele><time>2026-04-11T13:51:14.537Z</time></trkpt><trkpt lat="45.9992604" lon="11.8635425"><ele>321.0</ele><time>2026-04-11T13:51:16.536Z</time></trkpt><trkpt lat="45.9992185" lon="11.8634478"><ele>321.0</ele><time>2026-04-11T13:51:18.537Z</time></trkpt><trkpt lat="45.9991729" lon="11.8633556"><ele>321.0</ele><time>2026-04-11T13:51:20.539Z</time></trkpt><trkpt lat="45.9991324" lon="11.8632643"><ele>322.71428571428567</ele><time>2026-04-11T13:51:22.538Z</time></trkpt><trkpt lat="45.999091" lon="11.8631741"><ele>324.42857142857144</ele><time>2026-04-11T13:51:24.539Z</time></trkpt><trkpt lat="45.9990505" lon="11.8630872"><ele>326.1428571428571</ele><time>2026-04-11T13:51:26.535Z</time></trkpt><trkpt lat="45.9990138" lon="11.8630026"><ele>327.85714285714283</ele><time>2026-04-11T13:51:28.534Z</time></trkpt><trkpt lat="45.9989793" lon="11.8629178"><ele>329.57142857142856</ele><time>2026-04-11T13:51:30.539Z</time></trkpt><trkpt lat="45.998939" lon="11.8628293"><ele>331.2857142857143</ele><time>2026-04-11T13:51:32.536Z</time></trkpt><trkpt lat="45.9988961" lon="11.8627434"><ele>333.0</ele><time>2026-04-11T13:51:34.538Z</time></trkpt><trkpt lat="45.9988549" lon="11.8626604"><ele>332.7142857142857</ele><time>2026-04-11T13:51:36.539Z</time></trkpt><trkpt lat="45.9988104" lon="11.8625736"><ele>332.4285714285714</ele><time>2026-04-11T13:51:38.538Z</time></trkpt><trkpt lat="45.9987561" lon="11.8625073"><ele>332.1428571428571</ele><time>2026-04-11T13:51:40.54Z</time></trkpt><trkpt lat="45.9986931" lon="11.8624759"><ele>331.8571428571429</ele><time>2026-04-11T13:51:42.539Z</time></trkpt><trkpt lat="45.9986223" lon="11.86248"><ele>331.57142857142856</ele><time>2026-04-11T13:51:44.538Z</time></trkpt><trkpt lat="45.998549" lon="11.8625039"><ele>331.2857142857143</ele><time>2026-04-11T13:51:46.539Z</time></trkpt><trkpt lat="45.9984772" lon="11.862539"><ele>331.0</ele><time>2026-04-11T13:51:48.536Z</time></trkpt><trkpt lat="45.9984056" lon="11.8625807"><ele>331.3333333333333</ele><time>2026-04-11T13:51:50.539Z</time></trkpt><trkpt lat="45.9983358" lon="11.8626243"><ele>331.66666666666663</ele><time>2026-04-11T13:51:52.537Z</time></trkpt><trkpt lat="45.9982657" lon="11.8626681"><ele>332.0</ele><time>2026-04-11T13:51:54.538Z</time></trkpt><trkpt lat="45.9981931" lon="11.8627117"><ele>332.3333333333333</ele><time>2026-04-11T13:51:56.539Z</time></trkpt><trkpt lat="45.9981172" lon="11.8627526"><ele>332.6666666666667</ele><time>2026-04-11T13:51:58.536Z</time></trkpt><trkpt lat="45.9980387" lon="11.8627875"><ele>333.0</ele><time>2026-04-11T13:52:00.538Z</time></trkpt><trkpt lat="45.9979621" lon="11.8628179"><ele>333.2857142857143</ele><time>2026-04-11T13:52:02.537Z</time></trkpt><trkpt lat="45.9978881" lon="11.8628437"><ele>333.57142857142856</ele><time>2026-04-11T13:52:04.539Z</time></trkpt><trkpt lat="45.9978136" lon="11.8628645"><ele>333.85714285714283</ele><time>2026-04-11T13:52:06.539Z</time></trkpt><trkpt lat="45.9977415" lon="11.8628863"><ele>334.1428571428571</ele><time>2026-04-11T13:52:08.537Z</time></trkpt><trkpt lat="45.997672" lon="11.8629107"><ele>334.42857142857144</ele><time>2026-04-11T13:52:10.537Z</time></trkpt><trkpt lat="45.9976025" lon="11.8629105"><ele>334.71428571428567</ele><time>2026-04-11T13:52:12.537Z</time></trkpt><trkpt lat="45.9975448" lon="11.8628535"><ele>335.0</ele><time>2026-04-11T13:52:14.538Z</time></trkpt><trkpt lat="45.9974935" lon="11.8627737"><ele>334.83333333333337</ele><time>2026-04-11T13:52:16.536Z</time></trkpt><trkpt lat="45.9974465" lon="11.8626861"><ele>334.6666666666667</ele><time>2026-04-11T13:52:18.537Z</time></trkpt><trkpt lat="45.9974031" lon="11.8626001"><ele>334.5</ele><time>2026-04-11T13:52:20.539Z</time></trkpt><trkpt lat="45.9973632" lon="11.8625119"><ele>334.3333333333333</ele><time>2026-04-11T13:52:22.538Z</time></trkpt><trkpt lat="45.9973297" lon="11.8624137"><ele>334.16666666666663</ele><time>2026-04-11T13:52:24.538Z</time></trkpt><trkpt lat="45.9973071" lon="11.8623009"><ele>334.0</ele><time>2026-04-11T13:52:26.537Z</time></trkpt><trkpt lat="45.997276" lon="11.8621802"><ele>334.0</ele><time>2026-04-11T13:52:28.538Z</time></trkpt><trkpt lat="45.9972462" lon="11.8620523"><ele>334.0</ele><time>2026-04-11T13:52:30.535Z</time></trkpt><trkpt lat="45.9972193" lon="11.8619187"><ele>334.0</ele><time>2026-04-11T13:52:32.538Z</time></trkpt><trkpt lat="45.9971963" lon="11.8617797"><ele>334.0</ele><time>2026-04-11T13:52:34.538Z</time></trkpt><trkpt lat="45.9971603" lon="11.8616457"><ele>334.0</ele><time>2026-04-11T13:52:36.539Z</time></trkpt><trkpt lat="45.9971124" lon="11.8615121"><ele>333.6</ele><time>2026-04-11T13:52:38.538Z</time></trkpt><trkpt lat="45.9970642" lon="11.861378"><ele>333.2</ele><time>2026-04-11T13:52:40.536Z</time></trkpt><trkpt lat="45.9970195" lon="11.8612476"><ele>332.8</ele><time>2026-04-11T13:52:42.539Z</time></trkpt><trkpt lat="45.9969707" lon="11.8611185"><ele>332.40000000000003</ele><time>2026-04-11T13:52:44.537Z</time></trkpt><trkpt lat="45.9969162" lon="11.8609942"><ele>332.0</ele><time>2026-04-11T13:52:46.537Z</time></trkpt><trkpt lat="45.9968662" lon="11.8608677"><ele>331.40000000000003</ele><time>2026-04-11T13:52:48.536Z</time></trkpt><trkpt lat="45.996831" lon="11.8607338"><ele>330.8</ele><time>2026-04-11T13:52:50.538Z</time></trkpt><trkpt lat="45.9968127" lon="11.8605961"><ele>330.2</ele><time>2026-04-11T13:52:52.537Z</time></trkpt><trkpt lat="45.9968041" lon="11.8604513"><ele>329.6</ele><time>2026-04-11T13:52:54.536Z</time></trkpt><trkpt lat="45.9968061" lon="11.8602965"><ele>329.0</ele><time>2026-04-11T13:52:56.538Z</time></trkpt><trkpt lat="45.9968105" lon="11.8601433"><ele>328.83333333333337</ele><time>2026-04-11T13:52:58.537Z</time></trkpt><trkpt lat="45.996813" lon="11.859999"><ele>328.6666666666667</ele><time>2026-04-11T13:53:00.537Z</time></trkpt><trkpt lat="45.9968233" lon="11.8598789"><ele>328.5</ele><time>2026-04-11T13:53:02.537Z</time></trkpt><trkpt lat="45.9968174" lon="11.8597634"><ele>328.3333333333333</ele><time>2026-04-11T13:53:05.538Z</time></trkpt><trkpt lat="45.9967586" lon="11.8596897"><ele>328.16666666666663</ele><time>2026-04-11T13:53:08.539Z</time></trkpt><trkpt lat="45.9966937" lon="11.8596761"><ele>328.0</ele><time>2026-04-11T13:53:10.536Z</time></trkpt><trkpt lat="45.9966261" lon="11.8596737"><ele>327.99999999999994</ele><time>2026-04-11T13:53:12.539Z</time></trkpt><trkpt lat="45.9965572" lon="11.8596656"><ele>328.0</ele><time>2026-04-11T13:53:14.537Z</time></trkpt><trkpt lat="45.9964866" lon="11.8596505"><ele>328.0</ele><time>2026-04-11T13:53:16.538Z</time></trkpt><trkpt lat="45.9964143" lon="11.8596233"><ele>328.0</ele><time>2026-04-11T13:53:18.536Z</time></trkpt><trkpt lat="45.9963416" lon="11.8595967"><ele>328.0</ele><time>2026-04-11T13:53:20.536Z</time></trkpt><trkpt lat="45.9962702" lon="11.8595608"><ele>327.99999999999994</ele><time>2026-04-11T13:53:22.537Z</time></trkpt><trkpt lat="45.9962024" lon="11.8595361"><ele>328.0</ele><time>2026-04-11T13:53:24.537Z</time></trkpt><trkpt lat="45.9961369" lon="11.8595084"><ele>328.0</ele><time>2026-04-11T13:53:26.538Z</time></trkpt><trkpt lat="45.9960766" lon="11.8594757"><ele>328.0</ele><time>2026-04-11T13:53:28.536Z</time></trkpt><trkpt lat="45.9959897" lon="11.8594254"><ele>328.0</ele><time>2026-04-11T13:53:31.539Z</time></trkpt><trkpt lat="45.995909" lon="11.8593935"><ele>328.0</ele><time>2026-04-11T13:53:34.535Z</time></trkpt><trkpt lat="45.9958342" lon="11.8594375"><ele>328.0</ele><time>2026-04-11T13:53:37.538Z</time></trkpt><trkpt lat="45.9957717" lon="11.8595252"><ele>328.0</ele><time>2026-04-11T13:53:40.537Z</time></trkpt><trkpt lat="45.9957108" lon="11.8596138"><ele>329.3333333333333</ele><time>2026-04-11T13:53:43.537Z</time></trkpt><trkpt lat="45.995657" lon="11.859707"><ele>330.66666666666663</ele><time>2026-04-11T13:53:46.539Z</time></trkpt><trkpt lat="45.9956015" lon="11.8598018"><ele>332.0</ele><time>2026-04-11T13:53:49.539Z</time></trkpt><trkpt lat="45.995541" lon="11.859899"><ele>333.3333333333333</ele><time>2026-04-11T13:53:52.539Z</time></trkpt><trkpt lat="45.9954941" lon="11.860001"><ele>334.6666666666667</ele><time>2026-04-11T13:53:55.538Z</time></trkpt><trkpt lat="45.9954483" lon="11.8601019"><ele>336.0</ele><time>2026-04-11T13:53:58.536Z</time></trkpt><trkpt lat="45.9954044" lon="11.860213"><ele>336.6</ele><time>2026-04-11T13:54:01.536Z</time></trkpt><trkpt lat="45.995367" lon="11.8603243"><ele>337.20000000000005</ele><time>2026-04-11T13:54:04.536Z</time></trkpt><trkpt lat="45.9953318" lon="11.8604458"><ele>337.79999999999995</ele><time>2026-04-11T13:54:07.537Z</time></trkpt><trkpt lat="45.9952958" lon="11.860566"><ele>338.4</ele><time>2026-04-11T13:54:10.538Z</time></trkpt><trkpt lat="45.9952477" lon="11.8606743"><ele>339.0</ele><time>2026-04-11T13:54:13.537Z</time></trkpt><trkpt lat="45.995198" lon="11.8607874"><ele>339.0</ele><time>2026-04-11T13:54:16.538Z</time></trkpt><trkpt lat="45.9951478" lon="11.8608989"><ele>339.0</ele><time>2026-04-11T13:54:19.539Z</time></trkpt><trkpt lat="45.9950986" lon="11.8609994"><ele>339.0</ele><time>2026-04-11T13:54:22.539Z</time></trkpt><trkpt lat="45.9950528" lon="11.8610914"><ele>339.0</ele><time>2026-04-11T13:54:25.538Z</time></trkpt><trkpt lat="45.9950018" lon="11.8611812"><ele>339.0</ele><time>2026-04-11T13:54:28.538Z</time></trkpt><trkpt lat="45.9949546" lon="11.8612736"><ele>339.0</ele><time>2026-04-11T13:54:31.537Z</time></trkpt><trkpt lat="45.9949099" lon="11.8613677"><ele>341.8333333333333</ele><time>2026-04-11T13:54:34.535Z</time></trkpt><trkpt lat="45.9948625" lon="11.8614618"><ele>344.6666666666667</ele><time>2026-04-11T13:54:37.537Z</time></trkpt><trkpt lat="45.9948121" lon="11.8615435"><ele>347.5</ele><time>2026-04-11T13:54:40.538Z</time></trkpt><trkpt lat="45.9947608" lon="11.8616219"><ele>350.33333333333337</ele><time>2026-04-11T13:54:43.539Z</time></trkpt><trkpt lat="45.9946974" lon="11.8616876"><ele>353.1666666666667</ele><time>2026-04-11T13:54:46.539Z</time></trkpt><trkpt lat="45.9946303" lon="11.8617468"><ele>356.0</ele><time>2026-04-11T13:54:49.538Z</time></trkpt><trkpt lat="45.9945591" lon="11.8617954"><ele>356.33333333333337</ele><time>2026-04-11T13:54:52.537Z</time></trkpt><trkpt lat="45.994481" lon="11.8618267"><ele>356.6666666666667</ele><time>2026-04-11T13:54:55.539Z</time></trkpt><trkpt lat="45.9944056" lon="11.8618585"><ele>357.0</ele><time>2026-04-11T13:54:58.538Z</time></trkpt><trkpt lat="45.994333" lon="11.8619026"><ele>357.3333333333333</ele><time>2026-04-11T13:55:01.539Z</time></trkpt><trkpt lat="45.9942647" lon="11.8619712"><ele>357.66666666666663</ele><time>2026-04-11T13:55:04.538Z</time></trkpt><trkpt lat="45.9941891" lon="11.8620402"><ele>358.0</ele><time>2026-04-11T13:55:07.536Z</time></trkpt><trkpt lat="45.9941195" lon="11.8621126"><ele>359.16666666666663</ele><time>2026-04-11T13:55:10.539Z</time></trkpt><trkpt lat="45.9940528" lon="11.8621832"><ele>360.3333333333333</ele><time>2026-04-11T13:55:13.538Z</time></trkpt><trkpt lat="45.9939769" lon="11.8622493"><ele>361.5</ele><time>2026-04-11T13:55:16.539Z</time></trkpt><trkpt lat="45.9939075" lon="11.862325"><ele>362.6666666666667</ele><time>2026-04-11T13:55:19.539Z</time></trkpt><trkpt lat="45.9938453" lon="11.8624049"><ele>363.83333333333337</ele><time>2026-04-11T13:55:22.537Z</time></trkpt><trkpt lat="45.9937817" lon="11.8624941"><ele>365.0</ele><time>2026-04-11T13:55:25.535Z</time></trkpt><trkpt lat="45.9937201" lon="11.862589"><ele>365.5</ele><time>2026-04-11T13:55:28.537Z</time></trkpt><trkpt lat="45.9936603" lon="11.8626831"><ele>366.0</ele><time>2026-04-11T13:55:31.536Z</time></trkpt><trkpt lat="45.9936018" lon="11.862778"><ele>366.5</ele><time>2026-04-11T13:55:34.539Z</time></trkpt><trkpt lat="45.9935415" lon="11.862865"><ele>367.0</ele><time>2026-04-11T13:55:37.539Z</time></trkpt><trkpt lat="45.9934823" lon="11.8629443"><ele>367.5</ele><time>2026-04-11T13:55:40.537Z</time></trkpt><trkpt lat="45.9934229" lon="11.86303"><ele>368.0</ele><time>2026-04-11T13:55:43.536Z</time></trkpt><trkpt lat="45.9933536" lon="11.8630985"><ele>368.6666666666667</ele><time>2026-04-11T13:55:46.536Z</time></trkpt><trkpt lat="45.9932808" lon="11.8631596"><ele>369.33333333333337</ele><time>2026-04-11T13:55:49.536Z</time></trkpt><trkpt lat="45.9932166" lon="11.8632338"><ele>370.0</ele><time>2026-04-11T13:55:52.535Z</time></trkpt><trkpt lat="45.9931481" lon="11.8633061"><ele>370.6666666666667</ele><time>2026-04-11T13:55:55.537Z</time></trkpt><trkpt lat="45.9930717" lon="11.8633745"><ele>371.3333333333333</ele><time>2026-04-11T13:55:58.535Z</time></trkpt><trkpt lat="45.9929953" lon="11.8634419"><ele>372.0</ele><time>2026-04-11T13:56:01.537Z</time></trkpt><trkpt lat="45.9929485" lon="11.863505"><ele>372.0</ele><time>2026-04-11T13:56:03.537Z</time></trkpt><trkpt lat="45.992905" lon="11.8636138"><ele>372.0</ele><time>2026-04-11T13:56:06.537Z</time></trkpt><trkpt lat="45.9929072" lon="11.8637048"><ele>372.0</ele><time>2026-04-11T13:56:08.539Z</time></trkpt><trkpt lat="45.9929202" lon="11.8637947"><ele>372.0</ele><time>2026-04-11T13:56:10.535Z</time></trkpt><trkpt lat="45.9929081" lon="11.8639174"><ele>372.0</ele><time>2026-04-11T13:56:13.539Z</time></trkpt><trkpt lat="45.9928424" lon="11.8639936"><ele>372.0</ele><time>2026-04-11T13:56:16.538Z</time></trkpt><trkpt lat="45.9927627" lon="11.8640272"><ele>372.00000000000006</ele><time>2026-04-11T13:56:19.537Z</time></trkpt><trkpt lat="45.992692" lon="11.8640454"><ele>372.0</ele><time>2026-04-11T13:56:22.537Z</time></trkpt><trkpt lat="45.992623" lon="11.8640444"><ele>372.0</ele><time>2026-04-11T13:56:25.538Z</time></trkpt><trkpt lat="45.9925504" lon="11.8640486"><ele>372.0</ele><time>2026-04-11T13:56:28.539Z</time></trkpt><trkpt lat="45.9924695" lon="11.8640509"><ele>372.0</ele><time>2026-04-11T13:56:32.539Z</time></trkpt><trkpt lat="45.992409" lon="11.8639914"><ele>372.00000000000006</ele><time>2026-04-11T13:56:35.538Z</time></trkpt><trkpt lat="45.992394" lon="11.8638933"><ele>372.0</ele><time>2026-04-11T13:56:38.538Z</time></trkpt><trkpt lat="45.9924154" lon="11.8637749"><ele>372.0</ele><time>2026-04-11T13:56:41.536Z</time></trkpt><trkpt lat="45.9924557" lon="11.8636679"><ele>372.0</ele><time>2026-04-11T13:56:44.539Z</time></trkpt><trkpt lat="45.9925037" lon="11.8635649"><ele>372.0</ele><time>2026-04-11T13:56:47.537Z</time></trkpt><trkpt lat="45.9925427" lon="11.8634554"><ele>372.0</ele><time>2026-04-11T13:56:50.539Z</time></trkpt><trkpt lat="45.992589" lon="11.8633489"><ele>372.0</ele><time>2026-04-11T13:56:53.539Z</time></trkpt><trkpt lat="45.9926387" lon="11.8632486"><ele>372.0</ele><time>2026-04-11T13:56:56.538Z</time></trkpt><trkpt lat="45.9927007" lon="11.8631515"><ele>373.5714285714286</ele><time>2026-04-11T13:56:59.537Z</time></trkpt><trkpt lat="45.9927534" lon="11.8630937"><ele>375.14285714285717</ele><time>2026-04-11T13:57:01.536Z</time></trkpt><trkpt lat="45.9928077" lon="11.8630421"><ele>376.7142857142857</ele><time>2026-04-11T13:57:03.539Z</time></trkpt><trkpt lat="45.9928633" lon="11.8629746"><ele>378.28571428571433</ele><time>2026-04-11T13:57:05.538Z</time></trkpt><trkpt lat="45.9929203" lon="11.8628756"><ele>379.85714285714283</ele><time>2026-04-11T13:57:08.538Z</time></trkpt><trkpt lat="45.99295" lon="11.8627907"><ele>381.42857142857144</ele><time>2026-04-11T13:57:10.539Z</time></trkpt><trkpt lat="45.9929595" lon="11.8626843"><ele>383.0</ele><time>2026-04-11T13:57:12.539Z</time></trkpt><trkpt lat="45.9929428" lon="11.8625514"><ele>383.42857142857144</ele><time>2026-04-11T13:57:15.537Z</time></trkpt><trkpt lat="45.9929129" lon="11.8624629"><ele>383.85714285714283</ele><time>2026-04-11T13:57:17.537Z</time></trkpt><trkpt lat="45.9928637" lon="11.8623912"><ele>384.28571428571433</ele><time>2026-04-11T13:57:19.537Z</time></trkpt><trkpt lat="45.9928127" lon="11.8623371"><ele>384.7142857142857</ele><time>2026-04-11T13:57:21.537Z</time></trkpt><trkpt lat="45.9927553" lon="11.8622891"><ele>385.14285714285717</ele><time>2026-04-11T13:57:23.536Z</time></trkpt><trkpt lat="45.9926917" lon="11.8622598"><ele>385.5714285714286</ele><time>2026-04-11T13:57:25.537Z</time></trkpt><trkpt lat="45.9926033" lon="11.8622571"><ele>386.0</ele><time>2026-04-11T13:57:28.537Z</time></trkpt><trkpt lat="45.992532" lon="11.8622706"><ele>389.3333333333333</ele><time>2026-04-11T13:57:31.536Z</time></trkpt><trkpt lat="45.9924709" lon="11.8623363"><ele>392.66666666666663</ele><time>2026-04-11T13:57:34.536Z</time></trkpt><trkpt lat="45.9924442" lon="11.8624426"><ele>396.0</ele><time>2026-04-11T13:57:37.537Z</time></trkpt><trkpt lat="45.992443" lon="11.8625681"><ele>399.33333333333337</ele><time>2026-04-11T13:57:40.538Z</time></trkpt><trkpt lat="45.9924528" lon="11.8626906"><ele>402.6666666666667</ele><time>2026-04-11T13:57:43.536Z</time></trkpt><trkpt lat="45.9924309" lon="11.8628055"><ele>406.0</ele><time>2026-04-11T13:57:46.536Z</time></trkpt><trkpt lat="45.9923764" lon="11.8629095"><ele>406.00000000000006</ele><time>2026-04-11T13:57:49.536Z</time></trkpt><trkpt lat="45.9923215" lon="11.8630063"><ele>406.0</ele><time>2026-04-11T13:57:52.539Z</time></trkpt><trkpt lat="45.9922641" lon="11.8631013"><ele>406.0</ele><time>2026-04-11T13:57:55.538Z</time></trkpt><trkpt lat="45.9922127" lon="11.8631986"><ele>406.0</ele><time>2026-04-11T13:57:58.538Z</time></trkpt><trkpt lat="45.9921575" lon="11.8632836"><ele>406.00000000000006</ele><time>2026-04-11T13:58:01.539Z</time></trkpt><trkpt lat="45.9921026" lon="11.8633679"><ele>406.0</ele><time>2026-04-11T13:58:04.54Z</time></trkpt><trkpt lat="45.9920524" lon="11.8634327"><ele>403.00000000000006</ele><time>2026-04-11T13:58:07.538Z</time></trkpt><trkpt lat="45.9919911" lon="11.8635027"><ele>400.0</ele><time>2026-04-11T13:58:10.54Z</time></trkpt><trkpt lat="45.9919257" lon="11.8635825"><ele>397.0</ele><time>2026-04-11T13:58:13.54Z</time></trkpt><trkpt lat="45.9918485" lon="11.8636501"><ele>394.0</ele><time>2026-04-11T13:58:16.539Z</time></trkpt><trkpt lat="45.9917996" lon="11.8637099"><ele>391.00000000000006</ele><time>2026-04-11T13:58:18.539Z</time></trkpt><trkpt lat="45.9917471" lon="11.8637745"><ele>388.0</ele><time>2026-04-11T13:58:20.539Z</time></trkpt><trkpt lat="45.9916905" lon="11.8638326"><ele>393.00000000000006</ele><time>2026-04-11T13:58:22.54Z</time></trkpt><trkpt lat="45.9916074" lon="11.8638858"><ele>398.0</ele><time>2026-04-11T13:58:25.538Z</time></trkpt><trkpt lat="45.9915269" lon="11.8639067"><ele>403.0</ele><time>2026-04-11T13:58:28.539Z</time></trkpt><trkpt lat="45.9914407" lon="11.8639145"><ele>408.0</ele><time>2026-04-11T13:58:31.54Z</time></trkpt><trkpt lat="45.9913512" lon="11.8639225"><ele>413.00000000000006</ele><time>2026-04-11T13:58:34.537Z</time></trkpt><trkpt lat="45.9912727" lon="11.8639594"><ele>418.0</ele><time>2026-04-11T13:58:37.539Z</time></trkpt><trkpt lat="45.9912038" lon="11.8640401"><ele>418.00000000000006</ele><time>2026-04-11T13:58:40.538Z</time></trkpt><trkpt lat="45.9911573" lon="11.8641032"><ele>418.0</ele><time>2026-04-11T13:58:42.538Z</time></trkpt><trkpt lat="45.9911113" lon="11.8641658"><ele>418.0</ele><time>2026-04-11T13:58:44.537Z</time></trkpt><trkpt lat="45.991036" lon="11.8642324"><ele>418.0</ele><time>2026-04-11T13:58:47.538Z</time></trkpt><trkpt lat="45.9909555" lon="11.8642735"><ele>418.00000000000006</ele><time>2026-04-11T13:58:50.539Z</time></trkpt><trkpt lat="45.9908702" lon="11.8642998"><ele>418.0</ele><time>2026-04-11T13:58:53.538Z</time></trkpt><trkpt lat="45.9907891" lon="11.8643425"><ele>418.83333333333337</ele><time>2026-04-11T13:58:56.537Z</time></trkpt><trkpt lat="45.9907177" lon="11.8643958"><ele>419.6666666666667</ele><time>2026-04-11T13:58:59.538Z</time></trkpt><trkpt lat="45.9906543" lon="11.8644618"><ele>420.5</ele><time>2026-04-11T13:59:02.539Z</time></trkpt><trkpt lat="45.9905707" lon="11.8645213"><ele>421.33333333333337</ele><time>2026-04-11T13:59:05.54Z</time></trkpt><trkpt lat="45.9904873" lon="11.8645299"><ele>422.1666666666667</ele><time>2026-04-11T13:59:08.538Z</time></trkpt><trkpt lat="45.9904204" lon="11.8644783"><ele>423.0</ele><time>2026-04-11T13:59:11.538Z</time></trkpt><trkpt lat="45.9903768" lon="11.8643768"><ele>425.3333333333333</ele><time>2026-04-11T13:59:14.54Z</time></trkpt><trkpt lat="45.990338" lon="11.8642662"><ele>427.66666666666663</ele><time>2026-04-11T13:59:17.537Z</time></trkpt><trkpt lat="45.9903045" lon="11.8641515"><ele>430.0</ele><time>2026-04-11T13:59:20.539Z</time></trkpt><trkpt lat="45.9902653" lon="11.8640412"><ele>432.3333333333333</ele><time>2026-04-11T13:59:23.538Z</time></trkpt><trkpt lat="45.9901955" lon="11.8639829"><ele>434.66666666666663</ele><time>2026-04-11T13:59:26.539Z</time></trkpt><trkpt lat="45.9901227" lon="11.8640223"><ele>437.0</ele><time>2026-04-11T13:59:29.537Z</time></trkpt><trkpt lat="45.9900523" lon="11.8640906"><ele>438.1428571428571</ele><time>2026-04-11T13:59:32.539Z</time></trkpt><trkpt lat="45.990004" lon="11.8641572"><ele>439.28571428571433</ele><time>2026-04-11T13:59:35.539Z</time></trkpt><trkpt lat="45.9899626" lon="11.8642475"><ele>440.42857142857144</ele><time>2026-04-11T13:59:39.538Z</time></trkpt><trkpt lat="45.9899293" lon="11.8643309"><ele>441.57142857142856</ele><time>2026-04-11T13:59:42.539Z</time></trkpt><trkpt lat="45.9898859" lon="11.8644183"><ele>442.71428571428567</ele><time>2026-04-11T13:59:47.54Z</time></trkpt><trkpt lat="45.989834" lon="11.8644852"><ele>443.8571428571429</ele><time>2026-04-11T13:59:51.535Z</time></trkpt><trkpt lat="45.9897868" lon="11.8645562"><ele>445.0</ele><time>2026-04-11T13:59:54.537Z</time></trkpt><trkpt lat="45.9897384" lon="11.8646259"><ele>445.00000000000006</ele><time>2026-04-11T13:59:57.539Z</time></trkpt><trkpt lat="45.9896927" lon="11.8647302"><ele>445.0</ele><time>2026-04-11T14:00:00.539Z</time></trkpt><trkpt lat="45.9896635" lon="11.8648506"><ele>445.0</ele><time>2026-04-11T14:00:03.539Z</time></trkpt><trkpt lat="45.9896352" lon="11.8649655"><ele>445.0</ele><time>2026-04-11T14:00:06.54Z</time></trkpt><trkpt lat="45.9896022" lon="11.8650872"><ele>445.00000000000006</ele><time>2026-04-11T14:00:09.539Z</time></trkpt><trkpt lat="45.9895449" lon="11.8651688"><ele>445.0</ele><time>2026-04-11T14:00:12.537Z</time></trkpt><trkpt lat="45.9894857" lon="11.8652101"><ele>443.50000000000006</ele><time>2026-04-11T14:00:14.538Z</time></trkpt><trkpt lat="45.9894248" lon="11.8652432"><ele>442.0</ele><time>2026-04-11T14:00:16.537Z</time></trkpt><trkpt lat="45.9893384" lon="11.8652778"><ele>440.5</ele><time>2026-04-11T14:00:19.537Z</time></trkpt><trkpt lat="45.9892492" lon="11.8653179"><ele>439.0</ele><time>2026-04-11T14:00:22.538Z</time></trkpt><trkpt lat="45.9891913" lon="11.8653587"><ele>437.50000000000006</ele><time>2026-04-11T14:00:24.538Z</time></trkpt><trkpt lat="45.9891359" lon="11.8654074"><ele>436.0</ele><time>2026-04-11T14:00:26.539Z</time></trkpt><trkpt lat="45.9890854" lon="11.8654903"><ele>441.33333333333337</ele><time>2026-04-11T14:00:28.538Z</time></trkpt><trkpt lat="45.9890462" lon="11.8655708"><ele>446.6666666666667</ele><time>2026-04-11T14:00:30.539Z</time></trkpt><trkpt lat="45.9890258" lon="11.8657052"><ele>452.0</ele><time>2026-04-11T14:00:33.539Z</time></trkpt><trkpt lat="45.9890217" lon="11.8658034"><ele>457.33333333333337</ele><time>2026-04-11T14:00:35.54Z</time></trkpt><trkpt lat="45.9890462" lon="11.8659331"><ele>462.6666666666667</ele><time>2026-04-11T14:00:38.539Z</time></trkpt><trkpt lat="45.9890871" lon="11.8660418"><ele>468.0</ele><time>2026-04-11T14:00:41.539Z</time></trkpt><trkpt lat="45.9891046" lon="11.8661298"><ele>468.28571428571433</ele><time>2026-04-11T14:00:43.538Z</time></trkpt><trkpt lat="45.9891116" lon="11.8662235"><ele>468.5714285714286</ele><time>2026-04-11T14:00:45.537Z</time></trkpt><trkpt lat="45.9891106" lon="11.8663163"><ele>468.8571428571429</ele><time>2026-04-11T14:00:47.538Z</time></trkpt><trkpt lat="45.9891043" lon="11.8664483"><ele>469.1428571428571</ele><time>2026-04-11T14:00:50.538Z</time></trkpt><trkpt lat="45.9891021" lon="11.866549"><ele>469.4285714285714</ele><time>2026-04-11T14:00:52.538Z</time></trkpt><trkpt lat="45.9890956" lon="11.866647"><ele>469.71428571428567</ele><time>2026-04-11T14:00:54.538Z</time></trkpt><trkpt lat="45.9890913" lon="11.8667406"><ele>470.0</ele><time>2026-04-11T14:00:56.537Z</time></trkpt><trkpt lat="45.9890947" lon="11.8668482"><ele>470.57142857142856</ele><time>2026-04-11T14:00:58.539Z</time></trkpt><trkpt lat="45.9891064" lon="11.8669522"><ele>471.1428571428571</ele><time>2026-04-11T14:01:00.541Z</time></trkpt><trkpt lat="45.9891182" lon="11.8670441"><ele>471.71428571428567</ele><time>2026-04-11T14:01:02.54Z</time></trkpt><trkpt lat="45.9891334" lon="11.8671401"><ele>472.2857142857142</ele><time>2026-04-11T14:01:04.536Z</time></trkpt><trkpt lat="45.9891452" lon="11.8672384"><ele>472.85714285714283</ele><time>2026-04-11T14:01:06.537Z</time></trkpt><trkpt lat="45.9891463" lon="11.8673386"><ele>473.42857142857133</ele><time>2026-04-11T14:01:08.539Z</time></trkpt><trkpt lat="45.9891463" lon="11.8674368"><ele>473.99999999999994</ele><time>2026-04-11T14:01:10.536Z</time></trkpt><trkpt lat="45.9891443" lon="11.8675302"><ele>474.1428571428571</ele><time>2026-04-11T14:01:12.535Z</time></trkpt><trkpt lat="45.9891346" lon="11.867638"><ele>474.2857142857143</ele><time>2026-04-11T14:01:14.538Z</time></trkpt><trkpt lat="45.9891253" lon="11.8677409"><ele>474.42857142857144</ele><time>2026-04-11T14:01:16.536Z</time></trkpt><trkpt lat="45.9891273" lon="11.867832"><ele>474.57142857142856</ele><time>2026-04-11T14:01:18.534Z</time></trkpt><trkpt lat="45.9891257" lon="11.8679235"><ele>474.7142857142858</ele><time>2026-04-11T14:01:20.535Z</time></trkpt><trkpt lat="45.989131" lon="11.8680214"><ele>474.8571428571429</ele><time>2026-04-11T14:01:22.537Z</time></trkpt><trkpt lat="45.9891282" lon="11.8681171"><ele>475.0</ele><time>2026-04-11T14:01:24.537Z</time></trkpt><trkpt lat="45.9891116" lon="11.8682084"><ele>475.0</ele><time>2026-04-11T14:01:26.536Z</time></trkpt><trkpt lat="45.9890939" lon="11.868299"><ele>475.00000000000006</ele><time>2026-04-11T14:01:28.537Z</time></trkpt><trkpt lat="45.9890762" lon="11.868386"><ele>475.0</ele><time>2026-04-11T14:01:30.538Z</time></trkpt><trkpt lat="45.9890594" lon="11.8684884"><ele>475.0</ele><time>2026-04-11T14:01:32.54Z</time></trkpt><trkpt lat="45.989048" lon="11.8685881"><ele>475.00000000000006</ele><time>2026-04-11T14:01:34.538Z</time></trkpt><trkpt lat="45.9890224" lon="11.8686878"><ele>475.0</ele><time>2026-04-11T14:01:36.54Z</time></trkpt><trkpt lat="45.9889922" lon="11.8687861"><ele>475.0</ele><time>2026-04-11T14:01:38.54Z</time></trkpt><trkpt lat="45.9889582" lon="11.8689005"><ele>474.8571428571429</ele><time>2026-04-11T14:01:41.534Z</time></trkpt><trkpt lat="45.9889513" lon="11.8689915"><ele>474.7142857142858</ele><time>2026-04-11T14:01:44.536Z</time></trkpt><trkpt lat="45.9889423" lon="11.8691106"><ele>474.57142857142856</ele><time>2026-04-11T14:01:47.536Z</time></trkpt><trkpt lat="45.9889372" lon="11.8692024"><ele>474.42857142857144</ele><time>2026-04-11T14:01:49.535Z</time></trkpt><trkpt lat="45.9889351" lon="11.8693357"><ele>474.2857142857143</ele><time>2026-04-11T14:01:52.536Z</time></trkpt><trkpt lat="45.9889481" lon="11.8694337"><ele>474.1428571428571</ele><time>2026-04-11T14:01:54.539Z</time></trkpt><trkpt lat="45.9889655" lon="11.8695251"><ele>473.99999999999994</ele><time>2026-04-11T14:01:56.537Z</time></trkpt><trkpt lat="45.9889829" lon="11.8696188"><ele>473.71428571428567</ele><time>2026-04-11T14:01:58.535Z</time></trkpt><trkpt lat="45.9890017" lon="11.8697167"><ele>473.42857142857144</ele><time>2026-04-11T14:02:00.539Z</time></trkpt><trkpt lat="45.9890165" lon="11.8698085"><ele>473.1428571428571</ele><time>2026-04-11T14:02:02.537Z</time></trkpt><trkpt lat="45.9890091" lon="11.8699049"><ele>472.85714285714283</ele><time>2026-04-11T14:02:04.54Z</time></trkpt><trkpt lat="45.9889787" lon="11.8700027"><ele>472.57142857142856</ele><time>2026-04-11T14:02:06.537Z</time></trkpt><trkpt lat="45.9889328" lon="11.8700929"><ele>472.2857142857143</ele><time>2026-04-11T14:02:08.538Z</time></trkpt><trkpt lat="45.9888974" lon="11.8701847"><ele>472.0</ele><time>2026-04-11T14:02:10.537Z</time></trkpt><trkpt lat="45.9888574" lon="11.8702792"><ele>469.85714285714283</ele><time>2026-04-11T14:02:12.537Z</time></trkpt><trkpt lat="45.9888093" lon="11.8703639"><ele>467.7142857142858</ele><time>2026-04-11T14:02:14.539Z</time></trkpt><trkpt lat="45.9887606" lon="11.8704384"><ele>465.5714285714286</ele><time>2026-04-11T14:02:16.536Z</time></trkpt><trkpt lat="45.988725" lon="11.8705149"><ele>463.42857142857144</ele><time>2026-04-11T14:02:18.536Z</time></trkpt><trkpt lat="45.9886756" lon="11.8705851"><ele>461.28571428571433</ele><time>2026-04-11T14:02:20.537Z</time></trkpt><trkpt lat="45.9886275" lon="11.8706528"><ele>459.1428571428572</ele><time>2026-04-11T14:02:22.538Z</time></trkpt><trkpt lat="45.988571" lon="11.8707143"><ele>457.00000000000006</ele><time>2026-04-11T14:02:24.537Z</time></trkpt><trkpt lat="45.9885142" lon="11.8707726"><ele>457.00000000000006</ele><time>2026-04-11T14:02:26.539Z</time></trkpt><trkpt lat="45.9884533" lon="11.8708138"><ele>457.0</ele><time>2026-04-11T14:02:28.536Z</time></trkpt><trkpt lat="45.9883947" lon="11.8708731"><ele>457.00000000000006</ele><time>2026-04-11T14:02:30.538Z</time></trkpt><trkpt lat="45.9883406" lon="11.8709417"><ele>457.00000000000006</ele><time>2026-04-11T14:02:32.538Z</time></trkpt><trkpt lat="45.9882837" lon="11.8709893"><ele>457.0</ele><time>2026-04-11T14:02:34.538Z</time></trkpt><trkpt lat="45.9882274" lon="11.8710433"><ele>457.00000000000006</ele><time>2026-04-11T14:02:36.539Z</time></trkpt><trkpt lat="45.9881704" lon="11.8710979"><ele>457.00000000000006</ele><time>2026-04-11T14:02:38.54Z</time></trkpt><trkpt lat="45.9881168" lon="11.8711599"><ele>458.57142857142867</ele><time>2026-04-11T14:02:40.537Z</time></trkpt><trkpt lat="45.9880606" lon="11.8712179"><ele>460.14285714285717</ele><time>2026-04-11T14:02:42.537Z</time></trkpt><trkpt lat="45.9880086" lon="11.8712728"><ele>461.7142857142858</ele><time>2026-04-11T14:02:44.537Z</time></trkpt><trkpt lat="45.9879328" lon="11.871304"><ele>463.28571428571433</ele><time>2026-04-11T14:02:47.539Z</time></trkpt><trkpt lat="45.9878583" lon="11.8713364"><ele>464.8571428571429</ele><time>2026-04-11T14:02:50.539Z</time></trkpt><trkpt lat="45.9877944" lon="11.8713994"><ele>466.42857142857144</ele><time>2026-04-11T14:02:53.538Z</time></trkpt><trkpt lat="45.9877456" lon="11.8714911"><ele>468.0</ele><time>2026-04-11T14:02:56.536Z</time></trkpt><trkpt lat="45.9876933" lon="11.8715996"><ele>468.0</ele><time>2026-04-11T14:02:59.539Z</time></trkpt><trkpt lat="45.9876301" lon="11.8716968"><ele>468.0</ele><time>2026-04-11T14:03:02.539Z</time></trkpt><trkpt lat="45.9875721" lon="11.8717696"><ele>468.0</ele><time>2026-04-11T14:03:05.538Z</time></trkpt><trkpt lat="45.9875033" lon="11.8718252"><ele>468.0</ele><time>2026-04-11T14:03:08.54Z</time></trkpt><trkpt lat="45.9874533" lon="11.8718858"><ele>468.0</ele><time>2026-04-11T14:03:11.539Z</time></trkpt><trkpt lat="45.987406" lon="11.8719467"><ele>468.0</ele><time>2026-04-11T14:03:14.539Z</time></trkpt><trkpt lat="45.987347" lon="11.8720116"><ele>469.28571428571433</ele><time>2026-04-11T14:03:17.534Z</time></trkpt><trkpt lat="45.9872916" lon="11.8720743"><ele>470.5714285714286</ele><time>2026-04-11T14:03:20.539Z</time></trkpt><trkpt lat="45.9872323" lon="11.8721556"><ele>471.8571428571429</ele><time>2026-04-11T14:03:24.538Z</time></trkpt><trkpt lat="45.9871804" lon="11.8722137"><ele>473.1428571428571</ele><time>2026-04-11T14:03:27.539Z</time></trkpt><trkpt lat="45.9871288" lon="11.872283"><ele>474.4285714285714</ele><time>2026-04-11T14:03:31.54Z</time></trkpt><trkpt lat="45.9870734" lon="11.8723365"><ele>475.71428571428567</ele><time>2026-04-11T14:03:34.539Z</time></trkpt><trkpt lat="45.9870176" lon="11.8724122"><ele>477.0</ele><time>2026-04-11T14:03:38.538Z</time></trkpt><trkpt lat="45.9869662" lon="11.8724711"><ele>477.0</ele><time>2026-04-11T14:03:41.539Z</time></trkpt><trkpt lat="45.9869049" lon="11.8725278"><ele>476.99999999999994</ele><time>2026-04-11T14:03:45.537Z</time></trkpt><trkpt lat="45.9868427" lon="11.872563"><ele>477.0</ele><time>2026-04-11T14:03:49.538Z</time></trkpt><trkpt lat="45.9867666" lon="11.872595"><ele>477.0</ele><time>2026-04-11T14:03:53.538Z</time></trkpt><trkpt lat="45.9866894" lon="11.8726401"><ele>476.99999999999994</ele><time>2026-04-11T14:03:57.539Z</time></trkpt><trkpt lat="45.9866195" lon="11.8726846"><ele>477.0</ele><time>2026-04-11T14:04:01.539Z</time></trkpt><trkpt lat="45.9865514" lon="11.8727031"><ele>477.0</ele><time>2026-04-11T14:04:04.537Z</time></trkpt><trkpt lat="45.9864829" lon="11.8727305"><ele>478.6666666666667</ele><time>2026-04-11T14:04:07.539Z</time></trkpt><trkpt lat="45.9864145" lon="11.872772"><ele>480.33333333333337</ele><time>2026-04-11T14:04:10.539Z</time></trkpt><trkpt lat="45.9863462" lon="11.8728049"><ele>482.0</ele><time>2026-04-11T14:04:13.539Z</time></trkpt><trkpt lat="45.9862901" lon="11.8728493"><ele>483.6666666666667</ele><time>2026-04-11T14:04:15.538Z</time></trkpt><trkpt lat="45.98622" lon="11.8729184"><ele>485.33333333333337</ele><time>2026-04-11T14:04:18.538Z</time></trkpt><trkpt lat="45.9861508" lon="11.8729853"><ele>487.0</ele><time>2026-04-11T14:04:21.538Z</time></trkpt><trkpt lat="45.9860832" lon="11.8730295"><ele>487.0</ele><time>2026-04-11T14:04:24.536Z</time></trkpt><trkpt lat="45.9860145" lon="11.8730678"><ele>487.0</ele><time>2026-04-11T14:04:28.537Z</time></trkpt><trkpt lat="45.9859568" lon="11.873111"><ele>487.0</ele><time>2026-04-11T14:04:31.538Z</time></trkpt><trkpt lat="45.9858864" lon="11.8731397"><ele>487.0</ele><time>2026-04-11T14:04:35.539Z</time></trkpt><trkpt lat="45.9858203" lon="11.8731433"><ele>487.0</ele><time>2026-04-11T14:04:38.539Z</time></trkpt><trkpt lat="45.9857543" lon="11.8731519"><ele>487.0</ele><time>2026-04-11T14:04:41.538Z</time></trkpt><trkpt lat="45.9856955" lon="11.8731879"><ele>487.0</ele><time>2026-04-11T14:04:44.539Z</time></trkpt><trkpt lat="45.9856274" lon="11.8732425"><ele>490.6666666666667</ele><time>2026-04-11T14:04:48.54Z</time></trkpt><trkpt lat="45.9855706" lon="11.8733042"><ele>494.33333333333337</ele><time>2026-04-11T14:04:51.539Z</time></trkpt><trkpt lat="45.9855128" lon="11.8733816"><ele>498.0</ele><time>2026-04-11T14:04:54.54Z</time></trkpt><trkpt lat="45.9854394" lon="11.8734234"><ele>501.66666666666663</ele><time>2026-04-11T14:04:57.54Z</time></trkpt><trkpt lat="45.9853594" lon="11.8734358"><ele>505.3333333333333</ele><time>2026-04-11T14:05:00.536Z</time></trkpt><trkpt lat="45.985295" lon="11.873449"><ele>509.0</ele><time>2026-04-11T14:05:03.537Z</time></trkpt><trkpt lat="45.9852278" lon="11.8735064"><ele>508.99999999999994</ele><time>2026-04-11T14:05:06.542Z</time></trkpt><trkpt lat="45.985168" lon="11.8735881"><ele>509.0</ele><time>2026-04-11T14:05:09.54Z</time></trkpt><trkpt lat="45.9851292" lon="11.873694"><ele>509.0</ele><time>2026-04-11T14:05:13.542Z</time></trkpt><trkpt lat="45.98511" lon="11.8737938"><ele>509.0</ele><time>2026-04-11T14:05:16.539Z</time></trkpt><trkpt lat="45.9851106" lon="11.8738963"><ele>508.99999999999994</ele><time>2026-04-11T14:05:20.539Z</time></trkpt><trkpt lat="45.9850813" lon="11.873985"><ele>509.0</ele><time>2026-04-11T14:05:24.537Z</time></trkpt><trkpt lat="45.9850493" lon="11.8740822"><ele>508.99999999999994</ele><time>2026-04-11T14:05:28.537Z</time></trkpt><trkpt lat="45.9850131" lon="11.8741691"><ele>509.0</ele><time>2026-04-11T14:05:32.538Z</time></trkpt><trkpt lat="45.9849679" lon="11.8742425"><ele>508.99999999999994</ele><time>2026-04-11T14:05:36.539Z</time></trkpt><trkpt lat="45.9848995" lon="11.874309"><ele>508.99999999999994</ele><time>2026-04-11T14:05:40.536Z</time></trkpt><trkpt lat="45.9848474" lon="11.8743634"><ele>509.0</ele><time>2026-04-11T14:05:43.536Z</time></trkpt><trkpt lat="45.9847946" lon="11.8744132"><ele>508.99999999999994</ele><time>2026-04-11T14:05:46.537Z</time></trkpt><trkpt lat="45.9847259" lon="11.8744484"><ele>508.99999999999994</ele><time>2026-04-11T14:05:50.539Z</time></trkpt><trkpt lat="45.9846488" lon="11.8744821"><ele>511.2857142857142</ele><time>2026-04-11T14:05:54.539Z</time></trkpt><trkpt lat="45.98458" lon="11.8745066"><ele>513.5714285714286</ele><time>2026-04-11T14:05:57.538Z</time></trkpt><trkpt lat="45.9845169" lon="11.8745331"><ele>515.8571428571429</ele><time>2026-04-11T14:06:00.538Z</time></trkpt><trkpt lat="45.9844686" lon="11.8744742"><ele>518.1428571428571</ele><time>2026-04-11T14:06:04.537Z</time></trkpt><trkpt lat="45.9845286" lon="11.8744099"><ele>520.4285714285714</ele><time>2026-04-11T14:06:08.538Z</time></trkpt><trkpt lat="45.9845795" lon="11.874349"><ele>522.7142857142857</ele><time>2026-04-11T14:06:11.538Z</time></trkpt><trkpt lat="45.9846199" lon="11.874274"><ele>525.0</ele><time>2026-04-11T14:06:14.538Z</time></trkpt><trkpt lat="45.9846561" lon="11.8741982"><ele>527.6666666666666</ele><time>2026-04-11T14:06:17.538Z</time></trkpt><trkpt lat="45.9846946" lon="11.8741107"><ele>530.3333333333334</ele><time>2026-04-11T14:06:20.538Z</time></trkpt><trkpt lat="45.9847249" lon="11.8740136"><ele>533.0</ele><time>2026-04-11T14:06:23.536Z</time></trkpt><trkpt lat="45.9847501" lon="11.8739151"><ele>535.6666666666667</ele><time>2026-04-11T14:06:26.538Z</time></trkpt><trkpt lat="45.984686" lon="11.873853"><ele>538.3333333333334</ele><time>2026-04-11T14:06:30.538Z</time></trkpt><trkpt lat="45.9846313" lon="11.8739166"><ele>541.0</ele><time>2026-04-11T14:06:34.539Z</time></trkpt><trkpt lat="45.9845739" lon="11.8740068"><ele>541.0</ele><time>2026-04-11T14:06:37.539Z</time></trkpt><trkpt lat="45.9845234" lon="11.8740783"><ele>541.0</ele><time>2026-04-11T14:06:40.538Z</time></trkpt><trkpt lat="45.984478" lon="11.8741639"><ele>541.0</ele><time>2026-04-11T14:06:43.538Z</time></trkpt><trkpt lat="45.9844218" lon="11.8742395"><ele>541.0</ele><time>2026-04-11T14:06:46.538Z</time></trkpt><trkpt lat="45.984364" lon="11.8743082"><ele>541.0</ele><time>2026-04-11T14:06:49.541Z</time></trkpt><trkpt lat="45.9842933" lon="11.8743735"><ele>541.0</ele><time>2026-04-11T14:06:52.537Z</time></trkpt><trkpt lat="45.984213" lon="11.874414"><ele>543.0000000000001</ele><time>2026-04-11T14:06:55.538Z</time></trkpt><trkpt lat="45.9841226" lon="11.8744229"><ele>545.0</ele><time>2026-04-11T14:06:58.538Z</time></trkpt><trkpt lat="45.9840452" lon="11.8743915"><ele>547.0</ele><time>2026-04-11T14:07:01.535Z</time></trkpt><trkpt lat="45.9839855" lon="11.8743472"><ele>549.0</ele><time>2026-04-11T14:07:04.539Z</time></trkpt><trkpt lat="45.9839238" lon="11.8742996"><ele>551.0</ele><time>2026-04-11T14:07:08.54Z</time></trkpt><trkpt lat="45.9838618" lon="11.8743198"><ele>553.0000000000001</ele><time>2026-04-11T14:07:13.538Z</time></trkpt><trkpt lat="45.9838344" lon="11.8744018"><ele>555.0</ele><time>2026-04-11T14:07:16.536Z</time></trkpt><trkpt lat="45.9838198" lon="11.8744985"><ele>555.0</ele><time>2026-04-11T14:07:19.538Z</time></trkpt><trkpt lat="45.9838151" lon="11.8746134"><ele>555.0</ele><time>2026-04-11T14:07:22.539Z</time></trkpt><trkpt lat="45.9837752" lon="11.8747062"><ele>555.0</ele><time>2026-04-11T14:07:25.539Z</time></trkpt><trkpt lat="45.9837011" lon="11.8747751"><ele>555.0</ele><time>2026-04-11T14:07:28.538Z</time></trkpt><trkpt lat="45.9836389" lon="11.8748524"><ele>555.0</ele><time>2026-04-11T14:07:31.538Z</time></trkpt><trkpt lat="45.9835793" lon="11.8748948"><ele>555.0</ele><time>2026-04-11T14:07:33.539Z</time></trkpt><trkpt lat="45.9835109" lon="11.8749201"><ele>555.0</ele><time>2026-04-11T14:07:35.54Z</time></trkpt><trkpt lat="45.9834327" lon="11.8749711"><ele>555.0</ele><time>2026-04-11T14:07:38.537Z</time></trkpt><trkpt lat="45.983377" lon="11.8750296"><ele>555.0</ele><time>2026-04-11T14:07:41.54Z</time></trkpt><trkpt lat="45.983337" lon="11.8751174"><ele>555.0</ele><time>2026-04-11T14:07:44.539Z</time></trkpt><trkpt lat="45.9833209" lon="11.8752345"><ele>555.0</ele><time>2026-04-11T14:07:47.54Z</time></trkpt><trkpt lat="45.9833029" lon="11.8753571"><ele>555.0</ele><time>2026-04-11T14:07:50.538Z</time></trkpt><trkpt lat="45.9832711" lon="11.8754427"><ele>558.5</ele><time>2026-04-11T14:07:52.539Z</time></trkpt><trkpt lat="45.9832317" lon="11.8755191"><ele>562.0</ele><time>2026-04-11T14:07:54.538Z</time></trkpt><trkpt lat="45.9831797" lon="11.8756192"><ele>565.5</ele><time>2026-04-11T14:07:57.54Z</time></trkpt><trkpt lat="45.983122" lon="11.8757075"><ele>569.0</ele><time>2026-04-11T14:08:00.54Z</time></trkpt><trkpt lat="45.9830439" lon="11.8757753"><ele>572.5</ele><time>2026-04-11T14:08:03.537Z</time></trkpt><trkpt lat="45.9829635" lon="11.8758171"><ele>576.0</ele><time>2026-04-11T14:08:06.54Z</time></trkpt><trkpt lat="45.9829189" lon="11.8758928"><ele>574.1666666666666</ele><time>2026-04-11T14:08:09.538Z</time></trkpt><trkpt lat="45.9828989" lon="11.8759896"><ele>572.3333333333334</ele><time>2026-04-11T14:08:12.54Z</time></trkpt><trkpt lat="45.9828808" lon="11.8761095"><ele>570.5</ele><time>2026-04-11T14:08:15.54Z</time></trkpt><trkpt lat="45.9828627" lon="11.8762182"><ele>568.6666666666667</ele><time>2026-04-11T14:08:18.54Z</time></trkpt><trkpt lat="45.9828221" lon="11.8763021"><ele>566.8333333333334</ele><time>2026-04-11T14:08:21.537Z</time></trkpt><trkpt lat="45.982819" lon="11.8761915"><ele>565.0</ele><time>2026-04-11T14:08:34.54Z</time></trkpt><trkpt lat="45.982795" lon="11.8760885"><ele>565.0</ele><time>2026-04-11T14:08:38.54Z</time></trkpt><trkpt lat="45.9827929" lon="11.8759765"><ele>565.0</ele><time>2026-04-11T14:08:43.54Z</time></trkpt><trkpt lat="45.9828474" lon="11.8759163"><ele>565.0</ele><time>2026-04-11T14:08:47.54Z</time></trkpt><trkpt lat="45.9829134" lon="11.8758467"><ele>565.0</ele><time>2026-04-11T14:08:51.538Z</time></trkpt><trkpt lat="45.9829772" lon="11.8757633"><ele>565.0</ele><time>2026-04-11T14:08:55.539Z</time></trkpt><trkpt lat="45.9830292" lon="11.8756428"><ele>565.0</ele><time>2026-04-11T14:08:58.539Z</time></trkpt><trkpt lat="45.9830529" lon="11.8755472"><ele>566.5714285714286</ele><time>2026-04-11T14:09:00.538Z</time></trkpt><trkpt lat="45.983062" lon="11.8754523"><ele>568.1428571428571</ele><time>2026-04-11T14:09:02.537Z</time></trkpt><trkpt lat="45.9830809" lon="11.8753263"><ele>569.7142857142858</ele><time>2026-04-11T14:09:05.54Z</time></trkpt><trkpt lat="45.9830831" lon="11.8752269"><ele>571.2857142857142</ele><time>2026-04-11T14:09:08.537Z</time></trkpt><trkpt lat="45.9830987" lon="11.87512"><ele>572.8571428571429</ele><time>2026-04-11T14:09:11.539Z</time></trkpt><trkpt lat="45.9831436" lon="11.8750413"><ele>574.4285714285714</ele><time>2026-04-11T14:09:14.539Z</time></trkpt><trkpt lat="45.9831747" lon="11.8749433"><ele>576.0</ele><time>2026-04-11T14:09:17.54Z</time></trkpt><trkpt lat="45.98321" lon="11.8748423"><ele>575.5</ele><time>2026-04-11T14:09:20.538Z</time></trkpt><trkpt lat="45.9832601" lon="11.8747407"><ele>575.0</ele><time>2026-04-11T14:09:23.539Z</time></trkpt><trkpt lat="45.9833064" lon="11.8746396"><ele>574.5</ele><time>2026-04-11T14:09:26.54Z</time></trkpt><trkpt lat="45.9833375" lon="11.8745583"><ele>574.0</ele><time>2026-04-11T14:09:28.54Z</time></trkpt><trkpt lat="45.9833742" lon="11.8744745"><ele>573.5</ele><time>2026-04-11T14:09:30.54Z</time></trkpt><trkpt lat="45.983427" lon="11.8743755"><ele>573.0</ele><time>2026-04-11T14:09:33.54Z</time></trkpt><trkpt lat="45.9834516" lon="11.8742573"><ele>573.0</ele><time>2026-04-11T14:09:36.54Z</time></trkpt><trkpt lat="45.9834489" lon="11.8741366"><ele>573.0</ele><time>2026-04-11T14:09:39.538Z</time></trkpt><trkpt lat="45.9834308" lon="11.8740151"><ele>573.0</ele><time>2026-04-11T14:09:42.539Z</time></trkpt><trkpt lat="45.983406" lon="11.8739157"><ele>573.0</ele><time>2026-04-11T14:09:45.54Z</time></trkpt><trkpt lat="45.983403" lon="11.8738005"><ele>573.0</ele><time>2026-04-11T14:09:49.537Z</time></trkpt><trkpt lat="45.9834215" lon="11.8736898"><ele>573.0</ele><time>2026-04-11T14:09:52.537Z</time></trkpt><trkpt lat="45.9834221" lon="11.8735976"><ele>573.0</ele><time>2026-04-11T14:09:55.54Z</time></trkpt><trkpt lat="45.9834878" lon="11.8735429"><ele>573.0</ele><time>2026-04-11T14:09:59.54Z</time></trkpt><trkpt lat="45.983555" lon="11.8735709"><ele>573.0</ele><time>2026-04-11T14:10:02.539Z</time></trkpt><trkpt lat="45.9836168" lon="11.8736154"><ele>573.0</ele><time>2026-04-11T14:10:05.539Z</time></trkpt><trkpt lat="45.9836927" lon="11.873582"><ele>573.0</ele><time>2026-04-11T14:10:09.54Z</time></trkpt><trkpt lat="45.9837334" lon="11.8734815"><ele>573.0</ele><time>2026-04-11T14:10:12.54Z</time></trkpt><trkpt lat="45.9837566" lon="11.8733767"><ele>576.3333333333334</ele><time>2026-04-11T14:10:15.539Z</time></trkpt><trkpt lat="45.9837651" lon="11.873243"><ele>579.6666666666666</ele><time>2026-04-11T14:10:18.539Z</time></trkpt><trkpt lat="45.9837715" lon="11.8731206"><ele>583.0</ele><time>2026-04-11T14:10:21.54Z</time></trkpt><trkpt lat="45.983782" lon="11.8730099"><ele>586.3333333333333</ele><time>2026-04-11T14:10:24.54Z</time></trkpt><trkpt lat="45.9838071" lon="11.8729014"><ele>589.6666666666666</ele><time>2026-04-11T14:10:28.537Z</time></trkpt><trkpt lat="45.9838345" lon="11.8728197"><ele>593.0</ele><time>2026-04-11T14:11:08.536Z</time></trkpt><trkpt lat="45.9838534" lon="11.872725"><ele>593.0</ele><time>2026-04-11T14:11:22.535Z</time></trkpt><trkpt lat="45.9839139" lon="11.8726938"><ele>593.0</ele><time>2026-04-11T14:11:25.539Z</time></trkpt><trkpt lat="45.9839893" lon="11.8726593"><ele>593.0</ele><time>2026-04-11T14:11:29.536Z</time></trkpt><trkpt lat="45.9840569" lon="11.8726325"><ele>593.0</ele><time>2026-04-11T14:11:32.536Z</time></trkpt><trkpt lat="45.9841365" lon="11.8725965"><ele>593.0</ele><time>2026-04-11T14:11:35.539Z</time></trkpt><trkpt lat="45.9842137" lon="11.8725578"><ele>593.0</ele><time>2026-04-11T14:11:38.539Z</time></trkpt><trkpt lat="45.9842809" lon="11.8725133"><ele>593.8333333333333</ele><time>2026-04-11T14:11:41.538Z</time></trkpt><trkpt lat="45.9843499" lon="11.8724767"><ele>594.6666666666666</ele><time>2026-04-11T14:11:44.539Z</time></trkpt><trkpt lat="45.9844093" lon="11.8724072"><ele>595.5</ele><time>2026-04-11T14:11:47.537Z</time></trkpt><trkpt lat="45.9844584" lon="11.8723021"><ele>596.3333333333334</ele><time>2026-04-11T14:11:50.538Z</time></trkpt><trkpt lat="45.9844943" lon="11.8722238"><ele>597.1666666666667</ele><time>2026-04-11T14:11:52.539Z</time></trkpt><trkpt lat="45.9845356" lon="11.8721416"><ele>598.0</ele><time>2026-04-11T14:11:54.539Z</time></trkpt><trkpt lat="45.9845958" lon="11.8720452"><ele>598.0</ele><time>2026-04-11T14:11:57.538Z</time></trkpt><trkpt lat="45.9846599" lon="11.8719595"><ele>598.0</ele><time>2026-04-11T14:12:00.537Z</time></trkpt><trkpt lat="45.9847248" lon="11.8718858"><ele>598.0</ele><time>2026-04-11T14:12:03.538Z</time></trkpt><trkpt lat="45.9848008" lon="11.8718313"><ele>598.0</ele><time>2026-04-11T14:12:06.538Z</time></trkpt><trkpt lat="45.98488" lon="11.8717818"><ele>598.0</ele><time>2026-04-11T14:12:09.537Z</time></trkpt><trkpt lat="45.9849506" lon="11.8717675"><ele>598.0</ele><time>2026-04-11T14:12:12.538Z</time></trkpt><trkpt lat="45.9850291" lon="11.8717391"><ele>601.0</ele><time>2026-04-11T14:12:15.537Z</time></trkpt><trkpt lat="45.9851072" lon="11.8716999"><ele>604.0</ele><time>2026-04-11T14:12:18.534Z</time></trkpt><trkpt lat="45.9851768" lon="11.8716447"><ele>607.0</ele><time>2026-04-11T14:12:21.538Z</time></trkpt><trkpt lat="45.9852526" lon="11.8715748"><ele>610.0</ele><time>2026-04-11T14:12:24.533Z</time></trkpt><trkpt lat="45.9853262" lon="11.8715203"><ele>613.0</ele><time>2026-04-11T14:12:27.539Z</time></trkpt><trkpt lat="45.98546" lon="11.8715289"><ele>613.0</ele><time>2026-04-11T14:12:32.536Z</time></trkpt><trkpt lat="45.9855488" lon="11.8715355"><ele>613.0</ele><time>2026-04-11T14:12:35.539Z</time></trkpt><trkpt lat="45.9856283" lon="11.871511"><ele>613.0</ele><time>2026-04-11T14:12:38.538Z</time></trkpt><trkpt lat="45.9857093" lon="11.8714492"><ele>613.0</ele><time>2026-04-11T14:12:41.536Z</time></trkpt><trkpt lat="45.9857948" lon="11.8714177"><ele>613.0</ele><time>2026-04-11T14:12:44.539Z</time></trkpt><trkpt lat="45.9858702" lon="11.8713679"><ele>613.0</ele><time>2026-04-11T14:12:47.537Z</time></trkpt><trkpt lat="45.9859383" lon="11.8712996"><ele>610.3333333333334</ele><time>2026-04-11T14:12:50.535Z</time></trkpt><trkpt lat="45.9859857" lon="11.8711888"><ele>607.6666666666667</ele><time>2026-04-11T14:12:53.539Z</time></trkpt><trkpt lat="45.9860227" lon="11.8710844"><ele>605.0</ele><time>2026-04-11T14:12:56.539Z</time></trkpt><trkpt lat="45.9860759" lon="11.8709843"><ele>602.3333333333334</ele><time>2026-04-11T14:12:59.538Z</time></trkpt><trkpt lat="45.9861145" lon="11.8708899"><ele>599.6666666666666</ele><time>2026-04-11T14:13:02.539Z</time></trkpt><trkpt lat="45.9861436" lon="11.8707892"><ele>597.0</ele><time>2026-04-11T14:13:05.539Z</time></trkpt><trkpt lat="45.9861702" lon="11.8706828"><ele>597.0</ele><time>2026-04-11T14:13:08.537Z</time></trkpt><trkpt lat="45.9862018" lon="11.8705727"><ele>597.0</ele><time>2026-04-11T14:13:11.539Z</time></trkpt><trkpt lat="45.9862189" lon="11.870471"><ele>597.0</ele><time>2026-04-11T14:13:14.538Z</time></trkpt><trkpt lat="45.9862438" lon="11.8703616"><ele>597.0</ele><time>2026-04-11T14:13:17.536Z</time></trkpt><trkpt lat="45.9862864" lon="11.8702423"><ele>597.0</ele><time>2026-04-11T14:13:20.539Z</time></trkpt><trkpt lat="45.9863226" lon="11.87014"><ele>597.0</ele><time>2026-04-11T14:13:23.538Z</time></trkpt><trkpt lat="45.9863551" lon="11.8700184"><ele>600.8333333333334</ele><time>2026-04-11T14:13:26.537Z</time></trkpt><trkpt lat="45.9863906" lon="11.8699051"><ele>604.6666666666666</ele><time>2026-04-11T14:13:29.539Z</time></trkpt><trkpt lat="45.9864303" lon="11.8698339"><ele>608.5</ele><time>2026-04-11T14:13:31.539Z</time></trkpt><trkpt lat="45.9864834" lon="11.8697219"><ele>612.3333333333333</ele><time>2026-04-11T14:13:34.539Z</time></trkpt><trkpt lat="45.9865382" lon="11.8696199"><ele>616.1666666666666</ele><time>2026-04-11T14:13:37.536Z</time></trkpt><trkpt lat="45.9865826" lon="11.8695163"><ele>620.0</ele><time>2026-04-11T14:13:40.535Z</time></trkpt><trkpt lat="45.986551" lon="11.8694277"><ele>620.0</ele><time>2026-04-11T14:13:44.538Z</time></trkpt><trkpt lat="45.9864945" lon="11.8694993"><ele>620.0</ele><time>2026-04-11T14:13:48.54Z</time></trkpt><trkpt lat="45.986437" lon="11.8695637"><ele>620.0</ele><time>2026-04-11T14:13:51.539Z</time></trkpt><trkpt lat="45.9863854" lon="11.8696461"><ele>620.0</ele><time>2026-04-11T14:13:54.54Z</time></trkpt><trkpt lat="45.9863419" lon="11.8697355"><ele>620.0</ele><time>2026-04-11T14:13:57.539Z</time></trkpt><trkpt lat="45.9863004" lon="11.8698193"><ele>620.0</ele><time>2026-04-11T14:14:00.538Z</time></trkpt><trkpt lat="45.9862587" lon="11.8699079"><ele>620.0</ele><time>2026-04-11T14:14:03.54Z</time></trkpt><trkpt lat="45.9862021" lon="11.8700027"><ele>620.0</ele><time>2026-04-11T14:14:06.538Z</time></trkpt><trkpt lat="45.98615" lon="11.8701033"><ele>620.0</ele><time>2026-04-11T14:14:09.537Z</time></trkpt><trkpt lat="45.9861111" lon="11.8702117"><ele>620.0</ele><time>2026-04-11T14:14:12.538Z</time></trkpt><trkpt lat="45.9860813" lon="11.8702927"><ele>620.0</ele><time>2026-04-11T14:14:14.538Z</time></trkpt><trkpt lat="45.9860384" lon="11.8703981"><ele>620.0</ele><time>2026-04-11T14:14:17.54Z</time></trkpt><trkpt lat="45.9860005" lon="11.8705073"><ele>620.0</ele><time>2026-04-11T14:14:20.538Z</time></trkpt><trkpt lat="45.9859626" lon="11.8706215"><ele>616.1666666666666</ele><time>2026-04-11T14:14:23.539Z</time></trkpt><trkpt lat="45.9859102" lon="11.8707233"><ele>612.3333333333333</ele><time>2026-04-11T14:14:26.538Z</time></trkpt><trkpt lat="45.9858649" lon="11.8708063"><ele>608.5</ele><time>2026-04-11T14:14:29.54Z</time></trkpt><trkpt lat="45.985802" lon="11.8708687"><ele>604.6666666666666</ele><time>2026-04-11T14:14:32.54Z</time></trkpt><trkpt lat="45.9857179" lon="11.8708832"><ele>600.8333333333334</ele><time>2026-04-11T14:14:35.538Z</time></trkpt><trkpt lat="45.98563" lon="11.8708983"><ele>597.0</ele><time>2026-04-11T14:14:38.539Z</time></trkpt><trkpt lat="45.9855462" lon="11.8708827"><ele>605.5</ele><time>2026-04-11T14:14:41.538Z</time></trkpt><trkpt lat="45.9854661" lon="11.8708498"><ele>614.0</ele><time>2026-04-11T14:14:44.538Z</time></trkpt><trkpt lat="45.9853836" lon="11.8708174"><ele>622.5</ele><time>2026-04-11T14:14:47.539Z</time></trkpt><trkpt lat="45.9852964" lon="11.8707945"><ele>631.0</ele><time>2026-04-11T14:14:50.54Z</time></trkpt><trkpt lat="45.9852189" lon="11.8707951"><ele>639.5</ele><time>2026-04-11T14:14:53.536Z</time></trkpt><trkpt lat="45.9851372" lon="11.8708496"><ele>648.0</ele><time>2026-04-11T14:14:56.538Z</time></trkpt><trkpt lat="45.9850592" lon="11.8709207"><ele>645.3333333333334</ele><time>2026-04-11T14:14:59.538Z</time></trkpt><trkpt lat="45.984979" lon="11.8709714"><ele>642.6666666666666</ele><time>2026-04-11T14:15:02.537Z</time></trkpt><trkpt lat="45.9849226" lon="11.87102"><ele>640.0</ele><time>2026-04-11T14:15:04.539Z</time></trkpt><trkpt lat="45.984855" lon="11.8711068"><ele>637.3333333333333</ele><time>2026-04-11T14:15:07.539Z</time></trkpt><trkpt lat="45.9847775" lon="11.8711397"><ele>634.6666666666666</ele><time>2026-04-11T14:15:10.536Z</time></trkpt><trkpt lat="45.9846997" lon="11.8711544"><ele>632.0</ele><time>2026-04-11T14:15:13.539Z</time></trkpt><trkpt lat="45.984615" lon="11.871149"><ele>632.0</ele><time>2026-04-11T14:15:16.535Z</time></trkpt><trkpt lat="45.9845288" lon="11.8711347"><ele>632.0</ele><time>2026-04-11T14:15:19.536Z</time></trkpt><trkpt lat="45.9844513" lon="11.8711224"><ele>632.0</ele><time>2026-04-11T14:15:22.539Z</time></trkpt><trkpt lat="45.9843638" lon="11.8710999"><ele>632.0</ele><time>2026-04-11T14:15:25.539Z</time></trkpt><trkpt lat="45.9842992" lon="11.8710944"><ele>632.0</ele><time>2026-04-11T14:15:27.537Z</time></trkpt><trkpt lat="45.9842122" lon="11.8710833"><ele>632.0</ele><time>2026-04-11T14:15:30.539Z</time></trkpt><trkpt lat="45.9841199" lon="11.871076"><ele>636.5</ele><time>2026-04-11T14:15:33.539Z</time></trkpt><trkpt lat="45.9840295" lon="11.8711026"><ele>641.0</ele><time>2026-04-11T14:15:36.538Z</time></trkpt><trkpt lat="45.9839472" lon="11.8711523"><ele>645.5</ele><time>2026-04-11T14:15:39.537Z</time></trkpt><trkpt lat="45.9838579" lon="11.8711752"><ele>650.0</ele><time>2026-04-11T14:15:42.539Z</time></trkpt><trkpt lat="45.9837722" lon="11.8712295"><ele>654.5</ele><time>2026-04-11T14:15:45.536Z</time></trkpt><trkpt lat="45.9837117" lon="11.8712629"><ele>659.0</ele><time>2026-04-11T14:15:47.54Z</time></trkpt><trkpt lat="45.9836411" lon="11.8713021"><ele>659.0</ele><time>2026-04-11T14:15:50.538Z</time></trkpt><trkpt lat="45.9835552" lon="11.8713549"><ele>659.0</ele><time>2026-04-11T14:15:53.537Z</time></trkpt><trkpt lat="45.9834705" lon="11.8714234"><ele>659.0</ele><time>2026-04-11T14:15:56.539Z</time></trkpt><trkpt lat="45.983409" lon="11.8714556"><ele>659.0</ele><time>2026-04-11T14:15:58.539Z</time></trkpt><trkpt lat="45.9833371" lon="11.8715186"><ele>659.0</ele><time>2026-04-11T14:16:01.539Z</time></trkpt><trkpt lat="45.9832621" lon="11.8715772"><ele>659.0</ele><time>2026-04-11T14:16:04.539Z</time></trkpt><trkpt lat="45.9831912" lon="11.8716357"><ele>658.0</ele><time>2026-04-11T14:16:07.538Z</time></trkpt><trkpt lat="45.983114" lon="11.8716854"><ele>657.0</ele><time>2026-04-11T14:16:10.539Z</time></trkpt><trkpt lat="45.9830391" lon="11.8717321"><ele>656.0</ele><time>2026-04-11T14:16:13.54Z</time></trkpt><trkpt lat="45.982962" lon="11.8717597"><ele>655.0</ele><time>2026-04-11T14:16:16.539Z</time></trkpt><trkpt lat="45.9828872" lon="11.871807"><ele>654.0</ele><time>2026-04-11T14:16:19.539Z</time></trkpt><trkpt lat="45.9828313" lon="11.871858"><ele>653.0</ele><time>2026-04-11T14:16:22.538Z</time></trkpt><trkpt lat="45.9827672" lon="11.8719038"><ele>653.0000000000001</ele><time>2026-04-11T14:16:25.54Z</time></trkpt><trkpt lat="45.9826931" lon="11.8719377"><ele>653.0</ele><time>2026-04-11T14:16:28.54Z</time></trkpt><trkpt lat="45.9826167" lon="11.8719627"><ele>653.0</ele><time>2026-04-11T14:16:31.538Z</time></trkpt><trkpt lat="45.9825419" lon="11.8719872"><ele>653.0</ele><time>2026-04-11T14:16:34.538Z</time></trkpt><trkpt lat="45.9824753" lon="11.8719987"><ele>653.0</ele><time>2026-04-11T14:16:37.537Z</time></trkpt><trkpt lat="45.9824001" lon="11.871979"><ele>653.0000000000001</ele><time>2026-04-11T14:16:41.537Z</time></trkpt><trkpt lat="45.9823317" lon="11.8719852"><ele>653.0</ele><time>2026-04-11T14:16:46.537Z</time></trkpt><trkpt lat="45.9823246" lon="11.8718851"><ele>653.0</ele><time>2026-04-11T14:19:36.533Z</time></trkpt><trkpt lat="45.9823285" lon="11.8717937"><ele>653.0</ele><time>2026-04-11T14:19:39.534Z</time></trkpt><trkpt lat="45.9824136" lon="11.8718157"><ele>653.0</ele><time>2026-04-11T14:20:04.536Z</time></trkpt><trkpt lat="45.9824751" lon="11.8718958"><ele>653.0</ele><time>2026-04-11T14:20:07.537Z</time></trkpt><trkpt lat="45.9825399" lon="11.8719551"><ele>653.0</ele><time>2026-04-11T14:20:10.536Z</time></trkpt><trkpt lat="45.9826201" lon="11.8719602"><ele>653.0</ele><time>2026-04-11T14:20:13.537Z</time></trkpt><trkpt lat="45.9827001" lon="11.8719431"><ele>653.0</ele><time>2026-04-11T14:20:16.537Z</time></trkpt><trkpt lat="45.9827736" lon="11.8719193"><ele>653.0</ele><time>2026-04-11T14:20:19.537Z</time></trkpt><trkpt lat="45.9828351" lon="11.8718975"><ele>653.0</ele><time>2026-04-11T14:20:22.538Z</time></trkpt><trkpt lat="45.9828966" lon="11.8718534"><ele>653.0</ele><time>2026-04-11T14:20:25.537Z</time></trkpt><trkpt lat="45.9829718" lon="11.8718239"><ele>653.0</ele><time>2026-04-11T14:20:28.538Z</time></trkpt><trkpt lat="45.9830508" lon="11.8717908"><ele>653.0</ele><time>2026-04-11T14:20:31.537Z</time></trkpt><trkpt lat="45.9831353" lon="11.8717456"><ele>654.0</ele><time>2026-04-11T14:20:34.536Z</time></trkpt><trkpt lat="45.9832071" lon="11.8716977"><ele>655.0</ele><time>2026-04-11T14:20:36.538Z</time></trkpt><trkpt lat="45.9832653" lon="11.871641"><ele>656.0</ele><time>2026-04-11T14:20:38.537Z</time></trkpt><trkpt lat="45.9833312" lon="11.8715866"><ele>657.0</ele><time>2026-04-11T14:20:40.537Z</time></trkpt><trkpt lat="45.9834013" lon="11.87152"><ele>658.0</ele><time>2026-04-11T14:20:42.538Z</time></trkpt><trkpt lat="45.9834652" lon="11.87147"><ele>659.0</ele><time>2026-04-11T14:20:44.537Z</time></trkpt><trkpt lat="45.9835296" lon="11.8714252"><ele>659.0</ele><time>2026-04-11T14:20:46.536Z</time></trkpt><trkpt lat="45.9835886" lon="11.8713761"><ele>659.0</ele><time>2026-04-11T14:20:48.537Z</time></trkpt><trkpt lat="45.983663" lon="11.8713459"><ele>659.0</ele><time>2026-04-11T14:20:50.535Z</time></trkpt><trkpt lat="45.9837407" lon="11.871315"><ele>659.0</ele><time>2026-04-11T14:20:52.538Z</time></trkpt><trkpt lat="45.9838096" lon="11.8712733"><ele>659.0</ele><time>2026-04-11T14:20:54.536Z</time></trkpt><trkpt lat="45.9838664" lon="11.8712317"><ele>659.0</ele><time>2026-04-11T14:20:56.536Z</time></trkpt><trkpt lat="45.9839225" lon="11.8711662"><ele>659.0</ele><time>2026-04-11T14:20:58.534Z</time></trkpt><trkpt lat="45.9839825" lon="11.8711029"><ele>659.0</ele><time>2026-04-11T14:21:00.537Z</time></trkpt><trkpt lat="45.9840648" lon="11.8710918"><ele>659.0</ele><time>2026-04-11T14:21:02.536Z</time></trkpt><trkpt lat="45.9841391" lon="11.8711138"><ele>659.0</ele><time>2026-04-11T14:21:04.534Z</time></trkpt><trkpt lat="45.9842151" lon="11.8711234"><ele>659.0</ele><time>2026-04-11T14:21:06.535Z</time></trkpt><trkpt lat="45.9842895" lon="11.8711387"><ele>659.0</ele><time>2026-04-11T14:21:08.536Z</time></trkpt><trkpt lat="45.9843661" lon="11.8711483"><ele>659.0</ele><time>2026-04-11T14:21:10.538Z</time></trkpt><trkpt lat="45.9844525" lon="11.8711614"><ele>653.6</ele><time>2026-04-11T14:21:13.536Z</time></trkpt><trkpt lat="45.9845197" lon="11.8711769"><ele>648.2</ele><time>2026-04-11T14:21:15.537Z</time></trkpt><trkpt lat="45.9845823" lon="11.8712005"><ele>642.8000000000001</ele><time>2026-04-11T14:21:17.537Z</time></trkpt><trkpt lat="45.9847304" lon="11.8712007"><ele>637.4000000000001</ele><time>2026-04-11T14:21:22.534Z</time></trkpt><trkpt lat="45.9848136" lon="11.8711857"><ele>632.0</ele><time>2026-04-11T14:21:25.535Z</time></trkpt><trkpt lat="45.9849092" lon="11.8711356"><ele>632.0000000000001</ele><time>2026-04-11T14:21:28.534Z</time></trkpt><trkpt lat="45.984985" lon="11.871089"><ele>632.0</ele><time>2026-04-11T14:21:30.537Z</time></trkpt><trkpt lat="45.9850559" lon="11.8710514"><ele>632.0</ele><time>2026-04-11T14:21:32.537Z</time></trkpt><trkpt lat="45.9851093" lon="11.8709952"><ele>632.0</ele><time>2026-04-11T14:21:34.536Z</time></trkpt><trkpt lat="45.9851701" lon="11.8709365"><ele>632.0</ele><time>2026-04-11T14:21:36.536Z</time></trkpt><trkpt lat="45.9852394" lon="11.8709208"><ele>632.0000000000001</ele><time>2026-04-11T14:21:38.538Z</time></trkpt><trkpt lat="45.985321" lon="11.87093"><ele>632.0</ele><time>2026-04-11T14:21:40.535Z</time></trkpt><trkpt lat="45.9853995" lon="11.8709418"><ele>634.6666666666666</ele><time>2026-04-11T14:21:42.535Z</time></trkpt><trkpt lat="45.9854789" lon="11.8709653"><ele>637.3333333333333</ele><time>2026-04-11T14:21:44.536Z</time></trkpt><trkpt lat="45.9855509" lon="11.8710058"><ele>640.0</ele><time>2026-04-11T14:21:46.534Z</time></trkpt><trkpt lat="45.9856257" lon="11.8710118"><ele>642.6666666666666</ele><time>2026-04-11T14:21:48.538Z</time></trkpt><trkpt lat="45.9857019" lon="11.8709796"><ele>645.3333333333334</ele><time>2026-04-11T14:21:50.534Z</time></trkpt><trkpt lat="45.9857746" lon="11.8709599"><ele>648.0</ele><time>2026-04-11T14:21:52.537Z</time></trkpt><trkpt lat="45.9858414" lon="11.8709097"><ele>639.5</ele><time>2026-04-11T14:21:54.535Z</time></trkpt><trkpt lat="45.9859179" lon="11.870843"><ele>631.0</ele><time>2026-04-11T14:21:57.537Z</time></trkpt><trkpt lat="45.9859743" lon="11.8707472"><ele>622.5</ele><time>2026-04-11T14:22:00.536Z</time></trkpt><trkpt lat="45.9860125" lon="11.8706316"><ele>614.0</ele><time>2026-04-11T14:22:03.538Z</time></trkpt><trkpt lat="45.9860451" lon="11.8705424"><ele>605.5</ele><time>2026-04-11T14:22:05.536Z</time></trkpt><trkpt lat="45.9860972" lon="11.870445"><ele>597.0</ele><time>2026-04-11T14:22:08.538Z</time></trkpt><trkpt lat="45.9861247" lon="11.8703563"><ele>597.0</ele><time>2026-04-11T14:22:10.538Z</time></trkpt><trkpt lat="45.9861518" lon="11.87026"><ele>597.0</ele><time>2026-04-11T14:22:12.536Z</time></trkpt><trkpt lat="45.9862106" lon="11.8701563"><ele>597.0</ele><time>2026-04-11T14:22:15.536Z</time></trkpt><trkpt lat="45.9862579" lon="11.870095"><ele>597.0</ele><time>2026-04-11T14:22:17.537Z</time></trkpt><trkpt lat="45.9863155" lon="11.8699973"><ele>597.0</ele><time>2026-04-11T14:22:20.537Z</time></trkpt><trkpt lat="45.9863681" lon="11.8699026"><ele>597.0</ele><time>2026-04-11T14:22:22.537Z</time></trkpt><trkpt lat="45.9864119" lon="11.8698273"><ele>600.8333333333334</ele><time>2026-04-11T14:22:24.536Z</time></trkpt><trkpt lat="45.986457" lon="11.869747"><ele>604.6666666666666</ele><time>2026-04-11T14:22:26.539Z</time></trkpt><trkpt lat="45.9864936" lon="11.8696618"><ele>608.5</ele><time>2026-04-11T14:22:28.537Z</time></trkpt><trkpt lat="45.9865282" lon="11.8695462"><ele>612.3333333333333</ele><time>2026-04-11T14:22:31.538Z</time></trkpt><trkpt lat="45.9865567" lon="11.8694338"><ele>616.1666666666666</ele><time>2026-04-11T14:22:34.539Z</time></trkpt><trkpt lat="45.9865633" lon="11.8695345"><ele>620.0</ele><time>2026-04-11T14:22:42.538Z</time></trkpt><trkpt lat="45.9865045" lon="11.8696278"><ele>620.0</ele><time>2026-04-11T14:22:45.537Z</time></trkpt><trkpt lat="45.9864474" lon="11.8697311"><ele>620.0</ele><time>2026-04-11T14:22:48.537Z</time></trkpt><trkpt lat="45.9864005" lon="11.8698532"><ele>620.0</ele><time>2026-04-11T14:22:51.537Z</time></trkpt><trkpt lat="45.9863679" lon="11.8699538"><ele>620.0</ele><time>2026-04-11T14:22:53.538Z</time></trkpt><trkpt lat="45.9863356" lon="11.8700563"><ele>620.0</ele><time>2026-04-11T14:22:55.535Z</time></trkpt><trkpt lat="45.9862956" lon="11.8701648"><ele>620.0</ele><time>2026-04-11T14:22:57.536Z</time></trkpt><trkpt lat="45.9862629" lon="11.870259"><ele>616.1666666666666</ele><time>2026-04-11T14:22:59.537Z</time></trkpt><trkpt lat="45.986236" lon="11.8703428"><ele>612.3333333333333</ele><time>2026-04-11T14:23:01.537Z</time></trkpt><trkpt lat="45.9862173" lon="11.870433"><ele>608.5</ele><time>2026-04-11T14:23:03.535Z</time></trkpt><trkpt lat="45.9861923" lon="11.8705472"><ele>604.6666666666666</ele><time>2026-04-11T14:23:06.536Z</time></trkpt><trkpt lat="45.9861827" lon="11.8706855"><ele>600.8333333333334</ele><time>2026-04-11T14:23:09.535Z</time></trkpt><trkpt lat="45.986154" lon="11.8708054"><ele>597.0</ele><time>2026-04-11T14:23:12.537Z</time></trkpt><trkpt lat="45.9861208" lon="11.8708856"><ele>599.2857142857143</ele><time>2026-04-11T14:23:14.538Z</time></trkpt><trkpt lat="45.9860877" lon="11.8709707"><ele>601.5714285714286</ele><time>2026-04-11T14:23:16.537Z</time></trkpt><trkpt lat="45.9860529" lon="11.8710509"><ele>603.8571428571429</ele><time>2026-04-11T14:23:18.537Z</time></trkpt><trkpt lat="45.9860167" lon="11.8711358"><ele>606.1428571428571</ele><time>2026-04-11T14:23:20.538Z</time></trkpt><trkpt lat="45.9859754" lon="11.8712134"><ele>608.4285714285714</ele><time>2026-04-11T14:23:22.537Z</time></trkpt><trkpt lat="45.9859235" lon="11.8712717"><ele>610.7142857142858</ele><time>2026-04-11T14:23:24.537Z</time></trkpt><trkpt lat="45.9858635" lon="11.8713058"><ele>613.0</ele><time>2026-04-11T14:23:26.538Z</time></trkpt><trkpt lat="45.9857999" lon="11.8713354"><ele>613.0</ele><time>2026-04-11T14:23:28.536Z</time></trkpt><trkpt lat="45.9857346" lon="11.8713756"><ele>613.0</ele><time>2026-04-11T14:23:30.536Z</time></trkpt><trkpt lat="45.985671" lon="11.8714185"><ele>613.0</ele><time>2026-04-11T14:23:32.538Z</time></trkpt><trkpt lat="45.9856107" lon="11.8714492"><ele>613.0</ele><time>2026-04-11T14:23:34.536Z</time></trkpt><trkpt lat="45.9855435" lon="11.8714696"><ele>613.0</ele><time>2026-04-11T14:23:36.538Z</time></trkpt><trkpt lat="45.9854761" lon="11.8714662"><ele>613.0</ele><time>2026-04-11T14:23:38.538Z</time></trkpt><trkpt lat="45.9854035" lon="11.8714612"><ele>613.0</ele><time>2026-04-11T14:23:40.538Z</time></trkpt><trkpt lat="45.9853433" lon="11.8714905"><ele>613.0</ele><time>2026-04-11T14:23:42.538Z</time></trkpt><trkpt lat="45.9852893" lon="11.8715441"><ele>613.0</ele><time>2026-04-11T14:23:44.537Z</time></trkpt><trkpt lat="45.9852094" lon="11.8716057"><ele>613.0</ele><time>2026-04-11T14:23:47.536Z</time></trkpt><trkpt lat="45.9851404" lon="11.8716481"><ele>613.0</ele><time>2026-04-11T14:23:49.538Z</time></trkpt><trkpt lat="45.9850627" lon="11.8716708"><ele>613.0</ele><time>2026-04-11T14:23:51.536Z</time></trkpt><trkpt lat="45.9849774" lon="11.8716963"><ele>613.0</ele><time>2026-04-11T14:23:54.537Z</time></trkpt><trkpt lat="45.9849136" lon="11.8717138"><ele>610.5</ele><time>2026-04-11T14:23:56.537Z</time></trkpt><trkpt lat="45.984829" lon="11.8717409"><ele>608.0</ele><time>2026-04-11T14:23:59.537Z</time></trkpt><trkpt lat="45.9847612" lon="11.8717862"><ele>605.5</ele><time>2026-04-11T14:24:01.537Z</time></trkpt><trkpt lat="45.9846956" lon="11.871853"><ele>603.0</ele><time>2026-04-11T14:24:03.536Z</time></trkpt><trkpt lat="45.9846373" lon="11.8719463"><ele>600.5</ele><time>2026-04-11T14:24:05.538Z</time></trkpt><trkpt lat="45.9845801" lon="11.8720357"><ele>598.0</ele><time>2026-04-11T14:24:07.538Z</time></trkpt><trkpt lat="45.9845301" lon="11.8721204"><ele>598.0</ele><time>2026-04-11T14:24:09.538Z</time></trkpt><trkpt lat="45.9844754" lon="11.8722075"><ele>598.0</ele><time>2026-04-11T14:24:11.54Z</time></trkpt><trkpt lat="45.9844154" lon="11.8722817"><ele>598.0</ele><time>2026-04-11T14:24:13.537Z</time></trkpt><trkpt lat="45.9843554" lon="11.8723442"><ele>598.0</ele><time>2026-04-11T14:24:15.537Z</time></trkpt><trkpt lat="45.9842812" lon="11.8724066"><ele>598.0</ele><time>2026-04-11T14:24:18.538Z</time></trkpt><trkpt lat="45.9842158" lon="11.8724672"><ele>598.0</ele><time>2026-04-11T14:24:20.537Z</time></trkpt><trkpt lat="45.9841539" lon="11.8725186"><ele>597.1666666666667</ele><time>2026-04-11T14:24:22.536Z</time></trkpt><trkpt lat="45.9840785" lon="11.8725675"><ele>596.3333333333334</ele><time>2026-04-11T14:24:25.537Z</time></trkpt><trkpt lat="45.9840002" lon="11.8726131"><ele>595.5</ele><time>2026-04-11T14:24:28.536Z</time></trkpt><trkpt lat="45.9839332" lon="11.8726662"><ele>594.6666666666666</ele><time>2026-04-11T14:24:31.538Z</time></trkpt><trkpt lat="45.9838548" lon="11.8727234"><ele>593.8333333333333</ele><time>2026-04-11T14:24:34.537Z</time></trkpt><trkpt lat="45.9837995" lon="11.8728128"><ele>593.0</ele><time>2026-04-11T14:24:37.537Z</time></trkpt><trkpt lat="45.9837611" lon="11.8729345"><ele>592.9999999999999</ele><time>2026-04-11T14:24:40.537Z</time></trkpt><trkpt lat="45.9837414" lon="11.8730245"><ele>593.0</ele><time>2026-04-11T14:24:42.536Z</time></trkpt><trkpt lat="45.9837337" lon="11.8731227"><ele>593.0</ele><time>2026-04-11T14:24:44.538Z</time></trkpt><trkpt lat="45.9837248" lon="11.8732179"><ele>593.0</ele><time>2026-04-11T14:24:46.537Z</time></trkpt><trkpt lat="45.9837077" lon="11.8733197"><ele>593.0</ele><time>2026-04-11T14:24:48.537Z</time></trkpt><trkpt lat="45.9836877" lon="11.8734057"><ele>592.9999999999999</ele><time>2026-04-11T14:24:50.537Z</time></trkpt><trkpt lat="45.9836527" lon="11.8734863"><ele>593.0</ele><time>2026-04-11T14:24:52.536Z</time></trkpt><trkpt lat="45.9835841" lon="11.8735439"><ele>590.1428571428571</ele><time>2026-04-11T14:24:55.538Z</time></trkpt><trkpt lat="45.9835087" lon="11.8734917"><ele>587.2857142857142</ele><time>2026-04-11T14:24:58.536Z</time></trkpt><trkpt lat="45.9834449" lon="11.8734826"><ele>584.4285714285714</ele><time>2026-04-11T14:25:02.538Z</time></trkpt><trkpt lat="45.9834362" lon="11.8735893"><ele>581.5714285714286</ele><time>2026-04-11T14:25:07.535Z</time></trkpt><trkpt lat="45.9834368" lon="11.8736878"><ele>578.7142857142858</ele><time>2026-04-11T14:25:10.537Z</time></trkpt><trkpt lat="45.9834113" lon="11.8737785"><ele>575.8571428571429</ele><time>2026-04-11T14:25:14.538Z</time></trkpt><trkpt lat="45.9834437" lon="11.8738722"><ele>573.0</ele><time>2026-04-11T14:25:19.536Z</time></trkpt><trkpt lat="45.983492" lon="11.8739863"><ele>573.0</ele><time>2026-04-11T14:25:22.537Z</time></trkpt><trkpt lat="45.9835106" lon="11.874077"><ele>573.0</ele><time>2026-04-11T14:25:24.537Z</time></trkpt><trkpt lat="45.9835128" lon="11.8741931"><ele>573.0</ele><time>2026-04-11T14:25:27.537Z</time></trkpt><trkpt lat="45.9834778" lon="11.8743174"><ele>573.0</ele><time>2026-04-11T14:25:30.537Z</time></trkpt><trkpt lat="45.9834334" lon="11.8744169"><ele>573.0</ele><time>2026-04-11T14:25:33.536Z</time></trkpt><trkpt lat="45.9833724" lon="11.874515"><ele>573.0</ele><time>2026-04-11T14:25:36.534Z</time></trkpt><trkpt lat="45.9833171" lon="11.8746053"><ele>573.5</ele><time>2026-04-11T14:25:39.537Z</time></trkpt><trkpt lat="45.9832618" lon="11.874687"><ele>574.0</ele><time>2026-04-11T14:25:42.537Z</time></trkpt><trkpt lat="45.9832266" lon="11.8747782"><ele>574.5</ele><time>2026-04-11T14:25:45.536Z</time></trkpt><trkpt lat="45.9831917" lon="11.8748708"><ele>575.0</ele><time>2026-04-11T14:25:48.536Z</time></trkpt><trkpt lat="45.9831652" lon="11.8749657"><ele>575.5</ele><time>2026-04-11T14:25:51.536Z</time></trkpt><trkpt lat="45.9831195" lon="11.8750741"><ele>576.0</ele><time>2026-04-11T14:25:54.535Z</time></trkpt><trkpt lat="45.9830807" lon="11.8751833"><ele>576.0</ele><time>2026-04-11T14:25:57.536Z</time></trkpt><trkpt lat="45.9830669" lon="11.8752994"><ele>576.0</ele><time>2026-04-11T14:26:00.537Z</time></trkpt><trkpt lat="45.9830447" lon="11.875419"><ele>576.0</ele><time>2026-04-11T14:26:03.536Z</time></trkpt><trkpt lat="45.9830187" lon="11.8755088"><ele>576.0</ele><time>2026-04-11T14:26:05.537Z</time></trkpt><trkpt lat="45.9829819" lon="11.8756026"><ele>576.0</ele><time>2026-04-11T14:26:08.536Z</time></trkpt><trkpt lat="45.9829371" lon="11.8756685"><ele>576.0</ele><time>2026-04-11T14:26:10.537Z</time></trkpt><trkpt lat="45.9828693" lon="11.8757431"><ele>576.0</ele><time>2026-04-11T14:26:13.537Z</time></trkpt><trkpt lat="45.9828001" lon="11.8758096"><ele>576.0</ele><time>2026-04-11T14:26:16.536Z</time></trkpt><trkpt lat="45.9827604" lon="11.8759058"><ele>576.0</ele><time>2026-04-11T14:26:19.537Z</time></trkpt><trkpt lat="45.982785" lon="11.8760182"><ele>576.0</ele><time>2026-04-11T14:26:22.536Z</time></trkpt><trkpt lat="45.9828149" lon="11.8761356"><ele>576.0</ele><time>2026-04-11T14:26:25.537Z</time></trkpt><trkpt lat="45.9828056" lon="11.876238"><ele>576.0</ele><time>2026-04-11T14:26:28.537Z</time></trkpt><trkpt lat="45.9827786" lon="11.876351"><ele>574.1666666666666</ele><time>2026-04-11T14:26:31.537Z</time></trkpt><trkpt lat="45.9827585" lon="11.8764373"><ele>572.3333333333334</ele><time>2026-04-11T14:26:33.537Z</time></trkpt><trkpt lat="45.982719" lon="11.8765431"><ele>570.5</ele><time>2026-04-11T14:26:36.537Z</time></trkpt><trkpt lat="45.982673" lon="11.8766583"><ele>568.6666666666667</ele><time>2026-04-11T14:26:39.536Z</time></trkpt><trkpt lat="45.9826351" lon="11.8767575"><ele>566.8333333333334</ele><time>2026-04-11T14:26:42.537Z</time></trkpt><trkpt lat="45.9825878" lon="11.8768332"><ele>565.0</ele><time>2026-04-11T14:26:45.537Z</time></trkpt><trkpt lat="45.9825287" lon="11.8768985"><ele>567.0</ele><time>2026-04-11T14:26:48.537Z</time></trkpt><trkpt lat="45.9824616" lon="11.8769564"><ele>569.0</ele><time>2026-04-11T14:26:51.535Z</time></trkpt><trkpt lat="45.9823914" lon="11.8770166"><ele>571.0</ele><time>2026-04-11T14:26:54.537Z</time></trkpt><trkpt lat="45.9823302" lon="11.8770778"><ele>573.0</ele><time>2026-04-11T14:26:57.536Z</time></trkpt><trkpt lat="45.9822732" lon="11.8771443"><ele>575.0</ele><time>2026-04-11T14:27:00.536Z</time></trkpt><trkpt lat="45.9822216" lon="11.8772084"><ele>577.0</ele><time>2026-04-11T14:27:03.535Z</time></trkpt><trkpt lat="45.9821572" lon="11.8772601"><ele>577.0</ele><time>2026-04-11T14:27:06.535Z</time></trkpt><trkpt lat="45.9820928" lon="11.8773018"><ele>577.0</ele><time>2026-04-11T14:27:09.535Z</time></trkpt><trkpt lat="45.9820314" lon="11.877338"><ele>577.0</ele><time>2026-04-11T14:27:12.535Z</time></trkpt><trkpt lat="45.9819767" lon="11.8774077"><ele>577.0</ele><time>2026-04-11T14:27:15.534Z</time></trkpt><trkpt lat="45.981926" lon="11.8774733"><ele>577.0</ele><time>2026-04-11T14:27:18.534Z</time></trkpt><trkpt lat="45.9818894" lon="11.87756"><ele>577.0</ele><time>2026-04-11T14:27:22.535Z</time></trkpt><trkpt lat="45.9819208" lon="11.8776431"><ele>577.0</ele><time>2026-04-11T14:27:25.537Z</time></trkpt><trkpt lat="45.9819599" lon="11.8777149"><ele>576.2857142857142</ele><time>2026-04-11T14:27:28.535Z</time></trkpt><trkpt lat="45.9819721" lon="11.8778145"><ele>575.5714285714286</ele><time>2026-04-11T14:27:31.535Z</time></trkpt><trkpt lat="45.9819388" lon="11.8779205"><ele>574.8571428571429</ele><time>2026-04-11T14:27:35.537Z</time></trkpt><trkpt lat="45.9818893" lon="11.877995"><ele>574.1428571428571</ele><time>2026-04-11T14:27:39.537Z</time></trkpt><trkpt lat="45.9818426" lon="11.8780558"><ele>573.4285714285714</ele><time>2026-04-11T14:27:42.537Z</time></trkpt><trkpt lat="45.9817897" lon="11.8781449"><ele>572.7142857142857</ele><time>2026-04-11T14:27:46.537Z</time></trkpt><trkpt lat="45.9817394" lon="11.8782268"><ele>572.0</ele><time>2026-04-11T14:27:50.536Z</time></trkpt><trkpt lat="45.9816903" lon="11.8783203"><ele>575.2857142857142</ele><time>2026-04-11T14:27:54.536Z</time></trkpt><trkpt lat="45.981653" lon="11.878401"><ele>578.5714285714286</ele><time>2026-04-11T14:27:57.535Z</time></trkpt><trkpt lat="45.9816051" lon="11.8784782"><ele>581.8571428571429</ele><time>2026-04-11T14:28:00.537Z</time></trkpt><trkpt lat="45.9815482" lon="11.8785488"><ele>585.1428571428571</ele><time>2026-04-11T14:28:03.535Z</time></trkpt><trkpt lat="45.9815013" lon="11.8786306"><ele>588.4285714285714</ele><time>2026-04-11T14:28:06.536Z</time></trkpt><trkpt lat="45.9814562" lon="11.878701"><ele>591.7142857142857</ele><time>2026-04-11T14:28:09.535Z</time></trkpt><trkpt lat="45.981408" lon="11.8787746"><ele>595.0</ele><time>2026-04-11T14:28:12.535Z</time></trkpt><trkpt lat="45.9813559" lon="11.8788528"><ele>595.0</ele><time>2026-04-11T14:28:15.538Z</time></trkpt><trkpt lat="45.9813258" lon="11.8789403"><ele>595.0</ele><time>2026-04-11T14:28:18.537Z</time></trkpt><trkpt lat="45.9812798" lon="11.8790259"><ele>595.0</ele><time>2026-04-11T14:28:21.536Z</time></trkpt><trkpt lat="45.9812391" lon="11.8791141"><ele>595.0</ele><time>2026-04-11T14:28:24.538Z</time></trkpt><trkpt lat="45.9811781" lon="11.8791891"><ele>595.0</ele><time>2026-04-11T14:28:27.537Z</time></trkpt><trkpt lat="45.9811131" lon="11.8792756"><ele>595.0</ele><time>2026-04-11T14:28:30.538Z</time></trkpt><trkpt lat="45.9810661" lon="11.8793619"><ele>598.0</ele><time>2026-04-11T14:28:33.538Z</time></trkpt><trkpt lat="45.9810199" lon="11.8794337"><ele>601.0</ele><time>2026-04-11T14:28:36.536Z</time></trkpt><trkpt lat="45.9809542" lon="11.8795036"><ele>604.0</ele><time>2026-04-11T14:28:39.538Z</time></trkpt><trkpt lat="45.9809073" lon="11.8795948"><ele>607.0</ele><time>2026-04-11T14:28:42.537Z</time></trkpt><trkpt lat="45.9808588" lon="11.879688"><ele>610.0</ele><time>2026-04-11T14:28:45.538Z</time></trkpt><trkpt lat="45.9808182" lon="11.8797914"><ele>613.0</ele><time>2026-04-11T14:28:48.538Z</time></trkpt><trkpt lat="45.9807978" lon="11.8798953"><ele>613.5</ele><time>2026-04-11T14:28:51.539Z</time></trkpt><trkpt lat="45.9807784" lon="11.8800041"><ele>614.0</ele><time>2026-04-11T14:28:54.537Z</time></trkpt><trkpt lat="45.9807643" lon="11.8801279"><ele>614.5</ele><time>2026-04-11T14:28:57.538Z</time></trkpt><trkpt lat="45.980764" lon="11.880228"><ele>615.0</ele><time>2026-04-11T14:29:00.538Z</time></trkpt><trkpt lat="45.9807994" lon="11.8804036"><ele>615.5</ele><time>2026-04-11T14:30:02.537Z</time></trkpt><trkpt lat="45.9808418" lon="11.8804743"><ele>616.0</ele><time>2026-04-11T14:30:15.537Z</time></trkpt><trkpt lat="45.980804" lon="11.8805528"><ele>617.1428571428571</ele><time>2026-04-11T14:30:29.538Z</time></trkpt><trkpt lat="45.9807754" lon="11.8806399"><ele>618.2857142857142</ele><time>2026-04-11T14:31:01.538Z</time></trkpt><trkpt lat="45.9807441" lon="11.8807217"><ele>619.4285714285714</ele><time>2026-04-11T14:31:10.536Z</time></trkpt><trkpt lat="45.9806969" lon="11.8807828"><ele>620.5714285714286</ele><time>2026-04-11T14:32:15.538Z</time></trkpt><trkpt lat="45.9806298" lon="11.8808311"><ele>621.7142857142857</ele><time>2026-04-11T14:32:20.536Z</time></trkpt><trkpt lat="45.9805871" lon="11.8809007"><ele>622.8571428571429</ele><time>2026-04-11T14:32:23.538Z</time></trkpt><trkpt lat="45.9805216" lon="11.8809608"><ele>624.0</ele><time>2026-04-11T14:32:26.537Z</time></trkpt><trkpt lat="45.9804686" lon="11.8810102"><ele>629.0</ele><time>2026-04-11T14:32:33.538Z</time></trkpt><trkpt lat="45.9804424" lon="11.8811016"><ele>634.0</ele><time>2026-04-11T14:32:50.536Z</time></trkpt><trkpt lat="45.9804075" lon="11.8812279"><ele>639.0</ele><time>2026-04-11T14:33:08.535Z</time></trkpt><trkpt lat="45.9805237" lon="11.8812797"><ele>644.0</ele><time>2026-04-11T14:33:37.536Z</time></trkpt><trkpt lat="45.9806702" lon="11.8812565"><ele>649.0</ele><time>2026-04-11T14:33:44.537Z</time></trkpt><trkpt lat="45.9807315" lon="11.8812138"><ele>649.0</ele><time>2026-04-11T14:33:48.535Z</time></trkpt><trkpt lat="45.9808146" lon="11.881189"><ele>649.0</ele><time>2026-04-11T14:33:53.536Z</time></trkpt><trkpt lat="45.9808941" lon="11.8811538"><ele>649.0</ele><time>2026-04-11T14:33:57.537Z</time></trkpt><trkpt lat="45.9810569" lon="11.8811428"><ele>649.0</ele><time>2026-04-11T14:34:11.535Z</time></trkpt><trkpt lat="45.9811218" lon="11.881137"><ele>649.0</ele><time>2026-04-11T14:34:15.536Z</time></trkpt><trkpt lat="45.9812346" lon="11.8811242"><ele>649.9999999999999</ele><time>2026-04-11T14:34:21.537Z</time></trkpt><trkpt lat="45.9812998" lon="11.8810896"><ele>651.0</ele><time>2026-04-11T14:34:24.537Z</time></trkpt><trkpt lat="45.9813743" lon="11.8810288"><ele>652.0</ele><time>2026-04-11T14:34:27.537Z</time></trkpt><trkpt lat="45.9814285" lon="11.8809785"><ele>653.0</ele><time>2026-04-11T14:34:30.537Z</time></trkpt><trkpt lat="45.9814901" lon="11.8809224"><ele>654.0</ele><time>2026-04-11T14:34:35.537Z</time></trkpt><trkpt lat="45.9815589" lon="11.8808859"><ele>654.9999999999999</ele><time>2026-04-11T14:34:40.537Z</time></trkpt><trkpt lat="45.9816182" lon="11.8809321"><ele>656.0</ele><time>2026-04-11T14:35:29.539Z</time></trkpt><trkpt lat="45.9816625" lon="11.8810236"><ele>657.3333333333333</ele><time>2026-04-11T14:36:01.537Z</time></trkpt><trkpt lat="45.9817764" lon="11.8810357"><ele>658.6666666666666</ele><time>2026-04-11T14:36:20.537Z</time></trkpt><trkpt lat="45.9818721" lon="11.8810786"><ele>660.0</ele><time>2026-04-11T14:36:39.538Z</time></trkpt><trkpt lat="45.9818972" lon="11.8809856"><ele>661.3333333333334</ele><time>2026-04-11T14:36:55.537Z</time></trkpt><trkpt lat="45.9819393" lon="11.8809151"><ele>662.6666666666667</ele><time>2026-04-11T14:37:12.537Z</time></trkpt><trkpt lat="45.9819978" lon="11.8808651"><ele>664.0</ele><time>2026-04-11T14:37:16.536Z</time></trkpt><trkpt lat="45.9820447" lon="11.8807678"><ele>661.1666666666667</ele><time>2026-04-11T14:37:19.537Z</time></trkpt><trkpt lat="45.9820878" lon="11.8806938"><ele>658.3333333333334</ele><time>2026-04-11T14:37:21.537Z</time></trkpt><trkpt lat="45.9821486" lon="11.8806096"><ele>655.5</ele><time>2026-04-11T14:37:24.534Z</time></trkpt><trkpt lat="45.982198" lon="11.8805225"><ele>652.6666666666666</ele><time>2026-04-11T14:37:27.535Z</time></trkpt><trkpt lat="45.9822573" lon="11.8804438"><ele>649.8333333333333</ele><time>2026-04-11T14:37:30.535Z</time></trkpt><trkpt lat="45.9823062" lon="11.8803747"><ele>647.0</ele><time>2026-04-11T14:37:33.538Z</time></trkpt><trkpt lat="45.9823584" lon="11.8802925"><ele>647.0</ele><time>2026-04-11T14:37:36.536Z</time></trkpt><trkpt lat="45.9824184" lon="11.8802127"><ele>647.0</ele><time>2026-04-11T14:37:39.538Z</time></trkpt><trkpt lat="45.982493" lon="11.8801854"><ele>647.0</ele><time>2026-04-11T14:37:42.538Z</time></trkpt><trkpt lat="45.9825657" lon="11.8802224"><ele>647.0</ele><time>2026-04-11T14:37:45.537Z</time></trkpt><trkpt lat="45.9826241" lon="11.8802949"><ele>647.0</ele><time>2026-04-11T14:37:47.536Z</time></trkpt><trkpt lat="45.9826797" lon="11.8803837"><ele>647.0</ele><time>2026-04-11T14:37:49.538Z</time></trkpt><trkpt lat="45.9827312" lon="11.8804665"><ele>644.5</ele><time>2026-04-11T14:37:51.537Z</time></trkpt><trkpt lat="45.9827934" lon="11.8805288"><ele>642.0</ele><time>2026-04-11T14:37:53.537Z</time></trkpt><trkpt lat="45.9828666" lon="11.8805436"><ele>639.5</ele><time>2026-04-11T14:37:55.537Z</time></trkpt><trkpt lat="45.9829427" lon="11.8805152"><ele>637.0</ele><time>2026-04-11T14:37:57.536Z</time></trkpt><trkpt lat="45.9830152" lon="11.8804721"><ele>634.5</ele><time>2026-04-11T14:37:59.537Z</time></trkpt><trkpt lat="45.9830802" lon="11.8804484"><ele>632.0</ele><time>2026-04-11T14:38:01.536Z</time></trkpt><trkpt lat="45.9831656" lon="11.8804408"><ele>632.0</ele><time>2026-04-11T14:38:04.536Z</time></trkpt><trkpt lat="45.9832344" lon="11.8804959"><ele>632.0</ele><time>2026-04-11T14:38:07.537Z</time></trkpt><trkpt lat="45.983278" lon="11.8805627"><ele>632.0</ele><time>2026-04-11T14:38:09.537Z</time></trkpt><trkpt lat="45.9833194" lon="11.8806391"><ele>632.0</ele><time>2026-04-11T14:38:11.536Z</time></trkpt><trkpt lat="45.9833417" lon="11.8807685"><ele>632.0</ele><time>2026-04-11T14:38:14.537Z</time></trkpt><trkpt lat="45.9833402" lon="11.8808592"><ele>632.0</ele><time>2026-04-11T14:38:16.536Z</time></trkpt><trkpt lat="45.9833335" lon="11.8809874"><ele>636.25</ele><time>2026-04-11T14:38:19.537Z</time></trkpt><trkpt lat="45.9833269" lon="11.8811223"><ele>640.5</ele><time>2026-04-11T14:38:22.536Z</time></trkpt><trkpt lat="45.9833471" lon="11.8812337"><ele>644.75</ele><time>2026-04-11T14:38:25.538Z</time></trkpt><trkpt lat="45.9834057" lon="11.8813141"><ele>649.0</ele><time>2026-04-11T14:38:28.536Z</time></trkpt><trkpt lat="45.983632" lon="11.8813327"><ele>648.9999999999999</ele><time>2026-04-11T14:38:36.538Z</time></trkpt><trkpt lat="45.9836998" lon="11.8813468"><ele>649.0</ele><time>2026-04-11T14:38:38.537Z</time></trkpt><trkpt lat="45.9837776" lon="11.8813132"><ele>649.0</ele><time>2026-04-11T14:38:41.538Z</time></trkpt><trkpt lat="45.9838072" lon="11.8812211"><ele>649.0</ele><time>2026-04-11T14:38:44.537Z</time></trkpt><trkpt lat="45.9838132" lon="11.8811241"><ele>649.0</ele><time>2026-04-11T14:38:47.536Z</time></trkpt><trkpt lat="45.9838601" lon="11.8810161"><ele>648.9999999999999</ele><time>2026-04-11T14:38:50.536Z</time></trkpt><trkpt lat="45.983916" lon="11.8809593"><ele>649.0</ele><time>2026-04-11T14:38:52.535Z</time></trkpt><trkpt lat="45.9839609" lon="11.8808927"><ele>648.1666666666667</ele><time>2026-04-11T14:38:54.534Z</time></trkpt><trkpt lat="45.9839804" lon="11.8807709"><ele>647.3333333333334</ele><time>2026-04-11T14:38:57.536Z</time></trkpt><trkpt lat="45.9840001" lon="11.8806562"><ele>646.5</ele><time>2026-04-11T14:39:00.536Z</time></trkpt><trkpt lat="45.9840548" lon="11.8805548"><ele>645.6666666666666</ele><time>2026-04-11T14:39:03.538Z</time></trkpt><trkpt lat="45.984116" lon="11.8805016"><ele>644.8333333333333</ele><time>2026-04-11T14:39:06.538Z</time></trkpt><trkpt lat="45.9841886" lon="11.8805362"><ele>644.0</ele><time>2026-04-11T14:39:09.537Z</time></trkpt><trkpt lat="45.9842429" lon="11.8806274"><ele>644.0</ele><time>2026-04-11T14:39:12.535Z</time></trkpt><trkpt lat="45.9842771" lon="11.8807422"><ele>644.0</ele><time>2026-04-11T14:39:15.537Z</time></trkpt><trkpt lat="45.9843078" lon="11.8808501"><ele>644.0</ele><time>2026-04-11T14:39:18.536Z</time></trkpt><trkpt lat="45.9843565" lon="11.8809409"><ele>644.0</ele><time>2026-04-11T14:39:21.536Z</time></trkpt><trkpt lat="45.9844331" lon="11.8809771"><ele>644.0</ele><time>2026-04-11T14:39:24.537Z</time></trkpt><trkpt lat="45.9845157" lon="11.8809448"><ele>644.0</ele><time>2026-04-11T14:39:27.537Z</time></trkpt><trkpt lat="45.9845891" lon="11.8808742"><ele>644.0</ele><time>2026-04-11T14:39:30.536Z</time></trkpt><trkpt lat="45.9846657" lon="11.8808089"><ele>644.0</ele><time>2026-04-11T14:39:33.537Z</time></trkpt><trkpt lat="45.9847226" lon="11.8807556"><ele>644.0</ele><time>2026-04-11T14:39:35.537Z</time></trkpt><trkpt lat="45.9847864" lon="11.8807077"><ele>644.0</ele><time>2026-04-11T14:39:37.536Z</time></trkpt><trkpt lat="45.9848631" lon="11.8806768"><ele>644.0</ele><time>2026-04-11T14:39:39.538Z</time></trkpt><trkpt lat="45.984922" lon="11.8806414"><ele>644.0</ele><time>2026-04-11T14:39:41.537Z</time></trkpt><trkpt lat="45.9849797" lon="11.8806018"><ele>644.0</ele><time>2026-04-11T14:39:43.537Z</time></trkpt><trkpt lat="45.9850455" lon="11.880554"><ele>648.0</ele><time>2026-04-11T14:39:45.537Z</time></trkpt><trkpt lat="45.9850972" lon="11.8804823"><ele>652.0</ele><time>2026-04-11T14:39:47.536Z</time></trkpt><trkpt lat="45.985154" lon="11.8804281"><ele>656.0</ele><time>2026-04-11T14:39:49.537Z</time></trkpt><trkpt lat="45.9852172" lon="11.8803943"><ele>660.0</ele><time>2026-04-11T14:39:51.537Z</time></trkpt><trkpt lat="45.9852807" lon="11.8803753"><ele>664.0</ele><time>2026-04-11T14:39:53.536Z</time></trkpt><trkpt lat="45.9853662" lon="11.8803429"><ele>668.0</ele><time>2026-04-11T14:39:56.537Z</time></trkpt><trkpt lat="45.985445" lon="11.8802845"><ele>672.0</ele><time>2026-04-11T14:39:59.538Z</time></trkpt><trkpt lat="45.9855172" lon="11.880233"><ele>672.0</ele><time>2026-04-11T14:40:02.538Z</time></trkpt><trkpt lat="45.98558" lon="11.8801811"><ele>672.0</ele><time>2026-04-11T14:40:05.536Z</time></trkpt><trkpt lat="45.9856514" lon="11.8801168"><ele>672.0</ele><time>2026-04-11T14:40:08.537Z</time></trkpt><trkpt lat="45.9857245" lon="11.8800593"><ele>672.0</ele><time>2026-04-11T14:40:11.535Z</time></trkpt><trkpt lat="45.9858139" lon="11.8800093"><ele>672.0</ele><time>2026-04-11T14:40:14.537Z</time></trkpt><trkpt lat="45.9858819" lon="11.8799888"><ele>672.0</ele><time>2026-04-11T14:40:16.537Z</time></trkpt><trkpt lat="45.9859445" lon="11.8799644"><ele>667.8333333333334</ele><time>2026-04-11T14:40:18.536Z</time></trkpt><trkpt lat="45.9860045" lon="11.8799348"><ele>663.6666666666666</ele><time>2026-04-11T14:40:20.537Z</time></trkpt><trkpt lat="45.9860914" lon="11.8799011"><ele>659.5</ele><time>2026-04-11T14:40:23.535Z</time></trkpt><trkpt lat="45.9861592" lon="11.8798857"><ele>655.3333333333333</ele><time>2026-04-11T14:40:25.537Z</time></trkpt><trkpt lat="45.9862443" lon="11.8798886"><ele>651.1666666666666</ele><time>2026-04-11T14:40:28.536Z</time></trkpt><trkpt lat="45.986343" lon="11.8798823"><ele>647.0</ele><time>2026-04-11T14:40:34.537Z</time></trkpt><trkpt lat="45.9864096" lon="11.8798764"><ele>647.0</ele><time>2026-04-11T14:40:37.536Z</time></trkpt><trkpt lat="45.9864824" lon="11.8798213"><ele>647.0</ele><time>2026-04-11T14:40:40.537Z</time></trkpt><trkpt lat="45.9865445" lon="11.8797409"><ele>647.0</ele><time>2026-04-11T14:40:43.537Z</time></trkpt><trkpt lat="45.9866202" lon="11.8796939"><ele>647.0</ele><time>2026-04-11T14:40:46.535Z</time></trkpt><trkpt lat="45.9867031" lon="11.8797288"><ele>647.0</ele><time>2026-04-11T14:40:49.536Z</time></trkpt><trkpt lat="45.9867464" lon="11.879829"><ele>647.0</ele><time>2026-04-11T14:40:52.535Z</time></trkpt><trkpt lat="45.9867886" lon="11.8799292"><ele>646.8333333333333</ele><time>2026-04-11T14:40:55.535Z</time></trkpt><trkpt lat="45.9868183" lon="11.8800129"><ele>646.6666666666666</ele><time>2026-04-11T14:40:58.535Z</time></trkpt><trkpt lat="45.9868686" lon="11.8800744"><ele>646.5</ele><time>2026-04-11T14:41:01.537Z</time></trkpt><trkpt lat="45.986935" lon="11.8800756"><ele>646.3333333333334</ele><time>2026-04-11T14:41:03.537Z</time></trkpt><trkpt lat="45.987" lon="11.8800371"><ele>646.1666666666667</ele><time>2026-04-11T14:41:05.537Z</time></trkpt><trkpt lat="45.9870881" lon="11.8799968"><ele>646.0</ele><time>2026-04-11T14:41:08.536Z</time></trkpt><trkpt lat="45.987293" lon="11.87998"><ele>646.0</ele><time>2026-04-11T14:41:14.538Z</time></trkpt><trkpt lat="45.9873728" lon="11.879955"><ele>646.0</ele><time>2026-04-11T14:41:17.536Z</time></trkpt><trkpt lat="45.9874312" lon="11.8799207"><ele>646.0</ele><time>2026-04-11T14:41:20.537Z</time></trkpt><trkpt lat="45.9875123" lon="11.8799093"><ele>646.0</ele><time>2026-04-11T14:41:24.535Z</time></trkpt><trkpt lat="45.9875858" lon="11.8799499"><ele>646.0</ele><time>2026-04-11T14:41:27.537Z</time></trkpt><trkpt lat="45.9876585" lon="11.8799804"><ele>646.0</ele><time>2026-04-11T14:41:29.536Z</time></trkpt><trkpt lat="45.9877428" lon="11.8799725"><ele>649.1666666666667</ele><time>2026-04-11T14:41:31.536Z</time></trkpt><trkpt lat="45.9878126" lon="11.8799283"><ele>652.3333333333334</ele><time>2026-04-11T14:41:33.537Z</time></trkpt><trkpt lat="45.9878676" lon="11.8798671"><ele>655.5</ele><time>2026-04-11T14:41:35.537Z</time></trkpt><trkpt lat="45.9879247" lon="11.8798019"><ele>658.6666666666666</ele><time>2026-04-11T14:41:37.537Z</time></trkpt><trkpt lat="45.9879908" lon="11.879735"><ele>661.8333333333333</ele><time>2026-04-11T14:41:39.536Z</time></trkpt><trkpt lat="45.9880563" lon="11.8796562"><ele>665.0</ele><time>2026-04-11T14:41:41.537Z</time></trkpt><trkpt lat="45.9881263" lon="11.8795865"><ele>665.0</ele><time>2026-04-11T14:41:43.537Z</time></trkpt><trkpt lat="45.9881782" lon="11.8795087"><ele>665.0</ele><time>2026-04-11T14:41:45.536Z</time></trkpt><trkpt lat="45.988234" lon="11.8794098"><ele>665.0</ele><time>2026-04-11T14:41:47.537Z</time></trkpt><trkpt lat="45.988294" lon="11.8792872"><ele>665.0</ele><time>2026-04-11T14:41:49.537Z</time></trkpt><trkpt lat="45.9883551" lon="11.8791537"><ele>665.0</ele><time>2026-04-11T14:41:51.536Z</time></trkpt><trkpt lat="45.988437" lon="11.8790182"><ele>665.4285714285714</ele><time>2026-04-11T14:41:53.536Z</time></trkpt><trkpt lat="45.9884804" lon="11.8789447"><ele>665.8571428571429</ele><time>2026-04-11T14:41:54.539Z</time></trkpt><trkpt lat="45.9885229" lon="11.8788732"><ele>666.2857142857142</ele><time>2026-04-11T14:41:55.538Z</time></trkpt><trkpt lat="45.9885618" lon="11.8787907"><ele>666.7142857142858</ele><time>2026-04-11T14:41:56.536Z</time></trkpt><trkpt lat="45.9885981" lon="11.8786921"><ele>667.1428571428571</ele><time>2026-04-11T14:41:57.537Z</time></trkpt><trkpt lat="45.9886391" lon="11.878601"><ele>667.5714285714286</ele><time>2026-04-11T14:41:58.537Z</time></trkpt><trkpt lat="45.9886832" lon="11.8785071"><ele>668.0</ele><time>2026-04-11T14:41:59.537Z</time></trkpt><trkpt lat="45.988723" lon="11.8784083"><ele>662.7142857142857</ele><time>2026-04-11T14:42:00.538Z</time></trkpt><trkpt lat="45.9887632" lon="11.878314"><ele>657.4285714285714</ele><time>2026-04-11T14:42:01.537Z</time></trkpt><trkpt lat="45.9888033" lon="11.8782265"><ele>652.1428571428571</ele><time>2026-04-11T14:42:02.537Z</time></trkpt><trkpt lat="45.9888463" lon="11.8781469"><ele>646.8571428571429</ele><time>2026-04-11T14:42:03.535Z</time></trkpt><trkpt lat="45.9888908" lon="11.8780698"><ele>641.5714285714286</ele><time>2026-04-11T14:42:04.537Z</time></trkpt><trkpt lat="45.9889293" lon="11.8779886"><ele>636.2857142857143</ele><time>2026-04-11T14:42:05.537Z</time></trkpt><trkpt lat="45.9889653" lon="11.8779052"><ele>631.0</ele><time>2026-04-11T14:42:06.536Z</time></trkpt><trkpt lat="45.9890039" lon="11.8778209"><ele>631.0</ele><time>2026-04-11T14:42:07.536Z</time></trkpt><trkpt lat="45.9890449" lon="11.8777376"><ele>631.0</ele><time>2026-04-11T14:42:08.538Z</time></trkpt><trkpt lat="45.98909" lon="11.8776632"><ele>631.0</ele><time>2026-04-11T14:42:09.538Z</time></trkpt><trkpt lat="45.9891317" lon="11.877587"><ele>631.0</ele><time>2026-04-11T14:42:10.537Z</time></trkpt><trkpt lat="45.9891717" lon="11.8775118"><ele>631.0</ele><time>2026-04-11T14:42:11.536Z</time></trkpt><trkpt lat="45.9892357" lon="11.8773665"><ele>631.0</ele><time>2026-04-11T14:42:13.536Z</time></trkpt><trkpt lat="45.9892785" lon="11.8772458"><ele>624.2</ele><time>2026-04-11T14:42:15.536Z</time></trkpt><trkpt lat="45.9893351" lon="11.877134"><ele>617.4000000000001</ele><time>2026-04-11T14:42:17.534Z</time></trkpt><trkpt lat="45.9894104" lon="11.8770217"><ele>610.6</ele><time>2026-04-11T14:42:19.535Z</time></trkpt><trkpt lat="45.9895109" lon="11.8769308"><ele>603.8000000000001</ele><time>2026-04-11T14:42:21.537Z</time></trkpt><trkpt lat="45.9896067" lon="11.8768238"><ele>597.0</ele><time>2026-04-11T14:42:23.535Z</time></trkpt><trkpt lat="45.9896886" lon="11.8767178"><ele>590.8000000000001</ele><time>2026-04-11T14:42:25.536Z</time></trkpt><trkpt lat="45.9897593" lon="11.8766346"><ele>584.6</ele><time>2026-04-11T14:42:27.537Z</time></trkpt><trkpt lat="45.9898317" lon="11.8766015"><ele>578.4000000000001</ele><time>2026-04-11T14:42:29.537Z</time></trkpt><trkpt lat="45.9899183" lon="11.8766347"><ele>572.2</ele><time>2026-04-11T14:42:31.537Z</time></trkpt><trkpt lat="45.9900251" lon="11.8766865"><ele>566.0</ele><time>2026-04-11T14:42:33.538Z</time></trkpt><trkpt lat="45.9901326" lon="11.8767607"><ele>562.8</ele><time>2026-04-11T14:42:35.537Z</time></trkpt><trkpt lat="45.9902336" lon="11.876861"><ele>559.6</ele><time>2026-04-11T14:42:37.536Z</time></trkpt><trkpt lat="45.9903342" lon="11.8769701"><ele>556.4</ele><time>2026-04-11T14:42:39.536Z</time></trkpt><trkpt lat="45.9903841" lon="11.8770327"><ele>553.2</ele><time>2026-04-11T14:42:40.534Z</time></trkpt><trkpt lat="45.9904328" lon="11.8771038"><ele>550.0</ele><time>2026-04-11T14:42:41.537Z</time></trkpt><trkpt lat="45.9904763" lon="11.8771822"><ele>550.0</ele><time>2026-04-11T14:42:42.537Z</time></trkpt><trkpt lat="45.9905204" lon="11.8772633"><ele>550.0</ele><time>2026-04-11T14:42:43.536Z</time></trkpt><trkpt lat="45.9905628" lon="11.8773458"><ele>550.0</ele><time>2026-04-11T14:42:44.535Z</time></trkpt><trkpt lat="45.9906031" lon="11.8774292"><ele>550.0</ele><time>2026-04-11T14:42:45.537Z</time></trkpt><trkpt lat="45.9906392" lon="11.8775085"><ele>550.0</ele><time>2026-04-11T14:42:46.535Z</time></trkpt><trkpt lat="45.9906749" lon="11.8775886"><ele>550.0</ele><time>2026-04-11T14:42:47.535Z</time></trkpt><trkpt lat="45.9907098" lon="11.8776697"><ele>550.0</ele><time>2026-04-11T14:42:48.535Z</time></trkpt><trkpt lat="45.9907459" lon="11.8777519"><ele>552.5</ele><time>2026-04-11T14:42:49.535Z</time></trkpt><trkpt lat="45.9908043" lon="11.8779042"><ele>555.0</ele><time>2026-04-11T14:42:51.537Z</time></trkpt><trkpt lat="45.9908313" lon="11.8780667"><ele>557.5</ele><time>2026-04-11T14:42:53.537Z</time></trkpt><trkpt lat="45.9908564" lon="11.8782179"><ele>560.0</ele><time>2026-04-11T14:42:55.537Z</time></trkpt><trkpt lat="45.9908941" lon="11.8783652"><ele>554.6</ele><time>2026-04-11T14:42:57.535Z</time></trkpt><trkpt lat="45.9909212" lon="11.878497"><ele>549.2</ele><time>2026-04-11T14:42:59.537Z</time></trkpt><trkpt lat="45.9909281" lon="11.8786326"><ele>543.8</ele><time>2026-04-11T14:43:01.537Z</time></trkpt><trkpt lat="45.9909496" lon="11.8787774"><ele>538.4</ele><time>2026-04-11T14:43:03.536Z</time></trkpt><trkpt lat="45.9909847" lon="11.8788994"><ele>533.0</ele><time>2026-04-11T14:43:05.537Z</time></trkpt><trkpt lat="45.9910451" lon="11.8790026"><ele>533.0</ele><time>2026-04-11T14:43:07.537Z</time></trkpt><trkpt lat="45.991125" lon="11.8790577"><ele>533.0</ele><time>2026-04-11T14:43:09.537Z</time></trkpt><trkpt lat="45.9912034" lon="11.8790692"><ele>533.0</ele><time>2026-04-11T14:43:11.537Z</time></trkpt><trkpt lat="45.991277" lon="11.8790855"><ele>533.0</ele><time>2026-04-11T14:43:13.535Z</time></trkpt><trkpt lat="45.9913537" lon="11.8791007"><ele>533.0</ele><time>2026-04-11T14:43:16.535Z</time></trkpt><trkpt lat="45.9914309" lon="11.8791115"><ele>533.0</ele><time>2026-04-11T14:43:19.537Z</time></trkpt><trkpt lat="45.9914687" lon="11.8790323"><ele>533.0</ele><time>2026-04-11T14:43:24.538Z</time></trkpt><trkpt lat="45.9914301" lon="11.8789543"><ele>533.0</ele><time>2026-04-11T14:43:27.537Z</time></trkpt><trkpt lat="45.9913901" lon="11.8788824"><ele>533.0</ele><time>2026-04-11T14:43:29.536Z</time></trkpt><trkpt lat="45.9913397" lon="11.8787912"><ele>533.0</ele><time>2026-04-11T14:43:31.536Z</time></trkpt><trkpt lat="45.9913084" lon="11.8786747"><ele>533.0</ele><time>2026-04-11T14:43:33.537Z</time></trkpt><trkpt lat="45.9913245" lon="11.8785496"><ele>533.0</ele><time>2026-04-11T14:43:35.537Z</time></trkpt><trkpt lat="45.9913635" lon="11.8784254"><ele>530.8</ele><time>2026-04-11T14:43:37.538Z</time></trkpt><trkpt lat="45.9914232" lon="11.8783193"><ele>528.5999999999999</ele><time>2026-04-11T14:43:39.538Z</time></trkpt><trkpt lat="45.9914713" lon="11.8782297"><ele>526.4000000000001</ele><time>2026-04-11T14:43:41.538Z</time></trkpt><trkpt lat="45.9915023" lon="11.8781018"><ele>524.2</ele><time>2026-04-11T14:43:43.537Z</time></trkpt><trkpt lat="45.9915212" lon="11.8779571"><ele>522.0</ele><time>2026-04-11T14:43:45.536Z</time></trkpt><trkpt lat="45.9915334" lon="11.8778175"><ele>522.0</ele><time>2026-04-11T14:43:47.535Z</time></trkpt><trkpt lat="45.9915379" lon="11.8776518"><ele>522.0</ele><time>2026-04-11T14:43:49.536Z</time></trkpt><trkpt lat="45.9915015" lon="11.877497"><ele>522.0</ele><time>2026-04-11T14:43:51.536Z</time></trkpt><trkpt lat="45.9914284" lon="11.8773751"><ele>522.0</ele><time>2026-04-11T14:43:53.535Z</time></trkpt><trkpt lat="45.9913761" lon="11.8772337"><ele>520.0</ele><time>2026-04-11T14:43:55.538Z</time></trkpt><trkpt lat="45.9913727" lon="11.8770756"><ele>518.0</ele><time>2026-04-11T14:43:57.537Z</time></trkpt><trkpt lat="45.9913943" lon="11.8769365"><ele>516.0</ele><time>2026-04-11T14:43:59.538Z</time></trkpt><trkpt lat="45.9913769" lon="11.8768004"><ele>514.0</ele><time>2026-04-11T14:44:01.538Z</time></trkpt><trkpt lat="45.9913236" lon="11.8766776"><ele>512.0</ele><time>2026-04-11T14:44:03.538Z</time></trkpt><trkpt lat="45.991273" lon="11.8765537"><ele>509.8</ele><time>2026-04-11T14:44:05.537Z</time></trkpt><trkpt lat="45.9912043" lon="11.8764392"><ele>507.6</ele><time>2026-04-11T14:44:07.538Z</time></trkpt><trkpt lat="45.9911224" lon="11.8763348"><ele>505.40000000000003</ele><time>2026-04-11T14:44:09.537Z</time></trkpt><trkpt lat="45.9910404" lon="11.8762315"><ele>503.20000000000005</ele><time>2026-04-11T14:44:11.538Z</time></trkpt><trkpt lat="45.990967" lon="11.8761164"><ele>501.0</ele><time>2026-04-11T14:44:13.538Z</time></trkpt><trkpt lat="45.9909082" lon="11.8759986"><ele>501.0</ele><time>2026-04-11T14:44:15.538Z</time></trkpt><trkpt lat="45.9908804" lon="11.8758897"><ele>501.0</ele><time>2026-04-11T14:44:17.535Z</time></trkpt><trkpt lat="45.9909496" lon="11.8758378"><ele>501.0</ele><time>2026-04-11T14:44:20.537Z</time></trkpt><trkpt lat="45.9910328" lon="11.8759269"><ele>501.0</ele><time>2026-04-11T14:44:22.538Z</time></trkpt><trkpt lat="45.9911272" lon="11.8760177"><ele>501.0</ele><time>2026-04-11T14:44:24.536Z</time></trkpt><trkpt lat="45.9912151" lon="11.876076"><ele>501.0</ele><time>2026-04-11T14:44:26.537Z</time></trkpt><trkpt lat="45.9912908" lon="11.8761141"><ele>501.0</ele><time>2026-04-11T14:44:28.537Z</time></trkpt><trkpt lat="45.9913841" lon="11.8761439"><ele>501.0</ele><time>2026-04-11T14:44:30.536Z</time></trkpt><trkpt lat="45.9914873" lon="11.8761809"><ele>501.0</ele><time>2026-04-11T14:44:32.537Z</time></trkpt><trkpt lat="45.9915879" lon="11.8762263"><ele>501.0</ele><time>2026-04-11T14:44:34.538Z</time></trkpt><trkpt lat="45.9916978" lon="11.8762492"><ele>496.25</ele><time>2026-04-11T14:44:36.538Z</time></trkpt><trkpt lat="45.9918042" lon="11.8762693"><ele>491.5</ele><time>2026-04-11T14:44:38.538Z</time></trkpt><trkpt lat="45.9919153" lon="11.8762947"><ele>486.75</ele><time>2026-04-11T14:44:40.537Z</time></trkpt><trkpt lat="45.9920348" lon="11.8763238"><ele>482.0</ele><time>2026-04-11T14:44:42.537Z</time></trkpt><trkpt lat="45.9921494" lon="11.8763642"><ele>481.99999999999994</ele><time>2026-04-11T14:44:44.537Z</time></trkpt><trkpt lat="45.9922668" lon="11.8764188"><ele>482.0</ele><time>2026-04-11T14:44:46.538Z</time></trkpt><trkpt lat="45.9923941" lon="11.8764363"><ele>482.0</ele><time>2026-04-11T14:44:48.537Z</time></trkpt><trkpt lat="45.9924578" lon="11.8764227"><ele>482.0</ele><time>2026-04-11T14:44:49.536Z</time></trkpt><trkpt lat="45.9925192" lon="11.8764017"><ele>481.99999999999994</ele><time>2026-04-11T14:44:50.537Z</time></trkpt><trkpt lat="45.9925824" lon="11.8763721"><ele>482.0</ele><time>2026-04-11T14:44:51.536Z</time></trkpt><trkpt lat="45.9926474" lon="11.8763507"><ele>478.49999999999994</ele><time>2026-04-11T14:44:52.536Z</time></trkpt><trkpt lat="45.9927165" lon="11.8763304"><ele>475.0</ele><time>2026-04-11T14:44:53.536Z</time></trkpt><trkpt lat="45.9927828" lon="11.8763044"><ele>471.5</ele><time>2026-04-11T14:44:54.537Z</time></trkpt><trkpt lat="45.9928922" lon="11.8762581"><ele>468.0</ele><time>2026-04-11T14:44:56.537Z</time></trkpt><trkpt lat="45.9929755" lon="11.8762355"><ele>464.49999999999994</ele><time>2026-04-11T14:44:58.537Z</time></trkpt><trkpt lat="45.9930556" lon="11.8761972"><ele>461.0</ele><time>2026-04-11T14:45:00.537Z</time></trkpt><trkpt lat="45.9931551" lon="11.8762116"><ele>461.0</ele><time>2026-04-11T14:45:02.538Z</time></trkpt><trkpt lat="45.9932629" lon="11.8762622"><ele>461.0</ele><time>2026-04-11T14:45:04.537Z</time></trkpt><trkpt lat="45.9933701" lon="11.8763276"><ele>461.0</ele><time>2026-04-11T14:45:06.538Z</time></trkpt><trkpt lat="45.9934718" lon="11.8764042"><ele>461.0</ele><time>2026-04-11T14:45:08.537Z</time></trkpt><trkpt lat="45.9935721" lon="11.8764833"><ele>455.6</ele><time>2026-04-11T14:45:10.537Z</time></trkpt><trkpt lat="45.9936667" lon="11.8765468"><ele>450.20000000000005</ele><time>2026-04-11T14:45:12.538Z</time></trkpt><trkpt lat="45.9937748" lon="11.8765806"><ele>444.79999999999995</ele><time>2026-04-11T14:45:14.536Z</time></trkpt><trkpt lat="45.993896" lon="11.8765883"><ele>439.4</ele><time>2026-04-11T14:45:16.536Z</time></trkpt><trkpt lat="45.9940004" lon="11.8765401"><ele>434.0</ele><time>2026-04-11T14:45:18.535Z</time></trkpt><trkpt lat="45.9940816" lon="11.8764385"><ele>434.0</ele><time>2026-04-11T14:45:20.537Z</time></trkpt><trkpt lat="45.9941332" lon="11.8763046"><ele>434.0</ele><time>2026-04-11T14:45:22.535Z</time></trkpt><trkpt lat="45.994145" lon="11.8761577"><ele>434.0</ele><time>2026-04-11T14:45:24.538Z</time></trkpt><trkpt lat="45.9941517" lon="11.8759864"><ele>434.0</ele><time>2026-04-11T14:45:26.538Z</time></trkpt><trkpt lat="45.9941915" lon="11.8758236"><ele>434.0</ele><time>2026-04-11T14:45:28.535Z</time></trkpt><trkpt lat="45.9942829" lon="11.8756938"><ele>429.25</ele><time>2026-04-11T14:45:30.538Z</time></trkpt><trkpt lat="45.9943902" lon="11.8756082"><ele>424.5</ele><time>2026-04-11T14:45:32.537Z</time></trkpt><trkpt lat="45.994504" lon="11.8755663"><ele>419.75</ele><time>2026-04-11T14:45:34.537Z</time></trkpt><trkpt lat="45.9946208" lon="11.8755774"><ele>415.0</ele><time>2026-04-11T14:45:36.538Z</time></trkpt><trkpt lat="45.9947359" lon="11.8756306"><ele>415.0</ele><time>2026-04-11T14:45:38.538Z</time></trkpt><trkpt lat="45.9947976" lon="11.8756524"><ele>415.0</ele><time>2026-04-11T14:45:39.538Z</time></trkpt><trkpt lat="45.9949178" lon="11.8757019"><ele>415.0</ele><time>2026-04-11T14:45:41.536Z</time></trkpt><trkpt lat="45.9950278" lon="11.8757817"><ele>415.0</ele><time>2026-04-11T14:45:43.536Z</time></trkpt><trkpt lat="45.9951353" lon="11.8758363"><ele>415.0</ele><time>2026-04-11T14:45:45.537Z</time></trkpt><trkpt lat="45.9952575" lon="11.8758202"><ele>413.00000000000006</ele><time>2026-04-11T14:45:47.536Z</time></trkpt><trkpt lat="45.9953267" lon="11.8757967"><ele>411.0</ele><time>2026-04-11T14:45:48.536Z</time></trkpt><trkpt lat="45.9953939" lon="11.8757791"><ele>409.0</ele><time>2026-04-11T14:45:49.538Z</time></trkpt><trkpt lat="45.9954573" lon="11.8757616"><ele>407.0</ele><time>2026-04-11T14:45:50.538Z</time></trkpt><trkpt lat="45.9955686" lon="11.8756967"><ele>405.00000000000006</ele><time>2026-04-11T14:45:52.535Z</time></trkpt><trkpt lat="45.9956637" lon="11.8756073"><ele>403.0</ele><time>2026-04-11T14:45:54.536Z</time></trkpt><trkpt lat="45.9957665" lon="11.8755205"><ele>400.59999999999997</ele><time>2026-04-11T14:45:56.535Z</time></trkpt><trkpt lat="45.9958556" lon="11.8754236"><ele>398.2</ele><time>2026-04-11T14:45:58.537Z</time></trkpt><trkpt lat="45.9959282" lon="11.875321"><ele>395.8</ele><time>2026-04-11T14:46:00.538Z</time></trkpt><trkpt lat="45.9960053" lon="11.8752211"><ele>393.4</ele><time>2026-04-11T14:46:02.537Z</time></trkpt><trkpt lat="45.9960889" lon="11.8751417"><ele>391.0</ele><time>2026-04-11T14:46:04.535Z</time></trkpt><trkpt lat="45.9961697" lon="11.8750719"><ele>390.99999999999994</ele><time>2026-04-11T14:46:06.535Z</time></trkpt><trkpt lat="45.9962233" lon="11.8750108"><ele>391.0</ele><time>2026-04-11T14:46:08.537Z</time></trkpt><trkpt lat="45.9962776" lon="11.8749221"><ele>391.0</ele><time>2026-04-11T14:46:11.537Z</time></trkpt><trkpt lat="45.9963508" lon="11.8748886"><ele>391.0</ele><time>2026-04-11T14:46:14.539Z</time></trkpt><trkpt lat="45.9964142" lon="11.8749032"><ele>391.0</ele><time>2026-04-11T14:46:17.536Z</time></trkpt><trkpt lat="45.9964782" lon="11.8749128"><ele>390.99999999999994</ele><time>2026-04-11T14:46:20.535Z</time></trkpt><trkpt lat="45.996556" lon="11.8749231"><ele>391.0</ele><time>2026-04-11T14:46:23.534Z</time></trkpt><trkpt lat="45.9966198" lon="11.8749507"><ele>389.4</ele><time>2026-04-11T14:46:25.534Z</time></trkpt><trkpt lat="45.9966902" lon="11.874983"><ele>387.8</ele><time>2026-04-11T14:46:27.534Z</time></trkpt><trkpt lat="45.9967965" lon="11.8750134"><ele>386.2</ele><time>2026-04-11T14:46:29.534Z</time></trkpt><trkpt lat="45.9969077" lon="11.8750638"><ele>384.59999999999997</ele><time>2026-04-11T14:46:31.535Z</time></trkpt><trkpt lat="45.9969712" lon="11.8750803"><ele>383.0</ele><time>2026-04-11T14:46:32.534Z</time></trkpt><trkpt lat="45.9970891" lon="11.8750909"><ele>383.2</ele><time>2026-04-11T14:46:34.533Z</time></trkpt><trkpt lat="45.9971967" lon="11.8751062"><ele>383.4</ele><time>2026-04-11T14:46:36.535Z</time></trkpt><trkpt lat="45.9973015" lon="11.8751224"><ele>383.59999999999997</ele><time>2026-04-11T14:46:38.539Z</time></trkpt><trkpt lat="45.997404" lon="11.8751348"><ele>383.79999999999995</ele><time>2026-04-11T14:46:40.535Z</time></trkpt><trkpt lat="45.9974985" lon="11.8751533"><ele>384.0</ele><time>2026-04-11T14:46:42.537Z</time></trkpt><trkpt lat="45.9975643" lon="11.8751333"><ele>384.0</ele><time>2026-04-11T14:46:44.537Z</time></trkpt><trkpt lat="45.9976309" lon="11.875137"><ele>384.0</ele><time>2026-04-11T14:46:46.537Z</time></trkpt><trkpt lat="45.9976948" lon="11.8751537"><ele>384.0</ele><time>2026-04-11T14:46:49.536Z</time></trkpt><trkpt lat="45.9977201" lon="11.8750582"><ele>384.0</ele><time>2026-04-11T14:46:52.536Z</time></trkpt><trkpt lat="45.9977198" lon="11.8749502"><ele>384.0</ele><time>2026-04-11T14:46:54.536Z</time></trkpt><trkpt lat="45.9977241" lon="11.8748179"><ele>384.0</ele><time>2026-04-11T14:46:56.538Z</time></trkpt><trkpt lat="45.9977116" lon="11.8746864"><ele>383.2</ele><time>2026-04-11T14:46:58.537Z</time></trkpt><trkpt lat="45.9977033" lon="11.8745559"><ele>382.4</ele><time>2026-04-11T14:47:00.538Z</time></trkpt><trkpt lat="45.9976972" lon="11.8744301"><ele>381.6</ele><time>2026-04-11T14:47:02.539Z</time></trkpt><trkpt lat="45.9976919" lon="11.8743032"><ele>380.8</ele><time>2026-04-11T14:47:04.536Z</time></trkpt><trkpt lat="45.9976861" lon="11.8741714"><ele>380.0</ele><time>2026-04-11T14:47:06.537Z</time></trkpt><trkpt lat="45.9976824" lon="11.8740327"><ele>379.2</ele><time>2026-04-11T14:47:08.536Z</time></trkpt><trkpt lat="45.9976763" lon="11.87389"><ele>378.4</ele><time>2026-04-11T14:47:10.537Z</time></trkpt><trkpt lat="45.9976693" lon="11.8737458"><ele>377.6</ele><time>2026-04-11T14:47:12.536Z</time></trkpt><trkpt lat="45.9976563" lon="11.8735945"><ele>376.8</ele><time>2026-04-11T14:47:14.537Z</time></trkpt><trkpt lat="45.9976422" lon="11.8734313"><ele>376.0</ele><time>2026-04-11T14:47:16.535Z</time></trkpt><trkpt lat="45.9976296" lon="11.8732632"><ele>375.8</ele><time>2026-04-11T14:47:18.536Z</time></trkpt><trkpt lat="45.9976153" lon="11.8730888"><ele>375.6</ele><time>2026-04-11T14:47:20.537Z</time></trkpt><trkpt lat="45.9976077" lon="11.872998"><ele>375.4</ele><time>2026-04-11T14:47:21.535Z</time></trkpt><trkpt lat="45.9975792" lon="11.8728221"><ele>375.2</ele><time>2026-04-11T14:47:23.537Z</time></trkpt><trkpt lat="45.9975555" lon="11.8727377"><ele>375.0</ele><time>2026-04-11T14:47:24.535Z</time></trkpt><trkpt lat="45.9975015" lon="11.8725787"><ele>375.0</ele><time>2026-04-11T14:47:26.534Z</time></trkpt><trkpt lat="45.9974497" lon="11.8724174"><ele>375.0</ele><time>2026-04-11T14:47:28.538Z</time></trkpt><trkpt lat="45.9974289" lon="11.8723291"><ele>375.0</ele><time>2026-04-11T14:47:29.535Z</time></trkpt><trkpt lat="45.9974098" lon="11.8722374"><ele>375.0</ele><time>2026-04-11T14:47:30.536Z</time></trkpt><trkpt lat="45.9973938" lon="11.8721475"><ele>375.0</ele><time>2026-04-11T14:47:31.538Z</time></trkpt><trkpt lat="45.9973874" lon="11.8720565"><ele>375.0</ele><time>2026-04-11T14:47:32.54Z</time></trkpt><trkpt lat="45.9973908" lon="11.871962"><ele>375.0</ele><time>2026-04-11T14:47:33.538Z</time></trkpt><trkpt lat="45.9974009" lon="11.8718675"><ele>374.1666666666667</ele><time>2026-04-11T14:47:34.537Z</time></trkpt><trkpt lat="45.997415" lon="11.8717715"><ele>373.3333333333333</ele><time>2026-04-11T14:47:35.537Z</time></trkpt><trkpt lat="45.9974302" lon="11.8716756"><ele>372.5</ele><time>2026-04-11T14:47:36.536Z</time></trkpt><trkpt lat="45.997447" lon="11.8715815"><ele>371.66666666666663</ele><time>2026-04-11T14:47:37.537Z</time></trkpt><trkpt lat="45.9974614" lon="11.8714893"><ele>370.8333333333333</ele><time>2026-04-11T14:47:38.537Z</time></trkpt><trkpt lat="45.9974747" lon="11.8714002"><ele>370.0</ele><time>2026-04-11T14:47:39.537Z</time></trkpt><trkpt lat="45.9975096" lon="11.8712266"><ele>372.0</ele><time>2026-04-11T14:47:41.537Z</time></trkpt><trkpt lat="45.9975418" lon="11.8710578"><ele>374.0</ele><time>2026-04-11T14:47:43.538Z</time></trkpt><trkpt lat="45.9975768" lon="11.8708834"><ele>376.0</ele><time>2026-04-11T14:47:45.537Z</time></trkpt><trkpt lat="45.9975942" lon="11.8707917"><ele>378.0</ele><time>2026-04-11T14:47:46.537Z</time></trkpt><trkpt lat="45.9976123" lon="11.8706973"><ele>380.0</ele><time>2026-04-11T14:47:47.536Z</time></trkpt><trkpt lat="45.9976273" lon="11.8705997"><ele>380.57142857142856</ele><time>2026-04-11T14:47:48.536Z</time></trkpt><trkpt lat="45.997638" lon="11.8705012"><ele>381.14285714285717</ele><time>2026-04-11T14:47:49.536Z</time></trkpt><trkpt lat="45.9976466" lon="11.8703979"><ele>381.71428571428567</ele><time>2026-04-11T14:47:50.537Z</time></trkpt><trkpt lat="45.9976524" lon="11.8702957"><ele>382.2857142857143</ele><time>2026-04-11T14:47:51.535Z</time></trkpt><trkpt lat="45.9976518" lon="11.8701944"><ele>382.85714285714283</ele><time>2026-04-11T14:47:52.537Z</time></trkpt><trkpt lat="45.9976397" lon="11.870093"><ele>383.4285714285714</ele><time>2026-04-11T14:47:53.536Z</time></trkpt><trkpt lat="45.9976208" lon="11.8699932"><ele>384.0</ele><time>2026-04-11T14:47:54.538Z</time></trkpt><trkpt lat="45.9975985" lon="11.8698975"><ele>385.0</ele><time>2026-04-11T14:47:55.537Z</time></trkpt><trkpt lat="45.9975721" lon="11.8698071"><ele>386.0</ele><time>2026-04-11T14:47:56.537Z</time></trkpt><trkpt lat="45.997542" lon="11.869722"><ele>387.0</ele><time>2026-04-11T14:47:57.538Z</time></trkpt><trkpt lat="45.9975107" lon="11.8696402"><ele>388.0</ele><time>2026-04-11T14:47:58.535Z</time></trkpt><trkpt lat="45.9974809" lon="11.8695601"><ele>389.0</ele><time>2026-04-11T14:47:59.538Z</time></trkpt><trkpt lat="45.9974207" lon="11.8694046"><ele>390.0</ele><time>2026-04-11T14:48:01.536Z</time></trkpt><trkpt lat="45.9973663" lon="11.8692395"><ele>387.0</ele><time>2026-04-11T14:48:03.536Z</time></trkpt><trkpt lat="45.9973383" lon="11.8691515"><ele>384.0</ele><time>2026-04-11T14:48:04.537Z</time></trkpt><trkpt lat="45.9973111" lon="11.8690546"><ele>381.0</ele><time>2026-04-11T14:48:05.537Z</time></trkpt><trkpt lat="45.9972846" lon="11.8689607"><ele>378.0</ele><time>2026-04-11T14:48:06.536Z</time></trkpt><trkpt lat="45.9972614" lon="11.8688684"><ele>375.0</ele><time>2026-04-11T14:48:07.537Z</time></trkpt><trkpt lat="45.9972373" lon="11.8687735"><ele>372.0</ele><time>2026-04-11T14:48:08.536Z</time></trkpt><trkpt lat="45.9972113" lon="11.8686812"><ele>369.0</ele><time>2026-04-11T14:48:09.538Z</time></trkpt><trkpt lat="45.9971894" lon="11.8685941"><ele>369.0</ele><time>2026-04-11T14:48:10.537Z</time></trkpt><trkpt lat="45.9971754" lon="11.8685054"><ele>369.0</ele><time>2026-04-11T14:48:11.538Z</time></trkpt><trkpt lat="45.9971606" lon="11.868413"><ele>369.0</ele><time>2026-04-11T14:48:12.537Z</time></trkpt><trkpt lat="45.9971484" lon="11.8683183"><ele>369.0</ele><time>2026-04-11T14:48:13.537Z</time></trkpt><trkpt lat="45.9971401" lon="11.8682185"><ele>369.0</ele><time>2026-04-11T14:48:14.537Z</time></trkpt><trkpt lat="45.997131" lon="11.8681175"><ele>369.0</ele><time>2026-04-11T14:48:15.536Z</time></trkpt><trkpt lat="45.9971192" lon="11.868013"><ele>369.0</ele><time>2026-04-11T14:48:16.537Z</time></trkpt><trkpt lat="45.9971044" lon="11.8679088"><ele>369.6666666666667</ele><time>2026-04-11T14:48:17.536Z</time></trkpt><trkpt lat="45.9970933" lon="11.8678014"><ele>370.3333333333333</ele><time>2026-04-11T14:48:18.537Z</time></trkpt><trkpt lat="45.9970834" lon="11.8676938"><ele>371.0</ele><time>2026-04-11T14:48:19.537Z</time></trkpt><trkpt lat="45.9970721" lon="11.8675842"><ele>371.66666666666663</ele><time>2026-04-11T14:48:20.537Z</time></trkpt><trkpt lat="45.9970591" lon="11.8674691"><ele>372.3333333333333</ele><time>2026-04-11T14:48:21.536Z</time></trkpt><trkpt lat="45.9970489" lon="11.8673534"><ele>373.0</ele><time>2026-04-11T14:48:22.537Z</time></trkpt><trkpt lat="45.9970441" lon="11.8672353"><ele>373.0</ele><time>2026-04-11T14:48:23.537Z</time></trkpt><trkpt lat="45.9970421" lon="11.8671151"><ele>373.0</ele><time>2026-04-11T14:48:24.536Z</time></trkpt><trkpt lat="45.9970455" lon="11.8669938"><ele>373.0</ele><time>2026-04-11T14:48:25.537Z</time></trkpt><trkpt lat="45.9970556" lon="11.8668703"><ele>373.0</ele><time>2026-04-11T14:48:26.538Z</time></trkpt><trkpt lat="45.9970667" lon="11.8667455"><ele>373.0</ele><time>2026-04-11T14:48:27.535Z</time></trkpt><trkpt lat="45.997081" lon="11.8666213"><ele>373.0</ele><time>2026-04-11T14:48:28.537Z</time></trkpt><trkpt lat="45.9970978" lon="11.8664953"><ele>372.2</ele><time>2026-04-11T14:48:29.536Z</time></trkpt><trkpt lat="45.9971152" lon="11.8663676"><ele>371.4</ele><time>2026-04-11T14:48:30.538Z</time></trkpt><trkpt lat="45.9971333" lon="11.8662396"><ele>370.59999999999997</ele><time>2026-04-11T14:48:31.537Z</time></trkpt><trkpt lat="45.9971567" lon="11.8661119"><ele>369.79999999999995</ele><time>2026-04-11T14:48:32.537Z</time></trkpt><trkpt lat="45.9971838" lon="11.865984"><ele>369.0</ele><time>2026-04-11T14:48:33.536Z</time></trkpt><trkpt lat="45.9972164" lon="11.8658576"><ele>367.4</ele><time>2026-04-11T14:48:34.536Z</time></trkpt><trkpt lat="45.9972586" lon="11.8657342"><ele>365.79999999999995</ele><time>2026-04-11T14:48:35.536Z</time></trkpt><trkpt lat="45.9973076" lon="11.8656108"><ele>364.20000000000005</ele><time>2026-04-11T14:48:36.538Z</time></trkpt><trkpt lat="45.9973608" lon="11.8654874"><ele>362.6</ele><time>2026-04-11T14:48:37.535Z</time></trkpt><trkpt lat="45.9974183" lon="11.8653658"><ele>361.0</ele><time>2026-04-11T14:48:38.537Z</time></trkpt><trkpt lat="45.9974756" lon="11.8652458"><ele>361.20000000000005</ele><time>2026-04-11T14:48:39.536Z</time></trkpt><trkpt lat="45.9975275" lon="11.8651254"><ele>361.40000000000003</ele><time>2026-04-11T14:48:40.537Z</time></trkpt><trkpt lat="45.997575" lon="11.8650043"><ele>361.6</ele><time>2026-04-11T14:48:41.535Z</time></trkpt><trkpt lat="45.9976211" lon="11.8648858"><ele>361.8</ele><time>2026-04-11T14:48:42.537Z</time></trkpt><trkpt lat="45.9976627" lon="11.8647688"><ele>362.0</ele><time>2026-04-11T14:48:43.537Z</time></trkpt><trkpt lat="45.9977045" lon="11.8646534"><ele>362.0</ele><time>2026-04-11T14:48:44.538Z</time></trkpt><trkpt lat="45.9977485" lon="11.8645402"><ele>362.0</ele><time>2026-04-11T14:48:45.537Z</time></trkpt><trkpt lat="45.9977862" lon="11.8644235"><ele>362.0</ele><time>2026-04-11T14:48:46.536Z</time></trkpt><trkpt lat="45.9978193" lon="11.8643017"><ele>362.0</ele><time>2026-04-11T14:48:47.537Z</time></trkpt><trkpt lat="45.9978467" lon="11.864175"><ele>362.0</ele><time>2026-04-11T14:48:48.537Z</time></trkpt><trkpt lat="45.9978634" lon="11.8640454"><ele>358.5</ele><time>2026-04-11T14:48:49.537Z</time></trkpt><trkpt lat="45.9978805" lon="11.8639205"><ele>355.0</ele><time>2026-04-11T14:48:50.537Z</time></trkpt><trkpt lat="45.9979016" lon="11.8638019"><ele>351.5</ele><time>2026-04-11T14:48:51.536Z</time></trkpt><trkpt lat="45.997931" lon="11.8636932"><ele>348.0</ele><time>2026-04-11T14:48:52.536Z</time></trkpt><trkpt lat="45.9979766" lon="11.8635937"><ele>344.5</ele><time>2026-04-11T14:48:53.536Z</time></trkpt><trkpt lat="45.9980323" lon="11.8635042"><ele>341.0</ele><time>2026-04-11T14:48:54.536Z</time></trkpt><trkpt lat="45.9980962" lon="11.8634254"><ele>340.0</ele><time>2026-04-11T14:48:55.537Z</time></trkpt><trkpt lat="45.9981656" lon="11.8633603"><ele>339.0</ele><time>2026-04-11T14:48:56.537Z</time></trkpt><trkpt lat="45.9982348" lon="11.8632963"><ele>338.0</ele><time>2026-04-11T14:48:57.537Z</time></trkpt><trkpt lat="45.9983037" lon="11.8632325"><ele>337.0</ele><time>2026-04-11T14:48:58.537Z</time></trkpt><trkpt lat="45.9983734" lon="11.8631721"><ele>336.0</ele><time>2026-04-11T14:48:59.537Z</time></trkpt><trkpt lat="45.9984415" lon="11.8631175"><ele>335.0</ele><time>2026-04-11T14:49:00.537Z</time></trkpt><trkpt lat="45.9985037" lon="11.8630677"><ele>334.6666666666667</ele><time>2026-04-11T14:49:01.536Z</time></trkpt><trkpt lat="45.998558" lon="11.8630218"><ele>334.33333333333337</ele><time>2026-04-11T14:49:02.537Z</time></trkpt><trkpt lat="45.9986481" lon="11.8629445"><ele>334.0</ele><time>2026-04-11T14:49:04.536Z</time></trkpt><trkpt lat="45.9987216" lon="11.8628831"><ele>333.6666666666667</ele><time>2026-04-11T14:49:06.537Z</time></trkpt><trkpt lat="45.9987817" lon="11.8628446"><ele>333.3333333333333</ele><time>2026-04-11T14:49:08.537Z</time></trkpt><trkpt lat="45.9988453" lon="11.8628492"><ele>333.0</ele><time>2026-04-11T14:49:12.538Z</time></trkpt><trkpt lat="45.9988881" lon="11.8627508"><ele>333.0</ele><time>2026-04-11T14:49:16.536Z</time></trkpt><trkpt lat="45.9988589" lon="11.8626595"><ele>333.0</ele><time>2026-04-11T14:49:18.537Z</time></trkpt><trkpt lat="45.9988083" lon="11.8625583"><ele>333.0</ele><time>2026-04-11T14:49:20.537Z</time></trkpt><trkpt lat="45.9987591" lon="11.862447"><ele>333.0</ele><time>2026-04-11T14:49:22.536Z</time></trkpt><trkpt lat="45.9987092" lon="11.8623311"><ele>333.0</ele><time>2026-04-11T14:49:24.535Z</time></trkpt><trkpt lat="45.998656" lon="11.8622045"><ele>333.0</ele><time>2026-04-11T14:49:26.538Z</time></trkpt><trkpt lat="45.9985976" lon="11.8620733"><ele>332.5</ele><time>2026-04-11T14:49:28.537Z</time></trkpt><trkpt lat="45.9985396" lon="11.8619368"><ele>332.0</ele><time>2026-04-11T14:49:30.537Z</time></trkpt><trkpt lat="45.998475" lon="11.8617965"><ele>331.5</ele><time>2026-04-11T14:49:32.536Z</time></trkpt><trkpt lat="45.9984126" lon="11.8616594"><ele>331.0</ele><time>2026-04-11T14:49:34.535Z</time></trkpt><trkpt lat="45.9983481" lon="11.8615154"><ele>330.8</ele><time>2026-04-11T14:49:36.537Z</time></trkpt><trkpt lat="45.9982825" lon="11.8613664"><ele>330.6</ele><time>2026-04-11T14:49:38.537Z</time></trkpt><trkpt lat="45.9982164" lon="11.8612192"><ele>330.4</ele><time>2026-04-11T14:49:40.536Z</time></trkpt><trkpt lat="45.9981833" lon="11.8611417"><ele>330.2</ele><time>2026-04-11T14:49:41.538Z</time></trkpt><trkpt lat="45.9981175" lon="11.8609887"><ele>330.0</ele><time>2026-04-11T14:49:43.537Z</time></trkpt><trkpt lat="45.9980461" lon="11.8608365"><ele>329.4</ele><time>2026-04-11T14:49:45.536Z</time></trkpt><trkpt lat="45.9980112" lon="11.8607597"><ele>328.8</ele><time>2026-04-11T14:49:46.537Z</time></trkpt><trkpt lat="45.9979433" lon="11.86061"><ele>328.20000000000005</ele><time>2026-04-11T14:49:48.537Z</time></trkpt><trkpt lat="45.9978758" lon="11.8604591"><ele>327.6</ele><time>2026-04-11T14:49:50.538Z</time></trkpt><trkpt lat="45.9978402" lon="11.8603826"><ele>327.0</ele><time>2026-04-11T14:49:51.537Z</time></trkpt><trkpt lat="45.997775" lon="11.8602365"><ele>326.6666666666667</ele><time>2026-04-11T14:49:53.538Z</time></trkpt><trkpt lat="45.9977013" lon="11.8601029"><ele>326.3333333333333</ele><time>2026-04-11T14:49:55.537Z</time></trkpt><trkpt lat="45.9976226" lon="11.8599676"><ele>326.0</ele><time>2026-04-11T14:49:57.536Z</time></trkpt><trkpt lat="45.9975797" lon="11.8598966"><ele>325.66666666666663</ele><time>2026-04-11T14:49:58.538Z</time></trkpt><trkpt lat="45.9975378" lon="11.8598234"><ele>325.3333333333333</ele><time>2026-04-11T14:49:59.538Z</time></trkpt><trkpt lat="45.9974968" lon="11.8597469"><ele>325.0</ele><time>2026-04-11T14:50:00.537Z</time></trkpt><trkpt lat="45.9974536" lon="11.8596749"><ele>325.0</ele><time>2026-04-11T14:50:01.538Z</time></trkpt><trkpt lat="45.9974109" lon="11.8596069"><ele>325.0</ele><time>2026-04-11T14:50:02.536Z</time></trkpt><trkpt lat="45.9973289" lon="11.8594763"><ele>325.0</ele><time>2026-04-11T14:50:04.538Z</time></trkpt><trkpt lat="45.9972369" lon="11.859358"><ele>325.0</ele><time>2026-04-11T14:50:06.537Z</time></trkpt><trkpt lat="45.9971436" lon="11.8592499"><ele>325.0</ele><time>2026-04-11T14:50:08.538Z</time></trkpt><trkpt lat="45.9970558" lon="11.8591502"><ele>324.6</ele><time>2026-04-11T14:50:10.536Z</time></trkpt><trkpt lat="45.9969708" lon="11.8590408"><ele>324.2</ele><time>2026-04-11T14:50:12.537Z</time></trkpt><trkpt lat="45.9969016" lon="11.8589022"><ele>323.79999999999995</ele><time>2026-04-11T14:50:14.536Z</time></trkpt><trkpt lat="45.9968392" lon="11.85874"><ele>323.4</ele><time>2026-04-11T14:50:16.537Z</time></trkpt><trkpt lat="45.9968072" lon="11.8586572"><ele>323.0</ele><time>2026-04-11T14:50:17.537Z</time></trkpt><trkpt lat="45.9967746" lon="11.8585719"><ele>323.00000000000006</ele><time>2026-04-11T14:50:18.537Z</time></trkpt><trkpt lat="45.9967419" lon="11.858487"><ele>323.0</ele><time>2026-04-11T14:50:19.535Z</time></trkpt><trkpt lat="45.9967079" lon="11.8584005"><ele>323.0</ele><time>2026-04-11T14:50:20.537Z</time></trkpt><trkpt lat="45.9966709" lon="11.8583229"><ele>323.0</ele><time>2026-04-11T14:50:21.537Z</time></trkpt><trkpt lat="45.9966292" lon="11.8582414"><ele>323.0</ele><time>2026-04-11T14:50:22.536Z</time></trkpt><trkpt lat="45.9965878" lon="11.8581676"><ele>323.00000000000006</ele><time>2026-04-11T14:50:23.536Z</time></trkpt><trkpt lat="45.9965486" lon="11.8580958"><ele>323.0</ele><time>2026-04-11T14:50:24.537Z</time></trkpt><trkpt lat="45.9964716" lon="11.8579701"><ele>322.75</ele><time>2026-04-11T14:50:26.535Z</time></trkpt><trkpt lat="45.9964068" lon="11.8578323"><ele>322.5</ele><time>2026-04-11T14:50:28.535Z</time></trkpt><trkpt lat="45.9963632" lon="11.8576761"><ele>322.25</ele><time>2026-04-11T14:50:30.536Z</time></trkpt><trkpt lat="45.9963353" lon="11.8575146"><ele>322.0</ele><time>2026-04-11T14:50:32.537Z</time></trkpt><trkpt lat="45.9963206" lon="11.8573617"><ele>321.20000000000005</ele><time>2026-04-11T14:50:34.536Z</time></trkpt><trkpt lat="45.9963167" lon="11.8572114"><ele>320.40000000000003</ele><time>2026-04-11T14:50:36.536Z</time></trkpt><trkpt lat="45.9963188" lon="11.8570788"><ele>319.6</ele><time>2026-04-11T14:50:38.537Z</time></trkpt><trkpt lat="45.9963459" lon="11.8569514"><ele>318.8</ele><time>2026-04-11T14:50:40.537Z</time></trkpt><trkpt lat="45.9963722" lon="11.8568203"><ele>318.0</ele><time>2026-04-11T14:50:42.534Z</time></trkpt><trkpt lat="45.9963786" lon="11.8566761"><ele>317.4</ele><time>2026-04-11T14:50:44.537Z</time></trkpt><trkpt lat="45.9963767" lon="11.856529"><ele>316.8</ele><time>2026-04-11T14:50:46.534Z</time></trkpt><trkpt lat="45.9963666" lon="11.8563803"><ele>316.2</ele><time>2026-04-11T14:50:48.537Z</time></trkpt><trkpt lat="45.9963527" lon="11.8562327"><ele>315.6</ele><time>2026-04-11T14:50:50.537Z</time></trkpt><trkpt lat="45.9963557" lon="11.85609"><ele>315.0</ele><time>2026-04-11T14:50:52.535Z</time></trkpt><trkpt lat="45.9963556" lon="11.8559406"><ele>314.6</ele><time>2026-04-11T14:50:54.538Z</time></trkpt><trkpt lat="45.9963612" lon="11.8557886"><ele>314.2</ele><time>2026-04-11T14:50:56.537Z</time></trkpt><trkpt lat="45.9963653" lon="11.8556363"><ele>313.8</ele><time>2026-04-11T14:50:58.537Z</time></trkpt><trkpt lat="45.9963652" lon="11.8554753"><ele>313.4</ele><time>2026-04-11T14:51:00.537Z</time></trkpt><trkpt lat="45.9963656" lon="11.8553145"><ele>313.0</ele><time>2026-04-11T14:51:02.538Z</time></trkpt><trkpt lat="45.9963646" lon="11.8551531"><ele>313.2</ele><time>2026-04-11T14:51:04.534Z</time></trkpt><trkpt lat="45.9963621" lon="11.8549895"><ele>313.4</ele><time>2026-04-11T14:51:06.538Z</time></trkpt><trkpt lat="45.9963602" lon="11.8548319"><ele>313.59999999999997</ele><time>2026-04-11T14:51:08.538Z</time></trkpt><trkpt lat="45.9963569" lon="11.8546823"><ele>313.8</ele><time>2026-04-11T14:51:10.537Z</time></trkpt><trkpt lat="45.9963531" lon="11.8545369"><ele>314.0</ele><time>2026-04-11T14:51:12.537Z</time></trkpt><trkpt lat="45.9963501" lon="11.8543982"><ele>314.0</ele><time>2026-04-11T14:51:14.536Z</time></trkpt><trkpt lat="45.9963344" lon="11.8542599"><ele>314.0</ele><time>2026-04-11T14:51:16.536Z</time></trkpt><trkpt lat="45.9963025" lon="11.8541284"><ele>314.0</ele><time>2026-04-11T14:51:18.536Z</time></trkpt><trkpt lat="45.9962589" lon="11.8539996"><ele>314.0</ele><time>2026-04-11T14:51:20.537Z</time></trkpt><trkpt lat="45.9962046" lon="11.8538818"><ele>314.0</ele><time>2026-04-11T14:51:22.535Z</time></trkpt><trkpt lat="45.9961521" lon="11.8537708"><ele>314.0</ele><time>2026-04-11T14:51:24.535Z</time></trkpt><trkpt lat="45.9960977" lon="11.8536654"><ele>314.0</ele><time>2026-04-11T14:51:26.536Z</time></trkpt><trkpt lat="45.996043" lon="11.8535629"><ele>314.0</ele><time>2026-04-11T14:51:28.535Z</time></trkpt><trkpt lat="45.9959858" lon="11.8534551"><ele>314.0</ele><time>2026-04-11T14:51:30.536Z</time></trkpt><trkpt lat="45.9959272" lon="11.8533468"><ele>314.0</ele><time>2026-04-11T14:51:32.537Z</time></trkpt><trkpt lat="45.9958699" lon="11.853236"><ele>314.2</ele><time>2026-04-11T14:51:34.536Z</time></trkpt><trkpt lat="45.9958111" lon="11.8531253"><ele>314.4</ele><time>2026-04-11T14:51:36.536Z</time></trkpt><trkpt lat="45.9957511" lon="11.8530145"><ele>314.6</ele><time>2026-04-11T14:51:38.537Z</time></trkpt><trkpt lat="45.9956947" lon="11.8529055"><ele>314.8</ele><time>2026-04-11T14:51:40.535Z</time></trkpt><trkpt lat="45.9956404" lon="11.8527903"><ele>315.0</ele><time>2026-04-11T14:51:42.535Z</time></trkpt><trkpt lat="45.9955866" lon="11.8526813"><ele>314.8</ele><time>2026-04-11T14:51:44.537Z</time></trkpt><trkpt lat="45.9955351" lon="11.8525739"><ele>314.6</ele><time>2026-04-11T14:51:46.536Z</time></trkpt><trkpt lat="45.9954821" lon="11.8524683"><ele>314.4</ele><time>2026-04-11T14:51:48.534Z</time></trkpt><trkpt lat="45.9954243" lon="11.8523621"><ele>314.2</ele><time>2026-04-11T14:51:50.536Z</time></trkpt><trkpt lat="45.9953652" lon="11.852254"><ele>314.0</ele><time>2026-04-11T14:51:52.535Z</time></trkpt><trkpt lat="45.9953053" lon="11.852153"><ele>314.0</ele><time>2026-04-11T14:51:54.536Z</time></trkpt><trkpt lat="45.995251" lon="11.8520519"><ele>314.0</ele><time>2026-04-11T14:51:56.537Z</time></trkpt><trkpt lat="45.995194" lon="11.8519532"><ele>314.0</ele><time>2026-04-11T14:51:58.537Z</time></trkpt><trkpt lat="45.9951329" lon="11.8518601"><ele>314.0</ele><time>2026-04-11T14:52:00.536Z</time></trkpt><trkpt lat="45.9950675" lon="11.8517716"><ele>314.0</ele><time>2026-04-11T14:52:02.536Z</time></trkpt><trkpt lat="45.9950011" lon="11.8516843"><ele>314.0</ele><time>2026-04-11T14:52:04.537Z</time></trkpt><trkpt lat="45.9949313" lon="11.8516011"><ele>314.8</ele><time>2026-04-11T14:52:06.536Z</time></trkpt><trkpt lat="45.9948593" lon="11.8515165"><ele>315.59999999999997</ele><time>2026-04-11T14:52:08.538Z</time></trkpt><trkpt lat="45.9947858" lon="11.8514373"><ele>316.4</ele><time>2026-04-11T14:52:10.536Z</time></trkpt><trkpt lat="45.9947048" lon="11.8513739"><ele>317.2</ele><time>2026-04-11T14:52:12.537Z</time></trkpt><trkpt lat="45.9946171" lon="11.8513157"><ele>318.0</ele><time>2026-04-11T14:52:14.537Z</time></trkpt><trkpt lat="45.9945293" lon="11.8512591"><ele>318.0</ele><time>2026-04-11T14:52:16.537Z</time></trkpt><trkpt lat="45.9944425" lon="11.8512029"><ele>318.0</ele><time>2026-04-11T14:52:18.534Z</time></trkpt><trkpt lat="45.9943591" lon="11.8511411"><ele>318.0</ele><time>2026-04-11T14:52:20.535Z</time></trkpt><trkpt lat="45.9942761" lon="11.8510728"><ele>318.0</ele><time>2026-04-11T14:52:22.535Z</time></trkpt><trkpt lat="45.9941959" lon="11.8510073"><ele>318.0</ele><time>2026-04-11T14:52:24.535Z</time></trkpt><trkpt lat="45.99412" lon="11.8509325"><ele>319.0</ele><time>2026-04-11T14:52:26.537Z</time></trkpt><trkpt lat="45.9940502" lon="11.8508392"><ele>320.0</ele><time>2026-04-11T14:52:28.536Z</time></trkpt><trkpt lat="45.9939845" lon="11.8507345"><ele>321.0</ele><time>2026-04-11T14:52:30.535Z</time></trkpt><trkpt lat="45.9939399" lon="11.8506088"><ele>322.0</ele><time>2026-04-11T14:52:32.537Z</time></trkpt><trkpt lat="45.993909" lon="11.8504829"><ele>323.0</ele><time>2026-04-11T14:52:34.536Z</time></trkpt><trkpt lat="45.9938818" lon="11.8503638"><ele>323.0</ele><time>2026-04-11T14:52:36.535Z</time></trkpt><trkpt lat="45.9938577" lon="11.8502418"><ele>323.0</ele><time>2026-04-11T14:52:38.537Z</time></trkpt><trkpt lat="45.9938329" lon="11.8501187"><ele>323.0</ele><time>2026-04-11T14:52:40.537Z</time></trkpt><trkpt lat="45.9938095" lon="11.8499995"><ele>323.0</ele><time>2026-04-11T14:52:42.537Z</time></trkpt><trkpt lat="45.9937819" lon="11.8498917"><ele>323.0</ele><time>2026-04-11T14:52:44.536Z</time></trkpt><trkpt lat="45.993755" lon="11.849782"><ele>323.0</ele><time>2026-04-11T14:52:46.536Z</time></trkpt><trkpt lat="45.9937328" lon="11.8496671"><ele>323.33333333333337</ele><time>2026-04-11T14:52:48.535Z</time></trkpt><trkpt lat="45.9937018" lon="11.8495593"><ele>323.6666666666667</ele><time>2026-04-11T14:52:50.536Z</time></trkpt><trkpt lat="45.9936679" lon="11.8494548"><ele>324.0</ele><time>2026-04-11T14:52:52.535Z</time></trkpt><trkpt lat="45.9936335" lon="11.8493466"><ele>324.3333333333333</ele><time>2026-04-11T14:52:54.535Z</time></trkpt><trkpt lat="45.9936012" lon="11.8492385"><ele>324.66666666666663</ele><time>2026-04-11T14:52:56.537Z</time></trkpt><trkpt lat="45.993563" lon="11.8491314"><ele>325.0</ele><time>2026-04-11T14:52:58.535Z</time></trkpt><trkpt lat="45.9935284" lon="11.849022"><ele>325.3333333333333</ele><time>2026-04-11T14:53:00.535Z</time></trkpt><trkpt lat="45.9934877" lon="11.8489212"><ele>325.66666666666663</ele><time>2026-04-11T14:53:02.537Z</time></trkpt><trkpt lat="45.9934423" lon="11.8488184"><ele>326.0</ele><time>2026-04-11T14:53:04.537Z</time></trkpt><trkpt lat="45.9933968" lon="11.8487182"><ele>326.3333333333333</ele><time>2026-04-11T14:53:06.537Z</time></trkpt><trkpt lat="45.9933521" lon="11.8486242"><ele>326.6666666666667</ele><time>2026-04-11T14:53:08.537Z</time></trkpt><trkpt lat="45.9933116" lon="11.848534"><ele>327.0</ele><time>2026-04-11T14:53:10.536Z</time></trkpt><trkpt lat="45.993269" lon="11.8484395"><ele>327.8333333333333</ele><time>2026-04-11T14:53:12.537Z</time></trkpt><trkpt lat="45.993221" lon="11.848349"><ele>328.6666666666667</ele><time>2026-04-11T14:53:14.537Z</time></trkpt><trkpt lat="45.9931712" lon="11.848262"><ele>329.5</ele><time>2026-04-11T14:53:16.534Z</time></trkpt><trkpt lat="45.9931213" lon="11.8481762"><ele>330.33333333333337</ele><time>2026-04-11T14:53:18.535Z</time></trkpt><trkpt lat="45.9930627" lon="11.8480893"><ele>331.1666666666667</ele><time>2026-04-11T14:53:20.536Z</time></trkpt><trkpt lat="45.9929877" lon="11.8480164"><ele>332.0</ele><time>2026-04-11T14:53:22.534Z</time></trkpt><trkpt lat="45.9929093" lon="11.8479423"><ele>332.0</ele><time>2026-04-11T14:53:24.535Z</time></trkpt><trkpt lat="45.9928344" lon="11.8478716"><ele>332.0</ele><time>2026-04-11T14:53:26.536Z</time></trkpt><trkpt lat="45.9927606" lon="11.8478013"><ele>332.0</ele><time>2026-04-11T14:53:28.535Z</time></trkpt><trkpt lat="45.9926853" lon="11.8477325"><ele>332.0</ele><time>2026-04-11T14:53:30.538Z</time></trkpt><trkpt lat="45.9926188" lon="11.847662"><ele>332.0</ele><time>2026-04-11T14:53:32.537Z</time></trkpt><trkpt lat="45.9925503" lon="11.8475909"><ele>332.0</ele><time>2026-04-11T14:53:34.54Z</time></trkpt><trkpt lat="45.9924809" lon="11.8475211"><ele>332.33333333333337</ele><time>2026-04-11T14:53:36.538Z</time></trkpt><trkpt lat="45.9924168" lon="11.8474454"><ele>332.6666666666667</ele><time>2026-04-11T14:53:38.538Z</time></trkpt><trkpt lat="45.9923548" lon="11.8473665"><ele>333.0</ele><time>2026-04-11T14:53:40.536Z</time></trkpt><trkpt lat="45.9922983" lon="11.8472838"><ele>333.3333333333333</ele><time>2026-04-11T14:53:42.537Z</time></trkpt><trkpt lat="45.992241" lon="11.847203"><ele>333.66666666666663</ele><time>2026-04-11T14:53:44.538Z</time></trkpt><trkpt lat="45.9921864" lon="11.8471158"><ele>334.0</ele><time>2026-04-11T14:53:46.537Z</time></trkpt><trkpt lat="45.9921386" lon="11.8470235"><ele>334.0</ele><time>2026-04-11T14:53:48.536Z</time></trkpt><trkpt lat="45.9920994" lon="11.8469283"><ele>334.0</ele><time>2026-04-11T14:53:50.536Z</time></trkpt><trkpt lat="45.9920675" lon="11.8468337"><ele>334.0</ele><time>2026-04-11T14:53:52.536Z</time></trkpt><trkpt lat="45.9920315" lon="11.8467418"><ele>334.0</ele><time>2026-04-11T14:53:54.538Z</time></trkpt><trkpt lat="45.9919846" lon="11.8466643"><ele>334.0</ele><time>2026-04-11T14:53:56.538Z</time></trkpt><trkpt lat="45.9919288" lon="11.8465917"><ele>334.0</ele><time>2026-04-11T14:53:58.537Z</time></trkpt><trkpt lat="45.9918599" lon="11.8465487"><ele>334.0</ele><time>2026-04-11T14:54:00.538Z</time></trkpt><trkpt lat="45.991788" lon="11.8465261"><ele>334.0</ele><time>2026-04-11T14:54:02.538Z</time></trkpt><trkpt lat="45.9917099" lon="11.8465255"><ele>334.0</ele><time>2026-04-11T14:54:04.536Z</time></trkpt><trkpt lat="45.9916325" lon="11.8465336"><ele>334.0</ele><time>2026-04-11T14:54:06.538Z</time></trkpt><trkpt lat="45.9915558" lon="11.8465562"><ele>334.0</ele><time>2026-04-11T14:54:08.538Z</time></trkpt><trkpt lat="45.9914807" lon="11.8465968"><ele>334.0</ele><time>2026-04-11T14:54:10.538Z</time></trkpt><trkpt lat="45.9914064" lon="11.84664"><ele>334.0</ele><time>2026-04-11T14:54:12.536Z</time></trkpt><trkpt lat="45.9913369" lon="11.8466823"><ele>335.0</ele><time>2026-04-11T14:54:14.538Z</time></trkpt><trkpt lat="45.9912708" lon="11.8467183"><ele>336.0</ele><time>2026-04-11T14:54:16.537Z</time></trkpt><trkpt lat="45.991199" lon="11.8467396"><ele>337.0</ele><time>2026-04-11T14:54:18.538Z</time></trkpt><trkpt lat="45.9911257" lon="11.8467479"><ele>338.0</ele><time>2026-04-11T14:54:20.537Z</time></trkpt><trkpt lat="45.9910528" lon="11.8467502"><ele>339.0</ele><time>2026-04-11T14:54:22.537Z</time></trkpt><trkpt lat="45.9909774" lon="11.8467349"><ele>340.0</ele><time>2026-04-11T14:54:24.537Z</time></trkpt><trkpt lat="45.9909058" lon="11.8467018"><ele>341.0</ele><time>2026-04-11T14:54:26.538Z</time></trkpt><trkpt lat="45.9908368" lon="11.846645"><ele>342.5</ele><time>2026-04-11T14:54:28.535Z</time></trkpt><trkpt lat="45.9907792" lon="11.8465701"><ele>344.0</ele><time>2026-04-11T14:54:30.538Z</time></trkpt><trkpt lat="45.9907293" lon="11.84649"><ele>345.5</ele><time>2026-04-11T14:54:32.538Z</time></trkpt><trkpt lat="45.9906851" lon="11.8464076"><ele>347.0</ele><time>2026-04-11T14:54:34.537Z</time></trkpt><trkpt lat="45.9906479" lon="11.8463201"><ele>348.5</ele><time>2026-04-11T14:54:36.538Z</time></trkpt><trkpt lat="45.9906042" lon="11.8462308"><ele>350.0</ele><time>2026-04-11T14:54:38.538Z</time></trkpt><trkpt lat="45.9905515" lon="11.8461355"><ele>350.0</ele><time>2026-04-11T14:54:40.536Z</time></trkpt><trkpt lat="45.9904963" lon="11.8460339"><ele>350.0</ele><time>2026-04-11T14:54:42.538Z</time></trkpt><trkpt lat="45.9904433" lon="11.8459285"><ele>350.0</ele><time>2026-04-11T14:54:44.538Z</time></trkpt><trkpt lat="45.9903931" lon="11.8458197"><ele>350.0</ele><time>2026-04-11T14:54:46.537Z</time></trkpt><trkpt lat="45.9903416" lon="11.845719"><ele>350.0</ele><time>2026-04-11T14:54:48.538Z</time></trkpt><trkpt lat="45.9902916" lon="11.8456189"><ele>350.0</ele><time>2026-04-11T14:54:50.538Z</time></trkpt><trkpt lat="45.9902453" lon="11.8455164"><ele>349.0</ele><time>2026-04-11T14:54:52.537Z</time></trkpt><trkpt lat="45.990207" lon="11.8454105"><ele>348.0</ele><time>2026-04-11T14:54:54.538Z</time></trkpt><trkpt lat="45.9901758" lon="11.8453004"><ele>347.0</ele><time>2026-04-11T14:54:56.537Z</time></trkpt><trkpt lat="45.9901471" lon="11.8451861"><ele>346.0</ele><time>2026-04-11T14:54:58.538Z</time></trkpt><trkpt lat="45.9901164" lon="11.8450746"><ele>345.0</ele><time>2026-04-11T14:55:00.538Z</time></trkpt><trkpt lat="45.9900872" lon="11.8449667"><ele>344.0</ele><time>2026-04-11T14:55:02.538Z</time></trkpt><trkpt lat="45.9900674" lon="11.8448528"><ele>343.83333333333337</ele><time>2026-04-11T14:55:04.537Z</time></trkpt><trkpt lat="45.9900609" lon="11.8447392"><ele>343.6666666666667</ele><time>2026-04-11T14:55:06.538Z</time></trkpt><trkpt lat="45.9900609" lon="11.844621"><ele>343.5</ele><time>2026-04-11T14:55:08.538Z</time></trkpt><trkpt lat="45.9900625" lon="11.8445079"><ele>343.3333333333333</ele><time>2026-04-11T14:55:10.538Z</time></trkpt><trkpt lat="45.9900635" lon="11.8444048"><ele>343.16666666666663</ele><time>2026-04-11T14:55:12.537Z</time></trkpt><trkpt lat="45.9900675" lon="11.8442949"><ele>343.0</ele><time>2026-04-11T14:55:14.538Z</time></trkpt><trkpt lat="45.9900708" lon="11.8441844"><ele>343.3333333333333</ele><time>2026-04-11T14:55:16.538Z</time></trkpt><trkpt lat="45.9900745" lon="11.8440761"><ele>343.66666666666663</ele><time>2026-04-11T14:55:18.538Z</time></trkpt><trkpt lat="45.9900705" lon="11.8439625"><ele>344.0</ele><time>2026-04-11T14:55:20.537Z</time></trkpt><trkpt lat="45.9900602" lon="11.843842"><ele>344.3333333333333</ele><time>2026-04-11T14:55:22.538Z</time></trkpt><trkpt lat="45.9900581" lon="11.8437192"><ele>344.6666666666667</ele><time>2026-04-11T14:55:24.538Z</time></trkpt><trkpt lat="45.9900465" lon="11.8435913"><ele>345.0</ele><time>2026-04-11T14:55:26.537Z</time></trkpt><trkpt lat="45.9900144" lon="11.8434654"><ele>348.1666666666667</ele><time>2026-04-11T14:55:28.537Z</time></trkpt><trkpt lat="45.989982" lon="11.8433424"><ele>351.3333333333333</ele><time>2026-04-11T14:55:30.539Z</time></trkpt><trkpt lat="45.9899481" lon="11.8432286"><ele>354.5</ele><time>2026-04-11T14:55:32.537Z</time></trkpt><trkpt lat="45.9899138" lon="11.8431132"><ele>357.66666666666663</ele><time>2026-04-11T14:55:34.536Z</time></trkpt><trkpt lat="45.9898878" lon="11.8429965"><ele>360.8333333333333</ele><time>2026-04-11T14:55:36.537Z</time></trkpt><trkpt lat="45.9898548" lon="11.8428788"><ele>364.0</ele><time>2026-04-11T14:55:38.538Z</time></trkpt><trkpt lat="45.9898212" lon="11.8427736"><ele>364.0</ele><time>2026-04-11T14:55:40.538Z</time></trkpt><trkpt lat="45.9897835" lon="11.8426898"><ele>364.0</ele><time>2026-04-11T14:55:42.537Z</time></trkpt><trkpt lat="45.9897475" lon="11.8426037"><ele>364.0</ele><time>2026-04-11T14:55:45.538Z</time></trkpt><trkpt lat="45.9897075" lon="11.8425273"><ele>364.0</ele><time>2026-04-11T14:55:49.537Z</time></trkpt><trkpt lat="45.9896404" lon="11.8425628"><ele>364.0</ele><time>2026-04-11T14:55:52.537Z</time></trkpt><trkpt lat="45.989581" lon="11.8426603"><ele>364.0</ele><time>2026-04-11T14:55:55.537Z</time></trkpt><trkpt lat="45.989541" lon="11.8427387"><ele>364.0</ele><time>2026-04-11T14:55:57.537Z</time></trkpt><trkpt lat="45.989528" lon="11.8428327"><ele>364.0</ele><time>2026-04-11T14:55:59.537Z</time></trkpt><trkpt lat="45.9895261" lon="11.8429315"><ele>364.0</ele><time>2026-04-11T14:56:01.537Z</time></trkpt><trkpt lat="45.9895322" lon="11.8430373"><ele>364.0</ele><time>2026-04-11T14:56:03.536Z</time></trkpt><trkpt lat="45.9895367" lon="11.8431449"><ele>364.0</ele><time>2026-04-11T14:56:05.536Z</time></trkpt><trkpt lat="45.9895391" lon="11.8432572"><ele>364.0</ele><time>2026-04-11T14:56:07.538Z</time></trkpt><trkpt lat="45.9895359" lon="11.8433653"><ele>364.0</ele><time>2026-04-11T14:56:09.538Z</time></trkpt><trkpt lat="45.9895237" lon="11.8434775"><ele>364.0</ele><time>2026-04-11T14:56:11.538Z</time></trkpt><trkpt lat="45.9894984" lon="11.843589"><ele>363.8333333333333</ele><time>2026-04-11T14:56:13.537Z</time></trkpt><trkpt lat="45.9894634" lon="11.8437029"><ele>363.66666666666663</ele><time>2026-04-11T14:56:15.536Z</time></trkpt><trkpt lat="45.9894262" lon="11.8438168"><ele>363.5</ele><time>2026-04-11T14:56:17.536Z</time></trkpt><trkpt lat="45.9893896" lon="11.8439294"><ele>363.3333333333333</ele><time>2026-04-11T14:56:19.537Z</time></trkpt><trkpt lat="45.9893516" lon="11.8440377"><ele>363.1666666666667</ele><time>2026-04-11T14:56:21.537Z</time></trkpt><trkpt lat="45.9893095" lon="11.844138"><ele>363.0</ele><time>2026-04-11T14:56:23.537Z</time></trkpt><trkpt lat="45.9892679" lon="11.8442397"><ele>362.6666666666667</ele><time>2026-04-11T14:56:25.538Z</time></trkpt><trkpt lat="45.9892359" lon="11.844345"><ele>362.3333333333333</ele><time>2026-04-11T14:56:27.537Z</time></trkpt><trkpt lat="45.9892054" lon="11.8444531"><ele>362.0</ele><time>2026-04-11T14:56:29.535Z</time></trkpt><trkpt lat="45.9891748" lon="11.8445637"><ele>361.66666666666663</ele><time>2026-04-11T14:56:31.537Z</time></trkpt><trkpt lat="45.9891457" lon="11.8446653"><ele>361.3333333333333</ele><time>2026-04-11T14:56:33.536Z</time></trkpt><trkpt lat="45.9891147" lon="11.8447679"><ele>361.0</ele><time>2026-04-11T14:56:35.539Z</time></trkpt><trkpt lat="45.9890684" lon="11.8448621"><ele>363.8333333333333</ele><time>2026-04-11T14:56:37.538Z</time></trkpt><trkpt lat="45.9889952" lon="11.8449105"><ele>366.66666666666663</ele><time>2026-04-11T14:56:39.538Z</time></trkpt><trkpt lat="45.9889177" lon="11.8449041"><ele>369.5</ele><time>2026-04-11T14:56:41.537Z</time></trkpt><trkpt lat="45.9888546" lon="11.8448497"><ele>372.3333333333333</ele><time>2026-04-11T14:56:43.538Z</time></trkpt><trkpt lat="45.9888054" lon="11.8447657"><ele>375.1666666666667</ele><time>2026-04-11T14:56:45.536Z</time></trkpt><trkpt lat="45.9887663" lon="11.8446691"><ele>378.0</ele><time>2026-04-11T14:56:47.537Z</time></trkpt><trkpt lat="45.9887309" lon="11.8445628"><ele>378.0</ele><time>2026-04-11T14:56:49.537Z</time></trkpt><trkpt lat="45.9887079" lon="11.844449"><ele>378.0</ele><time>2026-04-11T14:56:51.537Z</time></trkpt><trkpt lat="45.9886863" lon="11.8443387"><ele>378.0</ele><time>2026-04-11T14:56:53.537Z</time></trkpt><trkpt lat="45.988669" lon="11.844232"><ele>378.0</ele><time>2026-04-11T14:56:55.537Z</time></trkpt><trkpt lat="45.9886525" lon="11.8441242"><ele>378.0</ele><time>2026-04-11T14:56:57.536Z</time></trkpt><trkpt lat="45.9886482" lon="11.8440151"><ele>378.0</ele><time>2026-04-11T14:56:59.538Z</time></trkpt><trkpt lat="45.9886348" lon="11.8439129"><ele>378.14285714285717</ele><time>2026-04-11T14:57:01.537Z</time></trkpt><trkpt lat="45.9886053" lon="11.8438152"><ele>378.2857142857143</ele><time>2026-04-11T14:57:03.538Z</time></trkpt><trkpt lat="45.9885892" lon="11.8437193"><ele>378.42857142857144</ele><time>2026-04-11T14:57:05.537Z</time></trkpt><trkpt lat="45.9885866" lon="11.843621"><ele>378.57142857142856</ele><time>2026-04-11T14:57:07.537Z</time></trkpt><trkpt lat="45.9885896" lon="11.8435212"><ele>378.7142857142857</ele><time>2026-04-11T14:57:09.539Z</time></trkpt><trkpt lat="45.9886008" lon="11.8434284"><ele>378.8571428571429</ele><time>2026-04-11T14:57:11.537Z</time></trkpt><trkpt lat="45.9885867" lon="11.8433396"><ele>379.0</ele><time>2026-04-11T14:57:13.537Z</time></trkpt><trkpt lat="45.988545" lon="11.8432695"><ele>379.0</ele><time>2026-04-11T14:57:15.538Z</time></trkpt><trkpt lat="45.9884928" lon="11.8432036"><ele>379.0</ele><time>2026-04-11T14:57:17.537Z</time></trkpt><trkpt lat="45.9884299" lon="11.843134"><ele>379.0</ele><time>2026-04-11T14:57:19.537Z</time></trkpt><trkpt lat="45.9883629" lon="11.8430709"><ele>379.0</ele><time>2026-04-11T14:57:21.538Z</time></trkpt><trkpt lat="45.9883067" lon="11.8429833"><ele>379.0</ele><time>2026-04-11T14:57:23.537Z</time></trkpt><trkpt lat="45.9882676" lon="11.8428901"><ele>379.0</ele><time>2026-04-11T14:57:25.536Z</time></trkpt><trkpt lat="45.9882294" lon="11.8427861"><ele>380.4</ele><time>2026-04-11T14:57:27.537Z</time></trkpt><trkpt lat="45.9881932" lon="11.8426657"><ele>381.79999999999995</ele><time>2026-04-11T14:57:29.538Z</time></trkpt><trkpt lat="45.9881557" lon="11.8425699"><ele>383.20000000000005</ele><time>2026-04-11T14:57:31.537Z</time></trkpt><trkpt lat="45.9881068" lon="11.8424634"><ele>384.6</ele><time>2026-04-11T14:57:33.537Z</time></trkpt><trkpt lat="45.9880303" lon="11.8423272"><ele>386.0</ele><time>2026-04-11T14:57:35.539Z</time></trkpt><trkpt lat="45.9879613" lon="11.8422224"><ele>386.0</ele><time>2026-04-11T14:57:37.538Z</time></trkpt><trkpt lat="45.9878751" lon="11.8421456"><ele>386.0</ele><time>2026-04-11T14:57:39.535Z</time></trkpt><trkpt lat="45.9877849" lon="11.8420582"><ele>386.0</ele><time>2026-04-11T14:57:41.536Z</time></trkpt><trkpt lat="45.9876947" lon="11.8419558"><ele>386.0</ele><time>2026-04-11T14:57:43.536Z</time></trkpt><trkpt lat="45.9876137" lon="11.8418281"><ele>386.0</ele><time>2026-04-11T14:57:45.535Z</time></trkpt><trkpt lat="45.9875572" lon="11.8416808"><ele>385.5</ele><time>2026-04-11T14:57:47.537Z</time></trkpt><trkpt lat="45.9875209" lon="11.8415286"><ele>385.0</ele><time>2026-04-11T14:57:49.537Z</time></trkpt><trkpt lat="45.9874903" lon="11.8413532"><ele>384.5</ele><time>2026-04-11T14:57:51.535Z</time></trkpt><trkpt lat="45.9874461" lon="11.8411894"><ele>384.0</ele><time>2026-04-11T14:57:53.536Z</time></trkpt><trkpt lat="45.98738" lon="11.8410446"><ele>381.3333333333333</ele><time>2026-04-11T14:57:55.535Z</time></trkpt><trkpt lat="45.9872766" lon="11.8409512"><ele>378.6666666666667</ele><time>2026-04-11T14:57:57.537Z</time></trkpt><trkpt lat="45.9872078" lon="11.840921"><ele>376.0</ele><time>2026-04-11T14:57:58.535Z</time></trkpt><trkpt lat="45.9871313" lon="11.8409101"><ele>373.33333333333337</ele><time>2026-04-11T14:57:59.536Z</time></trkpt><trkpt lat="45.987049" lon="11.8409182"><ele>370.6666666666667</ele><time>2026-04-11T14:58:00.537Z</time></trkpt><trkpt lat="45.9869662" lon="11.8409369"><ele>368.0</ele><time>2026-04-11T14:58:01.536Z</time></trkpt><trkpt lat="45.9868816" lon="11.840959"><ele>368.5</ele><time>2026-04-11T14:58:02.538Z</time></trkpt><trkpt lat="45.986796" lon="11.8409832"><ele>369.0</ele><time>2026-04-11T14:58:03.537Z</time></trkpt><trkpt lat="45.98671" lon="11.8410095"><ele>369.5</ele><time>2026-04-11T14:58:04.537Z</time></trkpt><trkpt lat="45.9866219" lon="11.8410334"><ele>370.0</ele><time>2026-04-11T14:58:05.537Z</time></trkpt><trkpt lat="45.9865337" lon="11.8410602"><ele>370.5</ele><time>2026-04-11T14:58:06.535Z</time></trkpt><trkpt lat="45.9864448" lon="11.8410884"><ele>371.0</ele><time>2026-04-11T14:58:07.537Z</time></trkpt><trkpt lat="45.9863553" lon="11.8411139"><ele>371.0</ele><time>2026-04-11T14:58:08.536Z</time></trkpt><trkpt lat="45.9862698" lon="11.8411348"><ele>371.0</ele><time>2026-04-11T14:58:09.535Z</time></trkpt><trkpt lat="45.9861843" lon="11.8411528"><ele>371.0</ele><time>2026-04-11T14:58:10.536Z</time></trkpt><trkpt lat="45.9861004" lon="11.841161"><ele>371.0</ele><time>2026-04-11T14:58:11.537Z</time></trkpt><trkpt lat="45.986018" lon="11.8411645"><ele>371.0</ele><time>2026-04-11T14:58:12.537Z</time></trkpt><trkpt lat="45.9859358" lon="11.8411643"><ele>371.0</ele><time>2026-04-11T14:58:13.536Z</time></trkpt><trkpt lat="45.985855" lon="11.8411576"><ele>370.1666666666667</ele><time>2026-04-11T14:58:14.536Z</time></trkpt><trkpt lat="45.9857754" lon="11.8411504"><ele>369.33333333333337</ele><time>2026-04-11T14:58:15.536Z</time></trkpt><trkpt lat="45.985697" lon="11.8411449"><ele>368.5</ele><time>2026-04-11T14:58:16.537Z</time></trkpt><trkpt lat="45.9856193" lon="11.8411384"><ele>367.6666666666667</ele><time>2026-04-11T14:58:17.537Z</time></trkpt><trkpt lat="45.9855426" lon="11.8411315"><ele>366.8333333333333</ele><time>2026-04-11T14:58:18.537Z</time></trkpt><trkpt lat="45.9854696" lon="11.8411212"><ele>366.0</ele><time>2026-04-11T14:58:19.537Z</time></trkpt><trkpt lat="45.9853934" lon="11.8411144"><ele>366.0</ele><time>2026-04-11T14:58:20.537Z</time></trkpt><trkpt lat="45.9853234" lon="11.8411058"><ele>366.0</ele><time>2026-04-11T14:58:21.537Z</time></trkpt><trkpt lat="45.985251" lon="11.8410914"><ele>366.0</ele><time>2026-04-11T14:58:22.537Z</time></trkpt><trkpt lat="45.9851793" lon="11.8410729"><ele>366.0</ele><time>2026-04-11T14:58:23.537Z</time></trkpt><trkpt lat="45.9851083" lon="11.8410543"><ele>366.0</ele><time>2026-04-11T14:58:24.537Z</time></trkpt><trkpt lat="45.9850381" lon="11.841038"><ele>366.0</ele><time>2026-04-11T14:58:25.537Z</time></trkpt><trkpt lat="45.9849665" lon="11.8410173"><ele>366.0</ele><time>2026-04-11T14:58:26.537Z</time></trkpt><trkpt lat="45.9848957" lon="11.840989"><ele>364.57142857142856</ele><time>2026-04-11T14:58:27.537Z</time></trkpt><trkpt lat="45.984826" lon="11.8409626"><ele>363.14285714285717</ele><time>2026-04-11T14:58:28.537Z</time></trkpt><trkpt lat="45.9847585" lon="11.8409457"><ele>361.71428571428567</ele><time>2026-04-11T14:58:29.534Z</time></trkpt><trkpt lat="45.9846898" lon="11.8409342"><ele>360.2857142857143</ele><time>2026-04-11T14:58:30.537Z</time></trkpt><trkpt lat="45.9846222" lon="11.8409185"><ele>358.85714285714283</ele><time>2026-04-11T14:58:31.536Z</time></trkpt><trkpt lat="45.9845557" lon="11.840899"><ele>357.4285714285714</ele><time>2026-04-11T14:58:32.537Z</time></trkpt><trkpt lat="45.9844895" lon="11.8408771"><ele>356.0</ele><time>2026-04-11T14:58:33.536Z</time></trkpt><trkpt lat="45.9844254" lon="11.8408488"><ele>356.0</ele><time>2026-04-11T14:58:34.536Z</time></trkpt><trkpt lat="45.9843644" lon="11.8408141"><ele>356.0</ele><time>2026-04-11T14:58:35.537Z</time></trkpt><trkpt lat="45.9843059" lon="11.8407759"><ele>356.0</ele><time>2026-04-11T14:58:36.537Z</time></trkpt><trkpt lat="45.9841995" lon="11.8406859"><ele>356.0</ele><time>2026-04-11T14:58:38.537Z</time></trkpt><trkpt lat="45.9841121" lon="11.8405778"><ele>356.0</ele><time>2026-04-11T14:58:40.537Z</time></trkpt><trkpt lat="45.9840298" lon="11.8404683"><ele>356.4</ele><time>2026-04-11T14:58:42.535Z</time></trkpt><trkpt lat="45.9839526" lon="11.8403578"><ele>356.8</ele><time>2026-04-11T14:58:44.537Z</time></trkpt><trkpt lat="45.9838832" lon="11.8402546"><ele>357.2</ele><time>2026-04-11T14:58:46.537Z</time></trkpt><trkpt lat="45.9838107" lon="11.8401589"><ele>357.59999999999997</ele><time>2026-04-11T14:58:48.538Z</time></trkpt><trkpt lat="45.9837422" lon="11.8400573"><ele>358.0</ele><time>2026-04-11T14:58:50.537Z</time></trkpt><trkpt lat="45.9836707" lon="11.8399658"><ele>358.0</ele><time>2026-04-11T14:58:52.537Z</time></trkpt><trkpt lat="45.9836054" lon="11.8398726"><ele>358.0</ele><time>2026-04-11T14:58:54.537Z</time></trkpt><trkpt lat="45.9835346" lon="11.8397897"><ele>358.0</ele><time>2026-04-11T14:58:56.536Z</time></trkpt><trkpt lat="45.983456" lon="11.8397153"><ele>358.0</ele><time>2026-04-11T14:58:58.537Z</time></trkpt><trkpt lat="45.9833746" lon="11.839664"><ele>358.0</ele><time>2026-04-11T14:59:00.537Z</time></trkpt><trkpt lat="45.9832924" lon="11.8396206"><ele>358.0</ele><time>2026-04-11T14:59:02.537Z</time></trkpt><trkpt lat="45.9832058" lon="11.8395961"><ele>358.0</ele><time>2026-04-11T14:59:04.535Z</time></trkpt><trkpt lat="45.9831178" lon="11.8395738"><ele>358.0</ele><time>2026-04-11T14:59:06.537Z</time></trkpt><trkpt lat="45.9830237" lon="11.8395575"><ele>358.0</ele><time>2026-04-11T14:59:08.537Z</time></trkpt><trkpt lat="45.982925" lon="11.8395341"><ele>358.0</ele><time>2026-04-11T14:59:10.536Z</time></trkpt><trkpt lat="45.9828252" lon="11.8395114"><ele>358.0</ele><time>2026-04-11T14:59:12.537Z</time></trkpt><trkpt lat="45.9827247" lon="11.8394948"><ele>358.0</ele><time>2026-04-11T14:59:14.537Z</time></trkpt><trkpt lat="45.9826217" lon="11.8394792"><ele>358.0</ele><time>2026-04-11T14:59:16.537Z</time></trkpt><trkpt lat="45.9825148" lon="11.839462"><ele>358.0</ele><time>2026-04-11T14:59:18.536Z</time></trkpt><trkpt lat="45.9824137" lon="11.8394507"><ele>358.0</ele><time>2026-04-11T14:59:20.537Z</time></trkpt><trkpt lat="45.9823104" lon="11.8394322"><ele>361.2</ele><time>2026-04-11T14:59:22.536Z</time></trkpt><trkpt lat="45.982207" lon="11.8394187"><ele>364.4</ele><time>2026-04-11T14:59:24.537Z</time></trkpt><trkpt lat="45.9820967" lon="11.839408"><ele>367.59999999999997</ele><time>2026-04-11T14:59:26.536Z</time></trkpt><trkpt lat="45.981993" lon="11.8393907"><ele>370.79999999999995</ele><time>2026-04-11T14:59:28.534Z</time></trkpt><trkpt lat="45.9818865" lon="11.8393708"><ele>374.0</ele><time>2026-04-11T14:59:30.537Z</time></trkpt><trkpt lat="45.9817816" lon="11.8393511"><ele>374.0</ele><time>2026-04-11T14:59:32.536Z</time></trkpt><trkpt lat="45.9816827" lon="11.8393317"><ele>374.0</ele><time>2026-04-11T14:59:34.536Z</time></trkpt><trkpt lat="45.9815787" lon="11.839318"><ele>374.0</ele><time>2026-04-11T14:59:36.535Z</time></trkpt><trkpt lat="45.9814768" lon="11.8392953"><ele>374.0</ele><time>2026-04-11T14:59:38.537Z</time></trkpt><trkpt lat="45.9813744" lon="11.8392824"><ele>374.0</ele><time>2026-04-11T14:59:40.537Z</time></trkpt><trkpt lat="45.9812711" lon="11.8392705"><ele>372.0</ele><time>2026-04-11T14:59:42.536Z</time></trkpt><trkpt lat="45.9811678" lon="11.8392585"><ele>370.0</ele><time>2026-04-11T14:59:44.535Z</time></trkpt><trkpt lat="45.9810696" lon="11.8392451"><ele>368.0</ele><time>2026-04-11T14:59:46.535Z</time></trkpt><trkpt lat="45.980972" lon="11.8392268"><ele>366.0</ele><time>2026-04-11T14:59:48.538Z</time></trkpt><trkpt lat="45.9808734" lon="11.8392022"><ele>364.0</ele><time>2026-04-11T14:59:50.536Z</time></trkpt><trkpt lat="45.980766" lon="11.8391836"><ele>364.0</ele><time>2026-04-11T14:59:52.535Z</time></trkpt><trkpt lat="45.9806544" lon="11.839168"><ele>364.0</ele><time>2026-04-11T14:59:54.537Z</time></trkpt><trkpt lat="45.9805455" lon="11.8391492"><ele>364.0</ele><time>2026-04-11T14:59:56.538Z</time></trkpt><trkpt lat="45.9804336" lon="11.8391309"><ele>364.0</ele><time>2026-04-11T14:59:58.537Z</time></trkpt><trkpt lat="45.9803227" lon="11.839117"><ele>364.0</ele><time>2026-04-11T15:00:00.538Z</time></trkpt><trkpt lat="45.9802185" lon="11.8390968"><ele>364.0</ele><time>2026-04-11T15:00:02.537Z</time></trkpt><trkpt lat="45.9801173" lon="11.8390794"><ele>364.0</ele><time>2026-04-11T15:00:04.536Z</time></trkpt><trkpt lat="45.9800146" lon="11.8390599"><ele>364.0</ele><time>2026-04-11T15:00:06.537Z</time></trkpt><trkpt lat="45.9799107" lon="11.8390431"><ele>364.0</ele><time>2026-04-11T15:00:08.537Z</time></trkpt><trkpt lat="45.9798106" lon="11.8390249"><ele>364.0</ele><time>2026-04-11T15:00:10.536Z</time></trkpt><trkpt lat="45.9797116" lon="11.8390059"><ele>364.6</ele><time>2026-04-11T15:00:12.537Z</time></trkpt><trkpt lat="45.9796152" lon="11.8389852"><ele>365.2</ele><time>2026-04-11T15:00:14.535Z</time></trkpt><trkpt lat="45.9795148" lon="11.8389776"><ele>365.8</ele><time>2026-04-11T15:00:16.536Z</time></trkpt><trkpt lat="45.9794147" lon="11.8389638"><ele>366.40000000000003</ele><time>2026-04-11T15:00:18.535Z</time></trkpt><trkpt lat="45.9793158" lon="11.8389432"><ele>367.0</ele><time>2026-04-11T15:00:20.536Z</time></trkpt><trkpt lat="45.9792177" lon="11.8389172"><ele>366.8</ele><time>2026-04-11T15:00:22.535Z</time></trkpt><trkpt lat="45.9791175" lon="11.8389011"><ele>366.6</ele><time>2026-04-11T15:00:24.537Z</time></trkpt><trkpt lat="45.979015" lon="11.838887"><ele>366.40000000000003</ele><time>2026-04-11T15:00:26.537Z</time></trkpt><trkpt lat="45.9789154" lon="11.8388713"><ele>366.20000000000005</ele><time>2026-04-11T15:00:28.536Z</time></trkpt><trkpt lat="45.9788122" lon="11.8388579"><ele>366.0</ele><time>2026-04-11T15:00:30.536Z</time></trkpt><trkpt lat="45.9787062" lon="11.838838"><ele>366.0</ele><time>2026-04-11T15:00:32.537Z</time></trkpt><trkpt lat="45.9786013" lon="11.8388224"><ele>366.0</ele><time>2026-04-11T15:00:34.536Z</time></trkpt><trkpt lat="45.9785" lon="11.8388037"><ele>366.0</ele><time>2026-04-11T15:00:36.536Z</time></trkpt><trkpt lat="45.9783986" lon="11.8387882"><ele>366.0</ele><time>2026-04-11T15:00:38.536Z</time></trkpt><trkpt lat="45.9782972" lon="11.838772"><ele>366.0</ele><time>2026-04-11T15:00:40.537Z</time></trkpt><trkpt lat="45.9781947" lon="11.8387598"><ele>368.4</ele><time>2026-04-11T15:00:42.537Z</time></trkpt><trkpt lat="45.978092" lon="11.8387483"><ele>370.8</ele><time>2026-04-11T15:00:44.537Z</time></trkpt><trkpt lat="45.9779877" lon="11.8387364"><ele>373.2</ele><time>2026-04-11T15:00:46.536Z</time></trkpt><trkpt lat="45.9778851" lon="11.8387144"><ele>375.59999999999997</ele><time>2026-04-11T15:00:48.537Z</time></trkpt><trkpt lat="45.9777828" lon="11.8386942"><ele>378.0</ele><time>2026-04-11T15:00:50.538Z</time></trkpt><trkpt lat="45.9776863" lon="11.8386674"><ele>378.0</ele><time>2026-04-11T15:00:52.535Z</time></trkpt><trkpt lat="45.9775905" lon="11.8386595"><ele>378.0</ele><time>2026-04-11T15:00:54.538Z</time></trkpt><trkpt lat="45.9774935" lon="11.8386733"><ele>378.0</ele><time>2026-04-11T15:00:56.537Z</time></trkpt><trkpt lat="45.9773975" lon="11.8387021"><ele>378.0</ele><time>2026-04-11T15:00:58.535Z</time></trkpt><trkpt lat="45.9773009" lon="11.8387432"><ele>378.0</ele><time>2026-04-11T15:01:00.537Z</time></trkpt><trkpt lat="45.9772063" lon="11.8387812"><ele>379.79999999999995</ele><time>2026-04-11T15:01:02.537Z</time></trkpt><trkpt lat="45.9771128" lon="11.8388203"><ele>381.6</ele><time>2026-04-11T15:01:04.536Z</time></trkpt><trkpt lat="45.9770165" lon="11.8388679"><ele>383.4</ele><time>2026-04-11T15:01:06.537Z</time></trkpt><trkpt lat="45.9769194" lon="11.8389084"><ele>385.20000000000005</ele><time>2026-04-11T15:01:08.537Z</time></trkpt><trkpt lat="45.9768268" lon="11.8389429"><ele>387.0</ele><time>2026-04-11T15:01:10.536Z</time></trkpt><trkpt lat="45.9767367" lon="11.8389778"><ele>386.6666666666667</ele><time>2026-04-11T15:01:12.538Z</time></trkpt><trkpt lat="45.9766452" lon="11.8389887"><ele>386.33333333333337</ele><time>2026-04-11T15:01:14.537Z</time></trkpt><trkpt lat="45.9765593" lon="11.8389706"><ele>386.0</ele><time>2026-04-11T15:01:16.537Z</time></trkpt><trkpt lat="45.9764863" lon="11.8389958"><ele>385.6666666666667</ele><time>2026-04-11T15:01:18.536Z</time></trkpt><trkpt lat="45.9764246" lon="11.8390788"><ele>385.33333333333337</ele><time>2026-04-11T15:01:20.537Z</time></trkpt><trkpt lat="45.9763903" lon="11.8392093"><ele>385.0</ele><time>2026-04-11T15:01:22.535Z</time></trkpt><trkpt lat="45.9763613" lon="11.8393422"><ele>385.00000000000006</ele><time>2026-04-11T15:01:24.535Z</time></trkpt><trkpt lat="45.9763391" lon="11.8394642"><ele>385.0</ele><time>2026-04-11T15:01:26.535Z</time></trkpt><trkpt lat="45.9763205" lon="11.8395783"><ele>385.0</ele><time>2026-04-11T15:01:28.537Z</time></trkpt><trkpt lat="45.9762895" lon="11.8396954"><ele>385.0</ele><time>2026-04-11T15:01:30.537Z</time></trkpt><trkpt lat="45.9762515" lon="11.8398121"><ele>385.00000000000006</ele><time>2026-04-11T15:01:32.536Z</time></trkpt><trkpt lat="45.9762108" lon="11.8399388"><ele>385.0</ele><time>2026-04-11T15:01:34.535Z</time></trkpt><trkpt lat="45.97618" lon="11.8400641"><ele>387.50000000000006</ele><time>2026-04-11T15:01:36.537Z</time></trkpt><trkpt lat="45.9761514" lon="11.8401875"><ele>390.0</ele><time>2026-04-11T15:01:38.537Z</time></trkpt><trkpt lat="45.976118" lon="11.840305"><ele>392.5</ele><time>2026-04-11T15:01:40.537Z</time></trkpt><trkpt lat="45.9760834" lon="11.8404217"><ele>395.0</ele><time>2026-04-11T15:01:42.537Z</time></trkpt><trkpt lat="45.9760495" lon="11.8405343"><ele>397.50000000000006</ele><time>2026-04-11T15:01:44.535Z</time></trkpt><trkpt lat="45.9760055" lon="11.8406486"><ele>400.0</ele><time>2026-04-11T15:01:46.535Z</time></trkpt><trkpt lat="45.9759652" lon="11.8407665"><ele>400.0</ele><time>2026-04-11T15:01:48.537Z</time></trkpt><trkpt lat="45.9759202" lon="11.8408692"><ele>400.0</ele><time>2026-04-11T15:01:50.537Z</time></trkpt><trkpt lat="45.9758695" lon="11.8409723"><ele>400.0</ele><time>2026-04-11T15:01:52.536Z</time></trkpt><trkpt lat="45.9758211" lon="11.8410805"><ele>400.0</ele><time>2026-04-11T15:01:54.537Z</time></trkpt><trkpt lat="45.9757724" lon="11.8411936"><ele>400.0</ele><time>2026-04-11T15:01:56.538Z</time></trkpt><trkpt lat="45.975735" lon="11.8413209"><ele>400.33333333333337</ele><time>2026-04-11T15:01:58.537Z</time></trkpt><trkpt lat="45.9756877" lon="11.8414357"><ele>400.6666666666667</ele><time>2026-04-11T15:02:00.536Z</time></trkpt><trkpt lat="45.9756337" lon="11.8415306"><ele>401.0</ele><time>2026-04-11T15:02:02.535Z</time></trkpt><trkpt lat="45.9755824" lon="11.841627"><ele>401.33333333333337</ele><time>2026-04-11T15:02:04.535Z</time></trkpt><trkpt lat="45.9755358" lon="11.8417368"><ele>401.6666666666667</ele><time>2026-04-11T15:02:06.537Z</time></trkpt><trkpt lat="45.9755179" lon="11.8418392"><ele>402.0</ele><time>2026-04-11T15:02:08.536Z</time></trkpt><trkpt lat="45.9755046" lon="11.8419301"><ele>402.0</ele><time>2026-04-11T15:02:10.537Z</time></trkpt><trkpt lat="45.9754896" lon="11.8420559"><ele>402.0</ele><time>2026-04-11T15:02:13.537Z</time></trkpt><trkpt lat="45.9754772" lon="11.8421543"><ele>402.0</ele><time>2026-04-11T15:02:16.537Z</time></trkpt><trkpt lat="45.9754689" lon="11.8422474"><ele>402.0</ele><time>2026-04-11T15:02:19.536Z</time></trkpt><trkpt lat="45.9754794" lon="11.8423596"><ele>402.0</ele><time>2026-04-11T15:02:22.534Z</time></trkpt><trkpt lat="45.9754837" lon="11.8424936"><ele>402.0</ele><time>2026-04-11T15:02:25.535Z</time></trkpt><trkpt lat="45.9755061" lon="11.8426095"><ele>403.4285714285714</ele><time>2026-04-11T15:02:28.536Z</time></trkpt><trkpt lat="45.9755383" lon="11.8426985"><ele>404.8571428571429</ele><time>2026-04-11T15:02:31.536Z</time></trkpt><trkpt lat="45.9755659" lon="11.8428073"><ele>406.2857142857143</ele><time>2026-04-11T15:02:35.537Z</time></trkpt><trkpt lat="45.9755713" lon="11.8429012"><ele>407.71428571428567</ele><time>2026-04-11T15:02:38.538Z</time></trkpt><trkpt lat="45.9755718" lon="11.8430235"><ele>409.1428571428571</ele><time>2026-04-11T15:02:42.537Z</time></trkpt><trkpt lat="45.9755504" lon="11.8431101"><ele>410.57142857142856</ele><time>2026-04-11T15:02:45.537Z</time></trkpt><trkpt lat="45.9755252" lon="11.8431953"><ele>412.0</ele><time>2026-04-11T15:02:47.537Z</time></trkpt><trkpt lat="45.9754896" lon="11.8433039"><ele>412.00000000000006</ele><time>2026-04-11T15:02:50.538Z</time></trkpt><trkpt lat="45.9754459" lon="11.8434089"><ele>412.0</ele><time>2026-04-11T15:02:53.536Z</time></trkpt><trkpt lat="45.975401" lon="11.8435037"><ele>412.0</ele><time>2026-04-11T15:02:56.537Z</time></trkpt><trkpt lat="45.9753559" lon="11.8436122"><ele>412.0</ele><time>2026-04-11T15:02:59.538Z</time></trkpt><trkpt lat="45.975303" lon="11.8437072"><ele>412.00000000000006</ele><time>2026-04-11T15:03:02.538Z</time></trkpt><trkpt lat="45.9752713" lon="11.8438062"><ele>412.0</ele><time>2026-04-11T15:03:05.539Z</time></trkpt><trkpt lat="45.9752368" lon="11.843922"><ele>412.83333333333337</ele><time>2026-04-11T15:03:08.537Z</time></trkpt><trkpt lat="45.9751995" lon="11.8440067"><ele>413.6666666666667</ele><time>2026-04-11T15:03:10.535Z</time></trkpt><trkpt lat="45.975182" lon="11.8440945"><ele>414.5</ele><time>2026-04-11T15:03:12.538Z</time></trkpt><trkpt lat="45.9751877" lon="11.8442042"><ele>415.33333333333337</ele><time>2026-04-11T15:03:14.538Z</time></trkpt><trkpt lat="45.9752195" lon="11.844312"><ele>416.1666666666667</ele><time>2026-04-11T15:03:16.536Z</time></trkpt><trkpt lat="45.9752671" lon="11.8444078"><ele>417.0</ele><time>2026-04-11T15:03:18.535Z</time></trkpt><trkpt lat="45.9753113" lon="11.8445014"><ele>417.0</ele><time>2026-04-11T15:03:20.538Z</time></trkpt><trkpt lat="45.975355" lon="11.8445975"><ele>417.0</ele><time>2026-04-11T15:03:22.537Z</time></trkpt><trkpt lat="45.9754005" lon="11.8446945"><ele>417.0</ele><time>2026-04-11T15:03:24.537Z</time></trkpt><trkpt lat="45.9754398" lon="11.8447944"><ele>417.0</ele><time>2026-04-11T15:03:26.537Z</time></trkpt><trkpt lat="45.9754761" lon="11.844895"><ele>417.0</ele><time>2026-04-11T15:03:28.536Z</time></trkpt><trkpt lat="45.9755104" lon="11.8450045"><ele>417.0</ele><time>2026-04-11T15:03:30.536Z</time></trkpt><trkpt lat="45.9755456" lon="11.8451072"><ele>416.14285714285717</ele><time>2026-04-11T15:03:32.537Z</time></trkpt><trkpt lat="45.9755886" lon="11.8451845"><ele>415.2857142857143</ele><time>2026-04-11T15:03:34.535Z</time></trkpt><trkpt lat="45.9756211" lon="11.8452648"><ele>414.42857142857144</ele><time>2026-04-11T15:03:36.538Z</time></trkpt><trkpt lat="45.9756529" lon="11.8453492"><ele>413.57142857142856</ele><time>2026-04-11T15:03:38.538Z</time></trkpt><trkpt lat="45.9756734" lon="11.8454405"><ele>412.71428571428567</ele><time>2026-04-11T15:03:40.534Z</time></trkpt><trkpt lat="45.9756768" lon="11.8455419"><ele>411.85714285714283</ele><time>2026-04-11T15:03:42.537Z</time></trkpt><trkpt lat="45.975672" lon="11.8456476"><ele>411.0</ele><time>2026-04-11T15:03:44.538Z</time></trkpt><trkpt lat="45.9756694" lon="11.8457513"><ele>411.0</ele><time>2026-04-11T15:03:46.537Z</time></trkpt><trkpt lat="45.9756751" lon="11.845858"><ele>411.0</ele><time>2026-04-11T15:03:48.537Z</time></trkpt><trkpt lat="45.9756797" lon="11.8459673"><ele>411.0</ele><time>2026-04-11T15:03:50.538Z</time></trkpt><trkpt lat="45.975683" lon="11.8460698"><ele>411.0</ele><time>2026-04-11T15:03:52.536Z</time></trkpt><trkpt lat="45.9756837" lon="11.8461701"><ele>411.0</ele><time>2026-04-11T15:03:54.535Z</time></trkpt><trkpt lat="45.9756846" lon="11.8462685"><ele>411.0</ele><time>2026-04-11T15:03:56.536Z</time></trkpt><trkpt lat="45.9756845" lon="11.8463725"><ele>411.0</ele><time>2026-04-11T15:03:58.535Z</time></trkpt><trkpt lat="45.9756932" lon="11.8464799"><ele>411.0</ele><time>2026-04-11T15:04:00.535Z</time></trkpt><trkpt lat="45.97571" lon="11.8465866"><ele>411.0</ele><time>2026-04-11T15:04:02.536Z</time></trkpt><trkpt lat="45.9757373" lon="11.8466845"><ele>411.0</ele><time>2026-04-11T15:04:04.535Z</time></trkpt><trkpt lat="45.9757718" lon="11.8467672"><ele>411.0</ele><time>2026-04-11T15:04:06.535Z</time></trkpt><trkpt lat="45.9757978" lon="11.8468617"><ele>411.0</ele><time>2026-04-11T15:04:08.535Z</time></trkpt><trkpt lat="45.9758225" lon="11.8469488"><ele>411.0</ele><time>2026-04-11T15:04:10.538Z</time></trkpt><trkpt lat="45.9758531" lon="11.8470739"><ele>411.0</ele><time>2026-04-11T15:04:13.539Z</time></trkpt><trkpt lat="45.9758372" lon="11.8471855"><ele>412.2857142857143</ele><time>2026-04-11T15:04:16.539Z</time></trkpt><trkpt lat="45.9758032" lon="11.8472693"><ele>413.57142857142856</ele><time>2026-04-11T15:04:19.54Z</time></trkpt><trkpt lat="45.9757347" lon="11.8472956"><ele>414.8571428571429</ele><time>2026-04-11T15:04:22.539Z</time></trkpt><trkpt lat="45.9756761" lon="11.8472492"><ele>416.1428571428571</ele><time>2026-04-11T15:04:24.538Z</time></trkpt><trkpt lat="45.975618" lon="11.8471757"><ele>417.42857142857144</ele><time>2026-04-11T15:04:26.537Z</time></trkpt><trkpt lat="45.9755623" lon="11.8471021"><ele>418.7142857142857</ele><time>2026-04-11T15:04:28.538Z</time></trkpt><trkpt lat="45.9754999" lon="11.8470378"><ele>420.0</ele><time>2026-04-11T15:04:30.537Z</time></trkpt><trkpt lat="45.9754195" lon="11.8469707"><ele>420.0</ele><time>2026-04-11T15:04:33.538Z</time></trkpt><trkpt lat="45.9753461" lon="11.8469217"><ele>420.0</ele><time>2026-04-11T15:04:36.538Z</time></trkpt><trkpt lat="45.9752587" lon="11.8468782"><ele>420.0</ele><time>2026-04-11T15:04:39.539Z</time></trkpt><trkpt lat="45.975202" lon="11.8468302"><ele>420.0</ele><time>2026-04-11T15:04:41.538Z</time></trkpt><trkpt lat="45.9751461" lon="11.8467309"><ele>420.0</ele><time>2026-04-11T15:04:44.539Z</time></trkpt><trkpt lat="45.9751034" lon="11.8466604"><ele>420.0</ele><time>2026-04-11T15:04:47.538Z</time></trkpt><trkpt lat="45.9750634" lon="11.8465787"><ele>418.7142857142857</ele><time>2026-04-11T15:04:50.538Z</time></trkpt><trkpt lat="45.9750399" lon="11.8464868"><ele>417.42857142857144</ele><time>2026-04-11T15:04:53.538Z</time></trkpt><trkpt lat="45.9750282" lon="11.8463858"><ele>416.1428571428571</ele><time>2026-04-11T15:04:56.537Z</time></trkpt><trkpt lat="45.9749872" lon="11.8462825"><ele>414.8571428571429</ele><time>2026-04-11T15:05:00.538Z</time></trkpt><trkpt lat="45.9749465" lon="11.846193"><ele>413.57142857142856</ele><time>2026-04-11T15:05:03.537Z</time></trkpt><trkpt lat="45.9749237" lon="11.8460924"><ele>412.2857142857143</ele><time>2026-04-11T15:05:06.537Z</time></trkpt><trkpt lat="45.9749101" lon="11.8459896"><ele>411.0</ele><time>2026-04-11T15:05:09.536Z</time></trkpt><trkpt lat="45.9749098" lon="11.8458705"><ele>414.5</ele><time>2026-04-11T15:05:12.534Z</time></trkpt><trkpt lat="45.9749318" lon="11.8457849"><ele>418.0</ele><time>2026-04-11T15:05:14.537Z</time></trkpt><trkpt lat="45.9749497" lon="11.8456587"><ele>421.5</ele><time>2026-04-11T15:05:17.537Z</time></trkpt><trkpt lat="45.9749346" lon="11.8455498"><ele>425.0</ele><time>2026-04-11T15:05:20.536Z</time></trkpt><trkpt lat="45.9749375" lon="11.8454552"><ele>428.5</ele><time>2026-04-11T15:05:22.536Z</time></trkpt><trkpt lat="45.9749422" lon="11.8453318"><ele>432.0</ele><time>2026-04-11T15:05:25.537Z</time></trkpt><trkpt lat="45.9749258" lon="11.8452157"><ele>432.0</ele><time>2026-04-11T15:05:28.537Z</time></trkpt><trkpt lat="45.9749141" lon="11.8450997"><ele>432.0</ele><time>2026-04-11T15:05:30.537Z</time></trkpt><trkpt lat="45.9749122" lon="11.844991"><ele>432.0</ele><time>2026-04-11T15:05:32.538Z</time></trkpt><trkpt lat="45.9749064" lon="11.8448856"><ele>432.0</ele><time>2026-04-11T15:05:34.536Z</time></trkpt><trkpt lat="45.974891" lon="11.8447976"><ele>432.0</ele><time>2026-04-11T15:05:36.538Z</time></trkpt><trkpt lat="45.9748544" lon="11.8447041"><ele>432.0</ele><time>2026-04-11T15:05:38.537Z</time></trkpt><trkpt lat="45.9748102" lon="11.8446342"><ele>432.0</ele><time>2026-04-11T15:05:40.537Z</time></trkpt><trkpt lat="45.974758" lon="11.8445735"><ele>432.0</ele><time>2026-04-11T15:05:42.535Z</time></trkpt><trkpt lat="45.9746956" lon="11.84448"><ele>432.0</ele><time>2026-04-11T15:05:45.536Z</time></trkpt><trkpt lat="45.9746517" lon="11.8443876"><ele>432.0</ele><time>2026-04-11T15:05:48.535Z</time></trkpt><trkpt lat="45.9745769" lon="11.8443344"><ele>432.0</ele><time>2026-04-11T15:05:51.537Z</time></trkpt><trkpt lat="45.9744974" lon="11.8443215"><ele>432.0</ele><time>2026-04-11T15:05:54.538Z</time></trkpt><trkpt lat="45.9744347" lon="11.844333"><ele>432.0</ele><time>2026-04-11T15:05:57.538Z</time></trkpt><trkpt lat="45.9743757" lon="11.8444108"><ele>432.0</ele><time>2026-04-11T15:06:01.538Z</time></trkpt><trkpt lat="45.9743138" lon="11.8444776"><ele>432.0</ele><time>2026-04-11T15:06:05.537Z</time></trkpt><trkpt lat="45.9742513" lon="11.8445"><ele>432.0</ele><time>2026-04-11T15:06:08.537Z</time></trkpt><trkpt lat="45.9741828" lon="11.8444692"><ele>432.0</ele><time>2026-04-11T15:06:11.537Z</time></trkpt><trkpt lat="45.9741047" lon="11.8444379"><ele>432.0</ele><time>2026-04-11T15:06:14.538Z</time></trkpt><trkpt lat="45.9740475" lon="11.8443734"><ele>432.0</ele><time>2026-04-11T15:06:18.538Z</time></trkpt><trkpt lat="45.9740373" lon="11.8442717"><ele>432.0</ele><time>2026-04-11T15:06:21.535Z</time></trkpt><trkpt lat="45.9740248" lon="11.8441805"><ele>436.0</ele><time>2026-04-11T15:06:24.536Z</time></trkpt><trkpt lat="45.9740093" lon="11.8440759"><ele>440.0</ele><time>2026-04-11T15:06:28.537Z</time></trkpt><trkpt lat="45.974033" lon="11.8439718"><ele>444.0</ele><time>2026-04-11T15:06:31.536Z</time></trkpt><trkpt lat="45.9740585" lon="11.8438771"><ele>448.0</ele><time>2026-04-11T15:06:34.536Z</time></trkpt><trkpt lat="45.9740703" lon="11.8437818"><ele>452.0</ele><time>2026-04-11T15:06:38.535Z</time></trkpt><trkpt lat="45.9740828" lon="11.8436885"><ele>455.99999999999994</ele><time>2026-04-11T15:06:41.537Z</time></trkpt><trkpt lat="45.9740872" lon="11.8435967"><ele>459.99999999999994</ele><time>2026-04-11T15:06:44.536Z</time></trkpt><trkpt lat="45.974057" lon="11.8434993"><ele>460.00000000000006</ele><time>2026-04-11T15:06:48.536Z</time></trkpt><trkpt lat="45.9739947" lon="11.8434584"><ele>460.0</ele><time>2026-04-11T15:06:52.536Z</time></trkpt><trkpt lat="45.973909" lon="11.8434699"><ele>460.0</ele><time>2026-04-11T15:06:56.538Z</time></trkpt><trkpt lat="45.9738432" lon="11.8434828"><ele>460.0</ele><time>2026-04-11T15:06:59.537Z</time></trkpt><trkpt lat="45.9737631" lon="11.8434765"><ele>460.00000000000006</ele><time>2026-04-11T15:07:03.536Z</time></trkpt><trkpt lat="45.9736894" lon="11.843532"><ele>460.0</ele><time>2026-04-11T15:07:07.536Z</time></trkpt><trkpt lat="45.9736207" lon="11.8435615"><ele>460.00000000000006</ele><time>2026-04-11T15:07:10.537Z</time></trkpt><trkpt lat="45.973559" lon="11.8436282"><ele>460.0</ele><time>2026-04-11T15:07:13.537Z</time></trkpt><trkpt lat="45.9734889" lon="11.8437106"><ele>460.0</ele><time>2026-04-11T15:07:16.537Z</time></trkpt><trkpt lat="45.9734261" lon="11.8437963"><ele>460.0</ele><time>2026-04-11T15:07:19.538Z</time></trkpt><trkpt lat="45.9733888" lon="11.8438782"><ele>460.00000000000006</ele><time>2026-04-11T15:07:22.536Z</time></trkpt><trkpt lat="45.9733621" lon="11.8439673"><ele>460.0</ele><time>2026-04-11T15:07:25.536Z</time></trkpt><trkpt lat="45.9733558" lon="11.8440713"><ele>463.8571428571428</ele><time>2026-04-11T15:07:28.537Z</time></trkpt><trkpt lat="45.9733416" lon="11.8441855"><ele>467.71428571428567</ele><time>2026-04-11T15:07:32.537Z</time></trkpt><trkpt lat="45.9732932" lon="11.8442483"><ele>471.57142857142856</ele><time>2026-04-11T15:07:35.537Z</time></trkpt><trkpt lat="45.9732314" lon="11.8442971"><ele>475.4285714285714</ele><time>2026-04-11T15:07:38.538Z</time></trkpt><trkpt lat="45.9731644" lon="11.8443257"><ele>479.2857142857142</ele><time>2026-04-11T15:07:41.536Z</time></trkpt><trkpt lat="45.9730982" lon="11.8443524"><ele>483.14285714285717</ele><time>2026-04-11T15:07:44.538Z</time></trkpt><trkpt lat="45.9730329" lon="11.8443959"><ele>487.0</ele><time>2026-04-11T15:07:47.536Z</time></trkpt><trkpt lat="45.9729788" lon="11.8444598"><ele>487.83333333333337</ele><time>2026-04-11T15:07:52.537Z</time></trkpt><trkpt lat="45.972908" lon="11.8445063"><ele>488.6666666666667</ele><time>2026-04-11T15:07:56.538Z</time></trkpt><trkpt lat="45.9728479" lon="11.8445361"><ele>489.5</ele><time>2026-04-11T15:07:59.536Z</time></trkpt><trkpt lat="45.9727279" lon="11.8445869"><ele>490.33333333333337</ele><time>2026-04-11T15:09:38.534Z</time></trkpt><trkpt lat="45.9726918" lon="11.8446702"><ele>491.1666666666667</ele><time>2026-04-11T15:09:43.536Z</time></trkpt><trkpt lat="45.9727136" lon="11.8447681"><ele>492.0</ele><time>2026-04-11T15:09:48.535Z</time></trkpt><trkpt lat="45.9727803" lon="11.8448402"><ele>492.00000000000006</ele><time>2026-04-11T15:09:52.535Z</time></trkpt><trkpt lat="45.9728326" lon="11.8448978"><ele>492.0</ele><time>2026-04-11T15:09:55.533Z</time></trkpt><trkpt lat="45.972897" lon="11.8449559"><ele>492.00000000000006</ele><time>2026-04-11T15:09:58.534Z</time></trkpt><trkpt lat="45.9729631" lon="11.845001"><ele>492.00000000000006</ele><time>2026-04-11T15:10:01.536Z</time></trkpt><trkpt lat="45.9730297" lon="11.8450558"><ele>492.0</ele><time>2026-04-11T15:10:04.534Z</time></trkpt><trkpt lat="45.9730623" lon="11.8451464"><ele>492.00000000000006</ele><time>2026-04-11T15:10:07.534Z</time></trkpt><trkpt lat="45.9730143" lon="11.8452122"><ele>492.00000000000006</ele><time>2026-04-11T15:10:11.535Z</time></trkpt><trkpt lat="45.9729497" lon="11.8452203"><ele>494.28571428571433</ele><time>2026-04-11T15:10:16.535Z</time></trkpt><trkpt lat="45.9728728" lon="11.8452322"><ele>496.57142857142856</ele><time>2026-04-11T15:10:20.533Z</time></trkpt><trkpt lat="45.9727972" lon="11.8452361"><ele>498.8571428571429</ele><time>2026-04-11T15:10:24.534Z</time></trkpt><trkpt lat="45.9727268" lon="11.8452548"><ele>501.14285714285717</ele><time>2026-04-11T15:10:27.536Z</time></trkpt><trkpt lat="45.9726513" lon="11.845239"><ele>503.42857142857144</ele><time>2026-04-11T15:10:30.537Z</time></trkpt><trkpt lat="45.9725802" lon="11.8452412"><ele>505.7142857142857</ele><time>2026-04-11T15:10:33.535Z</time></trkpt><trkpt lat="45.9725141" lon="11.845243"><ele>508.0</ele><time>2026-04-11T15:10:36.538Z</time></trkpt><trkpt lat="45.9724467" lon="11.8452294"><ele>508.8571428571429</ele><time>2026-04-11T15:10:39.536Z</time></trkpt><trkpt lat="45.9723796" lon="11.8452267"><ele>509.71428571428567</ele><time>2026-04-11T15:10:42.538Z</time></trkpt><trkpt lat="45.9723023" lon="11.845214"><ele>510.57142857142856</ele><time>2026-04-11T15:10:45.537Z</time></trkpt><trkpt lat="45.9722291" lon="11.8451976"><ele>511.42857142857144</ele><time>2026-04-11T15:10:48.537Z</time></trkpt><trkpt lat="45.9721709" lon="11.8451571"><ele>512.2857142857143</ele><time>2026-04-11T15:10:51.538Z</time></trkpt><trkpt lat="45.9721137" lon="11.8451146"><ele>513.1428571428571</ele><time>2026-04-11T15:10:54.535Z</time></trkpt><trkpt lat="45.9720453" lon="11.8451049"><ele>514.0</ele><time>2026-04-11T15:10:57.536Z</time></trkpt><trkpt lat="45.9719992" lon="11.8451884"><ele>517.7142857142857</ele><time>2026-04-11T15:11:00.538Z</time></trkpt><trkpt lat="45.9720452" lon="11.8452679"><ele>521.4285714285714</ele><time>2026-04-11T15:11:04.536Z</time></trkpt><trkpt lat="45.9721051" lon="11.845324"><ele>525.1428571428571</ele><time>2026-04-11T15:11:07.535Z</time></trkpt><trkpt lat="45.9721732" lon="11.8453765"><ele>528.8571428571429</ele><time>2026-04-11T15:11:10.538Z</time></trkpt><trkpt lat="45.972239" lon="11.8454072"><ele>532.5714285714286</ele><time>2026-04-11T15:11:13.536Z</time></trkpt><trkpt lat="45.9722972" lon="11.8454547"><ele>536.2857142857142</ele><time>2026-04-11T15:11:16.536Z</time></trkpt><trkpt lat="45.9723563" lon="11.8455245"><ele>540.0</ele><time>2026-04-11T15:11:19.536Z</time></trkpt><trkpt lat="45.9724148" lon="11.845586"><ele>540.0</ele><time>2026-04-11T15:11:22.534Z</time></trkpt><trkpt lat="45.9724722" lon="11.8456524"><ele>540.0</ele><time>2026-04-11T15:11:25.535Z</time></trkpt><trkpt lat="45.9725205" lon="11.84572"><ele>540.0</ele><time>2026-04-11T15:11:28.537Z</time></trkpt><trkpt lat="45.9725629" lon="11.8458014"><ele>540.0</ele><time>2026-04-11T15:11:31.537Z</time></trkpt><trkpt lat="45.9726134" lon="11.8458877"><ele>540.0</ele><time>2026-04-11T15:11:34.537Z</time></trkpt><trkpt lat="45.9726644" lon="11.8459761"><ele>540.0</ele><time>2026-04-11T15:11:37.538Z</time></trkpt><trkpt lat="45.9727015" lon="11.8460766"><ele>540.0</ele><time>2026-04-11T15:11:40.535Z</time></trkpt><trkpt lat="45.972754" lon="11.8461559"><ele>538.8571428571429</ele><time>2026-04-11T15:11:43.535Z</time></trkpt><trkpt lat="45.9728005" lon="11.8462321"><ele>537.7142857142857</ele><time>2026-04-11T15:11:46.536Z</time></trkpt><trkpt lat="45.9728405" lon="11.8463102"><ele>536.5714285714286</ele><time>2026-04-11T15:11:49.535Z</time></trkpt><trkpt lat="45.9728724" lon="11.8463931"><ele>535.4285714285714</ele><time>2026-04-11T15:11:52.535Z</time></trkpt><trkpt lat="45.972907" lon="11.8464774"><ele>534.2857142857142</ele><time>2026-04-11T15:11:55.535Z</time></trkpt><trkpt lat="45.9729352" lon="11.8465678"><ele>533.1428571428571</ele><time>2026-04-11T15:11:58.535Z</time></trkpt><trkpt lat="45.9729675" lon="11.8466482"><ele>532.0</ele><time>2026-04-11T15:12:01.537Z</time></trkpt><trkpt lat="45.9729943" lon="11.8467345"><ele>535.1428571428571</ele><time>2026-04-11T15:12:04.536Z</time></trkpt><trkpt lat="45.9730328" lon="11.8468264"><ele>538.2857142857142</ele><time>2026-04-11T15:12:07.537Z</time></trkpt><trkpt lat="45.97307" lon="11.8469169"><ele>541.4285714285714</ele><time>2026-04-11T15:12:10.536Z</time></trkpt><trkpt lat="45.9730991" lon="11.847017"><ele>544.5714285714286</ele><time>2026-04-11T15:12:14.537Z</time></trkpt><trkpt lat="45.9731245" lon="11.8471309"><ele>547.7142857142857</ele><time>2026-04-11T15:12:18.536Z</time></trkpt><trkpt lat="45.9731442" lon="11.847221"><ele>550.8571428571429</ele><time>2026-04-11T15:12:21.535Z</time></trkpt><trkpt lat="45.9731705" lon="11.84731"><ele>554.0</ele><time>2026-04-11T15:12:24.536Z</time></trkpt><trkpt lat="45.9732166" lon="11.847373"><ele>554.0</ele><time>2026-04-11T15:12:27.534Z</time></trkpt><trkpt lat="45.9732618" lon="11.8474694"><ele>554.0</ele><time>2026-04-11T15:12:31.535Z</time></trkpt><trkpt lat="45.9733049" lon="11.8475595"><ele>554.0</ele><time>2026-04-11T15:12:35.537Z</time></trkpt><trkpt lat="45.9733409" lon="11.8476697"><ele>554.0</ele><time>2026-04-11T15:12:39.535Z</time></trkpt><trkpt lat="45.9733627" lon="11.8477678"><ele>554.0</ele><time>2026-04-11T15:12:42.537Z</time></trkpt><trkpt lat="45.9733565" lon="11.8478847"><ele>554.0</ele><time>2026-04-11T15:12:46.538Z</time></trkpt><trkpt lat="45.9733281" lon="11.8479791"><ele>553.8333333333333</ele><time>2026-04-11T15:12:49.536Z</time></trkpt><trkpt lat="45.973296" lon="11.8480858"><ele>553.6666666666666</ele><time>2026-04-11T15:12:53.537Z</time></trkpt><trkpt lat="45.9732708" lon="11.848172"><ele>553.5</ele><time>2026-04-11T15:12:56.538Z</time></trkpt><trkpt lat="45.9732443" lon="11.8482739"><ele>553.3333333333334</ele><time>2026-04-11T15:13:00.538Z</time></trkpt><trkpt lat="45.9731778" lon="11.8482255"><ele>553.1666666666667</ele><time>2026-04-11T15:13:04.538Z</time></trkpt><trkpt lat="45.9731849" lon="11.8481071"><ele>553.0</ele><time>2026-04-11T15:13:08.538Z</time></trkpt><trkpt lat="45.9732154" lon="11.8480055"><ele>553.0</ele><time>2026-04-11T15:13:12.537Z</time></trkpt><trkpt lat="45.9732387" lon="11.8479085"><ele>553.0</ele><time>2026-04-11T15:13:16.538Z</time></trkpt><trkpt lat="45.9731716" lon="11.84787"><ele>553.0</ele><time>2026-04-11T15:13:20.539Z</time></trkpt><trkpt lat="45.9731236" lon="11.8479438"><ele>553.0</ele><time>2026-04-11T15:13:24.537Z</time></trkpt><trkpt lat="45.9731033" lon="11.8480319"><ele>553.0</ele><time>2026-04-11T15:13:27.538Z</time></trkpt><trkpt lat="45.9730865" lon="11.8481269"><ele>553.0</ele><time>2026-04-11T15:13:30.536Z</time></trkpt><trkpt lat="45.9730701" lon="11.848228"><ele>553.0</ele><time>2026-04-11T15:13:33.538Z</time></trkpt><trkpt lat="45.9730249" lon="11.8483121"><ele>553.0</ele><time>2026-04-11T15:13:36.538Z</time></trkpt><trkpt lat="45.9729461" lon="11.8483304"><ele>553.0</ele><time>2026-04-11T15:13:39.538Z</time></trkpt><trkpt lat="45.9728681" lon="11.8483066"><ele>553.0</ele><time>2026-04-11T15:13:42.538Z</time></trkpt><trkpt lat="45.9727886" lon="11.848282"><ele>553.0</ele><time>2026-04-11T15:13:45.538Z</time></trkpt><trkpt lat="45.9727062" lon="11.8482592"><ele>553.0</ele><time>2026-04-11T15:13:48.538Z</time></trkpt><trkpt lat="45.972625" lon="11.8482598"><ele>553.0</ele><time>2026-04-11T15:13:51.538Z</time></trkpt><trkpt lat="45.9725363" lon="11.8482657"><ele>557.3333333333334</ele><time>2026-04-11T15:13:54.538Z</time></trkpt><trkpt lat="45.9724528" lon="11.8482896"><ele>561.6666666666667</ele><time>2026-04-11T15:13:57.538Z</time></trkpt><trkpt lat="45.972395" lon="11.8483301"><ele>566.0</ele><time>2026-04-11T15:13:59.538Z</time></trkpt><trkpt lat="45.9723415" lon="11.8483839"><ele>570.3333333333334</ele><time>2026-04-11T15:14:01.538Z</time></trkpt><trkpt lat="45.9722546" lon="11.8484359"><ele>574.6666666666666</ele><time>2026-04-11T15:14:04.538Z</time></trkpt><trkpt lat="45.9721897" lon="11.8484439"><ele>579.0</ele><time>2026-04-11T15:14:06.537Z</time></trkpt><trkpt lat="45.9720933" lon="11.8484537"><ele>575.6666666666666</ele><time>2026-04-11T15:14:09.537Z</time></trkpt><trkpt lat="45.9720265" lon="11.8484773"><ele>572.3333333333334</ele><time>2026-04-11T15:14:11.537Z</time></trkpt><trkpt lat="45.9719674" lon="11.8485107"><ele>569.0</ele><time>2026-04-11T15:14:13.538Z</time></trkpt><trkpt lat="45.9719168" lon="11.8485709"><ele>565.6666666666667</ele><time>2026-04-11T15:14:15.539Z</time></trkpt><trkpt lat="45.9718821" lon="11.8486506"><ele>562.3333333333334</ele><time>2026-04-11T15:14:17.536Z</time></trkpt><trkpt lat="45.9718531" lon="11.8487771"><ele>559.0</ele><time>2026-04-11T15:14:20.538Z</time></trkpt><trkpt lat="45.9718197" lon="11.8489075"><ele>559.0</ele><time>2026-04-11T15:14:23.537Z</time></trkpt><trkpt lat="45.9717977" lon="11.848998"><ele>559.0</ele><time>2026-04-11T15:14:25.537Z</time></trkpt><trkpt lat="45.9717962" lon="11.8490931"><ele>559.0</ele><time>2026-04-11T15:14:27.537Z</time></trkpt><trkpt lat="45.9718196" lon="11.8492282"><ele>559.0</ele><time>2026-04-11T15:14:30.538Z</time></trkpt><trkpt lat="45.9718242" lon="11.8493238"><ele>559.0</ele><time>2026-04-11T15:14:32.537Z</time></trkpt><trkpt lat="45.9717848" lon="11.8494007"><ele>559.0</ele><time>2026-04-11T15:14:34.536Z</time></trkpt><trkpt lat="45.9717347" lon="11.8494627"><ele>559.0</ele><time>2026-04-11T15:14:36.536Z</time></trkpt><trkpt lat="45.9716913" lon="11.849535"><ele>559.1666666666667</ele><time>2026-04-11T15:14:38.538Z</time></trkpt><trkpt lat="45.971631" lon="11.8496358"><ele>559.3333333333334</ele><time>2026-04-11T15:14:41.538Z</time></trkpt><trkpt lat="45.9715796" lon="11.849734"><ele>559.5</ele><time>2026-04-11T15:14:44.537Z</time></trkpt><trkpt lat="45.9715478" lon="11.8498568"><ele>559.6666666666666</ele><time>2026-04-11T15:14:47.536Z</time></trkpt><trkpt lat="45.9715232" lon="11.8499467"><ele>559.8333333333333</ele><time>2026-04-11T15:14:49.537Z</time></trkpt><trkpt lat="45.9715039" lon="11.8500481"><ele>560.0</ele><time>2026-04-11T15:14:51.538Z</time></trkpt><trkpt lat="45.9714488" lon="11.8501511"><ele>560.0</ele><time>2026-04-11T15:14:54.538Z</time></trkpt><trkpt lat="45.9713852" lon="11.8502273"><ele>560.0</ele><time>2026-04-11T15:14:57.536Z</time></trkpt><trkpt lat="45.9713202" lon="11.8503103"><ele>560.0</ele><time>2026-04-11T15:15:00.536Z</time></trkpt><trkpt lat="45.9712687" lon="11.850375"><ele>560.0</ele><time>2026-04-11T15:15:03.538Z</time></trkpt><trkpt lat="45.971335" lon="11.8502791"><ele>560.0</ele><time>2026-04-11T15:16:51.536Z</time></trkpt><trkpt lat="45.9714038" lon="11.8502167"><ele>560.0</ele><time>2026-04-11T15:16:54.537Z</time></trkpt><trkpt lat="45.9714733" lon="11.8501719"><ele>563.6666666666666</ele><time>2026-04-11T15:16:57.534Z</time></trkpt><trkpt lat="45.9715327" lon="11.8500851"><ele>567.3333333333333</ele><time>2026-04-11T15:17:01.534Z</time></trkpt><trkpt lat="45.9715686" lon="11.8499874"><ele>571.0</ele><time>2026-04-11T15:17:03.537Z</time></trkpt><trkpt lat="45.9715964" lon="11.8498911"><ele>574.6666666666666</ele><time>2026-04-11T15:17:05.537Z</time></trkpt><trkpt lat="45.9716161" lon="11.8497935"><ele>578.3333333333334</ele><time>2026-04-11T15:17:07.537Z</time></trkpt><trkpt lat="45.9716387" lon="11.8496863"><ele>582.0</ele><time>2026-04-11T15:17:09.537Z</time></trkpt><trkpt lat="45.9716725" lon="11.8495837"><ele>578.1666666666666</ele><time>2026-04-11T15:17:11.538Z</time></trkpt><trkpt lat="45.9717264" lon="11.8494869"><ele>574.3333333333334</ele><time>2026-04-11T15:17:13.538Z</time></trkpt><trkpt lat="45.9717739" lon="11.8493894"><ele>570.5</ele><time>2026-04-11T15:17:15.538Z</time></trkpt><trkpt lat="45.9718078" lon="11.8492837"><ele>566.6666666666667</ele><time>2026-04-11T15:17:17.535Z</time></trkpt><trkpt lat="45.9718079" lon="11.8491861"><ele>562.8333333333334</ele><time>2026-04-11T15:17:19.537Z</time></trkpt><trkpt lat="45.9717943" lon="11.8490608"><ele>559.0</ele><time>2026-04-11T15:17:22.535Z</time></trkpt><trkpt lat="45.9718" lon="11.8489601"><ele>559.0</ele><time>2026-04-11T15:17:24.537Z</time></trkpt><trkpt lat="45.9718229" lon="11.8488609"><ele>559.0</ele><time>2026-04-11T15:17:26.538Z</time></trkpt><trkpt lat="45.9718403" lon="11.8487662"><ele>559.0</ele><time>2026-04-11T15:17:28.537Z</time></trkpt><trkpt lat="45.971855" lon="11.8486733"><ele>559.0</ele><time>2026-04-11T15:17:30.537Z</time></trkpt><trkpt lat="45.9718813" lon="11.8485844"><ele>559.0</ele><time>2026-04-11T15:17:32.537Z</time></trkpt><trkpt lat="45.9719362" lon="11.8485155"><ele>559.0</ele><time>2026-04-11T15:17:34.535Z</time></trkpt><trkpt lat="45.9720028" lon="11.8484806"><ele>559.0</ele><time>2026-04-11T15:17:36.537Z</time></trkpt><trkpt lat="45.972073" lon="11.8484628"><ele>558.1428571428571</ele><time>2026-04-11T15:17:38.538Z</time></trkpt><trkpt lat="45.9721406" lon="11.8484494"><ele>557.2857142857143</ele><time>2026-04-11T15:17:40.535Z</time></trkpt><trkpt lat="45.9722073" lon="11.8484411"><ele>556.4285714285714</ele><time>2026-04-11T15:17:42.537Z</time></trkpt><trkpt lat="45.9722692" lon="11.8484229"><ele>555.5714285714286</ele><time>2026-04-11T15:17:44.536Z</time></trkpt><trkpt lat="45.9723292" lon="11.8483846"><ele>554.7142857142858</ele><time>2026-04-11T15:17:46.537Z</time></trkpt><trkpt lat="45.9723884" lon="11.8483436"><ele>553.8571428571429</ele><time>2026-04-11T15:17:48.537Z</time></trkpt><trkpt lat="45.9724517" lon="11.8483086"><ele>553.0</ele><time>2026-04-11T15:17:50.537Z</time></trkpt><trkpt lat="45.972531" lon="11.848304"><ele>553.0</ele><time>2026-04-11T15:17:53.538Z</time></trkpt><trkpt lat="45.9726046" lon="11.8483125"><ele>553.0</ele><time>2026-04-11T15:17:55.537Z</time></trkpt><trkpt lat="45.9726948" lon="11.8483342"><ele>553.0</ele><time>2026-04-11T15:17:57.538Z</time></trkpt><trkpt lat="45.9727898" lon="11.8483632"><ele>553.0</ele><time>2026-04-11T15:17:59.537Z</time></trkpt><trkpt lat="45.9728732" lon="11.8484009"><ele>553.0</ele><time>2026-04-11T15:18:01.535Z</time></trkpt><trkpt lat="45.972948" lon="11.8484056"><ele>553.0</ele><time>2026-04-11T15:18:03.535Z</time></trkpt><trkpt lat="45.9730078" lon="11.848314"><ele>553.0</ele><time>2026-04-11T15:18:06.534Z</time></trkpt><trkpt lat="45.9730348" lon="11.8482292"><ele>553.0</ele><time>2026-04-11T15:18:08.536Z</time></trkpt><trkpt lat="45.9730633" lon="11.8481443"><ele>553.0</ele><time>2026-04-11T15:18:10.534Z</time></trkpt><trkpt lat="45.9730976" lon="11.8480231"><ele>553.0</ele><time>2026-04-11T15:18:13.537Z</time></trkpt><trkpt lat="45.973116" lon="11.8479153"><ele>553.0</ele><time>2026-04-11T15:18:16.537Z</time></trkpt><trkpt lat="45.9731643" lon="11.8478547"><ele>553.0</ele><time>2026-04-11T15:18:19.536Z</time></trkpt><trkpt lat="45.9732048" lon="11.8479338"><ele>553.0</ele><time>2026-04-11T15:18:25.535Z</time></trkpt><trkpt lat="45.9731805" lon="11.84802"><ele>553.0</ele><time>2026-04-11T15:18:28.537Z</time></trkpt><trkpt lat="45.9731648" lon="11.8481273"><ele>553.0</ele><time>2026-04-11T15:18:31.536Z</time></trkpt><trkpt lat="45.9731684" lon="11.8482449"><ele>553.0</ele><time>2026-04-11T15:18:34.536Z</time></trkpt><trkpt lat="45.9732419" lon="11.8482856"><ele>553.0</ele><time>2026-04-11T15:18:38.535Z</time></trkpt><trkpt lat="45.973284" lon="11.8481706"><ele>553.0</ele><time>2026-04-11T15:18:41.536Z</time></trkpt><trkpt lat="45.9733087" lon="11.8480751"><ele>553.0</ele><time>2026-04-11T15:18:43.537Z</time></trkpt><trkpt lat="45.9733458" lon="11.8479865"><ele>553.0</ele><time>2026-04-11T15:18:45.537Z</time></trkpt><trkpt lat="45.9733765" lon="11.8478975"><ele>553.0</ele><time>2026-04-11T15:18:47.537Z</time></trkpt><trkpt lat="45.9733786" lon="11.8478012"><ele>553.0</ele><time>2026-04-11T15:18:49.536Z</time></trkpt><trkpt lat="45.9733622" lon="11.8477112"><ele>553.0</ele><time>2026-04-11T15:18:51.536Z</time></trkpt><trkpt lat="45.9733313" lon="11.8476277"><ele>553.0</ele><time>2026-04-11T15:18:53.535Z</time></trkpt><trkpt lat="45.9732957" lon="11.8475435"><ele>553.0</ele><time>2026-04-11T15:18:55.536Z</time></trkpt><trkpt lat="45.9732638" lon="11.8474634"><ele>553.0</ele><time>2026-04-11T15:18:57.536Z</time></trkpt><trkpt lat="45.9732315" lon="11.8473841"><ele>553.1428571428571</ele><time>2026-04-11T15:18:59.537Z</time></trkpt><trkpt lat="45.9731942" lon="11.8473021"><ele>553.2857142857142</ele><time>2026-04-11T15:19:01.536Z</time></trkpt><trkpt lat="45.9731579" lon="11.8472132"><ele>553.4285714285714</ele><time>2026-04-11T15:19:03.536Z</time></trkpt><trkpt lat="45.9731303" lon="11.8470876"><ele>553.5714285714286</ele><time>2026-04-11T15:19:06.536Z</time></trkpt><trkpt lat="45.9731059" lon="11.8469935"><ele>553.7142857142857</ele><time>2026-04-11T15:19:08.536Z</time></trkpt><trkpt lat="45.9730785" lon="11.846908"><ele>553.8571428571429</ele><time>2026-04-11T15:19:10.537Z</time></trkpt><trkpt lat="45.9730492" lon="11.8468177"><ele>554.0</ele><time>2026-04-11T15:19:12.538Z</time></trkpt><trkpt lat="45.9730139" lon="11.8467218"><ele>550.3333333333333</ele><time>2026-04-11T15:19:14.535Z</time></trkpt><trkpt lat="45.9729707" lon="11.8466259"><ele>546.6666666666666</ele><time>2026-04-11T15:19:16.536Z</time></trkpt><trkpt lat="45.972931" lon="11.8465344"><ele>543.0</ele><time>2026-04-11T15:19:18.536Z</time></trkpt><trkpt lat="45.9728971" lon="11.8464525"><ele>539.3333333333334</ele><time>2026-04-11T15:19:20.537Z</time></trkpt><trkpt lat="45.9728554" lon="11.8463615"><ele>535.6666666666667</ele><time>2026-04-11T15:19:22.536Z</time></trkpt><trkpt lat="45.972808" lon="11.8462613"><ele>532.0</ele><time>2026-04-11T15:19:24.536Z</time></trkpt><trkpt lat="45.9727606" lon="11.8461646"><ele>532.0</ele><time>2026-04-11T15:19:26.535Z</time></trkpt><trkpt lat="45.9727125" lon="11.8460701"><ele>532.0</ele><time>2026-04-11T15:19:28.535Z</time></trkpt><trkpt lat="45.9726589" lon="11.8459731"><ele>532.0</ele><time>2026-04-11T15:19:30.537Z</time></trkpt><trkpt lat="45.9726084" lon="11.845873"><ele>532.0</ele><time>2026-04-11T15:19:32.537Z</time></trkpt><trkpt lat="45.972544" lon="11.8457713"><ele>532.0</ele><time>2026-04-11T15:19:34.534Z</time></trkpt><trkpt lat="45.9724606" lon="11.8456641"><ele>533.3333333333334</ele><time>2026-04-11T15:19:36.537Z</time></trkpt><trkpt lat="45.9723741" lon="11.8455585"><ele>534.6666666666667</ele><time>2026-04-11T15:19:38.537Z</time></trkpt><trkpt lat="45.9722988" lon="11.8454635"><ele>536.0</ele><time>2026-04-11T15:19:40.534Z</time></trkpt><trkpt lat="45.9722317" lon="11.8454101"><ele>537.3333333333334</ele><time>2026-04-11T15:19:42.536Z</time></trkpt><trkpt lat="45.9721687" lon="11.8453611"><ele>538.6666666666666</ele><time>2026-04-11T15:19:44.537Z</time></trkpt><trkpt lat="45.9721029" lon="11.8453092"><ele>540.0</ele><time>2026-04-11T15:19:46.534Z</time></trkpt><trkpt lat="45.972049" lon="11.8452502"><ele>540.0</ele><time>2026-04-11T15:19:48.536Z</time></trkpt><trkpt lat="45.9720529" lon="11.8451364"><ele>540.0</ele><time>2026-04-11T15:19:51.537Z</time></trkpt><trkpt lat="45.9721325" lon="11.8451492"><ele>540.0</ele><time>2026-04-11T15:19:55.537Z</time></trkpt><trkpt lat="45.9722026" lon="11.8451956"><ele>540.0</ele><time>2026-04-11T15:19:57.534Z</time></trkpt><trkpt lat="45.9722781" lon="11.8452197"><ele>540.0</ele><time>2026-04-11T15:19:59.537Z</time></trkpt><trkpt lat="45.9723457" lon="11.8452265"><ele>540.0</ele><time>2026-04-11T15:20:01.534Z</time></trkpt><trkpt lat="45.9724242" lon="11.8452403"><ele>540.0</ele><time>2026-04-11T15:20:03.537Z</time></trkpt><trkpt lat="45.97249" lon="11.8452452"><ele>540.0</ele><time>2026-04-11T15:20:05.535Z</time></trkpt><trkpt lat="45.9725595" lon="11.8452582"><ele>540.0</ele><time>2026-04-11T15:20:07.535Z</time></trkpt><trkpt lat="45.9726419" lon="11.8452676"><ele>540.0</ele><time>2026-04-11T15:20:10.536Z</time></trkpt><trkpt lat="45.9727123" lon="11.8452631"><ele>540.0</ele><time>2026-04-11T15:20:12.536Z</time></trkpt><trkpt lat="45.9727927" lon="11.8452423"><ele>540.0</ele><time>2026-04-11T15:20:15.537Z</time></trkpt><trkpt lat="45.9728727" lon="11.845236"><ele>534.6666666666666</ele><time>2026-04-11T15:20:18.534Z</time></trkpt><trkpt lat="45.9729642" lon="11.8452278"><ele>529.3333333333334</ele><time>2026-04-11T15:20:21.537Z</time></trkpt><trkpt lat="45.9730516" lon="11.8451817"><ele>524.0</ele><time>2026-04-11T15:20:24.535Z</time></trkpt><trkpt lat="45.9730863" lon="11.8450884"><ele>518.6666666666667</ele><time>2026-04-11T15:20:28.535Z</time></trkpt><trkpt lat="45.9730146" lon="11.845014"><ele>513.3333333333334</ele><time>2026-04-11T15:20:32.536Z</time></trkpt><trkpt lat="45.9729518" lon="11.8449723"><ele>508.0</ele><time>2026-04-11T15:20:34.536Z</time></trkpt><trkpt lat="45.9728677" lon="11.8449292"><ele>505.33333333333337</ele><time>2026-04-11T15:20:37.536Z</time></trkpt><trkpt lat="45.9728151" lon="11.8448715"><ele>502.6666666666667</ele><time>2026-04-11T15:20:39.534Z</time></trkpt><trkpt lat="45.9727653" lon="11.8447869"><ele>500.0</ele><time>2026-04-11T15:20:41.534Z</time></trkpt><trkpt lat="45.9727703" lon="11.8446856"><ele>497.33333333333337</ele><time>2026-04-11T15:20:44.536Z</time></trkpt><trkpt lat="45.9728041" lon="11.8445873"><ele>494.6666666666667</ele><time>2026-04-11T15:20:48.536Z</time></trkpt><trkpt lat="45.9728205" lon="11.8444579"><ele>492.0</ele><time>2026-04-11T15:20:51.535Z</time></trkpt><trkpt lat="45.9728085" lon="11.8443377"><ele>491.28571428571433</ele><time>2026-04-11T15:20:54.535Z</time></trkpt><trkpt lat="45.9728184" lon="11.8442168"><ele>490.57142857142856</ele><time>2026-04-11T15:20:57.536Z</time></trkpt><trkpt lat="45.9728752" lon="11.8441259"><ele>489.8571428571429</ele><time>2026-04-11T15:21:01.535Z</time></trkpt><trkpt lat="45.9729277" lon="11.8440631"><ele>489.14285714285717</ele><time>2026-04-11T15:21:05.534Z</time></trkpt><trkpt lat="45.9729663" lon="11.8439865"><ele>488.42857142857144</ele><time>2026-04-11T15:21:08.536Z</time></trkpt><trkpt lat="45.9729629" lon="11.8438862"><ele>487.7142857142857</ele><time>2026-04-11T15:21:13.536Z</time></trkpt><trkpt lat="45.9729637" lon="11.8437878"><ele>487.0</ele><time>2026-04-11T15:21:16.536Z</time></trkpt><trkpt lat="45.9729701" lon="11.8436887"><ele>487.0</ele><time>2026-04-11T15:21:19.535Z</time></trkpt><trkpt lat="45.9729719" lon="11.8437846"><ele>487.0</ele><time>2026-04-11T15:21:58.534Z</time></trkpt><trkpt lat="45.9729884" lon="11.8438863"><ele>487.0</ele><time>2026-04-11T15:22:02.537Z</time></trkpt><trkpt lat="45.9729749" lon="11.8439903"><ele>487.0</ele><time>2026-04-11T15:22:07.534Z</time></trkpt><trkpt lat="45.9729142" lon="11.8440709"><ele>487.0</ele><time>2026-04-11T15:22:12.534Z</time></trkpt><trkpt lat="45.9728628" lon="11.8441588"><ele>487.0</ele><time>2026-04-11T15:22:16.534Z</time></trkpt><trkpt lat="45.9728278" lon="11.8442454"><ele>487.0</ele><time>2026-04-11T15:22:19.537Z</time></trkpt><trkpt lat="45.9728263" lon="11.8443386"><ele>487.83333333333337</ele><time>2026-04-11T15:22:22.538Z</time></trkpt><trkpt lat="45.9728033" lon="11.8444706"><ele>488.6666666666667</ele><time>2026-04-11T15:22:26.538Z</time></trkpt><trkpt lat="45.97282" lon="11.8445643"><ele>489.5</ele><time>2026-04-11T15:22:29.537Z</time></trkpt><trkpt lat="45.9728832" lon="11.8445551"><ele>490.33333333333337</ele><time>2026-04-11T15:22:32.537Z</time></trkpt><trkpt lat="45.9729645" lon="11.844493"><ele>491.1666666666667</ele><time>2026-04-11T15:22:35.536Z</time></trkpt><trkpt lat="45.9730183" lon="11.8444371"><ele>492.0</ele><time>2026-04-11T15:22:37.536Z</time></trkpt><trkpt lat="45.9730818" lon="11.8443763"><ele>492.0</ele><time>2026-04-11T15:22:39.538Z</time></trkpt><trkpt lat="45.9731693" lon="11.8443521"><ele>492.0</ele><time>2026-04-11T15:22:42.538Z</time></trkpt><trkpt lat="45.973234" lon="11.844312"><ele>492.0</ele><time>2026-04-11T15:22:45.536Z</time></trkpt><trkpt lat="45.9732961" lon="11.8442609"><ele>492.0</ele><time>2026-04-11T15:22:47.535Z</time></trkpt><trkpt lat="45.9733514" lon="11.8441989"><ele>492.0</ele><time>2026-04-11T15:22:50.538Z</time></trkpt><trkpt lat="45.9733619" lon="11.8441027"><ele>492.0</ele><time>2026-04-11T15:22:53.537Z</time></trkpt><trkpt lat="45.9733578" lon="11.843967"><ele>486.6666666666667</ele><time>2026-04-11T15:22:56.537Z</time></trkpt><trkpt lat="45.9733686" lon="11.8438634"><ele>481.33333333333337</ele><time>2026-04-11T15:22:58.537Z</time></trkpt><trkpt lat="45.9733991" lon="11.843766"><ele>476.0</ele><time>2026-04-11T15:23:00.536Z</time></trkpt><trkpt lat="45.9734409" lon="11.8436955"><ele>470.6666666666667</ele><time>2026-04-11T15:23:02.538Z</time></trkpt><trkpt lat="45.9734972" lon="11.843653"><ele>465.33333333333337</ele><time>2026-04-11T15:23:04.537Z</time></trkpt><trkpt lat="45.9735809" lon="11.8435999"><ele>460.0</ele><time>2026-04-11T15:23:07.538Z</time></trkpt><trkpt lat="45.9736635" lon="11.8435554"><ele>459.99999999999994</ele><time>2026-04-11T15:23:10.539Z</time></trkpt><trkpt lat="45.9737393" lon="11.8435142"><ele>460.0</ele><time>2026-04-11T15:23:13.536Z</time></trkpt><trkpt lat="45.973805" lon="11.8434771"><ele>459.99999999999994</ele><time>2026-04-11T15:23:16.537Z</time></trkpt><trkpt lat="45.9738823" lon="11.8434307"><ele>459.99999999999994</ele><time>2026-04-11T15:23:20.537Z</time></trkpt><trkpt lat="45.9739563" lon="11.8433959"><ele>460.0</ele><time>2026-04-11T15:23:23.536Z</time></trkpt><trkpt lat="45.9740257" lon="11.8434176"><ele>459.99999999999994</ele><time>2026-04-11T15:23:26.536Z</time></trkpt><trkpt lat="45.9740536" lon="11.8435005"><ele>459.99999999999994</ele><time>2026-04-11T15:23:29.536Z</time></trkpt><trkpt lat="45.9740468" lon="11.8436074"><ele>460.00000000000006</ele><time>2026-04-11T15:23:33.536Z</time></trkpt><trkpt lat="45.9740388" lon="11.8437254"><ele>460.0</ele><time>2026-04-11T15:23:37.536Z</time></trkpt><trkpt lat="45.9740355" lon="11.8438186"><ele>460.0</ele><time>2026-04-11T15:23:40.537Z</time></trkpt><trkpt lat="45.974013" lon="11.8439239"><ele>460.0</ele><time>2026-04-11T15:23:44.537Z</time></trkpt><trkpt lat="45.9739664" lon="11.8440008"><ele>460.00000000000006</ele><time>2026-04-11T15:23:47.537Z</time></trkpt><trkpt lat="45.9739648" lon="11.8441239"><ele>460.0</ele><time>2026-04-11T15:23:51.536Z</time></trkpt><trkpt lat="45.9739867" lon="11.8442445"><ele>460.50000000000006</ele><time>2026-04-11T15:23:54.538Z</time></trkpt><trkpt lat="45.9740063" lon="11.8443326"><ele>461.0</ele><time>2026-04-11T15:23:56.537Z</time></trkpt><trkpt lat="45.9740527" lon="11.8444295"><ele>461.5</ele><time>2026-04-11T15:23:59.535Z</time></trkpt><trkpt lat="45.9741317" lon="11.8444653"><ele>462.0</ele><time>2026-04-11T15:24:02.536Z</time></trkpt><trkpt lat="45.9742159" lon="11.8444519"><ele>462.50000000000006</ele><time>2026-04-11T15:24:05.535Z</time></trkpt><trkpt lat="45.9742834" lon="11.8444218"><ele>463.0</ele><time>2026-04-11T15:24:08.537Z</time></trkpt><trkpt lat="45.9743498" lon="11.8443394"><ele>457.83333333333337</ele><time>2026-04-11T15:24:11.538Z</time></trkpt><trkpt lat="45.9743973" lon="11.8442522"><ele>452.6666666666667</ele><time>2026-04-11T15:24:14.537Z</time></trkpt><trkpt lat="45.9744778" lon="11.8442368"><ele>447.5</ele><time>2026-04-11T15:24:17.537Z</time></trkpt><trkpt lat="45.9745379" lon="11.8442645"><ele>442.33333333333337</ele><time>2026-04-11T15:24:19.537Z</time></trkpt><trkpt lat="45.974618" lon="11.8443016"><ele>437.1666666666667</ele><time>2026-04-11T15:24:22.535Z</time></trkpt><trkpt lat="45.9746677" lon="11.8443875"><ele>432.0</ele><time>2026-04-11T15:24:25.538Z</time></trkpt><trkpt lat="45.9747014" lon="11.8444953"><ele>432.0</ele><time>2026-04-11T15:24:28.536Z</time></trkpt><trkpt lat="45.9747651" lon="11.8445865"><ele>432.0</ele><time>2026-04-11T15:24:31.537Z</time></trkpt><trkpt lat="45.9748339" lon="11.8446711"><ele>432.0</ele><time>2026-04-11T15:24:34.537Z</time></trkpt><trkpt lat="45.9748687" lon="11.8447568"><ele>432.0</ele><time>2026-04-11T15:24:36.536Z</time></trkpt><trkpt lat="45.9748756" lon="11.8448615"><ele>432.0</ele><time>2026-04-11T15:24:38.537Z</time></trkpt><trkpt lat="45.9748726" lon="11.8449556"><ele>432.0</ele><time>2026-04-11T15:24:40.537Z</time></trkpt><trkpt lat="45.9748604" lon="11.8450452"><ele>432.0</ele><time>2026-04-11T15:24:42.536Z</time></trkpt><trkpt lat="45.9748629" lon="11.8451769"><ele>432.0</ele><time>2026-04-11T15:24:45.538Z</time></trkpt><trkpt lat="45.9748556" lon="11.8453002"><ele>432.0</ele><time>2026-04-11T15:24:48.537Z</time></trkpt><trkpt lat="45.9748627" lon="11.8454032"><ele>432.0</ele><time>2026-04-11T15:24:50.537Z</time></trkpt><trkpt lat="45.9748768" lon="11.845513"><ele>432.0</ele><time>2026-04-11T15:24:52.537Z</time></trkpt><trkpt lat="45.9748872" lon="11.8456241"><ele>432.0</ele><time>2026-04-11T15:24:54.537Z</time></trkpt><trkpt lat="45.9748774" lon="11.8457159"><ele>432.0</ele><time>2026-04-11T15:24:56.537Z</time></trkpt><trkpt lat="45.9748309" lon="11.84583"><ele>432.0</ele><time>2026-04-11T15:24:59.537Z</time></trkpt><trkpt lat="45.9748019" lon="11.8459114"><ele>432.0</ele><time>2026-04-11T15:25:01.538Z</time></trkpt><trkpt lat="45.9748306" lon="11.846043"><ele>432.0</ele><time>2026-04-11T15:25:04.537Z</time></trkpt><trkpt lat="45.974855" lon="11.8461299"><ele>432.0</ele><time>2026-04-11T15:25:06.537Z</time></trkpt><trkpt lat="45.9749015" lon="11.846204"><ele>432.0</ele><time>2026-04-11T15:25:08.536Z</time></trkpt><trkpt lat="45.9749717" lon="11.8462897"><ele>430.0</ele><time>2026-04-11T15:25:11.537Z</time></trkpt><trkpt lat="45.9750215" lon="11.8463914"><ele>428.0</ele><time>2026-04-11T15:25:14.537Z</time></trkpt><trkpt lat="45.9750513" lon="11.8464984"><ele>426.0</ele><time>2026-04-11T15:25:17.536Z</time></trkpt><trkpt lat="45.9750688" lon="11.8466098"><ele>424.0</ele><time>2026-04-11T15:25:20.537Z</time></trkpt><trkpt lat="45.9751177" lon="11.8467017"><ele>422.0</ele><time>2026-04-11T15:25:23.536Z</time></trkpt><trkpt lat="45.9751631" lon="11.8467668"><ele>420.0</ele><time>2026-04-11T15:25:25.536Z</time></trkpt><trkpt lat="45.9752207" lon="11.8468389"><ele>420.0</ele><time>2026-04-11T15:25:27.535Z</time></trkpt><trkpt lat="45.9752856" lon="11.8469101"><ele>420.0</ele><time>2026-04-11T15:25:29.537Z</time></trkpt><trkpt lat="45.9753642" lon="11.8469531"><ele>420.0</ele><time>2026-04-11T15:25:31.536Z</time></trkpt><trkpt lat="45.9754577" lon="11.8469972"><ele>420.0</ele><time>2026-04-11T15:25:33.538Z</time></trkpt><trkpt lat="45.9755501" lon="11.8470732"><ele>420.0</ele><time>2026-04-11T15:25:35.538Z</time></trkpt><trkpt lat="45.9756214" lon="11.8471653"><ele>420.0</ele><time>2026-04-11T15:25:37.537Z</time></trkpt><trkpt lat="45.9756821" lon="11.8472378"><ele>420.0</ele><time>2026-04-11T15:25:39.538Z</time></trkpt><trkpt lat="45.9757312" lon="11.8472973"><ele>420.0</ele><time>2026-04-11T15:25:41.537Z</time></trkpt><trkpt lat="45.9757912" lon="11.8473631"><ele>420.0</ele><time>2026-04-11T15:25:44.539Z</time></trkpt><trkpt lat="45.9758446" lon="11.8474395"><ele>420.0</ele><time>2026-04-11T15:25:47.537Z</time></trkpt><trkpt lat="45.9759119" lon="11.8475131"><ele>420.0</ele><time>2026-04-11T15:25:50.536Z</time></trkpt><trkpt lat="45.9759614" lon="11.8476041"><ele>422.6666666666667</ele><time>2026-04-11T15:25:53.538Z</time></trkpt><trkpt lat="45.9759903" lon="11.8477083"><ele>425.33333333333337</ele><time>2026-04-11T15:25:56.539Z</time></trkpt><trkpt lat="45.9760192" lon="11.8478192"><ele>428.0</ele><time>2026-04-11T15:25:59.537Z</time></trkpt><trkpt lat="45.9760551" lon="11.8479279"><ele>430.6666666666667</ele><time>2026-04-11T15:26:02.538Z</time></trkpt><trkpt lat="45.9760916" lon="11.8480351"><ele>433.33333333333337</ele><time>2026-04-11T15:26:05.536Z</time></trkpt><trkpt lat="45.9761293" lon="11.8481467"><ele>436.0</ele><time>2026-04-11T15:26:08.537Z</time></trkpt><trkpt lat="45.9761554" lon="11.8482622"><ele>436.00000000000006</ele><time>2026-04-11T15:26:11.537Z</time></trkpt><trkpt lat="45.9761723" lon="11.8483844"><ele>436.0</ele><time>2026-04-11T15:26:14.536Z</time></trkpt><trkpt lat="45.9761561" lon="11.8485055"><ele>436.0</ele><time>2026-04-11T15:26:17.537Z</time></trkpt><trkpt lat="45.9761356" lon="11.8486048"><ele>436.0</ele><time>2026-04-11T15:26:19.537Z</time></trkpt><trkpt lat="45.9761145" lon="11.848707"><ele>436.00000000000006</ele><time>2026-04-11T15:26:21.535Z</time></trkpt><trkpt lat="45.9760908" lon="11.8488021"><ele>436.0</ele><time>2026-04-11T15:26:23.534Z</time></trkpt><trkpt lat="45.9760688" lon="11.848898"><ele>435.14285714285717</ele><time>2026-04-11T15:26:25.537Z</time></trkpt><trkpt lat="45.9760423" lon="11.8489928"><ele>434.28571428571433</ele><time>2026-04-11T15:26:27.538Z</time></trkpt><trkpt lat="45.9760074" lon="11.8490818"><ele>433.42857142857144</ele><time>2026-04-11T15:26:29.536Z</time></trkpt><trkpt lat="45.9759688" lon="11.8491739"><ele>432.57142857142856</ele><time>2026-04-11T15:26:31.537Z</time></trkpt><trkpt lat="45.9759255" lon="11.8492618"><ele>431.7142857142857</ele><time>2026-04-11T15:26:33.537Z</time></trkpt><trkpt lat="45.9758765" lon="11.8493398"><ele>430.85714285714283</ele><time>2026-04-11T15:26:35.537Z</time></trkpt><trkpt lat="45.9758299" lon="11.8494112"><ele>430.0</ele><time>2026-04-11T15:26:37.535Z</time></trkpt><trkpt lat="45.9757838" lon="11.8494893"><ele>430.00000000000006</ele><time>2026-04-11T15:26:39.537Z</time></trkpt><trkpt lat="45.9757359" lon="11.8495689"><ele>430.0</ele><time>2026-04-11T15:26:41.537Z</time></trkpt><trkpt lat="45.9757055" lon="11.849654"><ele>430.0</ele><time>2026-04-11T15:26:43.537Z</time></trkpt><trkpt lat="45.975684" lon="11.8497454"><ele>430.0</ele><time>2026-04-11T15:26:45.534Z</time></trkpt><trkpt lat="45.9756464" lon="11.8498283"><ele>430.00000000000006</ele><time>2026-04-11T15:26:47.538Z</time></trkpt><trkpt lat="45.9756129" lon="11.8499461"><ele>430.0</ele><time>2026-04-11T15:26:50.537Z</time></trkpt><trkpt lat="45.9756061" lon="11.8500723"><ele>432.1428571428571</ele><time>2026-04-11T15:26:53.537Z</time></trkpt><trkpt lat="45.9756559" lon="11.8501638"><ele>434.28571428571433</ele><time>2026-04-11T15:26:56.537Z</time></trkpt><trkpt lat="45.9757125" lon="11.8502073"><ele>436.42857142857144</ele><time>2026-04-11T15:26:58.537Z</time></trkpt><trkpt lat="45.9757621" lon="11.8502665"><ele>438.57142857142856</ele><time>2026-04-11T15:27:00.537Z</time></trkpt><trkpt lat="45.9758263" lon="11.8503388"><ele>440.71428571428567</ele><time>2026-04-11T15:27:03.535Z</time></trkpt><trkpt lat="45.9759106" lon="11.8503333"><ele>442.8571428571429</ele><time>2026-04-11T15:27:06.536Z</time></trkpt><trkpt lat="45.9759821" lon="11.8503115"><ele>445.0</ele><time>2026-04-11T15:27:09.537Z</time></trkpt><trkpt lat="45.9760514" lon="11.8503298"><ele>445.0</ele><time>2026-04-11T15:27:12.537Z</time></trkpt><trkpt lat="45.9760958" lon="11.8504201"><ele>445.0</ele><time>2026-04-11T15:27:15.535Z</time></trkpt><trkpt lat="45.9761002" lon="11.8505267"><ele>445.0</ele><time>2026-04-11T15:27:18.537Z</time></trkpt><trkpt lat="45.9760604" lon="11.8506076"><ele>445.0</ele><time>2026-04-11T15:27:21.535Z</time></trkpt><trkpt lat="45.9759997" lon="11.8506621"><ele>445.0</ele><time>2026-04-11T15:27:24.536Z</time></trkpt><trkpt lat="45.9759365" lon="11.8507098"><ele>445.0</ele><time>2026-04-11T15:27:27.536Z</time></trkpt><trkpt lat="45.9758715" lon="11.8507891"><ele>445.0</ele><time>2026-04-11T15:27:30.537Z</time></trkpt><trkpt lat="45.9758149" lon="11.850878"><ele>450.50000000000006</ele><time>2026-04-11T15:27:33.535Z</time></trkpt><trkpt lat="45.9757497" lon="11.8509667"><ele>456.0</ele><time>2026-04-11T15:27:36.536Z</time></trkpt><trkpt lat="45.9756745" lon="11.8510408"><ele>461.5</ele><time>2026-04-11T15:27:39.535Z</time></trkpt><trkpt lat="45.9756162" lon="11.8510844"><ele>467.0</ele><time>2026-04-11T15:27:41.537Z</time></trkpt><trkpt lat="45.9755311" lon="11.8511439"><ele>472.50000000000006</ele><time>2026-04-11T15:27:44.537Z</time></trkpt><trkpt lat="45.9754575" lon="11.8512167"><ele>478.0</ele><time>2026-04-11T15:27:47.537Z</time></trkpt><trkpt lat="45.9754121" lon="11.8512831"><ele>478.00000000000006</ele><time>2026-04-11T15:27:49.537Z</time></trkpt><trkpt lat="45.975349" lon="11.8513717"><ele>478.0</ele><time>2026-04-11T15:27:52.537Z</time></trkpt><trkpt lat="45.9752837" lon="11.8514524"><ele>478.0</ele><time>2026-04-11T15:27:55.537Z</time></trkpt><trkpt lat="45.975224" lon="11.8515398"><ele>478.0</ele><time>2026-04-11T15:27:58.534Z</time></trkpt><trkpt lat="45.975152" lon="11.851594"><ele>478.00000000000006</ele><time>2026-04-11T15:28:01.537Z</time></trkpt><trkpt lat="45.9750887" lon="11.8516341"><ele>478.0</ele><time>2026-04-11T15:28:04.537Z</time></trkpt><trkpt lat="45.9750052" lon="11.8516548"><ele>478.00000000000006</ele><time>2026-04-11T15:28:08.535Z</time></trkpt><trkpt lat="45.9749402" lon="11.8516878"><ele>478.0</ele><time>2026-04-11T15:28:11.535Z</time></trkpt><trkpt lat="45.9748904" lon="11.8517463"><ele>478.0</ele><time>2026-04-11T15:28:14.537Z</time></trkpt><trkpt lat="45.9748531" lon="11.8518324"><ele>478.0</ele><time>2026-04-11T15:28:18.537Z</time></trkpt><trkpt lat="45.9749164" lon="11.8518081"><ele>478.00000000000006</ele><time>2026-04-11T15:28:24.537Z</time></trkpt><trkpt lat="45.9750016" lon="11.8517701"><ele>478.0</ele><time>2026-04-11T15:28:28.537Z</time></trkpt><trkpt lat="45.9750966" lon="11.8517707"><ele>478.00000000000006</ele><time>2026-04-11T15:28:31.537Z</time></trkpt><trkpt lat="45.9751633" lon="11.8517583"><ele>478.0</ele><time>2026-04-11T15:28:33.537Z</time></trkpt><trkpt lat="45.9752424" lon="11.8517384"><ele>478.0</ele><time>2026-04-11T15:28:36.537Z</time></trkpt><trkpt lat="45.9753181" lon="11.8517439"><ele>478.0</ele><time>2026-04-11T15:28:39.536Z</time></trkpt><trkpt lat="45.9753808" lon="11.8517572"><ele>478.00000000000006</ele><time>2026-04-11T15:28:41.537Z</time></trkpt><trkpt lat="45.9754678" lon="11.8517619"><ele>478.0</ele><time>2026-04-11T15:28:44.536Z</time></trkpt><trkpt lat="45.9755561" lon="11.8517625"><ele>478.00000000000006</ele><time>2026-04-11T15:28:47.537Z</time></trkpt><trkpt lat="45.9756135" lon="11.8517233"><ele>478.0</ele><time>2026-04-11T15:28:49.537Z</time></trkpt><trkpt lat="45.9756816" lon="11.8516702"><ele>478.00000000000006</ele><time>2026-04-11T15:28:51.537Z</time></trkpt><trkpt lat="45.9757446" lon="11.8516027"><ele>478.00000000000006</ele><time>2026-04-11T15:28:53.535Z</time></trkpt><trkpt lat="45.9758009" lon="11.8515321"><ele>478.0</ele><time>2026-04-11T15:28:55.537Z</time></trkpt><trkpt lat="45.9758636" lon="11.8514483"><ele>478.00000000000006</ele><time>2026-04-11T15:28:58.536Z</time></trkpt><trkpt lat="45.9759183" lon="11.8513919"><ele>478.00000000000006</ele><time>2026-04-11T15:29:00.535Z</time></trkpt><trkpt lat="45.9759769" lon="11.8513423"><ele>481.00000000000006</ele><time>2026-04-11T15:29:02.537Z</time></trkpt><trkpt lat="45.9760487" lon="11.8512994"><ele>484.0</ele><time>2026-04-11T15:29:05.534Z</time></trkpt><trkpt lat="45.9761433" lon="11.8513003"><ele>487.0</ele><time>2026-04-11T15:29:08.534Z</time></trkpt><trkpt lat="45.9762136" lon="11.8513324"><ele>490.0</ele><time>2026-04-11T15:29:10.534Z</time></trkpt><trkpt lat="45.9762732" lon="11.8513731"><ele>493.00000000000006</ele><time>2026-04-11T15:29:12.535Z</time></trkpt><trkpt lat="45.9763459" lon="11.8514281"><ele>496.0</ele><time>2026-04-11T15:29:15.537Z</time></trkpt><trkpt lat="45.9764086" lon="11.8514949"><ele>496.00000000000006</ele><time>2026-04-11T15:29:18.535Z</time></trkpt><trkpt lat="45.9764663" lon="11.8515779"><ele>496.0</ele><time>2026-04-11T15:29:21.537Z</time></trkpt><trkpt lat="45.9765147" lon="11.8516499"><ele>496.0</ele><time>2026-04-11T15:29:24.537Z</time></trkpt><trkpt lat="45.9766008" lon="11.8516595"><ele>496.0</ele><time>2026-04-11T15:29:27.536Z</time></trkpt><trkpt lat="45.9766647" lon="11.8516019"><ele>496.00000000000006</ele><time>2026-04-11T15:29:30.534Z</time></trkpt><trkpt lat="45.9767142" lon="11.8514995"><ele>496.0</ele><time>2026-04-11T15:29:33.537Z</time></trkpt><trkpt lat="45.9767284" lon="11.8513802"><ele>499.33333333333337</ele><time>2026-04-11T15:29:36.642Z</time></trkpt><trkpt lat="45.9767285" lon="11.8512591"><ele>502.6666666666667</ele><time>2026-04-11T15:29:39.537Z</time></trkpt><trkpt lat="45.9767329" lon="11.8511569"><ele>506.0</ele><time>2026-04-11T15:29:41.537Z</time></trkpt><trkpt lat="45.9767381" lon="11.8510463"><ele>509.33333333333337</ele><time>2026-04-11T15:29:44.538Z</time></trkpt><trkpt lat="45.9767894" lon="11.8509446"><ele>512.6666666666666</ele><time>2026-04-11T15:29:47.536Z</time></trkpt><trkpt lat="45.9768433" lon="11.8508633"><ele>516.0</ele><time>2026-04-11T15:29:50.538Z</time></trkpt><trkpt lat="45.9769191" lon="11.8507794"><ele>516.0</ele><time>2026-04-11T15:29:53.538Z</time></trkpt><trkpt lat="45.9769962" lon="11.8507191"><ele>516.0</ele><time>2026-04-11T15:29:55.538Z</time></trkpt><trkpt lat="45.9770712" lon="11.8506885"><ele>516.0</ele><time>2026-04-11T15:29:57.538Z</time></trkpt><trkpt lat="45.9771325" lon="11.8506537"><ele>516.0</ele><time>2026-04-11T15:29:59.537Z</time></trkpt><trkpt lat="45.9772184" lon="11.8506086"><ele>516.0</ele><time>2026-04-11T15:30:02.538Z</time></trkpt><trkpt lat="45.9772722" lon="11.8505315"><ele>516.0</ele><time>2026-04-11T15:30:05.539Z</time></trkpt><trkpt lat="45.9772668" lon="11.8503997"><ele>516.0</ele><time>2026-04-11T15:30:08.538Z</time></trkpt><trkpt lat="45.977262" lon="11.8502746"><ele>516.0</ele><time>2026-04-11T15:30:11.537Z</time></trkpt><trkpt lat="45.9772541" lon="11.8501588"><ele>516.0</ele><time>2026-04-11T15:30:14.538Z</time></trkpt><trkpt lat="45.9772867" lon="11.8500668"><ele>516.0</ele><time>2026-04-11T15:30:17.537Z</time></trkpt><trkpt lat="45.9773457" lon="11.8500079"><ele>516.0</ele><time>2026-04-11T15:30:20.535Z</time></trkpt><trkpt lat="45.9773842" lon="11.8499318"><ele>516.0</ele><time>2026-04-11T15:30:23.539Z</time></trkpt><trkpt lat="45.9773757" lon="11.8498276"><ele>513.3333333333334</ele><time>2026-04-11T15:30:26.537Z</time></trkpt><trkpt lat="45.9773721" lon="11.8497101"><ele>510.66666666666663</ele><time>2026-04-11T15:30:29.538Z</time></trkpt><trkpt lat="45.9773935" lon="11.8495927"><ele>508.0</ele><time>2026-04-11T15:30:32.537Z</time></trkpt><trkpt lat="45.9774072" lon="11.8494876"><ele>505.3333333333333</ele><time>2026-04-11T15:30:35.538Z</time></trkpt><trkpt lat="45.9773775" lon="11.8493686"><ele>502.66666666666663</ele><time>2026-04-11T15:30:38.538Z</time></trkpt><trkpt lat="45.9773376" lon="11.8492584"><ele>500.0</ele><time>2026-04-11T15:30:41.538Z</time></trkpt><trkpt lat="45.9773503" lon="11.8491597"><ele>498.8333333333333</ele><time>2026-04-11T15:30:43.538Z</time></trkpt><trkpt lat="45.9773833" lon="11.8490721"><ele>497.66666666666663</ele><time>2026-04-11T15:30:45.536Z</time></trkpt><trkpt lat="45.9774247" lon="11.8490037"><ele>496.5</ele><time>2026-04-11T15:30:47.538Z</time></trkpt><trkpt lat="45.9774895" lon="11.848924"><ele>495.33333333333337</ele><time>2026-04-11T15:30:50.538Z</time></trkpt><trkpt lat="45.9775496" lon="11.8488781"><ele>494.1666666666667</ele><time>2026-04-11T15:30:53.538Z</time></trkpt><trkpt lat="45.9776307" lon="11.8488008"><ele>493.0</ele><time>2026-04-11T15:30:56.537Z</time></trkpt><trkpt lat="45.9776804" lon="11.8486961"><ele>495.6666666666667</ele><time>2026-04-11T15:30:59.536Z</time></trkpt><trkpt lat="45.9777138" lon="11.848581"><ele>498.33333333333337</ele><time>2026-04-11T15:31:02.538Z</time></trkpt><trkpt lat="45.9777174" lon="11.8484711"><ele>501.0</ele><time>2026-04-11T15:31:05.537Z</time></trkpt><trkpt lat="45.9777132" lon="11.8483721"><ele>503.66666666666663</ele><time>2026-04-11T15:31:08.538Z</time></trkpt><trkpt lat="45.9777214" lon="11.848233"><ele>506.3333333333333</ele><time>2026-04-11T15:32:14.535Z</time></trkpt><trkpt lat="45.9777874" lon="11.8482408"><ele>509.0</ele><time>2026-04-11T15:32:18.537Z</time></trkpt><trkpt lat="45.9778621" lon="11.8481748"><ele>509.0</ele><time>2026-04-11T15:32:21.538Z</time></trkpt><trkpt lat="45.9779316" lon="11.8481377"><ele>509.0</ele><time>2026-04-11T15:32:23.537Z</time></trkpt><trkpt lat="45.9780002" lon="11.8480943"><ele>509.0</ele><time>2026-04-11T15:32:25.535Z</time></trkpt><trkpt lat="45.9780886" lon="11.8480371"><ele>509.0</ele><time>2026-04-11T15:32:27.536Z</time></trkpt><trkpt lat="45.9781874" lon="11.8479714"><ele>509.0</ele><time>2026-04-11T15:32:29.537Z</time></trkpt><trkpt lat="45.9783014" lon="11.8478928"><ele>509.8333333333333</ele><time>2026-04-11T15:32:31.537Z</time></trkpt><trkpt lat="45.9783605" lon="11.847854"><ele>510.66666666666663</ele><time>2026-04-11T15:32:32.537Z</time></trkpt><trkpt lat="45.9784201" lon="11.8478183"><ele>511.5</ele><time>2026-04-11T15:32:33.538Z</time></trkpt><trkpt lat="45.9785356" lon="11.847757"><ele>512.3333333333334</ele><time>2026-04-11T15:32:35.538Z</time></trkpt><trkpt lat="45.9786506" lon="11.8476745"><ele>513.1666666666667</ele><time>2026-04-11T15:32:37.539Z</time></trkpt><trkpt lat="45.9787061" lon="11.8476253"><ele>514.0</ele><time>2026-04-11T15:32:38.537Z</time></trkpt><trkpt lat="45.9787543" lon="11.8475649"><ele>510.25</ele><time>2026-04-11T15:32:39.537Z</time></trkpt><trkpt lat="45.9788327" lon="11.8474347"><ele>506.5</ele><time>2026-04-11T15:32:41.536Z</time></trkpt><trkpt lat="45.9789169" lon="11.8473171"><ele>502.75</ele><time>2026-04-11T15:32:43.538Z</time></trkpt><trkpt lat="45.9790055" lon="11.847191"><ele>499.0</ele><time>2026-04-11T15:32:45.537Z</time></trkpt><trkpt lat="45.9790766" lon="11.8470442"><ele>499.00000000000006</ele><time>2026-04-11T15:32:47.536Z</time></trkpt><trkpt lat="45.979157" lon="11.8469071"><ele>499.0</ele><time>2026-04-11T15:32:49.537Z</time></trkpt><trkpt lat="45.97925" lon="11.846797"><ele>499.0</ele><time>2026-04-11T15:32:51.537Z</time></trkpt><trkpt lat="45.9792993" lon="11.8467347"><ele>499.0</ele><time>2026-04-11T15:32:52.536Z</time></trkpt><trkpt lat="45.9793531" lon="11.8466738"><ele>499.00000000000006</ele><time>2026-04-11T15:32:53.537Z</time></trkpt><trkpt lat="45.9794062" lon="11.8466123"><ele>499.0</ele><time>2026-04-11T15:32:54.537Z</time></trkpt><trkpt lat="45.9794557" lon="11.8465484"><ele>495.79999999999995</ele><time>2026-04-11T15:32:55.538Z</time></trkpt><trkpt lat="45.9794945" lon="11.8464681"><ele>492.59999999999997</ele><time>2026-04-11T15:32:56.537Z</time></trkpt><trkpt lat="45.9795451" lon="11.8463232"><ele>489.4</ele><time>2026-04-11T15:32:58.537Z</time></trkpt><trkpt lat="45.9795983" lon="11.8462256"><ele>486.2</ele><time>2026-04-11T15:33:00.538Z</time></trkpt><trkpt lat="45.9796691" lon="11.8462034"><ele>483.0</ele><time>2026-04-11T15:33:02.538Z</time></trkpt><trkpt lat="45.9797865" lon="11.8462433"><ele>483.0</ele><time>2026-04-11T15:33:04.537Z</time></trkpt><trkpt lat="45.9798546" lon="11.8462825"><ele>483.0</ele><time>2026-04-11T15:33:05.537Z</time></trkpt><trkpt lat="45.9799246" lon="11.8463214"><ele>483.0</ele><time>2026-04-11T15:33:06.537Z</time></trkpt><trkpt lat="45.9799992" lon="11.8463577"><ele>483.0</ele><time>2026-04-11T15:33:07.537Z</time></trkpt><trkpt lat="45.9800648" lon="11.8463866"><ele>483.0</ele><time>2026-04-11T15:33:08.536Z</time></trkpt><trkpt lat="45.9801292" lon="11.8464176"><ele>483.0</ele><time>2026-04-11T15:33:09.536Z</time></trkpt><trkpt lat="45.9801981" lon="11.8464469"><ele>483.0</ele><time>2026-04-11T15:33:10.536Z</time></trkpt><trkpt lat="45.9802686" lon="11.8464747"><ele>480.8333333333333</ele><time>2026-04-11T15:33:11.536Z</time></trkpt><trkpt lat="45.9803451" lon="11.8464997"><ele>478.66666666666663</ele><time>2026-04-11T15:33:12.536Z</time></trkpt><trkpt lat="45.9804278" lon="11.8465197"><ele>476.5</ele><time>2026-04-11T15:33:13.537Z</time></trkpt><trkpt lat="45.9805041" lon="11.8465386"><ele>474.3333333333333</ele><time>2026-04-11T15:33:14.538Z</time></trkpt><trkpt lat="45.9805742" lon="11.846554"><ele>472.16666666666663</ele><time>2026-04-11T15:33:15.537Z</time></trkpt><trkpt lat="45.9806441" lon="11.846559"><ele>470.0</ele><time>2026-04-11T15:33:16.537Z</time></trkpt><trkpt lat="45.9807216" lon="11.8465543"><ele>469.99999999999994</ele><time>2026-04-11T15:33:17.536Z</time></trkpt><trkpt lat="45.9807989" lon="11.8465476"><ele>470.0</ele><time>2026-04-11T15:33:18.536Z</time></trkpt><trkpt lat="45.9808721" lon="11.8465404"><ele>470.0</ele><time>2026-04-11T15:33:19.538Z</time></trkpt><trkpt lat="45.9809502" lon="11.8465378"><ele>470.0</ele><time>2026-04-11T15:33:20.538Z</time></trkpt><trkpt lat="45.9810335" lon="11.8465412"><ele>469.99999999999994</ele><time>2026-04-11T15:33:21.537Z</time></trkpt><trkpt lat="45.9811127" lon="11.8465504"><ele>470.0</ele><time>2026-04-11T15:33:22.538Z</time></trkpt><trkpt lat="45.9811882" lon="11.8465541"><ele>468.85714285714283</ele><time>2026-04-11T15:33:23.535Z</time></trkpt><trkpt lat="45.9812623" lon="11.8465612"><ele>467.71428571428567</ele><time>2026-04-11T15:33:24.536Z</time></trkpt><trkpt lat="45.9813342" lon="11.8465765"><ele>466.57142857142856</ele><time>2026-04-11T15:33:25.537Z</time></trkpt><trkpt lat="45.9814028" lon="11.8465986"><ele>465.42857142857144</ele><time>2026-04-11T15:33:26.536Z</time></trkpt><trkpt lat="45.9814724" lon="11.8466322"><ele>464.2857142857143</ele><time>2026-04-11T15:33:27.536Z</time></trkpt><trkpt lat="45.9815358" lon="11.8466724"><ele>463.1428571428571</ele><time>2026-04-11T15:33:28.536Z</time></trkpt><trkpt lat="45.9815982" lon="11.8467163"><ele>462.0</ele><time>2026-04-11T15:33:29.538Z</time></trkpt><trkpt lat="45.9816998" lon="11.8468231"><ele>462.0</ele><time>2026-04-11T15:33:31.537Z</time></trkpt><trkpt lat="45.9817903" lon="11.8469151"><ele>462.00000000000006</ele><time>2026-04-11T15:33:33.538Z</time></trkpt><trkpt lat="45.9818794" lon="11.8469177"><ele>462.00000000000006</ele><time>2026-04-11T15:33:35.538Z</time></trkpt><trkpt lat="45.9819813" lon="11.8468215"><ele>462.0</ele><time>2026-04-11T15:33:37.538Z</time></trkpt><trkpt lat="45.982036" lon="11.8467654"><ele>462.0</ele><time>2026-04-11T15:33:38.538Z</time></trkpt><trkpt lat="45.9820953" lon="11.8467157"><ele>459.8333333333333</ele><time>2026-04-11T15:33:39.537Z</time></trkpt><trkpt lat="45.9821621" lon="11.8466795"><ele>457.66666666666663</ele><time>2026-04-11T15:33:40.536Z</time></trkpt><trkpt lat="45.9822389" lon="11.8466484"><ele>455.5</ele><time>2026-04-11T15:33:41.537Z</time></trkpt><trkpt lat="45.982321" lon="11.8466341"><ele>453.3333333333333</ele><time>2026-04-11T15:33:42.536Z</time></trkpt><trkpt lat="45.982407" lon="11.8466384"><ele>451.16666666666663</ele><time>2026-04-11T15:33:43.537Z</time></trkpt><trkpt lat="45.9824969" lon="11.8466487"><ele>449.0</ele><time>2026-04-11T15:33:44.538Z</time></trkpt><trkpt lat="45.9825851" lon="11.8466615"><ele>446.99999999999994</ele><time>2026-04-11T15:33:45.537Z</time></trkpt><trkpt lat="45.9826662" lon="11.8466743"><ele>445.0</ele><time>2026-04-11T15:33:46.538Z</time></trkpt><trkpt lat="45.9827331" lon="11.8466897"><ele>443.0</ele><time>2026-04-11T15:33:47.537Z</time></trkpt><trkpt lat="45.9828477" lon="11.84672"><ele>441.0</ele><time>2026-04-11T15:33:49.536Z</time></trkpt><trkpt lat="45.9829134" lon="11.8467367"><ele>438.99999999999994</ele><time>2026-04-11T15:33:50.536Z</time></trkpt><trkpt lat="45.982981" lon="11.8467604"><ele>437.0</ele><time>2026-04-11T15:33:51.538Z</time></trkpt><trkpt lat="45.9830464" lon="11.8467867"><ele>437.0</ele><time>2026-04-11T15:33:52.537Z</time></trkpt><trkpt lat="45.9831648" lon="11.8468036"><ele>437.0</ele><time>2026-04-11T15:33:54.537Z</time></trkpt><trkpt lat="45.9832783" lon="11.8467481"><ele>437.0</ele><time>2026-04-11T15:33:56.537Z</time></trkpt><trkpt lat="45.9833866" lon="11.8466839"><ele>437.0</ele><time>2026-04-11T15:33:58.538Z</time></trkpt><trkpt lat="45.9834979" lon="11.8466508"><ele>433.85714285714283</ele><time>2026-04-11T15:34:00.537Z</time></trkpt><trkpt lat="45.9835613" lon="11.8466507"><ele>430.7142857142857</ele><time>2026-04-11T15:34:01.538Z</time></trkpt><trkpt lat="45.9836305" lon="11.8466579"><ele>427.57142857142856</ele><time>2026-04-11T15:34:02.538Z</time></trkpt><trkpt lat="45.9837004" lon="11.846667"><ele>424.42857142857144</ele><time>2026-04-11T15:34:03.536Z</time></trkpt><trkpt lat="45.9837712" lon="11.8466837"><ele>421.28571428571433</ele><time>2026-04-11T15:34:04.537Z</time></trkpt><trkpt lat="45.9838447" lon="11.8467066"><ele>418.14285714285717</ele><time>2026-04-11T15:34:05.538Z</time></trkpt><trkpt lat="45.9839218" lon="11.8467401"><ele>415.0</ele><time>2026-04-11T15:34:06.537Z</time></trkpt><trkpt lat="45.9839998" lon="11.8467829"><ele>414.6666666666667</ele><time>2026-04-11T15:34:07.537Z</time></trkpt><trkpt lat="45.9840752" lon="11.8468259"><ele>414.33333333333337</ele><time>2026-04-11T15:34:08.535Z</time></trkpt><trkpt lat="45.9841482" lon="11.8468685"><ele>414.0</ele><time>2026-04-11T15:34:09.537Z</time></trkpt><trkpt lat="45.9842173" lon="11.8468996"><ele>413.66666666666663</ele><time>2026-04-11T15:34:10.537Z</time></trkpt><trkpt lat="45.9842791" lon="11.8469267"><ele>413.3333333333333</ele><time>2026-04-11T15:34:11.537Z</time></trkpt><trkpt lat="45.9844" lon="11.8469386"><ele>413.0</ele><time>2026-04-11T15:34:13.538Z</time></trkpt><trkpt lat="45.9844662" lon="11.8469271"><ele>413.0</ele><time>2026-04-11T15:34:14.538Z</time></trkpt><trkpt lat="45.9845302" lon="11.8469172"><ele>413.0</ele><time>2026-04-11T15:34:15.537Z</time></trkpt><trkpt lat="45.9846482" lon="11.8469176"><ele>413.0</ele><time>2026-04-11T15:34:17.535Z</time></trkpt><trkpt lat="45.9847403" lon="11.84697"><ele>413.0</ele><time>2026-04-11T15:34:19.538Z</time></trkpt><trkpt lat="45.9848244" lon="11.8470561"><ele>413.0</ele><time>2026-04-11T15:34:21.535Z</time></trkpt><trkpt lat="45.9849348" lon="11.8470783"><ele>412.4</ele><time>2026-04-11T15:34:23.536Z</time></trkpt><trkpt lat="45.9850154" lon="11.8469868"><ele>411.79999999999995</ele><time>2026-04-11T15:34:25.538Z</time></trkpt><trkpt lat="45.9850576" lon="11.8468658"><ele>411.2</ele><time>2026-04-11T15:34:27.538Z</time></trkpt><trkpt lat="45.9851145" lon="11.8467312"><ele>410.6</ele><time>2026-04-11T15:34:29.537Z</time></trkpt><trkpt lat="45.9851921" lon="11.8466029"><ele>410.0</ele><time>2026-04-11T15:34:31.537Z</time></trkpt><trkpt lat="45.9852341" lon="11.8465316"><ele>408.6</ele><time>2026-04-11T15:34:32.537Z</time></trkpt><trkpt lat="45.9852746" lon="11.8464586"><ele>407.2</ele><time>2026-04-11T15:34:33.536Z</time></trkpt><trkpt lat="45.9853449" lon="11.8463119"><ele>405.79999999999995</ele><time>2026-04-11T15:34:35.538Z</time></trkpt><trkpt lat="45.9853755" lon="11.8462327"><ele>404.4</ele><time>2026-04-11T15:34:36.536Z</time></trkpt><trkpt lat="45.9854297" lon="11.8460924"><ele>403.0</ele><time>2026-04-11T15:34:38.537Z</time></trkpt><trkpt lat="45.9854967" lon="11.8459605"><ele>402.2</ele><time>2026-04-11T15:34:40.538Z</time></trkpt><trkpt lat="45.9855864" lon="11.8458376"><ele>401.4</ele><time>2026-04-11T15:34:42.538Z</time></trkpt><trkpt lat="45.9856801" lon="11.8457507"><ele>400.59999999999997</ele><time>2026-04-11T15:34:44.537Z</time></trkpt><trkpt lat="45.9857639" lon="11.8456894"><ele>399.79999999999995</ele><time>2026-04-11T15:34:46.537Z</time></trkpt><trkpt lat="45.9858356" lon="11.8456607"><ele>399.0</ele><time>2026-04-11T15:34:48.535Z</time></trkpt><trkpt lat="45.9859177" lon="11.8456564"><ele>399.0</ele><time>2026-04-11T15:34:50.538Z</time></trkpt><trkpt lat="45.9859965" lon="11.8456408"><ele>399.0</ele><time>2026-04-11T15:34:52.537Z</time></trkpt><trkpt lat="45.9860871" lon="11.8456396"><ele>399.0</ele><time>2026-04-11T15:34:54.537Z</time></trkpt><trkpt lat="45.9861747" lon="11.8456424"><ele>399.0</ele><time>2026-04-11T15:34:56.537Z</time></trkpt><trkpt lat="45.9862599" lon="11.8456512"><ele>399.0</ele><time>2026-04-11T15:34:58.537Z</time></trkpt><trkpt lat="45.9863447" lon="11.8456631"><ele>399.0</ele><time>2026-04-11T15:35:00.536Z</time></trkpt><trkpt lat="45.9864342" lon="11.8456843"><ele>399.0</ele><time>2026-04-11T15:35:02.537Z</time></trkpt><trkpt lat="45.9865219" lon="11.8457162"><ele>399.0</ele><time>2026-04-11T15:35:04.536Z</time></trkpt><trkpt lat="45.9866054" lon="11.8457331"><ele>399.0</ele><time>2026-04-11T15:35:06.536Z</time></trkpt><trkpt lat="45.9866848" lon="11.8457428"><ele>399.0</ele><time>2026-04-11T15:35:08.536Z</time></trkpt><trkpt lat="45.9868071" lon="11.8457774"><ele>399.0</ele><time>2026-04-11T15:35:11.536Z</time></trkpt><trkpt lat="45.9868827" lon="11.8458191"><ele>398.6666666666667</ele><time>2026-04-11T15:35:13.538Z</time></trkpt><trkpt lat="45.9869558" lon="11.8458505"><ele>398.33333333333337</ele><time>2026-04-11T15:35:15.536Z</time></trkpt><trkpt lat="45.9870227" lon="11.8458623"><ele>398.0</ele><time>2026-04-11T15:35:17.537Z</time></trkpt><trkpt lat="45.9871036" lon="11.8458594"><ele>397.6666666666667</ele><time>2026-04-11T15:35:19.533Z</time></trkpt><trkpt lat="45.9872308" lon="11.8458383"><ele>397.33333333333337</ele><time>2026-04-11T15:35:22.534Z</time></trkpt><trkpt lat="45.98732" lon="11.8458056"><ele>397.0</ele><time>2026-04-11T15:35:24.535Z</time></trkpt><trkpt lat="45.9874016" lon="11.8457428"><ele>397.00000000000006</ele><time>2026-04-11T15:35:26.535Z</time></trkpt><trkpt lat="45.987477" lon="11.8456584"><ele>397.0</ele><time>2026-04-11T15:35:28.534Z</time></trkpt><trkpt lat="45.9875306" lon="11.8455945"><ele>397.0</ele><time>2026-04-11T15:35:29.533Z</time></trkpt><trkpt lat="45.9876102" lon="11.8455002"><ele>397.0</ele><time>2026-04-11T15:35:31.535Z</time></trkpt><trkpt lat="45.9876758" lon="11.8454171"><ele>397.00000000000006</ele><time>2026-04-11T15:35:33.533Z</time></trkpt><trkpt lat="45.9877382" lon="11.8453385"><ele>397.0</ele><time>2026-04-11T15:35:35.535Z</time></trkpt><trkpt lat="45.9878012" lon="11.8452624"><ele>396.0</ele><time>2026-04-11T15:35:37.535Z</time></trkpt><trkpt lat="45.9878649" lon="11.8451746"><ele>395.0</ele><time>2026-04-11T15:35:39.535Z</time></trkpt><trkpt lat="45.9879475" lon="11.8450877"><ele>394.0</ele><time>2026-04-11T15:35:41.538Z</time></trkpt><trkpt lat="45.9880394" lon="11.8449992"><ele>393.0</ele><time>2026-04-11T15:35:43.539Z</time></trkpt><trkpt lat="45.9881231" lon="11.8449"><ele>392.0</ele><time>2026-04-11T15:35:45.536Z</time></trkpt><trkpt lat="45.9881909" lon="11.8447715"><ele>391.8</ele><time>2026-04-11T15:35:47.536Z</time></trkpt><trkpt lat="45.9882451" lon="11.8446249"><ele>391.6</ele><time>2026-04-11T15:35:49.535Z</time></trkpt><trkpt lat="45.9882972" lon="11.8444796"><ele>391.40000000000003</ele><time>2026-04-11T15:35:51.536Z</time></trkpt><trkpt lat="45.9883378" lon="11.8443404"><ele>391.20000000000005</ele><time>2026-04-11T15:35:53.537Z</time></trkpt><trkpt lat="45.9883714" lon="11.8442004"><ele>391.0</ele><time>2026-04-11T15:35:55.537Z</time></trkpt><trkpt lat="45.9884182" lon="11.8440649"><ele>389.00000000000006</ele><time>2026-04-11T15:35:57.538Z</time></trkpt><trkpt lat="45.9884642" lon="11.8439708"><ele>387.0</ele><time>2026-04-11T15:35:59.538Z</time></trkpt><trkpt lat="45.9885201" lon="11.843918"><ele>385.0</ele><time>2026-04-11T15:36:01.537Z</time></trkpt><trkpt lat="45.988577" lon="11.84402"><ele>383.0</ele><time>2026-04-11T15:36:04.534Z</time></trkpt><trkpt lat="45.9885866" lon="11.8441412"><ele>381.0</ele><time>2026-04-11T15:36:06.535Z</time></trkpt><trkpt lat="45.9886023" lon="11.844285"><ele>379.0</ele><time>2026-04-11T15:36:08.537Z</time></trkpt><trkpt lat="45.9886297" lon="11.8444471"><ele>378.75</ele><time>2026-04-11T15:36:10.536Z</time></trkpt><trkpt lat="45.9886727" lon="11.8446055"><ele>378.5</ele><time>2026-04-11T15:36:12.536Z</time></trkpt><trkpt lat="45.988725" lon="11.844767"><ele>378.25</ele><time>2026-04-11T15:36:14.538Z</time></trkpt><trkpt lat="45.9887989" lon="11.8449033"><ele>378.0</ele><time>2026-04-11T15:36:16.535Z</time></trkpt><trkpt lat="45.9888832" lon="11.8449906"><ele>378.0</ele><time>2026-04-11T15:36:18.535Z</time></trkpt><trkpt lat="45.9889747" lon="11.8450038"><ele>378.0</ele><time>2026-04-11T15:36:20.537Z</time></trkpt><trkpt lat="45.9890597" lon="11.8449277"><ele>378.0</ele><time>2026-04-11T15:36:22.537Z</time></trkpt><trkpt lat="45.9891319" lon="11.8448034"><ele>378.0</ele><time>2026-04-11T15:36:24.537Z</time></trkpt><trkpt lat="45.9891836" lon="11.8446553"><ele>378.0</ele><time>2026-04-11T15:36:26.535Z</time></trkpt><trkpt lat="45.9892348" lon="11.844501"><ele>375.5</ele><time>2026-04-11T15:36:28.535Z</time></trkpt><trkpt lat="45.9892908" lon="11.8443403"><ele>373.0</ele><time>2026-04-11T15:36:30.534Z</time></trkpt><trkpt lat="45.9893208" lon="11.8442555"><ele>370.5</ele><time>2026-04-11T15:36:31.535Z</time></trkpt><trkpt lat="45.9893509" lon="11.844166"><ele>368.0</ele><time>2026-04-11T15:36:32.536Z</time></trkpt><trkpt lat="45.9893778" lon="11.844074"><ele>365.5</ele><time>2026-04-11T15:36:33.535Z</time></trkpt><trkpt lat="45.9894093" lon="11.8439794"><ele>363.0</ele><time>2026-04-11T15:36:34.536Z</time></trkpt><trkpt lat="45.989444" lon="11.8438833"><ele>363.0</ele><time>2026-04-11T15:36:35.537Z</time></trkpt><trkpt lat="45.9894765" lon="11.843786"><ele>363.0</ele><time>2026-04-11T15:36:36.538Z</time></trkpt><trkpt lat="45.9895065" lon="11.8436869"><ele>363.0</ele><time>2026-04-11T15:36:37.538Z</time></trkpt><trkpt lat="45.9895282" lon="11.8435848"><ele>363.0</ele><time>2026-04-11T15:36:38.538Z</time></trkpt><trkpt lat="45.9895469" lon="11.8434794"><ele>363.0</ele><time>2026-04-11T15:36:39.538Z</time></trkpt><trkpt lat="45.989562" lon="11.843372"><ele>363.0</ele><time>2026-04-11T15:36:40.537Z</time></trkpt><trkpt lat="45.9895713" lon="11.8432652"><ele>363.1428571428571</ele><time>2026-04-11T15:36:41.537Z</time></trkpt><trkpt lat="45.9895733" lon="11.8431622"><ele>363.2857142857143</ele><time>2026-04-11T15:36:42.537Z</time></trkpt><trkpt lat="45.989573" lon="11.843065"><ele>363.42857142857144</ele><time>2026-04-11T15:36:43.537Z</time></trkpt><trkpt lat="45.9895755" lon="11.8429695"><ele>363.57142857142856</ele><time>2026-04-11T15:36:44.537Z</time></trkpt><trkpt lat="45.9895834" lon="11.8428783"><ele>363.7142857142857</ele><time>2026-04-11T15:36:45.537Z</time></trkpt><trkpt lat="45.9895999" lon="11.8427888"><ele>363.85714285714283</ele><time>2026-04-11T15:36:46.536Z</time></trkpt><trkpt lat="45.9896206" lon="11.8427004"><ele>364.0</ele><time>2026-04-11T15:36:47.536Z</time></trkpt><trkpt lat="45.989645" lon="11.8426108"><ele>364.42857142857144</ele><time>2026-04-11T15:36:48.536Z</time></trkpt><trkpt lat="45.9896796" lon="11.842529"><ele>364.8571428571429</ele><time>2026-04-11T15:36:49.535Z</time></trkpt><trkpt lat="45.9897282" lon="11.8424581"><ele>365.2857142857143</ele><time>2026-04-11T15:36:50.537Z</time></trkpt><trkpt lat="45.9897805" lon="11.8423882"><ele>365.7142857142857</ele><time>2026-04-11T15:36:51.536Z</time></trkpt><trkpt lat="45.9898347" lon="11.8423204"><ele>366.14285714285717</ele><time>2026-04-11T15:36:52.535Z</time></trkpt><trkpt lat="45.9898909" lon="11.8422517"><ele>366.57142857142856</ele><time>2026-04-11T15:36:53.537Z</time></trkpt><trkpt lat="45.9899475" lon="11.8421784"><ele>367.0</ele><time>2026-04-11T15:36:54.537Z</time></trkpt><trkpt lat="45.9900063" lon="11.8421008"><ele>363.16666666666663</ele><time>2026-04-11T15:36:55.537Z</time></trkpt><trkpt lat="45.9900664" lon="11.8420211"><ele>359.3333333333333</ele><time>2026-04-11T15:36:56.537Z</time></trkpt><trkpt lat="45.9901281" lon="11.8419456"><ele>355.5</ele><time>2026-04-11T15:36:57.535Z</time></trkpt><trkpt lat="45.9901921" lon="11.8418677"><ele>351.6666666666667</ele><time>2026-04-11T15:36:58.536Z</time></trkpt><trkpt lat="45.990252" lon="11.8417849"><ele>347.83333333333337</ele><time>2026-04-11T15:36:59.535Z</time></trkpt><trkpt lat="45.990304" lon="11.8417005"><ele>344.0</ele><time>2026-04-11T15:37:00.534Z</time></trkpt><trkpt lat="45.9903449" lon="11.8416008"><ele>344.0</ele><time>2026-04-11T15:37:01.534Z</time></trkpt><trkpt lat="45.990374" lon="11.8414831"><ele>344.0</ele><time>2026-04-11T15:37:02.534Z</time></trkpt><trkpt lat="45.9903977" lon="11.8413593"><ele>344.0</ele><time>2026-04-11T15:37:03.534Z</time></trkpt><trkpt lat="45.9904187" lon="11.8412306"><ele>344.0</ele><time>2026-04-11T15:37:04.534Z</time></trkpt><trkpt lat="45.9904371" lon="11.8410974"><ele>344.0</ele><time>2026-04-11T15:37:05.537Z</time></trkpt><trkpt lat="45.9904558" lon="11.8409682"><ele>344.2</ele><time>2026-04-11T15:37:06.537Z</time></trkpt><trkpt lat="45.9904747" lon="11.8408343"><ele>344.4</ele><time>2026-04-11T15:37:07.535Z</time></trkpt><trkpt lat="45.990494" lon="11.8406984"><ele>344.6</ele><time>2026-04-11T15:37:08.536Z</time></trkpt><trkpt lat="45.9905148" lon="11.8405671"><ele>344.8</ele><time>2026-04-11T15:37:09.534Z</time></trkpt><trkpt lat="45.9905341" lon="11.8404327"><ele>345.0</ele><time>2026-04-11T15:37:10.537Z</time></trkpt><trkpt lat="45.9905537" lon="11.8403005"><ele>345.0</ele><time>2026-04-11T15:37:11.537Z</time></trkpt><trkpt lat="45.9905717" lon="11.8401637"><ele>345.0</ele><time>2026-04-11T15:37:12.537Z</time></trkpt><trkpt lat="45.9905889" lon="11.8400325"><ele>345.0</ele><time>2026-04-11T15:37:13.537Z</time></trkpt><trkpt lat="45.9906103" lon="11.8399066"><ele>345.0</ele><time>2026-04-11T15:37:14.537Z</time></trkpt><trkpt lat="45.9906396" lon="11.8397882"><ele>345.0</ele><time>2026-04-11T15:37:15.537Z</time></trkpt><trkpt lat="45.990679" lon="11.8396732"><ele>345.6</ele><time>2026-04-11T15:37:16.537Z</time></trkpt><trkpt lat="45.9907323" lon="11.8395685"><ele>346.2</ele><time>2026-04-11T15:37:17.537Z</time></trkpt><trkpt lat="45.9907971" lon="11.8394749"><ele>346.79999999999995</ele><time>2026-04-11T15:37:18.536Z</time></trkpt><trkpt lat="45.9908676" lon="11.8393959"><ele>347.4</ele><time>2026-04-11T15:37:19.537Z</time></trkpt><trkpt lat="45.9909422" lon="11.8393207"><ele>348.0</ele><time>2026-04-11T15:37:20.536Z</time></trkpt><trkpt lat="45.9910183" lon="11.8392479"><ele>346.5</ele><time>2026-04-11T15:37:21.536Z</time></trkpt><trkpt lat="45.9910888" lon="11.8391816"><ele>345.0</ele><time>2026-04-11T15:37:22.537Z</time></trkpt><trkpt lat="45.9911594" lon="11.8391142"><ele>343.5</ele><time>2026-04-11T15:37:23.535Z</time></trkpt><trkpt lat="45.9912302" lon="11.8390441"><ele>342.0</ele><time>2026-04-11T15:37:24.536Z</time></trkpt><trkpt lat="45.9913035" lon="11.8389712"><ele>340.5</ele><time>2026-04-11T15:37:25.535Z</time></trkpt><trkpt lat="45.9913757" lon="11.8388986"><ele>339.0</ele><time>2026-04-11T15:37:26.536Z</time></trkpt><trkpt lat="45.99145" lon="11.83883"><ele>339.0</ele><time>2026-04-11T15:37:27.538Z</time></trkpt><trkpt lat="45.9915246" lon="11.8387635"><ele>339.0</ele><time>2026-04-11T15:37:28.538Z</time></trkpt><trkpt lat="45.9915996" lon="11.838699"><ele>339.0</ele><time>2026-04-11T15:37:29.537Z</time></trkpt><trkpt lat="45.991676" lon="11.8386322"><ele>339.0</ele><time>2026-04-11T15:37:30.537Z</time></trkpt><trkpt lat="45.9917513" lon="11.8385646"><ele>339.0</ele><time>2026-04-11T15:37:31.538Z</time></trkpt><trkpt lat="45.9918256" lon="11.8384955"><ele>339.0</ele><time>2026-04-11T15:37:32.537Z</time></trkpt><trkpt lat="45.9918994" lon="11.8384272"><ele>338.8333333333333</ele><time>2026-04-11T15:37:33.535Z</time></trkpt><trkpt lat="45.9919683" lon="11.8383549"><ele>338.6666666666667</ele><time>2026-04-11T15:37:34.535Z</time></trkpt><trkpt lat="45.9920307" lon="11.8382695"><ele>338.5</ele><time>2026-04-11T15:37:35.536Z</time></trkpt><trkpt lat="45.992081" lon="11.8381697"><ele>338.33333333333337</ele><time>2026-04-11T15:37:36.536Z</time></trkpt><trkpt lat="45.9921188" lon="11.8380587"><ele>338.1666666666667</ele><time>2026-04-11T15:37:37.536Z</time></trkpt><trkpt lat="45.9921484" lon="11.8379431"><ele>338.0</ele><time>2026-04-11T15:37:38.536Z</time></trkpt><trkpt lat="45.9921692" lon="11.8378272"><ele>338.0</ele><time>2026-04-11T15:37:39.537Z</time></trkpt><trkpt lat="45.992185" lon="11.8377148"><ele>338.0</ele><time>2026-04-11T15:37:40.535Z</time></trkpt><trkpt lat="45.9921982" lon="11.8376033"><ele>338.0</ele><time>2026-04-11T15:37:41.535Z</time></trkpt><trkpt lat="45.9922093" lon="11.8374939"><ele>338.0</ele><time>2026-04-11T15:37:42.537Z</time></trkpt><trkpt lat="45.9922182" lon="11.8373894"><ele>338.0</ele><time>2026-04-11T15:37:43.538Z</time></trkpt><trkpt lat="45.9922283" lon="11.8372904"><ele>338.0</ele><time>2026-04-11T15:37:44.537Z</time></trkpt><trkpt lat="45.9922395" lon="11.8371918"><ele>338.0</ele><time>2026-04-11T15:37:45.537Z</time></trkpt><trkpt lat="45.9922505" lon="11.8370971"><ele>338.0</ele><time>2026-04-11T15:37:46.537Z</time></trkpt><trkpt lat="45.9922628" lon="11.8370073"><ele>338.0</ele><time>2026-04-11T15:37:47.538Z</time></trkpt><trkpt lat="45.9923051" lon="11.8368403"><ele>338.0</ele><time>2026-04-11T15:37:49.538Z</time></trkpt><trkpt lat="45.9923422" lon="11.8367662"><ele>338.0</ele><time>2026-04-11T15:37:50.537Z</time></trkpt><trkpt lat="45.992389" lon="11.8366987"><ele>338.0</ele><time>2026-04-11T15:37:51.537Z</time></trkpt><trkpt lat="45.9924447" lon="11.8366376"><ele>338.0</ele><time>2026-04-11T15:37:52.536Z</time></trkpt><trkpt lat="45.9925086" lon="11.8365947"><ele>338.1666666666667</ele><time>2026-04-11T15:37:53.537Z</time></trkpt><trkpt lat="45.9925772" lon="11.836566"><ele>338.33333333333337</ele><time>2026-04-11T15:37:54.538Z</time></trkpt><trkpt lat="45.9926497" lon="11.8365488"><ele>338.5</ele><time>2026-04-11T15:37:55.536Z</time></trkpt><trkpt lat="45.9927248" lon="11.8365343"><ele>338.6666666666667</ele><time>2026-04-11T15:37:56.538Z</time></trkpt><trkpt lat="45.9928015" lon="11.8365232"><ele>338.8333333333333</ele><time>2026-04-11T15:37:57.538Z</time></trkpt><trkpt lat="45.9928782" lon="11.8365211"><ele>339.0</ele><time>2026-04-11T15:37:58.537Z</time></trkpt><trkpt lat="45.9929556" lon="11.8365353"><ele>339.0</ele><time>2026-04-11T15:37:59.538Z</time></trkpt><trkpt lat="45.9930368" lon="11.8365537"><ele>339.0</ele><time>2026-04-11T15:38:00.538Z</time></trkpt><trkpt lat="45.9931148" lon="11.836579"><ele>339.0</ele><time>2026-04-11T15:38:01.543Z</time></trkpt><trkpt lat="45.9931916" lon="11.8366161"><ele>339.0</ele><time>2026-04-11T15:38:02.538Z</time></trkpt><trkpt lat="45.9932656" lon="11.8366486"><ele>339.0</ele><time>2026-04-11T15:38:03.537Z</time></trkpt><trkpt lat="45.9933407" lon="11.8366789"><ele>339.0</ele><time>2026-04-11T15:38:04.537Z</time></trkpt><trkpt lat="45.9934111" lon="11.8367053"><ele>338.2</ele><time>2026-04-11T15:38:05.538Z</time></trkpt><trkpt lat="45.993475" lon="11.8367335"><ele>337.4</ele><time>2026-04-11T15:38:06.536Z</time></trkpt><trkpt lat="45.9935913" lon="11.836759"><ele>336.6</ele><time>2026-04-11T15:38:08.536Z</time></trkpt><trkpt lat="45.9937144" lon="11.8366973"><ele>335.8</ele><time>2026-04-11T15:38:10.538Z</time></trkpt><trkpt lat="45.9937812" lon="11.836657"><ele>335.0</ele><time>2026-04-11T15:38:11.536Z</time></trkpt><trkpt lat="45.9938417" lon="11.8366084"><ele>335.0</ele><time>2026-04-11T15:38:12.537Z</time></trkpt><trkpt lat="45.9939036" lon="11.8365644"><ele>335.0</ele><time>2026-04-11T15:38:13.537Z</time></trkpt><trkpt lat="45.9939674" lon="11.8365299"><ele>335.0</ele><time>2026-04-11T15:38:14.536Z</time></trkpt><trkpt lat="45.9940329" lon="11.8365064"><ele>335.0</ele><time>2026-04-11T15:38:15.535Z</time></trkpt><trkpt lat="45.9940969" lon="11.8364954"><ele>335.0</ele><time>2026-04-11T15:38:16.536Z</time></trkpt><trkpt lat="45.9942234" lon="11.8364964"><ele>335.0</ele><time>2026-04-11T15:38:18.538Z</time></trkpt><trkpt lat="45.9943328" lon="11.8364545"><ele>334.6</ele><time>2026-04-11T15:38:20.538Z</time></trkpt><trkpt lat="45.9944102" lon="11.8363373"><ele>334.2</ele><time>2026-04-11T15:38:22.538Z</time></trkpt><trkpt lat="45.9944441" lon="11.8361814"><ele>333.79999999999995</ele><time>2026-04-11T15:38:24.537Z</time></trkpt><trkpt lat="45.9944523" lon="11.8360288"><ele>333.4</ele><time>2026-04-11T15:38:26.538Z</time></trkpt><trkpt lat="45.9944747" lon="11.8358901"><ele>333.0</ele><time>2026-04-11T15:38:28.538Z</time></trkpt><trkpt lat="45.9945207" lon="11.8357948"><ele>333.0</ele><time>2026-04-11T15:38:30.537Z</time></trkpt><trkpt lat="45.994597" lon="11.8357496"><ele>333.0</ele><time>2026-04-11T15:38:32.538Z</time></trkpt><trkpt lat="45.9946861" lon="11.8357584"><ele>333.0</ele><time>2026-04-11T15:38:34.537Z</time></trkpt><trkpt lat="45.9947667" lon="11.8357731"><ele>333.0</ele><time>2026-04-11T15:38:36.536Z</time></trkpt><trkpt lat="45.9948443" lon="11.8357873"><ele>333.0</ele><time>2026-04-11T15:38:38.536Z</time></trkpt><trkpt lat="45.9949354" lon="11.8357967"><ele>333.0</ele><time>2026-04-11T15:38:40.536Z</time></trkpt><trkpt lat="45.9950232" lon="11.8358129"><ele>333.4</ele><time>2026-04-11T15:38:42.537Z</time></trkpt><trkpt lat="45.9951097" lon="11.8358169"><ele>333.79999999999995</ele><time>2026-04-11T15:38:44.538Z</time></trkpt><trkpt lat="45.9952019" lon="11.8358335"><ele>334.2</ele><time>2026-04-11T15:38:46.535Z</time></trkpt><trkpt lat="45.9952932" lon="11.8358602"><ele>334.6</ele><time>2026-04-11T15:38:48.537Z</time></trkpt><trkpt lat="45.9953897" lon="11.8358828"><ele>335.0</ele><time>2026-04-11T15:38:50.537Z</time></trkpt><trkpt lat="45.9954854" lon="11.8359006"><ele>335.0</ele><time>2026-04-11T15:38:52.537Z</time></trkpt><trkpt lat="45.9955839" lon="11.8359102"><ele>335.0</ele><time>2026-04-11T15:38:54.537Z</time></trkpt><trkpt lat="45.9956796" lon="11.8359099"><ele>335.0</ele><time>2026-04-11T15:38:56.538Z</time></trkpt><trkpt lat="45.9957771" lon="11.8358984"><ele>335.0</ele><time>2026-04-11T15:38:58.537Z</time></trkpt><trkpt lat="45.9958642" lon="11.8358823"><ele>335.0</ele><time>2026-04-11T15:39:00.536Z</time></trkpt><trkpt lat="45.9959278" lon="11.8358911"><ele>335.0</ele><time>2026-04-11T15:39:02.537Z</time></trkpt><trkpt lat="45.9960058" lon="11.835828"><ele>333.8</ele><time>2026-04-11T15:39:05.538Z</time></trkpt><trkpt lat="45.9960644" lon="11.8357945"><ele>332.6</ele><time>2026-04-11T15:39:07.538Z</time></trkpt><trkpt lat="45.9961591" lon="11.8357732"><ele>331.4</ele><time>2026-04-11T15:39:09.536Z</time></trkpt><trkpt lat="45.9962732" lon="11.8357864"><ele>330.2</ele><time>2026-04-11T15:39:11.536Z</time></trkpt><trkpt lat="45.9963766" lon="11.8358051"><ele>329.0</ele><time>2026-04-11T15:39:13.537Z</time></trkpt><trkpt lat="45.9964745" lon="11.8358233"><ele>329.0</ele><time>2026-04-11T15:39:15.537Z</time></trkpt><trkpt lat="45.9965707" lon="11.8358422"><ele>329.0</ele><time>2026-04-11T15:39:17.537Z</time></trkpt><trkpt lat="45.9966694" lon="11.8358422"><ele>329.0</ele><time>2026-04-11T15:39:19.537Z</time></trkpt><trkpt lat="45.9967714" lon="11.835813"><ele>329.0</ele><time>2026-04-11T15:39:21.538Z</time></trkpt><trkpt lat="45.99687" lon="11.8357662"><ele>329.0</ele><time>2026-04-11T15:39:23.538Z</time></trkpt><trkpt lat="45.9969665" lon="11.8357114"><ele>328.79999999999995</ele><time>2026-04-11T15:39:25.537Z</time></trkpt><trkpt lat="45.9970577" lon="11.8356344"><ele>328.59999999999997</ele><time>2026-04-11T15:39:27.537Z</time></trkpt><trkpt lat="45.9971488" lon="11.8355485"><ele>328.4</ele><time>2026-04-11T15:39:29.538Z</time></trkpt><trkpt lat="45.9972229" lon="11.8354345"><ele>328.2</ele><time>2026-04-11T15:39:31.537Z</time></trkpt><trkpt lat="45.9972916" lon="11.835318"><ele>328.0</ele><time>2026-04-11T15:39:33.537Z</time></trkpt><trkpt lat="45.9973694" lon="11.8352187"><ele>327.79999999999995</ele><time>2026-04-11T15:39:35.536Z</time></trkpt><trkpt lat="45.9974572" lon="11.8351312"><ele>327.6</ele><time>2026-04-11T15:39:37.538Z</time></trkpt><trkpt lat="45.99755" lon="11.8350563"><ele>327.4</ele><time>2026-04-11T15:39:39.538Z</time></trkpt><trkpt lat="45.9976404" lon="11.8349778"><ele>327.20000000000005</ele><time>2026-04-11T15:39:41.537Z</time></trkpt><trkpt lat="45.9977341" lon="11.834901"><ele>327.0</ele><time>2026-04-11T15:39:43.536Z</time></trkpt><trkpt lat="45.99783" lon="11.8348264"><ele>326.40000000000003</ele><time>2026-04-11T15:39:45.536Z</time></trkpt><trkpt lat="45.9979219" lon="11.8347383"><ele>325.8</ele><time>2026-04-11T15:39:47.538Z</time></trkpt><trkpt lat="45.998012" lon="11.8346542"><ele>325.2</ele><time>2026-04-11T15:39:49.538Z</time></trkpt><trkpt lat="45.9980967" lon="11.8345579"><ele>324.6</ele><time>2026-04-11T15:39:51.538Z</time></trkpt><trkpt lat="45.9981721" lon="11.8344465"><ele>324.0</ele><time>2026-04-11T15:39:53.536Z</time></trkpt><trkpt lat="45.9982416" lon="11.8343217"><ele>324.0</ele><time>2026-04-11T15:39:55.537Z</time></trkpt><trkpt lat="45.9983039" lon="11.8341896"><ele>324.0</ele><time>2026-04-11T15:39:57.536Z</time></trkpt><trkpt lat="45.9983503" lon="11.8340486"><ele>324.0</ele><time>2026-04-11T15:39:59.535Z</time></trkpt><trkpt lat="45.9984015" lon="11.8339059"><ele>324.0</ele><time>2026-04-11T15:40:01.535Z</time></trkpt><trkpt lat="45.9984512" lon="11.8337719"><ele>324.0</ele><time>2026-04-11T15:40:03.536Z</time></trkpt><trkpt lat="45.9984983" lon="11.8336328"><ele>324.0</ele><time>2026-04-11T15:40:05.536Z</time></trkpt><trkpt lat="45.9985438" lon="11.833496"><ele>324.0</ele><time>2026-04-11T15:40:07.537Z</time></trkpt><trkpt lat="45.9985893" lon="11.8333664"><ele>324.0</ele><time>2026-04-11T15:40:09.537Z</time></trkpt><trkpt lat="45.9986422" lon="11.8332317"><ele>324.0</ele><time>2026-04-11T15:40:11.537Z</time></trkpt><trkpt lat="45.9987058" lon="11.8330962"><ele>324.0</ele><time>2026-04-11T15:40:13.538Z</time></trkpt><trkpt lat="45.9987738" lon="11.8329604"><ele>323.79999999999995</ele><time>2026-04-11T15:40:15.536Z</time></trkpt><trkpt lat="45.9988522" lon="11.8328385"><ele>323.59999999999997</ele><time>2026-04-11T15:40:17.538Z</time></trkpt><trkpt lat="45.998933" lon="11.8327287"><ele>323.4</ele><time>2026-04-11T15:40:19.536Z</time></trkpt><trkpt lat="45.9990181" lon="11.8326292"><ele>323.2</ele><time>2026-04-11T15:40:21.537Z</time></trkpt><trkpt lat="45.9991081" lon="11.8325354"><ele>323.0</ele><time>2026-04-11T15:40:23.537Z</time></trkpt><trkpt lat="45.9992073" lon="11.8324535"><ele>322.79999999999995</ele><time>2026-04-11T15:40:25.536Z</time></trkpt><trkpt lat="45.9993149" lon="11.8323796"><ele>322.6</ele><time>2026-04-11T15:40:27.536Z</time></trkpt><trkpt lat="45.9994168" lon="11.8323021"><ele>322.4</ele><time>2026-04-11T15:40:29.537Z</time></trkpt><trkpt lat="45.9995044" lon="11.8322257"><ele>322.20000000000005</ele><time>2026-04-11T15:40:31.537Z</time></trkpt><trkpt lat="45.999599" lon="11.8321508"><ele>322.0</ele><time>2026-04-11T15:40:33.537Z</time></trkpt><trkpt lat="45.9997051" lon="11.8320681"><ele>322.0</ele><time>2026-04-11T15:40:35.537Z</time></trkpt><trkpt lat="45.9998211" lon="11.8319936"><ele>322.0</ele><time>2026-04-11T15:40:37.536Z</time></trkpt><trkpt lat="45.999883" lon="11.8319626"><ele>322.0</ele><time>2026-04-11T15:40:38.538Z</time></trkpt><trkpt lat="45.9999468" lon="11.8319276"><ele>322.0</ele><time>2026-04-11T15:40:39.538Z</time></trkpt><trkpt lat="46.0000118" lon="11.8318936"><ele>322.0</ele><time>2026-04-11T15:40:40.537Z</time></trkpt><trkpt lat="46.0000765" lon="11.8318643"><ele>322.0</ele><time>2026-04-11T15:40:41.537Z</time></trkpt><trkpt lat="46.0001395" lon="11.8318339"><ele>321.85714285714283</ele><time>2026-04-11T15:40:42.538Z</time></trkpt><trkpt lat="46.0002007" lon="11.8318027"><ele>321.7142857142857</ele><time>2026-04-11T15:40:43.538Z</time></trkpt><trkpt lat="46.0002616" lon="11.8317733"><ele>321.57142857142856</ele><time>2026-04-11T15:40:44.537Z</time></trkpt><trkpt lat="46.0003224" lon="11.8317422"><ele>321.42857142857144</ele><time>2026-04-11T15:40:45.538Z</time></trkpt><trkpt lat="46.0003829" lon="11.8317122"><ele>321.2857142857143</ele><time>2026-04-11T15:40:46.535Z</time></trkpt><trkpt lat="46.0004449" lon="11.8316863"><ele>321.1428571428571</ele><time>2026-04-11T15:40:47.537Z</time></trkpt><trkpt lat="46.000508" lon="11.8316646"><ele>321.0</ele><time>2026-04-11T15:40:48.537Z</time></trkpt><trkpt lat="46.0005708" lon="11.83165"><ele>321.0</ele><time>2026-04-11T15:40:49.538Z</time></trkpt><trkpt lat="46.0006341" lon="11.8316413"><ele>321.0</ele><time>2026-04-11T15:40:50.538Z</time></trkpt><trkpt lat="46.0006985" lon="11.831639"><ele>321.0</ele><time>2026-04-11T15:40:51.537Z</time></trkpt><trkpt lat="46.0007625" lon="11.8316391"><ele>321.0</ele><time>2026-04-11T15:40:52.536Z</time></trkpt><trkpt lat="46.000888" lon="11.831627"><ele>321.0</ele><time>2026-04-11T15:40:54.536Z</time></trkpt><trkpt lat="46.0010077" lon="11.8315999"><ele>321.0</ele><time>2026-04-11T15:40:56.537Z</time></trkpt><trkpt lat="46.0011224" lon="11.8315734"><ele>320.3333333333333</ele><time>2026-04-11T15:40:58.535Z</time></trkpt><trkpt lat="46.0012295" lon="11.8315467"><ele>319.6666666666667</ele><time>2026-04-11T15:41:00.537Z</time></trkpt><trkpt lat="46.0013038" lon="11.831524"><ele>319.0</ele><time>2026-04-11T15:41:02.538Z</time></trkpt><trkpt lat="46.0013797" lon="11.8315003"><ele>318.33333333333337</ele><time>2026-04-11T15:41:06.537Z</time></trkpt><trkpt lat="46.0014459" lon="11.8314667"><ele>317.6666666666667</ele><time>2026-04-11T15:41:09.538Z</time></trkpt><trkpt lat="46.0015103" lon="11.8314321"><ele>317.0</ele><time>2026-04-11T15:41:11.538Z</time></trkpt><trkpt lat="46.0016054" lon="11.8313976"><ele>317.0</ele><time>2026-04-11T15:41:13.536Z</time></trkpt><trkpt lat="46.0017305" lon="11.831365"><ele>317.0</ele><time>2026-04-11T15:41:15.537Z</time></trkpt><trkpt lat="46.0018066" lon="11.8313406"><ele>317.0</ele><time>2026-04-11T15:41:16.536Z</time></trkpt><trkpt lat="46.001891" lon="11.8313162"><ele>317.0</ele><time>2026-04-11T15:41:17.538Z</time></trkpt><trkpt lat="46.0019842" lon="11.8312941"><ele>317.0</ele><time>2026-04-11T15:41:18.538Z</time></trkpt><trkpt lat="46.0020787" lon="11.8312777"><ele>317.0</ele><time>2026-04-11T15:41:19.537Z</time></trkpt><trkpt lat="46.0021723" lon="11.8312639"><ele>317.0</ele><time>2026-04-11T15:41:20.537Z</time></trkpt><trkpt lat="46.0022802" lon="11.8312631"><ele>317.0</ele><time>2026-04-11T15:41:21.537Z</time></trkpt><trkpt lat="46.0023759" lon="11.831271"><ele>317.0</ele><time>2026-04-11T15:41:22.536Z</time></trkpt><trkpt lat="46.0024623" lon="11.8312766"><ele>317.0</ele><time>2026-04-11T15:41:23.537Z</time></trkpt><trkpt lat="46.0025384" lon="11.8312732"><ele>316.6</ele><time>2026-04-11T15:41:24.537Z</time></trkpt><trkpt lat="46.0026041" lon="11.8312648"><ele>316.2</ele><time>2026-04-11T15:41:25.536Z</time></trkpt><trkpt lat="46.0027148" lon="11.83123"><ele>315.8</ele><time>2026-04-11T15:41:27.536Z</time></trkpt><trkpt lat="46.0028151" lon="11.8311604"><ele>315.4</ele><time>2026-04-11T15:41:29.536Z</time></trkpt><trkpt lat="46.002919" lon="11.8310903"><ele>315.0</ele><time>2026-04-11T15:41:31.536Z</time></trkpt><trkpt lat="46.0030191" lon="11.8310073"><ele>314.75</ele><time>2026-04-11T15:41:33.537Z</time></trkpt><trkpt lat="46.0031197" lon="11.8309216"><ele>314.5</ele><time>2026-04-11T15:41:35.538Z</time></trkpt><trkpt lat="46.0032312" lon="11.8308585"><ele>314.25</ele><time>2026-04-11T15:41:37.536Z</time></trkpt><trkpt lat="46.00335" lon="11.8308167"><ele>314.0</ele><time>2026-04-11T15:41:39.538Z</time></trkpt><trkpt lat="46.0034733" lon="11.8308083"><ele>314.0</ele><time>2026-04-11T15:41:41.537Z</time></trkpt><trkpt lat="46.0035965" lon="11.8308178"><ele>314.0</ele><time>2026-04-11T15:41:43.538Z</time></trkpt><trkpt lat="46.0037159" lon="11.8308281"><ele>314.0</ele><time>2026-04-11T15:41:45.537Z</time></trkpt><trkpt lat="46.0038361" lon="11.8308298"><ele>314.0</ele><time>2026-04-11T15:41:47.536Z</time></trkpt><trkpt lat="46.0039559" lon="11.8308278"><ele>314.0</ele><time>2026-04-11T15:41:49.536Z</time></trkpt><trkpt lat="46.0040726" lon="11.8308298"><ele>314.0</ele><time>2026-04-11T15:41:51.537Z</time></trkpt><trkpt lat="46.0041878" lon="11.8308188"><ele>314.0</ele><time>2026-04-11T15:41:53.537Z</time></trkpt><trkpt lat="46.0043103" lon="11.8308006"><ele>314.0</ele><time>2026-04-11T15:41:55.537Z</time></trkpt><trkpt lat="46.0044319" lon="11.8307894"><ele>313.75</ele><time>2026-04-11T15:41:57.537Z</time></trkpt><trkpt lat="46.0045556" lon="11.830774"><ele>313.5</ele><time>2026-04-11T15:41:59.536Z</time></trkpt><trkpt lat="46.0046767" lon="11.8307628"><ele>313.25</ele><time>2026-04-11T15:42:01.537Z</time></trkpt><trkpt lat="46.0047967" lon="11.8307457"><ele>313.0</ele><time>2026-04-11T15:42:03.535Z</time></trkpt><trkpt lat="46.0049099" lon="11.8307322"><ele>312.8</ele><time>2026-04-11T15:42:05.537Z</time></trkpt><trkpt lat="46.0050293" lon="11.8307311"><ele>312.6</ele><time>2026-04-11T15:42:07.538Z</time></trkpt><trkpt lat="46.005149" lon="11.8307273"><ele>312.4</ele><time>2026-04-11T15:42:09.537Z</time></trkpt><trkpt lat="46.0052571" lon="11.8307245"><ele>312.2</ele><time>2026-04-11T15:42:11.537Z</time></trkpt><trkpt lat="46.0053282" lon="11.8307275"><ele>312.0</ele><time>2026-04-11T15:42:13.537Z</time></trkpt><trkpt lat="46.0054081" lon="11.8307434"><ele>312.0</ele><time>2026-04-11T15:42:16.537Z</time></trkpt><trkpt lat="46.0054969" lon="11.8307469"><ele>312.0</ele><time>2026-04-11T15:42:19.537Z</time></trkpt><trkpt lat="46.0055824" lon="11.8307355"><ele>312.0</ele><time>2026-04-11T15:42:21.537Z</time></trkpt><trkpt lat="46.0056857" lon="11.8307284"><ele>312.0</ele><time>2026-04-11T15:42:23.537Z</time></trkpt><trkpt lat="46.0057894" lon="11.8307142"><ele>312.0</ele><time>2026-04-11T15:42:25.538Z</time></trkpt><trkpt lat="46.0058937" lon="11.8306998"><ele>311.8</ele><time>2026-04-11T15:42:27.535Z</time></trkpt><trkpt lat="46.0060041" lon="11.8306902"><ele>311.6</ele><time>2026-04-11T15:42:29.536Z</time></trkpt><trkpt lat="46.0061081" lon="11.8306764"><ele>311.40000000000003</ele><time>2026-04-11T15:42:31.534Z</time></trkpt><trkpt lat="46.0062157" lon="11.8306707"><ele>311.2</ele><time>2026-04-11T15:42:33.536Z</time></trkpt><trkpt lat="46.0063245" lon="11.8306718"><ele>311.0</ele><time>2026-04-11T15:42:35.538Z</time></trkpt><trkpt lat="46.0064371" lon="11.8306583"><ele>311.0</ele><time>2026-04-11T15:42:37.536Z</time></trkpt><trkpt lat="46.0065453" lon="11.8306397"><ele>311.0</ele><time>2026-04-11T15:42:39.537Z</time></trkpt><trkpt lat="46.0066506" lon="11.8306206"><ele>311.0</ele><time>2026-04-11T15:42:41.537Z</time></trkpt><trkpt lat="46.0067603" lon="11.8305992"><ele>311.0</ele><time>2026-04-11T15:42:43.537Z</time></trkpt><trkpt lat="46.0068737" lon="11.8305657"><ele>311.0</ele><time>2026-04-11T15:42:45.536Z</time></trkpt><trkpt lat="46.0069774" lon="11.8305585"><ele>311.0</ele><time>2026-04-11T15:42:47.536Z</time></trkpt><trkpt lat="46.0070716" lon="11.8305555"><ele>311.0</ele><time>2026-04-11T15:42:49.537Z</time></trkpt><trkpt lat="46.0071616" lon="11.8305541"><ele>311.0</ele><time>2026-04-11T15:42:51.537Z</time></trkpt><trkpt lat="46.0072344" lon="11.8305613"><ele>311.0</ele><time>2026-04-11T15:42:53.534Z</time></trkpt><trkpt lat="46.007301" lon="11.8305793"><ele>311.0</ele><time>2026-04-11T15:42:56.537Z</time></trkpt><trkpt lat="46.0073869" lon="11.8306078"><ele>311.0</ele><time>2026-04-11T15:42:59.535Z</time></trkpt><trkpt lat="46.0074667" lon="11.8306386"><ele>310.83333333333337</ele><time>2026-04-11T15:43:01.536Z</time></trkpt><trkpt lat="46.0075463" lon="11.8306668"><ele>310.6666666666667</ele><time>2026-04-11T15:43:03.535Z</time></trkpt><trkpt lat="46.0076235" lon="11.830691"><ele>310.5</ele><time>2026-04-11T15:43:05.537Z</time></trkpt><trkpt lat="46.0076909" lon="11.8307048"><ele>310.3333333333333</ele><time>2026-04-11T15:43:07.537Z</time></trkpt><trkpt lat="46.0077746" lon="11.8307292"><ele>310.16666666666663</ele><time>2026-04-11T15:43:10.537Z</time></trkpt><trkpt lat="46.0078104" lon="11.8308448"><ele>310.0</ele><time>2026-04-11T15:43:13.536Z</time></trkpt><trkpt lat="46.0078172" lon="11.8309623"><ele>310.2</ele><time>2026-04-11T15:43:15.535Z</time></trkpt><trkpt lat="46.0078242" lon="11.8310994"><ele>310.4</ele><time>2026-04-11T15:43:17.537Z</time></trkpt><trkpt lat="46.007831" lon="11.8312417"><ele>310.6</ele><time>2026-04-11T15:43:19.537Z</time></trkpt><trkpt lat="46.007847" lon="11.8313872"><ele>310.8</ele><time>2026-04-11T15:43:21.537Z</time></trkpt><trkpt lat="46.0078569" lon="11.8315311"><ele>311.0</ele><time>2026-04-11T15:43:23.536Z</time></trkpt><trkpt lat="46.007866" lon="11.8316628"><ele>311.0</ele><time>2026-04-11T15:43:25.537Z</time></trkpt><trkpt lat="46.0078748" lon="11.8317935"><ele>311.0</ele><time>2026-04-11T15:43:27.536Z</time></trkpt><trkpt lat="46.0078964" lon="11.8319209"><ele>311.0</ele><time>2026-04-11T15:43:29.536Z</time></trkpt><trkpt lat="46.007926" lon="11.8320332"><ele>311.0</ele><time>2026-04-11T15:43:31.536Z</time></trkpt><trkpt lat="46.008008" lon="11.8320862"><ele>311.0</ele><time>2026-04-11T15:43:34.535Z</time></trkpt><trkpt lat="46.0080767" lon="11.8320668"><ele>311.0</ele><time>2026-04-11T15:43:36.535Z</time></trkpt><trkpt lat="46.0081411" lon="11.8321234"><ele>311.1666666666667</ele><time>2026-04-11T15:43:38.537Z</time></trkpt><trkpt lat="46.0081736" lon="11.8322271"><ele>311.33333333333337</ele><time>2026-04-11T15:43:40.536Z</time></trkpt><trkpt lat="46.008194" lon="11.8323433"><ele>311.5</ele><time>2026-04-11T15:43:42.536Z</time></trkpt><trkpt lat="46.0082276" lon="11.8324469"><ele>311.6666666666667</ele><time>2026-04-11T15:43:44.537Z</time></trkpt><trkpt lat="46.0082801" lon="11.8325232"><ele>311.8333333333333</ele><time>2026-04-11T15:43:46.537Z</time></trkpt><trkpt lat="46.008357" lon="11.8325377"><ele>312.0</ele><time>2026-04-11T15:43:48.536Z</time></trkpt><trkpt lat="46.0084375" lon="11.8324733"><ele>312.2</ele><time>2026-04-11T15:43:50.534Z</time></trkpt><trkpt lat="46.0085113" lon="11.8323828"><ele>312.4</ele><time>2026-04-11T15:43:52.535Z</time></trkpt><trkpt lat="46.008585" lon="11.8323189"><ele>312.6</ele><time>2026-04-11T15:43:54.537Z</time></trkpt><trkpt lat="46.0086646" lon="11.8322748"><ele>312.8</ele><time>2026-04-11T15:43:56.536Z</time></trkpt><trkpt lat="46.0087446" lon="11.8321921"><ele>313.0</ele><time>2026-04-11T15:43:58.537Z</time></trkpt><trkpt lat="46.0088181" lon="11.8320979"><ele>313.0</ele><time>2026-04-11T15:44:00.537Z</time></trkpt><trkpt lat="46.0088933" lon="11.8320051"><ele>313.0</ele><time>2026-04-11T15:44:02.537Z</time></trkpt><trkpt lat="46.0089724" lon="11.8319152"><ele>313.0</ele><time>2026-04-11T15:44:04.537Z</time></trkpt><trkpt lat="46.0090549" lon="11.831819"><ele>313.0</ele><time>2026-04-11T15:44:06.537Z</time></trkpt><trkpt lat="46.0091363" lon="11.8317267"><ele>313.0</ele><time>2026-04-11T15:44:08.54Z</time></trkpt><trkpt lat="46.0092264" lon="11.8316468"><ele>312.8</ele><time>2026-04-11T15:44:10.537Z</time></trkpt><trkpt lat="46.0093122" lon="11.831573"><ele>312.6</ele><time>2026-04-11T15:44:12.538Z</time></trkpt><trkpt lat="46.009391" lon="11.8314911"><ele>312.4</ele><time>2026-04-11T15:44:14.538Z</time></trkpt><trkpt lat="46.0094721" lon="11.8314005"><ele>312.2</ele><time>2026-04-11T15:44:16.537Z</time></trkpt><trkpt lat="46.0095576" lon="11.831343"><ele>312.0</ele><time>2026-04-11T15:44:18.535Z</time></trkpt><trkpt lat="46.0096509" lon="11.8312853"><ele>312.0</ele><time>2026-04-11T15:44:20.537Z</time></trkpt><trkpt lat="46.0097375" lon="11.8312167"><ele>312.0</ele><time>2026-04-11T15:44:22.535Z</time></trkpt><trkpt lat="46.0098181" lon="11.8311331"><ele>312.0</ele><time>2026-04-11T15:44:24.535Z</time></trkpt><trkpt lat="46.0098903" lon="11.8310518"><ele>312.0</ele><time>2026-04-11T15:44:26.537Z</time></trkpt><trkpt lat="46.0099523" lon="11.8309673"><ele>312.0</ele><time>2026-04-11T15:44:28.536Z</time></trkpt><trkpt lat="46.0100264" lon="11.8309266"><ele>312.5714285714286</ele><time>2026-04-11T15:44:30.537Z</time></trkpt><trkpt lat="46.0101084" lon="11.8309452"><ele>313.1428571428571</ele><time>2026-04-11T15:44:32.536Z</time></trkpt><trkpt lat="46.0101805" lon="11.8309658"><ele>313.7142857142857</ele><time>2026-04-11T15:44:34.535Z</time></trkpt><trkpt lat="46.0102524" lon="11.8310033"><ele>314.28571428571433</ele><time>2026-04-11T15:44:36.537Z</time></trkpt><trkpt lat="46.0103216" lon="11.8310485"><ele>314.8571428571429</ele><time>2026-04-11T15:44:38.537Z</time></trkpt><trkpt lat="46.0103813" lon="11.8310958"><ele>315.42857142857144</ele><time>2026-04-11T15:44:40.537Z</time></trkpt><trkpt lat="46.0104424" lon="11.831145"><ele>316.0</ele><time>2026-04-11T15:44:42.537Z</time></trkpt><trkpt lat="46.0105016" lon="11.8311979"><ele>316.7142857142857</ele><time>2026-04-11T15:44:44.537Z</time></trkpt><trkpt lat="46.0105596" lon="11.831252"><ele>317.42857142857144</ele><time>2026-04-11T15:44:46.537Z</time></trkpt><trkpt lat="46.01064" lon="11.8313143"><ele>318.1428571428571</ele><time>2026-04-11T15:44:49.535Z</time></trkpt><trkpt lat="46.0106965" lon="11.8313597"><ele>318.8571428571429</ele><time>2026-04-11T15:44:51.537Z</time></trkpt><trkpt lat="46.0107536" lon="11.8314081"><ele>319.57142857142856</ele><time>2026-04-11T15:44:53.537Z</time></trkpt><trkpt lat="46.0108092" lon="11.8314619"><ele>320.2857142857143</ele><time>2026-04-11T15:44:55.537Z</time></trkpt><trkpt lat="46.0108625" lon="11.831522"><ele>321.0</ele><time>2026-04-11T15:44:57.536Z</time></trkpt><trkpt lat="46.0109059" lon="11.8315924"><ele>322.3333333333333</ele><time>2026-04-11T15:44:59.535Z</time></trkpt><trkpt lat="46.010951" lon="11.8316604"><ele>323.6666666666667</ele><time>2026-04-11T15:45:01.536Z</time></trkpt><trkpt lat="46.0110127" lon="11.8317556"><ele>325.0</ele><time>2026-04-11T15:45:04.536Z</time></trkpt><trkpt lat="46.0110796" lon="11.8318471"><ele>326.33333333333337</ele><time>2026-04-11T15:45:07.537Z</time></trkpt><trkpt lat="46.0111312" lon="11.8319104"><ele>327.6666666666667</ele><time>2026-04-11T15:45:09.537Z</time></trkpt><trkpt lat="46.0111861" lon="11.8319772"><ele>329.0</ele><time>2026-04-11T15:45:11.537Z</time></trkpt><trkpt lat="46.0112369" lon="11.8320429"><ele>331.14285714285717</ele><time>2026-04-11T15:45:13.537Z</time></trkpt><trkpt lat="46.0112858" lon="11.8321095"><ele>333.2857142857143</ele><time>2026-04-11T15:45:15.535Z</time></trkpt><trkpt lat="46.0113367" lon="11.8321908"><ele>335.42857142857144</ele><time>2026-04-11T15:45:17.537Z</time></trkpt><trkpt lat="46.0113876" lon="11.8322706"><ele>337.57142857142856</ele><time>2026-04-11T15:45:19.536Z</time></trkpt><trkpt lat="46.0114311" lon="11.8323536"><ele>339.7142857142857</ele><time>2026-04-11T15:45:21.536Z</time></trkpt><trkpt lat="46.0114731" lon="11.8324383"><ele>341.8571428571429</ele><time>2026-04-11T15:45:23.536Z</time></trkpt><trkpt lat="46.0115157" lon="11.8325201"><ele>344.0</ele><time>2026-04-11T15:45:25.535Z</time></trkpt><trkpt lat="46.0115598" lon="11.8325995"><ele>344.5</ele><time>2026-04-11T15:45:27.536Z</time></trkpt><trkpt lat="46.0115998" lon="11.8326878"><ele>345.0</ele><time>2026-04-11T15:45:29.537Z</time></trkpt><trkpt lat="46.0116431" lon="11.832782"><ele>345.5</ele><time>2026-04-11T15:45:31.537Z</time></trkpt><trkpt lat="46.0116843" lon="11.8328753"><ele>346.0</ele><time>2026-04-11T15:45:33.534Z</time></trkpt><trkpt lat="46.0117239" lon="11.8329696"><ele>346.5</ele><time>2026-04-11T15:45:35.536Z</time></trkpt><trkpt lat="46.0117654" lon="11.833069"><ele>347.0</ele><time>2026-04-11T15:45:37.537Z</time></trkpt><trkpt lat="46.0118054" lon="11.8331589"><ele>347.0</ele><time>2026-04-11T15:45:39.537Z</time></trkpt><trkpt lat="46.0118501" lon="11.8332539"><ele>347.0</ele><time>2026-04-11T15:45:41.536Z</time></trkpt><trkpt lat="46.0118986" lon="11.8333451"><ele>347.0</ele><time>2026-04-11T15:45:43.537Z</time></trkpt><trkpt lat="46.0119483" lon="11.8334361"><ele>347.0</ele><time>2026-04-11T15:45:45.535Z</time></trkpt><trkpt lat="46.0119988" lon="11.8335236"><ele>347.0</ele><time>2026-04-11T15:45:47.536Z</time></trkpt><trkpt lat="46.0120571" lon="11.8335987"><ele>347.0</ele><time>2026-04-11T15:45:49.537Z</time></trkpt><trkpt lat="46.0121172" lon="11.8336628"><ele>348.5</ele><time>2026-04-11T15:45:51.537Z</time></trkpt><trkpt lat="46.0121717" lon="11.8337387"><ele>350.0</ele><time>2026-04-11T15:45:53.537Z</time></trkpt><trkpt lat="46.0122255" lon="11.8338241"><ele>351.5</ele><time>2026-04-11T15:45:55.538Z</time></trkpt><trkpt lat="46.0122863" lon="11.8338935"><ele>353.0</ele><time>2026-04-11T15:45:57.538Z</time></trkpt><trkpt lat="46.0123473" lon="11.8339652"><ele>354.5</ele><time>2026-04-11T15:45:59.539Z</time></trkpt><trkpt lat="46.0124087" lon="11.8340437"><ele>356.0</ele><time>2026-04-11T15:46:01.538Z</time></trkpt><trkpt lat="46.0124695" lon="11.8341215"><ele>354.83333333333337</ele><time>2026-04-11T15:46:03.538Z</time></trkpt><trkpt lat="46.0125293" lon="11.8341946"><ele>353.6666666666667</ele><time>2026-04-11T15:46:05.537Z</time></trkpt><trkpt lat="46.0125889" lon="11.8342698"><ele>352.5</ele><time>2026-04-11T15:46:07.537Z</time></trkpt><trkpt lat="46.0126485" lon="11.8343469"><ele>351.3333333333333</ele><time>2026-04-11T15:46:09.538Z</time></trkpt><trkpt lat="46.0127108" lon="11.834418"><ele>350.16666666666663</ele><time>2026-04-11T15:46:11.536Z</time></trkpt><trkpt lat="46.0127715" lon="11.8344898"><ele>349.0</ele><time>2026-04-11T15:46:13.537Z</time></trkpt><trkpt lat="46.0128323" lon="11.8345653"><ele>351.79999999999995</ele><time>2026-04-11T15:46:15.538Z</time></trkpt><trkpt lat="46.0128941" lon="11.8346414"><ele>354.59999999999997</ele><time>2026-04-11T15:46:17.538Z</time></trkpt><trkpt lat="46.0129554" lon="11.8347265"><ele>357.4</ele><time>2026-04-11T15:46:19.537Z</time></trkpt><trkpt lat="46.013022" lon="11.8348204"><ele>360.2</ele><time>2026-04-11T15:46:21.536Z</time></trkpt><trkpt lat="46.0130918" lon="11.8349228"><ele>363.0</ele><time>2026-04-11T15:46:23.535Z</time></trkpt><trkpt lat="46.0131647" lon="11.8350283"><ele>363.0</ele><time>2026-04-11T15:46:25.536Z</time></trkpt><trkpt lat="46.0132376" lon="11.8351291"><ele>363.0</ele><time>2026-04-11T15:46:27.538Z</time></trkpt><trkpt lat="46.0133138" lon="11.8352294"><ele>363.0</ele><time>2026-04-11T15:46:29.537Z</time></trkpt><trkpt lat="46.013392" lon="11.8353184"><ele>363.0</ele><time>2026-04-11T15:46:31.536Z</time></trkpt><trkpt lat="46.0134606" lon="11.8354044"><ele>363.0</ele><time>2026-04-11T15:46:33.535Z</time></trkpt><trkpt lat="46.0135412" lon="11.8354867"><ele>362.79999999999995</ele><time>2026-04-11T15:46:35.535Z</time></trkpt><trkpt lat="46.0136168" lon="11.8355792"><ele>362.6</ele><time>2026-04-11T15:46:37.537Z</time></trkpt><trkpt lat="46.0137288" lon="11.8356941"><ele>362.4</ele><time>2026-04-11T15:46:40.534Z</time></trkpt><trkpt lat="46.0138028" lon="11.8357871"><ele>362.20000000000005</ele><time>2026-04-11T15:46:42.535Z</time></trkpt><trkpt lat="46.0138806" lon="11.8358893"><ele>362.0</ele><time>2026-04-11T15:46:44.535Z</time></trkpt><trkpt lat="46.0139542" lon="11.8359999"><ele>361.40000000000003</ele><time>2026-04-11T15:46:46.533Z</time></trkpt><trkpt lat="46.0140185" lon="11.8361"><ele>360.8</ele><time>2026-04-11T15:46:48.534Z</time></trkpt><trkpt lat="46.0140867" lon="11.8362024"><ele>360.2</ele><time>2026-04-11T15:46:50.536Z</time></trkpt><trkpt lat="46.0141546" lon="11.8363149"><ele>359.6</ele><time>2026-04-11T15:46:52.54Z</time></trkpt><trkpt lat="46.0142264" lon="11.8364157"><ele>359.0</ele><time>2026-04-11T15:46:54.536Z</time></trkpt><trkpt lat="46.0142958" lon="11.8365097"><ele>359.0</ele><time>2026-04-11T15:46:56.535Z</time></trkpt><trkpt lat="46.0143682" lon="11.8365969"><ele>359.0</ele><time>2026-04-11T15:46:58.535Z</time></trkpt><trkpt lat="46.0144326" lon="11.8367067"><ele>359.0</ele><time>2026-04-11T15:47:00.535Z</time></trkpt><trkpt lat="46.0144943" lon="11.8368142"><ele>359.0</ele><time>2026-04-11T15:47:02.536Z</time></trkpt><trkpt lat="46.0145605" lon="11.8369207"><ele>359.0</ele><time>2026-04-11T15:47:04.534Z</time></trkpt><trkpt lat="46.0146156" lon="11.8370345"><ele>361.6</ele><time>2026-04-11T15:47:06.535Z</time></trkpt><trkpt lat="46.0146601" lon="11.8371556"><ele>364.2</ele><time>2026-04-11T15:47:08.536Z</time></trkpt><trkpt lat="46.0146956" lon="11.8372829"><ele>366.8</ele><time>2026-04-11T15:47:10.534Z</time></trkpt><trkpt lat="46.0147384" lon="11.8374102"><ele>369.40000000000003</ele><time>2026-04-11T15:47:12.535Z</time></trkpt><trkpt lat="46.0147923" lon="11.8375363"><ele>372.0</ele><time>2026-04-11T15:47:14.535Z</time></trkpt><trkpt lat="46.0148508" lon="11.8376567"><ele>371.0</ele><time>2026-04-11T15:47:16.535Z</time></trkpt><trkpt lat="46.0149081" lon="11.8377794"><ele>370.0</ele><time>2026-04-11T15:47:18.535Z</time></trkpt><trkpt lat="46.0149641" lon="11.8379026"><ele>369.0</ele><time>2026-04-11T15:47:20.535Z</time></trkpt><trkpt lat="46.0150198" lon="11.838034"><ele>368.0</ele><time>2026-04-11T15:47:22.535Z</time></trkpt><trkpt lat="46.0150751" lon="11.8381611"><ele>367.0</ele><time>2026-04-11T15:47:24.537Z</time></trkpt><trkpt lat="46.0151215" lon="11.8382869"><ele>367.0</ele><time>2026-04-11T15:47:26.535Z</time></trkpt><trkpt lat="46.0151673" lon="11.8383993"><ele>367.0</ele><time>2026-04-11T15:47:28.534Z</time></trkpt><trkpt lat="46.015222" lon="11.8385196"><ele>367.0</ele><time>2026-04-11T15:47:30.536Z</time></trkpt><trkpt lat="46.0152778" lon="11.8386405"><ele>367.0</ele><time>2026-04-11T15:47:32.536Z</time></trkpt><trkpt lat="46.0153311" lon="11.838767"><ele>367.0</ele><time>2026-04-11T15:47:34.536Z</time></trkpt><trkpt lat="46.0153844" lon="11.8388926"><ele>369.40000000000003</ele><time>2026-04-11T15:47:36.535Z</time></trkpt><trkpt lat="46.0154464" lon="11.8390056"><ele>371.8</ele><time>2026-04-11T15:47:38.536Z</time></trkpt><trkpt lat="46.0155144" lon="11.8391102"><ele>374.2</ele><time>2026-04-11T15:47:40.535Z</time></trkpt><trkpt lat="46.015586" lon="11.8392053"><ele>376.6</ele><time>2026-04-11T15:47:42.534Z</time></trkpt><trkpt lat="46.0156627" lon="11.8392947"><ele>379.0</ele><time>2026-04-11T15:47:44.537Z</time></trkpt><trkpt lat="46.0157421" lon="11.839377"><ele>381.79999999999995</ele><time>2026-04-11T15:47:46.535Z</time></trkpt><trkpt lat="46.0158197" lon="11.8394597"><ele>384.59999999999997</ele><time>2026-04-11T15:47:48.535Z</time></trkpt><trkpt lat="46.0159021" lon="11.8395461"><ele>387.4</ele><time>2026-04-11T15:47:50.536Z</time></trkpt><trkpt lat="46.0159854" lon="11.8396308"><ele>390.2</ele><time>2026-04-11T15:47:52.535Z</time></trkpt><trkpt lat="46.0160659" lon="11.8397173"><ele>393.0</ele><time>2026-04-11T15:47:54.534Z</time></trkpt><trkpt lat="46.0161509" lon="11.839807"><ele>388.4</ele><time>2026-04-11T15:47:56.535Z</time></trkpt><trkpt lat="46.0162314" lon="11.8399063"><ele>383.79999999999995</ele><time>2026-04-11T15:47:58.535Z</time></trkpt><trkpt lat="46.016294" lon="11.840018"><ele>379.2</ele><time>2026-04-11T15:48:00.535Z</time></trkpt><trkpt lat="46.0163352" lon="11.8401359"><ele>374.6</ele><time>2026-04-11T15:48:02.536Z</time></trkpt><trkpt lat="46.0163566" lon="11.8402698"><ele>370.0</ele><time>2026-04-11T15:48:04.536Z</time></trkpt><trkpt lat="46.016361" lon="11.840406"><ele>370.0</ele><time>2026-04-11T15:48:06.535Z</time></trkpt><trkpt lat="46.0163553" lon="11.8405407"><ele>370.0</ele><time>2026-04-11T15:48:08.537Z</time></trkpt><trkpt lat="46.0163413" lon="11.8406783"><ele>370.0</ele><time>2026-04-11T15:48:10.537Z</time></trkpt><trkpt lat="46.0163266" lon="11.8408111"><ele>370.0</ele><time>2026-04-11T15:48:12.535Z</time></trkpt><trkpt lat="46.0163112" lon="11.8409549"><ele>370.0</ele><time>2026-04-11T15:48:14.537Z</time></trkpt><trkpt lat="46.0163046" lon="11.8411051"><ele>376.0</ele><time>2026-04-11T15:48:16.537Z</time></trkpt><trkpt lat="46.0163003" lon="11.841251"><ele>382.0</ele><time>2026-04-11T15:48:18.534Z</time></trkpt><trkpt lat="46.0163068" lon="11.8413878"><ele>388.0</ele><time>2026-04-11T15:48:20.535Z</time></trkpt><trkpt lat="46.0163348" lon="11.8415176"><ele>394.0</ele><time>2026-04-11T15:48:22.535Z</time></trkpt><trkpt lat="46.0163773" lon="11.841641"><ele>400.0</ele><time>2026-04-11T15:48:24.534Z</time></trkpt><trkpt lat="46.016415" lon="11.841764"><ele>401.8</ele><time>2026-04-11T15:48:26.534Z</time></trkpt><trkpt lat="46.0164621" lon="11.8418822"><ele>403.6</ele><time>2026-04-11T15:48:28.535Z</time></trkpt><trkpt lat="46.0165132" lon="11.842001"><ele>405.4</ele><time>2026-04-11T15:48:30.536Z</time></trkpt><trkpt lat="46.0165645" lon="11.8421193"><ele>407.2</ele><time>2026-04-11T15:48:32.537Z</time></trkpt><trkpt lat="46.0166134" lon="11.8422425"><ele>409.0</ele><time>2026-04-11T15:48:34.535Z</time></trkpt><trkpt lat="46.0166708" lon="11.8423631"><ele>402.2</ele><time>2026-04-11T15:48:36.535Z</time></trkpt><trkpt lat="46.0167203" lon="11.8424785"><ele>395.4</ele><time>2026-04-11T15:48:38.535Z</time></trkpt><trkpt lat="46.0167658" lon="11.842604"><ele>388.6</ele><time>2026-04-11T15:48:40.535Z</time></trkpt><trkpt lat="46.0168125" lon="11.8427436"><ele>381.8</ele><time>2026-04-11T15:48:42.535Z</time></trkpt><trkpt lat="46.0168674" lon="11.8428906"><ele>375.0</ele><time>2026-04-11T15:48:44.535Z</time></trkpt><trkpt lat="46.0169264" lon="11.8430368"><ele>373.5</ele><time>2026-04-11T15:48:46.535Z</time></trkpt><trkpt lat="46.0169847" lon="11.843183"><ele>372.0</ele><time>2026-04-11T15:48:48.535Z</time></trkpt><trkpt lat="46.0170427" lon="11.84333"><ele>370.5</ele><time>2026-04-11T15:48:50.535Z</time></trkpt><trkpt lat="46.0171031" lon="11.8434754"><ele>369.0</ele><time>2026-04-11T15:48:52.535Z</time></trkpt><trkpt lat="46.0171575" lon="11.8436243"><ele>367.4</ele><time>2026-04-11T15:48:54.535Z</time></trkpt><trkpt lat="46.0172082" lon="11.8437685"><ele>365.79999999999995</ele><time>2026-04-11T15:48:56.535Z</time></trkpt><trkpt lat="46.017243" lon="11.8439097"><ele>364.20000000000005</ele><time>2026-04-11T15:48:58.535Z</time></trkpt><trkpt lat="46.0172679" lon="11.8440576"><ele>362.6</ele><time>2026-04-11T15:49:00.534Z</time></trkpt><trkpt lat="46.0172895" lon="11.8442025"><ele>361.0</ele><time>2026-04-11T15:49:02.535Z</time></trkpt><trkpt lat="46.017306" lon="11.8443517"><ele>360.20000000000005</ele><time>2026-04-11T15:49:04.534Z</time></trkpt><trkpt lat="46.0173189" lon="11.8444985"><ele>359.40000000000003</ele><time>2026-04-11T15:49:06.535Z</time></trkpt><trkpt lat="46.0173369" lon="11.8446507"><ele>358.6</ele><time>2026-04-11T15:49:08.534Z</time></trkpt><trkpt lat="46.0173553" lon="11.8448101"><ele>357.8</ele><time>2026-04-11T15:49:10.536Z</time></trkpt><trkpt lat="46.0173724" lon="11.844971"><ele>357.0</ele><time>2026-04-11T15:49:12.535Z</time></trkpt><trkpt lat="46.0173852" lon="11.8451266"><ele>357.6</ele><time>2026-04-11T15:49:14.536Z</time></trkpt><trkpt lat="46.0173968" lon="11.8452775"><ele>358.20000000000005</ele><time>2026-04-11T15:49:16.535Z</time></trkpt><trkpt lat="46.0174149" lon="11.845433"><ele>358.8</ele><time>2026-04-11T15:49:18.535Z</time></trkpt><trkpt lat="46.0174357" lon="11.8455909"><ele>359.4</ele><time>2026-04-11T15:49:20.535Z</time></trkpt><trkpt lat="46.0174636" lon="11.8457518"><ele>360.0</ele><time>2026-04-11T15:49:22.535Z</time></trkpt><trkpt lat="46.0174923" lon="11.8459131"><ele>360.75</ele><time>2026-04-11T15:49:24.535Z</time></trkpt><trkpt lat="46.0175255" lon="11.8460742"><ele>361.5</ele><time>2026-04-11T15:49:26.536Z</time></trkpt><trkpt lat="46.0175612" lon="11.8462341"><ele>362.25</ele><time>2026-04-11T15:49:28.536Z</time></trkpt><trkpt lat="46.017599" lon="11.8464002"><ele>363.0</ele><time>2026-04-11T15:49:30.535Z</time></trkpt><trkpt lat="46.0176367" lon="11.8465659"><ele>363.0</ele><time>2026-04-11T15:49:32.535Z</time></trkpt><trkpt lat="46.0176759" lon="11.846731"><ele>363.0</ele><time>2026-04-11T15:49:34.535Z</time></trkpt><trkpt lat="46.0177128" lon="11.8468986"><ele>363.0</ele><time>2026-04-11T15:49:36.534Z</time></trkpt><trkpt lat="46.0177476" lon="11.8470586"><ele>363.0</ele><time>2026-04-11T15:49:38.534Z</time></trkpt><trkpt lat="46.0177809" lon="11.8472085"><ele>362.2</ele><time>2026-04-11T15:49:40.535Z</time></trkpt><trkpt lat="46.017811" lon="11.8473563"><ele>361.4</ele><time>2026-04-11T15:49:42.538Z</time></trkpt><trkpt lat="46.0178393" lon="11.8475106"><ele>360.59999999999997</ele><time>2026-04-11T15:49:44.536Z</time></trkpt><trkpt lat="46.0178725" lon="11.8476712"><ele>359.79999999999995</ele><time>2026-04-11T15:49:46.536Z</time></trkpt><trkpt lat="46.0179061" lon="11.8478226"><ele>359.0</ele><time>2026-04-11T15:49:48.537Z</time></trkpt><trkpt lat="46.0179384" lon="11.8479792"><ele>358.25</ele><time>2026-04-11T15:49:50.538Z</time></trkpt><trkpt lat="46.0179761" lon="11.848135"><ele>357.5</ele><time>2026-04-11T15:49:52.536Z</time></trkpt><trkpt lat="46.0180047" lon="11.8482906"><ele>356.75</ele><time>2026-04-11T15:49:54.536Z</time></trkpt><trkpt lat="46.0180371" lon="11.848445"><ele>356.0</ele><time>2026-04-11T15:49:56.536Z</time></trkpt><trkpt lat="46.0180712" lon="11.8486025"><ele>357.8</ele><time>2026-04-11T15:49:58.538Z</time></trkpt><trkpt lat="46.0181091" lon="11.8487586"><ele>359.6</ele><time>2026-04-11T15:50:00.536Z</time></trkpt><trkpt lat="46.0181493" lon="11.8489073"><ele>361.4</ele><time>2026-04-11T15:50:02.538Z</time></trkpt><trkpt lat="46.0182006" lon="11.8490458"><ele>363.2</ele><time>2026-04-11T15:50:04.537Z</time></trkpt><trkpt lat="46.0182732" lon="11.8491726"><ele>365.0</ele><time>2026-04-11T15:50:06.538Z</time></trkpt><trkpt lat="46.0183529" lon="11.8492884"><ele>366.8</ele><time>2026-04-11T15:50:08.538Z</time></trkpt><trkpt lat="46.0184285" lon="11.8493997"><ele>368.6</ele><time>2026-04-11T15:50:10.537Z</time></trkpt><trkpt lat="46.0184988" lon="11.8495142"><ele>370.4</ele><time>2026-04-11T15:50:12.538Z</time></trkpt><trkpt lat="46.018566" lon="11.8496399"><ele>372.2</ele><time>2026-04-11T15:50:14.538Z</time></trkpt><trkpt lat="46.018626" lon="11.8497736"><ele>374.0</ele><time>2026-04-11T15:50:16.537Z</time></trkpt><trkpt lat="46.018683" lon="11.8499117"><ele>374.0</ele><time>2026-04-11T15:50:18.536Z</time></trkpt><trkpt lat="46.0187411" lon="11.8500466"><ele>374.0</ele><time>2026-04-11T15:50:20.537Z</time></trkpt><trkpt lat="46.0187996" lon="11.850183"><ele>374.0</ele><time>2026-04-11T15:50:22.537Z</time></trkpt><trkpt lat="46.0188582" lon="11.8503154"><ele>374.0</ele><time>2026-04-11T15:50:24.539Z</time></trkpt><trkpt lat="46.018919" lon="11.8504523"><ele>374.0</ele><time>2026-04-11T15:50:26.539Z</time></trkpt><trkpt lat="46.0189737" lon="11.8505954"><ele>375.79999999999995</ele><time>2026-04-11T15:50:28.537Z</time></trkpt><trkpt lat="46.0190024" lon="11.8507462"><ele>377.59999999999997</ele><time>2026-04-11T15:50:30.536Z</time></trkpt><trkpt lat="46.0190151" lon="11.8509012"><ele>379.4</ele><time>2026-04-11T15:50:32.538Z</time></trkpt><trkpt lat="46.019019" lon="11.8510595"><ele>381.2</ele><time>2026-04-11T15:50:34.538Z</time></trkpt><trkpt lat="46.0190307" lon="11.8512232"><ele>383.0</ele><time>2026-04-11T15:50:36.538Z</time></trkpt><trkpt lat="46.0190565" lon="11.8513823"><ele>382.75</ele><time>2026-04-11T15:50:38.538Z</time></trkpt><trkpt lat="46.0190872" lon="11.8515408"><ele>382.5</ele><time>2026-04-11T15:50:40.538Z</time></trkpt><trkpt lat="46.0191132" lon="11.8517012"><ele>382.25</ele><time>2026-04-11T15:50:42.537Z</time></trkpt><trkpt lat="46.0191414" lon="11.8518581"><ele>382.0</ele><time>2026-04-11T15:50:44.537Z</time></trkpt><trkpt lat="46.019175" lon="11.8520123"><ele>382.0</ele><time>2026-04-11T15:50:46.535Z</time></trkpt><trkpt lat="46.0192165" lon="11.8521582"><ele>382.0</ele><time>2026-04-11T15:50:48.537Z</time></trkpt><trkpt lat="46.0192704" lon="11.8522931"><ele>382.0</ele><time>2026-04-11T15:50:50.536Z</time></trkpt><trkpt lat="46.0193296" lon="11.8524243"><ele>382.0</ele><time>2026-04-11T15:50:52.537Z</time></trkpt><trkpt lat="46.0193964" lon="11.8525527"><ele>382.0</ele><time>2026-04-11T15:50:54.536Z</time></trkpt><trkpt lat="46.0194661" lon="11.852675"><ele>383.40000000000003</ele><time>2026-04-11T15:50:56.538Z</time></trkpt><trkpt lat="46.0195452" lon="11.8527905"><ele>384.8</ele><time>2026-04-11T15:50:58.537Z</time></trkpt><trkpt lat="46.0196342" lon="11.8528872"><ele>386.2</ele><time>2026-04-11T15:51:00.534Z</time></trkpt><trkpt lat="46.019731" lon="11.8529686"><ele>387.6</ele><time>2026-04-11T15:51:02.538Z</time></trkpt><trkpt lat="46.0198303" lon="11.8530371"><ele>389.0</ele><time>2026-04-11T15:51:04.537Z</time></trkpt><trkpt lat="46.0199315" lon="11.8531084"><ele>388.25</ele><time>2026-04-11T15:51:06.538Z</time></trkpt><trkpt lat="46.0200354" lon="11.8531812"><ele>387.5</ele><time>2026-04-11T15:51:08.538Z</time></trkpt><trkpt lat="46.0201357" lon="11.85327"><ele>386.75</ele><time>2026-04-11T15:51:10.538Z</time></trkpt><trkpt lat="46.0202239" lon="11.8533758"><ele>386.0</ele><time>2026-04-11T15:51:12.537Z</time></trkpt><trkpt lat="46.0203118" lon="11.8534828"><ele>386.0</ele><time>2026-04-11T15:51:14.537Z</time></trkpt><trkpt lat="46.0203974" lon="11.8535917"><ele>386.0</ele><time>2026-04-11T15:51:16.536Z</time></trkpt><trkpt lat="46.0204819" lon="11.8536997"><ele>386.0</ele><time>2026-04-11T15:51:18.537Z</time></trkpt><trkpt lat="46.0205659" lon="11.8538027"><ele>386.0</ele><time>2026-04-11T15:51:20.538Z</time></trkpt><trkpt lat="46.0206499" lon="11.8539009"><ele>386.0</ele><time>2026-04-11T15:51:22.538Z</time></trkpt><trkpt lat="46.020735" lon="11.8540107"><ele>386.0</ele><time>2026-04-11T15:51:24.537Z</time></trkpt><trkpt lat="46.0208078" lon="11.85414"><ele>386.0</ele><time>2026-04-11T15:51:26.537Z</time></trkpt><trkpt lat="46.0208593" lon="11.854284"><ele>386.0</ele><time>2026-04-11T15:51:28.538Z</time></trkpt><trkpt lat="46.020891" lon="11.8544459"><ele>386.0</ele><time>2026-04-11T15:51:30.536Z</time></trkpt><trkpt lat="46.0209097" lon="11.8546129"><ele>381.75</ele><time>2026-04-11T15:51:32.536Z</time></trkpt><trkpt lat="46.0209285" lon="11.8547802"><ele>377.5</ele><time>2026-04-11T15:51:34.538Z</time></trkpt><trkpt lat="46.020953" lon="11.8549443"><ele>373.25</ele><time>2026-04-11T15:51:36.537Z</time></trkpt><trkpt lat="46.0209927" lon="11.8551032"><ele>369.0</ele><time>2026-04-11T15:51:38.538Z</time></trkpt><trkpt lat="46.021032" lon="11.855256"><ele>368.0</ele><time>2026-04-11T15:51:40.537Z</time></trkpt><trkpt lat="46.0210738" lon="11.8554061"><ele>367.0</ele><time>2026-04-11T15:51:42.537Z</time></trkpt><trkpt lat="46.0211134" lon="11.8555624"><ele>366.0</ele><time>2026-04-11T15:51:44.537Z</time></trkpt><trkpt lat="46.0211498" lon="11.8557178"><ele>365.0</ele><time>2026-04-11T15:51:46.537Z</time></trkpt><trkpt lat="46.0211923" lon="11.8558761"><ele>366.0</ele><time>2026-04-11T15:51:48.538Z</time></trkpt><trkpt lat="46.0212399" lon="11.85603"><ele>367.0</ele><time>2026-04-11T15:51:50.537Z</time></trkpt><trkpt lat="46.0212951" lon="11.8561788"><ele>368.0</ele><time>2026-04-11T15:51:52.536Z</time></trkpt><trkpt lat="46.0213578" lon="11.8563198"><ele>369.0</ele><time>2026-04-11T15:51:54.537Z</time></trkpt><trkpt lat="46.0214253" lon="11.8564562"><ele>369.0</ele><time>2026-04-11T15:51:56.538Z</time></trkpt><trkpt lat="46.0214977" lon="11.8565831"><ele>369.0</ele><time>2026-04-11T15:51:58.537Z</time></trkpt><trkpt lat="46.0215736" lon="11.8567089"><ele>369.0</ele><time>2026-04-11T15:52:00.537Z</time></trkpt><trkpt lat="46.0216514" lon="11.8568294"><ele>369.0</ele><time>2026-04-11T15:52:02.538Z</time></trkpt><trkpt lat="46.0217326" lon="11.856939"><ele>368.25</ele><time>2026-04-11T15:52:04.536Z</time></trkpt><trkpt lat="46.0218217" lon="11.8570378"><ele>367.5</ele><time>2026-04-11T15:52:06.538Z</time></trkpt><trkpt lat="46.0219111" lon="11.8571385"><ele>366.75</ele><time>2026-04-11T15:52:08.537Z</time></trkpt><trkpt lat="46.021996" lon="11.8572442"><ele>366.0</ele><time>2026-04-11T15:52:10.538Z</time></trkpt><trkpt lat="46.0220768" lon="11.8573577"><ele>366.0</ele><time>2026-04-11T15:52:12.538Z</time></trkpt><trkpt lat="46.0221484" lon="11.8574786"><ele>366.0</ele><time>2026-04-11T15:52:14.537Z</time></trkpt><trkpt lat="46.0222134" lon="11.8576061"><ele>366.0</ele><time>2026-04-11T15:52:16.537Z</time></trkpt><trkpt lat="46.0222761" lon="11.857735"><ele>366.0</ele><time>2026-04-11T15:52:18.537Z</time></trkpt><trkpt lat="46.0223341" lon="11.8578658"><ele>366.0</ele><time>2026-04-11T15:52:20.537Z</time></trkpt><trkpt lat="46.0223865" lon="11.8580017"><ele>366.6</ele><time>2026-04-11T15:52:22.538Z</time></trkpt><trkpt lat="46.0224256" lon="11.858142"><ele>367.20000000000005</ele><time>2026-04-11T15:52:24.537Z</time></trkpt><trkpt lat="46.0224553" lon="11.8582876"><ele>367.79999999999995</ele><time>2026-04-11T15:52:26.537Z</time></trkpt><trkpt lat="46.0224788" lon="11.8584371"><ele>368.4</ele><time>2026-04-11T15:52:28.537Z</time></trkpt><trkpt lat="46.0225025" lon="11.8585918"><ele>369.0</ele><time>2026-04-11T15:52:30.537Z</time></trkpt><trkpt lat="46.0225254" lon="11.8587449"><ele>369.0</ele><time>2026-04-11T15:52:32.537Z</time></trkpt><trkpt lat="46.0225453" lon="11.8588977"><ele>369.0</ele><time>2026-04-11T15:52:34.537Z</time></trkpt><trkpt lat="46.0225676" lon="11.8590548"><ele>369.0</ele><time>2026-04-11T15:52:36.538Z</time></trkpt><trkpt lat="46.0225885" lon="11.8592157"><ele>369.0</ele><time>2026-04-11T15:52:38.538Z</time></trkpt><trkpt lat="46.02261" lon="11.859371"><ele>369.0</ele><time>2026-04-11T15:52:40.537Z</time></trkpt><trkpt lat="46.022632" lon="11.8595217"><ele>369.2</ele><time>2026-04-11T15:52:42.537Z</time></trkpt><trkpt lat="46.0226556" lon="11.8596745"><ele>369.4</ele><time>2026-04-11T15:52:44.537Z</time></trkpt><trkpt lat="46.0226805" lon="11.8598327"><ele>369.6</ele><time>2026-04-11T15:52:46.536Z</time></trkpt><trkpt lat="46.0227077" lon="11.8599892"><ele>369.8</ele><time>2026-04-11T15:52:48.537Z</time></trkpt><trkpt lat="46.0227406" lon="11.8601465"><ele>370.0</ele><time>2026-04-11T15:52:50.537Z</time></trkpt><trkpt lat="46.0227789" lon="11.8603004"><ele>369.8</ele><time>2026-04-11T15:52:52.537Z</time></trkpt><trkpt lat="46.0228237" lon="11.8604451"><ele>369.6</ele><time>2026-04-11T15:52:54.538Z</time></trkpt><trkpt lat="46.0228725" lon="11.8605868"><ele>369.4</ele><time>2026-04-11T15:52:56.537Z</time></trkpt><trkpt lat="46.0229168" lon="11.8607186"><ele>369.2</ele><time>2026-04-11T15:52:58.537Z</time></trkpt><trkpt lat="46.0229573" lon="11.8608608"><ele>369.0</ele><time>2026-04-11T15:53:00.537Z</time></trkpt><trkpt lat="46.0230098" lon="11.8609996"><ele>369.0</ele><time>2026-04-11T15:53:02.538Z</time></trkpt><trkpt lat="46.0230689" lon="11.8611352"><ele>369.0</ele><time>2026-04-11T15:53:04.537Z</time></trkpt><trkpt lat="46.0231336" lon="11.8612718"><ele>369.0</ele><time>2026-04-11T15:53:06.537Z</time></trkpt><trkpt lat="46.0232015" lon="11.8613839"><ele>369.0</ele><time>2026-04-11T15:53:08.537Z</time></trkpt><trkpt lat="46.0232724" lon="11.8614896"><ele>369.0</ele><time>2026-04-11T15:53:10.538Z</time></trkpt><trkpt lat="46.0233459" lon="11.8615913"><ele>368.5</ele><time>2026-04-11T15:53:12.538Z</time></trkpt><trkpt lat="46.0234261" lon="11.8617026"><ele>368.0</ele><time>2026-04-11T15:53:14.538Z</time></trkpt><trkpt lat="46.0235036" lon="11.8618189"><ele>367.5</ele><time>2026-04-11T15:53:16.537Z</time></trkpt><trkpt lat="46.0235814" lon="11.8619439"><ele>367.0</ele><time>2026-04-11T15:53:18.537Z</time></trkpt><trkpt lat="46.023655" lon="11.8620798"><ele>367.0</ele><time>2026-04-11T15:53:20.537Z</time></trkpt><trkpt lat="46.0237041" lon="11.8622379"><ele>367.0</ele><time>2026-04-11T15:53:22.536Z</time></trkpt><trkpt lat="46.0237192" lon="11.8623271"><ele>367.0</ele><time>2026-04-11T15:53:23.537Z</time></trkpt><trkpt lat="46.0237288" lon="11.8624184"><ele>367.0</ele><time>2026-04-11T15:53:24.537Z</time></trkpt><trkpt lat="46.0237375" lon="11.8625159"><ele>367.0</ele><time>2026-04-11T15:53:25.537Z</time></trkpt><trkpt lat="46.0237445" lon="11.8626198"><ele>367.0</ele><time>2026-04-11T15:53:26.536Z</time></trkpt><trkpt lat="46.0237525" lon="11.8627283"><ele>367.0</ele><time>2026-04-11T15:53:27.536Z</time></trkpt><trkpt lat="46.0237666" lon="11.8628387"><ele>367.0</ele><time>2026-04-11T15:53:28.537Z</time></trkpt><trkpt lat="46.0237869" lon="11.8629472"><ele>367.0</ele><time>2026-04-11T15:53:29.537Z</time></trkpt><trkpt lat="46.0238185" lon="11.8630526"><ele>367.0</ele><time>2026-04-11T15:53:30.537Z</time></trkpt><trkpt lat="46.0238598" lon="11.8631562"><ele>367.0</ele><time>2026-04-11T15:53:31.535Z</time></trkpt><trkpt lat="46.023908" lon="11.8632579"><ele>367.0</ele><time>2026-04-11T15:53:32.535Z</time></trkpt><trkpt lat="46.0239696" lon="11.8633531"><ele>367.0</ele><time>2026-04-11T15:53:33.536Z</time></trkpt><trkpt lat="46.0240364" lon="11.8634396"><ele>367.0</ele><time>2026-04-11T15:53:34.536Z</time></trkpt><trkpt lat="46.0241129" lon="11.8635155"><ele>367.0</ele><time>2026-04-11T15:53:35.537Z</time></trkpt><trkpt lat="46.0241945" lon="11.8635849"><ele>367.0</ele><time>2026-04-11T15:53:36.537Z</time></trkpt><trkpt lat="46.0242798" lon="11.8636569"><ele>367.0</ele><time>2026-04-11T15:53:37.535Z</time></trkpt><trkpt lat="46.0243654" lon="11.8637317"><ele>367.0</ele><time>2026-04-11T15:53:38.536Z</time></trkpt><trkpt lat="46.024452" lon="11.8638082"><ele>367.0</ele><time>2026-04-11T15:53:39.537Z</time></trkpt><trkpt lat="46.0245395" lon="11.8638851"><ele>367.0</ele><time>2026-04-11T15:53:40.536Z</time></trkpt><trkpt lat="46.0246268" lon="11.8639667"><ele>367.0</ele><time>2026-04-11T15:53:41.537Z</time></trkpt><trkpt lat="46.0247125" lon="11.8640571"><ele>367.0</ele><time>2026-04-11T15:53:42.535Z</time></trkpt><trkpt lat="46.0247976" lon="11.8641539"><ele>367.0</ele><time>2026-04-11T15:53:43.536Z</time></trkpt><trkpt lat="46.0248819" lon="11.8642525"><ele>367.0</ele><time>2026-04-11T15:53:44.538Z</time></trkpt><trkpt lat="46.0249668" lon="11.8643527"><ele>367.0</ele><time>2026-04-11T15:53:45.537Z</time></trkpt><trkpt lat="46.0250494" lon="11.8644605"><ele>367.0</ele><time>2026-04-11T15:53:46.537Z</time></trkpt><trkpt lat="46.0251218" lon="11.8645832"><ele>367.0</ele><time>2026-04-11T15:53:47.537Z</time></trkpt><trkpt lat="46.0251735" lon="11.8647265"><ele>363.6</ele><time>2026-04-11T15:53:48.536Z</time></trkpt><trkpt lat="46.0252059" lon="11.8648817"><ele>360.20000000000005</ele><time>2026-04-11T15:53:49.537Z</time></trkpt><trkpt lat="46.0252241" lon="11.8650433"><ele>356.8</ele><time>2026-04-11T15:53:50.537Z</time></trkpt><trkpt lat="46.0252363" lon="11.865203"><ele>353.4</ele><time>2026-04-11T15:53:51.537Z</time></trkpt><trkpt lat="46.0252542" lon="11.8653588"><ele>350.0</ele><time>2026-04-11T15:53:52.536Z</time></trkpt><trkpt lat="46.0252875" lon="11.8655083"><ele>347.8</ele><time>2026-04-11T15:53:53.537Z</time></trkpt><trkpt lat="46.0253295" lon="11.8656489"><ele>345.6</ele><time>2026-04-11T15:53:54.537Z</time></trkpt><trkpt lat="46.0253777" lon="11.865782"><ele>343.4</ele><time>2026-04-11T15:53:55.537Z</time></trkpt><trkpt lat="46.0254255" lon="11.865912"><ele>341.2</ele><time>2026-04-11T15:53:56.538Z</time></trkpt><trkpt lat="46.0254725" lon="11.8660406"><ele>339.0</ele><time>2026-04-11T15:53:57.536Z</time></trkpt><trkpt lat="46.0255161" lon="11.8661648"><ele>338.0</ele><time>2026-04-11T15:53:58.535Z</time></trkpt><trkpt lat="46.0255566" lon="11.8662841"><ele>337.0</ele><time>2026-04-11T15:53:59.535Z</time></trkpt><trkpt lat="46.0255986" lon="11.8663981"><ele>336.0</ele><time>2026-04-11T15:54:00.537Z</time></trkpt><trkpt lat="46.0256468" lon="11.8664997"><ele>335.0</ele><time>2026-04-11T15:54:01.538Z</time></trkpt><trkpt lat="46.0256971" lon="11.8665939"><ele>334.0</ele><time>2026-04-11T15:54:02.537Z</time></trkpt><trkpt lat="46.0257489" lon="11.8666792"><ele>333.0</ele><time>2026-04-11T15:54:03.537Z</time></trkpt><trkpt lat="46.0257976" lon="11.8667595"><ele>334.79999999999995</ele><time>2026-04-11T15:54:04.536Z</time></trkpt><trkpt lat="46.0258454" lon="11.8668279"><ele>336.6</ele><time>2026-04-11T15:54:05.537Z</time></trkpt><trkpt lat="46.0259379" lon="11.8669479"><ele>338.4</ele><time>2026-04-11T15:54:07.537Z</time></trkpt><trkpt lat="46.0260095" lon="11.8670631"><ele>340.20000000000005</ele><time>2026-04-11T15:54:09.537Z</time></trkpt><trkpt lat="46.0260787" lon="11.8671638"><ele>342.0</ele><time>2026-04-11T15:54:11.537Z</time></trkpt><trkpt lat="46.0261494" lon="11.8672683"><ele>342.0</ele><time>2026-04-11T15:54:13.535Z</time></trkpt><trkpt lat="46.026218" lon="11.8673672"><ele>342.0</ele><time>2026-04-11T15:54:15.537Z</time></trkpt><trkpt lat="46.0262971" lon="11.8674579"><ele>342.0</ele><time>2026-04-11T15:54:17.537Z</time></trkpt><trkpt lat="46.0263771" lon="11.8675316"><ele>342.0</ele><time>2026-04-11T15:54:19.537Z</time></trkpt><trkpt lat="46.026467" lon="11.8675921"><ele>342.0</ele><time>2026-04-11T15:54:21.537Z</time></trkpt><trkpt lat="46.0265538" lon="11.8676553"><ele>342.20000000000005</ele><time>2026-04-11T15:54:23.535Z</time></trkpt><trkpt lat="46.026638" lon="11.8677221"><ele>342.4</ele><time>2026-04-11T15:54:25.535Z</time></trkpt><trkpt lat="46.0267164" lon="11.8677884"><ele>342.6</ele><time>2026-04-11T15:54:27.536Z</time></trkpt><trkpt lat="46.0267959" lon="11.8678674"><ele>342.79999999999995</ele><time>2026-04-11T15:54:29.536Z</time></trkpt><trkpt lat="46.0268689" lon="11.8679765"><ele>343.0</ele><time>2026-04-11T15:54:31.537Z</time></trkpt><trkpt lat="46.0269524" lon="11.8680721"><ele>343.0</ele><time>2026-04-11T15:54:33.538Z</time></trkpt><trkpt lat="46.0270487" lon="11.868137"><ele>343.0</ele><time>2026-04-11T15:54:35.536Z</time></trkpt><trkpt lat="46.0271443" lon="11.8681837"><ele>343.0</ele><time>2026-04-11T15:54:37.538Z</time></trkpt><trkpt lat="46.0272452" lon="11.8682159"><ele>343.0</ele><time>2026-04-11T15:54:39.537Z</time></trkpt><trkpt lat="46.027346" lon="11.8682453"><ele>343.0</ele><time>2026-04-11T15:54:41.536Z</time></trkpt><trkpt lat="46.027447" lon="11.8682797"><ele>343.25</ele><time>2026-04-11T15:54:43.537Z</time></trkpt><trkpt lat="46.0275602" lon="11.8683213"><ele>343.5</ele><time>2026-04-11T15:54:45.537Z</time></trkpt><trkpt lat="46.0276753" lon="11.8683689"><ele>343.75</ele><time>2026-04-11T15:54:47.536Z</time></trkpt><trkpt lat="46.0277773" lon="11.8684352"><ele>344.0</ele><time>2026-04-11T15:54:49.537Z</time></trkpt><trkpt lat="46.0278749" lon="11.8685337"><ele>344.0</ele><time>2026-04-11T15:54:51.537Z</time></trkpt><trkpt lat="46.0279793" lon="11.868613"><ele>344.0</ele><time>2026-04-11T15:54:53.537Z</time></trkpt><trkpt lat="46.0280846" lon="11.8686735"><ele>344.0</ele><time>2026-04-11T15:54:55.538Z</time></trkpt><trkpt lat="46.0281892" lon="11.8687163"><ele>344.0</ele><time>2026-04-11T15:54:57.536Z</time></trkpt><trkpt lat="46.0282938" lon="11.8687483"><ele>344.0</ele><time>2026-04-11T15:54:59.538Z</time></trkpt><trkpt lat="46.0283832" lon="11.8687838"><ele>344.5</ele><time>2026-04-11T15:55:01.538Z</time></trkpt><trkpt lat="46.0284678" lon="11.8688144"><ele>345.0</ele><time>2026-04-11T15:55:03.536Z</time></trkpt><trkpt lat="46.0285466" lon="11.8688433"><ele>345.5</ele><time>2026-04-11T15:55:05.537Z</time></trkpt><trkpt lat="46.0286228" lon="11.8688861"><ele>346.0</ele><time>2026-04-11T15:55:07.537Z</time></trkpt><trkpt lat="46.0286957" lon="11.868947"><ele>346.5</ele><time>2026-04-11T15:55:09.536Z</time></trkpt><trkpt lat="46.028767" lon="11.869023"><ele>347.0</ele><time>2026-04-11T15:55:11.536Z</time></trkpt><trkpt lat="46.0288376" lon="11.869113"><ele>347.0</ele><time>2026-04-11T15:55:13.536Z</time></trkpt><trkpt lat="46.0289187" lon="11.8692066"><ele>347.0</ele><time>2026-04-11T15:55:15.536Z</time></trkpt><trkpt lat="46.029006" lon="11.8693138"><ele>347.0</ele><time>2026-04-11T15:55:17.537Z</time></trkpt><trkpt lat="46.0291068" lon="11.8694296"><ele>347.0</ele><time>2026-04-11T15:55:19.537Z</time></trkpt><trkpt lat="46.0291598" lon="11.8694934"><ele>347.0</ele><time>2026-04-11T15:55:20.536Z</time></trkpt><trkpt lat="46.0292144" lon="11.8695643"><ele>346.6666666666667</ele><time>2026-04-11T15:55:21.536Z</time></trkpt><trkpt lat="46.0292669" lon="11.8696392"><ele>346.33333333333337</ele><time>2026-04-11T15:55:22.537Z</time></trkpt><trkpt lat="46.029319" lon="11.8697199"><ele>346.0</ele><time>2026-04-11T15:55:23.536Z</time></trkpt><trkpt lat="46.0293689" lon="11.869805"><ele>345.6666666666667</ele><time>2026-04-11T15:55:24.536Z</time></trkpt><trkpt lat="46.0294176" lon="11.8698925"><ele>345.3333333333333</ele><time>2026-04-11T15:55:25.537Z</time></trkpt><trkpt lat="46.0294627" lon="11.8699832"><ele>345.0</ele><time>2026-04-11T15:55:26.536Z</time></trkpt><trkpt lat="46.029508" lon="11.8700748"><ele>344.3333333333333</ele><time>2026-04-11T15:55:27.536Z</time></trkpt><trkpt lat="46.0295441" lon="11.8701734"><ele>343.6666666666667</ele><time>2026-04-11T15:55:28.534Z</time></trkpt><trkpt lat="46.0295603" lon="11.8702848"><ele>343.0</ele><time>2026-04-11T15:55:29.536Z</time></trkpt><trkpt lat="46.0295573" lon="11.8704002"><ele>342.33333333333337</ele><time>2026-04-11T15:55:30.536Z</time></trkpt><trkpt lat="46.0295433" lon="11.8705138"><ele>341.6666666666667</ele><time>2026-04-11T15:55:31.537Z</time></trkpt><trkpt lat="46.0295243" lon="11.8706292"><ele>341.0</ele><time>2026-04-11T15:55:32.537Z</time></trkpt><trkpt lat="46.0295067" lon="11.8707479"><ele>341.0</ele><time>2026-04-11T15:55:33.537Z</time></trkpt><trkpt lat="46.0294918" lon="11.8708683"><ele>341.0</ele><time>2026-04-11T15:55:34.537Z</time></trkpt><trkpt lat="46.029482" lon="11.870989"><ele>341.0</ele><time>2026-04-11T15:55:35.536Z</time></trkpt><trkpt lat="46.0294764" lon="11.8711122"><ele>341.0</ele><time>2026-04-11T15:55:36.537Z</time></trkpt><trkpt lat="46.0294644" lon="11.8712336"><ele>341.0</ele><time>2026-04-11T15:55:37.538Z</time></trkpt><trkpt lat="46.0294455" lon="11.8713545"><ele>341.0</ele><time>2026-04-11T15:55:38.537Z</time></trkpt><trkpt lat="46.0294151" lon="11.8714736"><ele>340.33333333333337</ele><time>2026-04-11T15:55:39.535Z</time></trkpt><trkpt lat="46.029373" lon="11.8715874"><ele>339.6666666666667</ele><time>2026-04-11T15:55:40.536Z</time></trkpt><trkpt lat="46.0293222" lon="11.8716926"><ele>339.0</ele><time>2026-04-11T15:55:41.537Z</time></trkpt><trkpt lat="46.0292639" lon="11.8717896"><ele>338.3333333333333</ele><time>2026-04-11T15:55:42.536Z</time></trkpt><trkpt lat="46.0292005" lon="11.8718795"><ele>337.66666666666663</ele><time>2026-04-11T15:55:43.536Z</time></trkpt><trkpt lat="46.0291353" lon="11.8719623"><ele>337.0</ele><time>2026-04-11T15:55:44.536Z</time></trkpt><trkpt lat="46.0290659" lon="11.8720407"><ele>336.66666666666663</ele><time>2026-04-11T15:55:45.536Z</time></trkpt><trkpt lat="46.0289932" lon="11.8721104"><ele>336.3333333333333</ele><time>2026-04-11T15:55:46.537Z</time></trkpt><trkpt lat="46.0289176" lon="11.8721698"><ele>336.0</ele><time>2026-04-11T15:55:47.535Z</time></trkpt><trkpt lat="46.0288422" lon="11.8722225"><ele>335.6666666666667</ele><time>2026-04-11T15:55:48.536Z</time></trkpt><trkpt lat="46.0287784" lon="11.8722873"><ele>335.33333333333337</ele><time>2026-04-11T15:55:49.536Z</time></trkpt><trkpt lat="46.0287363" lon="11.8723666"><ele>335.0</ele><time>2026-04-11T15:55:50.536Z</time></trkpt><trkpt lat="46.0287091" lon="11.8724507"><ele>335.0</ele><time>2026-04-11T15:55:51.536Z</time></trkpt><trkpt lat="46.0286544" lon="11.8725894"><ele>335.0</ele><time>2026-04-11T15:55:53.535Z</time></trkpt><trkpt lat="46.0286096" lon="11.8727027"><ele>335.0</ele><time>2026-04-11T15:55:55.537Z</time></trkpt><trkpt lat="46.0285738" lon="11.8728214"><ele>335.0</ele><time>2026-04-11T15:55:57.538Z</time></trkpt><trkpt lat="46.0285574" lon="11.8729455"><ele>335.0</ele><time>2026-04-11T15:55:59.538Z</time></trkpt><trkpt lat="46.0285789" lon="11.8730674"><ele>334.83333333333337</ele><time>2026-04-11T15:56:01.537Z</time></trkpt><trkpt lat="46.0286134" lon="11.8731982"><ele>334.6666666666667</ele><time>2026-04-11T15:56:03.537Z</time></trkpt><trkpt lat="46.0286468" lon="11.8733304"><ele>334.5</ele><time>2026-04-11T15:56:05.537Z</time></trkpt><trkpt lat="46.0286717" lon="11.8734533"><ele>334.3333333333333</ele><time>2026-04-11T15:56:07.536Z</time></trkpt><trkpt lat="46.0287107" lon="11.8735464"><ele>334.16666666666663</ele><time>2026-04-11T15:56:09.536Z</time></trkpt><trkpt lat="46.0287904" lon="11.8736002"><ele>334.0</ele><time>2026-04-11T15:56:12.537Z</time></trkpt><trkpt lat="46.0288083" lon="11.8737171"><ele>333.0</ele><time>2026-04-11T15:56:15.538Z</time></trkpt><trkpt lat="46.0287715" lon="11.8738356"><ele>332.0</ele><time>2026-04-11T15:56:17.537Z</time></trkpt><trkpt lat="46.0287266" lon="11.873982"><ele>331.0</ele><time>2026-04-11T15:56:19.534Z</time></trkpt><trkpt lat="46.0286904" lon="11.8741278"><ele>330.0</ele><time>2026-04-11T15:56:21.537Z</time></trkpt><trkpt lat="46.0286506" lon="11.8742844"><ele>329.0</ele><time>2026-04-11T15:56:23.537Z</time></trkpt><trkpt lat="46.0286093" lon="11.8744472"><ele>327.2</ele><time>2026-04-11T15:56:25.536Z</time></trkpt><trkpt lat="46.0285652" lon="11.8746189"><ele>325.4</ele><time>2026-04-11T15:56:27.537Z</time></trkpt><trkpt lat="46.0285516" lon="11.8747289"><ele>323.6</ele><time>2026-04-11T15:56:28.536Z</time></trkpt><trkpt lat="46.0285508" lon="11.8748435"><ele>321.8</ele><time>2026-04-11T15:56:29.537Z</time></trkpt><trkpt lat="46.0285664" lon="11.8749632"><ele>320.0</ele><time>2026-04-11T15:56:30.537Z</time></trkpt><trkpt lat="46.0285903" lon="11.8750835"><ele>319.5</ele><time>2026-04-11T15:56:31.537Z</time></trkpt><trkpt lat="46.0286131" lon="11.875203"><ele>319.0</ele><time>2026-04-11T15:56:32.538Z</time></trkpt><trkpt lat="46.0286319" lon="11.875324"><ele>318.5</ele><time>2026-04-11T15:56:33.536Z</time></trkpt><trkpt lat="46.0286444" lon="11.8754481"><ele>318.0</ele><time>2026-04-11T15:56:34.535Z</time></trkpt><trkpt lat="46.028643" lon="11.8755665"><ele>317.5</ele><time>2026-04-11T15:56:35.536Z</time></trkpt><trkpt lat="46.0286259" lon="11.8756768"><ele>317.0</ele><time>2026-04-11T15:56:36.537Z</time></trkpt><trkpt lat="46.0285986" lon="11.8757715"><ele>317.0</ele><time>2026-04-11T15:56:37.537Z</time></trkpt><trkpt lat="46.0285636" lon="11.8758547"><ele>317.0</ele><time>2026-04-11T15:56:38.538Z</time></trkpt><trkpt lat="46.0285276" lon="11.8759298"><ele>317.0</ele><time>2026-04-11T15:56:39.538Z</time></trkpt><trkpt lat="46.02845" lon="11.8760497"><ele>317.0</ele><time>2026-04-11T15:56:41.537Z</time></trkpt><trkpt lat="46.0283634" lon="11.8761352"><ele>317.0</ele><time>2026-04-11T15:56:43.537Z</time></trkpt><trkpt lat="46.0282678" lon="11.876209"><ele>318.0</ele><time>2026-04-11T15:56:45.537Z</time></trkpt><trkpt lat="46.0281694" lon="11.8762743"><ele>319.0</ele><time>2026-04-11T15:56:47.538Z</time></trkpt><trkpt lat="46.0280801" lon="11.876349"><ele>320.0</ele><time>2026-04-11T15:56:49.538Z</time></trkpt><trkpt lat="46.0279949" lon="11.8764265"><ele>321.0</ele><time>2026-04-11T15:56:51.538Z</time></trkpt><trkpt lat="46.0279216" lon="11.8765121"><ele>322.0</ele><time>2026-04-11T15:56:53.538Z</time></trkpt><trkpt lat="46.0278598" lon="11.8766018"><ele>322.0</ele><time>2026-04-11T15:56:55.537Z</time></trkpt><trkpt lat="46.0278079" lon="11.8767068"><ele>322.0</ele><time>2026-04-11T15:56:57.537Z</time></trkpt><trkpt lat="46.0277735" lon="11.8768251"><ele>322.0</ele><time>2026-04-11T15:56:59.537Z</time></trkpt><trkpt lat="46.0277457" lon="11.8769488"><ele>322.0</ele><time>2026-04-11T15:57:01.538Z</time></trkpt><trkpt lat="46.0277309" lon="11.8770661"><ele>322.0</ele><time>2026-04-11T15:57:03.537Z</time></trkpt><trkpt lat="46.0277181" lon="11.8771775"><ele>322.0</ele><time>2026-04-11T15:57:05.538Z</time></trkpt><trkpt lat="46.0276967" lon="11.8772864"><ele>323.5</ele><time>2026-04-11T15:57:07.539Z</time></trkpt><trkpt lat="46.0276671" lon="11.8773923"><ele>325.0</ele><time>2026-04-11T15:57:09.538Z</time></trkpt><trkpt lat="46.0276279" lon="11.8774966"><ele>326.5</ele><time>2026-04-11T15:57:11.538Z</time></trkpt><trkpt lat="46.0275812" lon="11.8775893"><ele>328.0</ele><time>2026-04-11T15:57:13.538Z</time></trkpt><trkpt lat="46.0275291" lon="11.8776669"><ele>329.5</ele><time>2026-04-11T15:57:15.538Z</time></trkpt><trkpt lat="46.027467" lon="11.8777284"><ele>331.0</ele><time>2026-04-11T15:57:17.538Z</time></trkpt><trkpt lat="46.0274017" lon="11.8777919"><ele>332.0</ele><time>2026-04-11T15:57:19.538Z</time></trkpt><trkpt lat="46.0273375" lon="11.8778475"><ele>333.0</ele><time>2026-04-11T15:57:21.538Z</time></trkpt><trkpt lat="46.0272741" lon="11.8779002"><ele>334.0</ele><time>2026-04-11T15:57:23.538Z</time></trkpt><trkpt lat="46.0272162" lon="11.8779684"><ele>335.0</ele><time>2026-04-11T15:57:25.538Z</time></trkpt><trkpt lat="46.0271611" lon="11.8780361"><ele>336.0</ele><time>2026-04-11T15:57:27.538Z</time></trkpt><trkpt lat="46.0271062" lon="11.8781017"><ele>337.0</ele><time>2026-04-11T15:57:29.538Z</time></trkpt><trkpt lat="46.0270533" lon="11.8781792"><ele>338.0</ele><time>2026-04-11T15:57:31.538Z</time></trkpt><trkpt lat="46.0270118" lon="11.8782748"><ele>338.0</ele><time>2026-04-11T15:57:33.537Z</time></trkpt><trkpt lat="46.0269745" lon="11.8783664"><ele>338.0</ele><time>2026-04-11T15:57:35.538Z</time></trkpt><trkpt lat="46.0269422" lon="11.8784572"><ele>338.0</ele><time>2026-04-11T15:57:37.538Z</time></trkpt><trkpt lat="46.0269088" lon="11.8785391"><ele>338.0</ele><time>2026-04-11T15:57:39.538Z</time></trkpt><trkpt lat="46.0268838" lon="11.8786239"><ele>338.0</ele><time>2026-04-11T15:57:41.537Z</time></trkpt><trkpt lat="46.026872" lon="11.8787247"><ele>338.0</ele><time>2026-04-11T15:57:43.539Z</time></trkpt><trkpt lat="46.0268778" lon="11.8788342"><ele>338.0</ele><time>2026-04-11T15:57:45.539Z</time></trkpt><trkpt lat="46.0268904" lon="11.8789378"><ele>337.57142857142856</ele><time>2026-04-11T15:57:47.538Z</time></trkpt><trkpt lat="46.0269057" lon="11.8790405"><ele>337.1428571428571</ele><time>2026-04-11T15:57:49.535Z</time></trkpt><trkpt lat="46.0269286" lon="11.8791347"><ele>336.71428571428567</ele><time>2026-04-11T15:57:51.536Z</time></trkpt><trkpt lat="46.026946" lon="11.87924"><ele>336.2857142857143</ele><time>2026-04-11T15:57:53.536Z</time></trkpt><trkpt lat="46.0269686" lon="11.8793542"><ele>335.85714285714283</ele><time>2026-04-11T15:57:55.537Z</time></trkpt><trkpt lat="46.0269949" lon="11.8794568"><ele>335.4285714285714</ele><time>2026-04-11T15:57:57.538Z</time></trkpt><trkpt lat="46.0270402" lon="11.8795371"><ele>335.0</ele><time>2026-04-11T15:57:59.537Z</time></trkpt><trkpt lat="46.0270922" lon="11.8796084"><ele>335.0</ele><time>2026-04-11T15:58:01.537Z</time></trkpt><trkpt lat="46.0271639" lon="11.8796891"><ele>335.0</ele><time>2026-04-11T15:58:04.537Z</time></trkpt><trkpt lat="46.0272393" lon="11.8796563"><ele>335.0</ele><time>2026-04-11T15:58:07.537Z</time></trkpt><trkpt lat="46.027253" lon="11.8795472"><ele>335.0</ele><time>2026-04-11T15:58:10.538Z</time></trkpt><trkpt lat="46.0272505" lon="11.8794245"><ele>335.0</ele><time>2026-04-11T15:58:13.538Z</time></trkpt><trkpt lat="46.027272" lon="11.8792966"><ele>335.0</ele><time>2026-04-11T15:58:16.538Z</time></trkpt><trkpt lat="46.027303" lon="11.879173"><ele>335.0</ele><time>2026-04-11T15:58:19.537Z</time></trkpt><trkpt lat="46.0273642" lon="11.8790695"><ele>335.0</ele><time>2026-04-11T15:58:22.536Z</time></trkpt><trkpt lat="46.0274253" lon="11.879039"><ele>335.0</ele><time>2026-04-11T15:58:24.537Z</time></trkpt><trkpt lat="46.0274917" lon="11.8790373"><ele>335.0</ele><time>2026-04-11T15:58:26.537Z</time></trkpt><trkpt lat="46.0275597" lon="11.8790399"><ele>335.0</ele><time>2026-04-11T15:58:28.538Z</time></trkpt><trkpt lat="46.0276342" lon="11.8790635"><ele>335.0</ele><time>2026-04-11T15:58:30.537Z</time></trkpt><trkpt lat="46.0277185" lon="11.8790931"><ele>335.83333333333337</ele><time>2026-04-11T15:58:32.535Z</time></trkpt><trkpt lat="46.0278" lon="11.8791244"><ele>336.6666666666667</ele><time>2026-04-11T15:58:34.536Z</time></trkpt><trkpt lat="46.0278843" lon="11.8791486"><ele>337.5</ele><time>2026-04-11T15:58:36.538Z</time></trkpt><trkpt lat="46.0279633" lon="11.8791614"><ele>338.3333333333333</ele><time>2026-04-11T15:58:38.538Z</time></trkpt><trkpt lat="46.0280455" lon="11.8791738"><ele>339.16666666666663</ele><time>2026-04-11T15:58:40.539Z</time></trkpt><trkpt lat="46.0281281" lon="11.8791837"><ele>340.0</ele><time>2026-04-11T15:58:42.538Z</time></trkpt><trkpt lat="46.0282143" lon="11.8791916"><ele>340.0</ele><time>2026-04-11T15:58:44.537Z</time></trkpt><trkpt lat="46.0282996" lon="11.8791936"><ele>340.0</ele><time>2026-04-11T15:58:46.537Z</time></trkpt><trkpt lat="46.0283827" lon="11.8791903"><ele>340.0</ele><time>2026-04-11T15:58:48.537Z</time></trkpt><trkpt lat="46.0284812" lon="11.8791627"><ele>340.0</ele><time>2026-04-11T15:58:50.537Z</time></trkpt><trkpt lat="46.0285666" lon="11.8791119"><ele>340.0</ele><time>2026-04-11T15:58:52.538Z</time></trkpt><trkpt lat="46.028651" lon="11.879069"><ele>341.0</ele><time>2026-04-11T15:58:54.537Z</time></trkpt><trkpt lat="46.0287279" lon="11.8790299"><ele>342.0</ele><time>2026-04-11T15:58:56.538Z</time></trkpt><trkpt lat="46.0287996" lon="11.8789968"><ele>343.0</ele><time>2026-04-11T15:58:58.536Z</time></trkpt><trkpt lat="46.0288668" lon="11.8789591"><ele>344.0</ele><time>2026-04-11T15:59:00.537Z</time></trkpt><trkpt lat="46.0289406" lon="11.8789172"><ele>345.0</ele><time>2026-04-11T15:59:02.538Z</time></trkpt><trkpt lat="46.0290183" lon="11.8789056"><ele>346.0</ele><time>2026-04-11T15:59:04.537Z</time></trkpt><trkpt lat="46.0291007" lon="11.8789272"><ele>346.3333333333333</ele><time>2026-04-11T15:59:06.538Z</time></trkpt><trkpt lat="46.0291819" lon="11.8789733"><ele>346.66666666666663</ele><time>2026-04-11T15:59:08.537Z</time></trkpt><trkpt lat="46.0292592" lon="11.8790135"><ele>347.0</ele><time>2026-04-11T15:59:10.538Z</time></trkpt><trkpt lat="46.0293352" lon="11.8790365"><ele>347.3333333333333</ele><time>2026-04-11T15:59:12.537Z</time></trkpt><trkpt lat="46.0294115" lon="11.8790521"><ele>347.6666666666667</ele><time>2026-04-11T15:59:14.538Z</time></trkpt><trkpt lat="46.0294878" lon="11.8790641"><ele>348.0</ele><time>2026-04-11T15:59:16.537Z</time></trkpt><trkpt lat="46.0295638" lon="11.8790749"><ele>348.0</ele><time>2026-04-11T15:59:18.536Z</time></trkpt><trkpt lat="46.0296423" lon="11.8790632"><ele>348.0</ele><time>2026-04-11T15:59:20.537Z</time></trkpt><trkpt lat="46.0297173" lon="11.8790299"><ele>348.0</ele><time>2026-04-11T15:59:22.537Z</time></trkpt><trkpt lat="46.0297923" lon="11.8790082"><ele>348.0</ele><time>2026-04-11T15:59:24.538Z</time></trkpt><trkpt lat="46.0298714" lon="11.8790019"><ele>348.0</ele><time>2026-04-11T15:59:26.538Z</time></trkpt><trkpt lat="46.0299488" lon="11.879008"><ele>348.0</ele><time>2026-04-11T15:59:28.539Z</time></trkpt><trkpt lat="46.0300252" lon="11.8790129"><ele>348.8333333333333</ele><time>2026-04-11T15:59:30.537Z</time></trkpt><trkpt lat="46.0301031" lon="11.8790245"><ele>349.6666666666667</ele><time>2026-04-11T15:59:32.538Z</time></trkpt><trkpt lat="46.03018" lon="11.8790365"><ele>350.5</ele><time>2026-04-11T15:59:34.538Z</time></trkpt><trkpt lat="46.0302579" lon="11.8790439"><ele>351.33333333333337</ele><time>2026-04-11T15:59:36.538Z</time></trkpt><trkpt lat="46.0303373" lon="11.8790491"><ele>352.1666666666667</ele><time>2026-04-11T15:59:38.536Z</time></trkpt><trkpt lat="46.0304152" lon="11.8790534"><ele>353.0</ele><time>2026-04-11T15:59:40.538Z</time></trkpt><trkpt lat="46.0304891" lon="11.8790579"><ele>353.0</ele><time>2026-04-11T15:59:42.537Z</time></trkpt><trkpt lat="46.0305652" lon="11.8790588"><ele>353.0</ele><time>2026-04-11T15:59:44.538Z</time></trkpt><trkpt lat="46.0306458" lon="11.8790538"><ele>353.0</ele><time>2026-04-11T15:59:46.538Z</time></trkpt><trkpt lat="46.0307127" lon="11.8790597"><ele>353.0</ele><time>2026-04-11T15:59:48.536Z</time></trkpt><trkpt lat="46.030803" lon="11.8790664"><ele>353.0</ele><time>2026-04-11T15:59:51.537Z</time></trkpt><trkpt lat="46.0308697" lon="11.8790695"><ele>353.0</ele><time>2026-04-11T15:59:53.536Z</time></trkpt><trkpt lat="46.0309314" lon="11.8790882"><ele>353.0</ele><time>2026-04-11T15:59:55.538Z</time></trkpt><trkpt lat="46.0310145" lon="11.8791446"><ele>353.7142857142857</ele><time>2026-04-11T15:59:58.537Z</time></trkpt><trkpt lat="46.0310849" lon="11.8791753"><ele>354.42857142857144</ele><time>2026-04-11T16:00:01.537Z</time></trkpt><trkpt lat="46.0311438" lon="11.8791218"><ele>355.14285714285717</ele><time>2026-04-11T16:00:04.536Z</time></trkpt><trkpt lat="46.0311992" lon="11.8790522"><ele>355.8571428571429</ele><time>2026-04-11T16:00:07.539Z</time></trkpt><trkpt lat="46.0312576" lon="11.8790136"><ele>356.57142857142856</ele><time>2026-04-11T16:00:10.537Z</time></trkpt><trkpt lat="46.0313332" lon="11.8790104"><ele>357.28571428571433</ele><time>2026-04-11T16:00:14.538Z</time></trkpt><trkpt lat="46.0313744" lon="11.8790932"><ele>358.0</ele><time>2026-04-11T16:00:18.537Z</time></trkpt><trkpt lat="46.0313441" lon="11.8790128"><ele>358.0</ele><time>2026-04-11T16:13:43.537Z</time></trkpt><trkpt lat="46.031276" lon="11.8789529"><ele>358.0</ele><time>2026-04-11T16:13:47.537Z</time></trkpt><trkpt lat="46.0312197" lon="11.8790228"><ele>358.0</ele><time>2026-04-11T16:13:51.536Z</time></trkpt><trkpt lat="46.0311883" lon="11.8791019"><ele>358.0</ele><time>2026-04-11T16:13:54.536Z</time></trkpt><trkpt lat="46.0311328" lon="11.8791608"><ele>358.0</ele><time>2026-04-11T16:13:57.537Z</time></trkpt><trkpt lat="46.0311291" lon="11.879278"><ele>358.0</ele><time>2026-04-11T16:14:00.537Z</time></trkpt><trkpt lat="46.0311881" lon="11.8793788"><ele>357.5</ele><time>2026-04-11T16:14:03.537Z</time></trkpt><trkpt lat="46.0312338" lon="11.8794433"><ele>357.0</ele><time>2026-04-11T16:14:05.538Z</time></trkpt><trkpt lat="46.031284" lon="11.8795216"><ele>356.5</ele><time>2026-04-11T16:14:07.538Z</time></trkpt><trkpt lat="46.0313488" lon="11.8795956"><ele>356.0</ele><time>2026-04-11T16:14:09.537Z</time></trkpt><trkpt lat="46.0314232" lon="11.8796716"><ele>355.5</ele><time>2026-04-11T16:14:11.537Z</time></trkpt><trkpt lat="46.0315038" lon="11.8797424"><ele>355.0</ele><time>2026-04-11T16:14:13.537Z</time></trkpt><trkpt lat="46.03158" lon="11.8798076"><ele>354.8</ele><time>2026-04-11T16:14:15.536Z</time></trkpt><trkpt lat="46.0316509" lon="11.8798883"><ele>354.6</ele><time>2026-04-11T16:14:17.537Z</time></trkpt><trkpt lat="46.0317242" lon="11.8799602"><ele>354.4</ele><time>2026-04-11T16:14:19.537Z</time></trkpt><trkpt lat="46.0317791" lon="11.880036"><ele>354.2</ele><time>2026-04-11T16:14:21.536Z</time></trkpt><trkpt lat="46.0318495" lon="11.8801163"><ele>354.0</ele><time>2026-04-11T16:14:23.537Z</time></trkpt><trkpt lat="46.0319397" lon="11.8802059"><ele>352.25</ele><time>2026-04-11T16:14:25.535Z</time></trkpt><trkpt lat="46.0320409" lon="11.880296"><ele>350.5</ele><time>2026-04-11T16:14:27.536Z</time></trkpt><trkpt lat="46.0321415" lon="11.8803725"><ele>348.75</ele><time>2026-04-11T16:14:29.536Z</time></trkpt><trkpt lat="46.0322468" lon="11.880415"><ele>347.0</ele><time>2026-04-11T16:14:31.536Z</time></trkpt><trkpt lat="46.0323572" lon="11.8804056"><ele>347.0</ele><time>2026-04-11T16:14:33.536Z</time></trkpt><trkpt lat="46.0324587" lon="11.8803349"><ele>347.0</ele><time>2026-04-11T16:14:35.538Z</time></trkpt><trkpt lat="46.0325453" lon="11.8802026"><ele>347.0</ele><time>2026-04-11T16:14:37.536Z</time></trkpt><trkpt lat="46.0325894" lon="11.8801237"><ele>347.0</ele><time>2026-04-11T16:14:38.537Z</time></trkpt><trkpt lat="46.0326367" lon="11.8800385"><ele>347.0</ele><time>2026-04-11T16:14:39.536Z</time></trkpt><trkpt lat="46.0326895" lon="11.8799437"><ele>347.0</ele><time>2026-04-11T16:14:40.537Z</time></trkpt><trkpt lat="46.0327499" lon="11.8798459"><ele>347.0</ele><time>2026-04-11T16:14:41.537Z</time></trkpt><trkpt lat="46.0328184" lon="11.8797484"><ele>347.0</ele><time>2026-04-11T16:14:42.537Z</time></trkpt><trkpt lat="46.0328959" lon="11.8796517"><ele>347.0</ele><time>2026-04-11T16:14:43.537Z</time></trkpt><trkpt lat="46.0329761" lon="11.8795542"><ele>347.0</ele><time>2026-04-11T16:14:44.538Z</time></trkpt><trkpt lat="46.033059" lon="11.8794588"><ele>347.0</ele><time>2026-04-11T16:14:45.536Z</time></trkpt><trkpt lat="46.0331441" lon="11.8793673"><ele>347.0</ele><time>2026-04-11T16:14:46.537Z</time></trkpt><trkpt lat="46.0332309" lon="11.8792732"><ele>347.0</ele><time>2026-04-11T16:14:47.533Z</time></trkpt><trkpt lat="46.0333177" lon="11.8791758"><ele>347.0</ele><time>2026-04-11T16:14:48.535Z</time></trkpt><trkpt lat="46.0334048" lon="11.8790751"><ele>347.0</ele><time>2026-04-11T16:14:49.535Z</time></trkpt><trkpt lat="46.0334863" lon="11.8789792"><ele>344.20000000000005</ele><time>2026-04-11T16:14:50.537Z</time></trkpt><trkpt lat="46.0335609" lon="11.8788756"><ele>341.4</ele><time>2026-04-11T16:14:51.537Z</time></trkpt><trkpt lat="46.0336251" lon="11.8787678"><ele>338.6</ele><time>2026-04-11T16:14:52.537Z</time></trkpt><trkpt lat="46.0336754" lon="11.8786493"><ele>335.79999999999995</ele><time>2026-04-11T16:14:53.537Z</time></trkpt><trkpt lat="46.0337147" lon="11.8785249"><ele>333.0</ele><time>2026-04-11T16:14:54.536Z</time></trkpt><trkpt lat="46.0337402" lon="11.8784023"><ele>332.6666666666667</ele><time>2026-04-11T16:14:55.537Z</time></trkpt><trkpt lat="46.0337612" lon="11.8782833"><ele>332.3333333333333</ele><time>2026-04-11T16:14:56.538Z</time></trkpt><trkpt lat="46.0337845" lon="11.8781665"><ele>332.0</ele><time>2026-04-11T16:14:57.534Z</time></trkpt><trkpt lat="46.0338079" lon="11.8780536"><ele>331.66666666666663</ele><time>2026-04-11T16:14:58.537Z</time></trkpt><trkpt lat="46.0338336" lon="11.8779478"><ele>331.3333333333333</ele><time>2026-04-11T16:14:59.536Z</time></trkpt><trkpt lat="46.033862" lon="11.8778458"><ele>331.0</ele><time>2026-04-11T16:15:00.535Z</time></trkpt><trkpt lat="46.0338934" lon="11.8777521"><ele>331.0</ele><time>2026-04-11T16:15:01.537Z</time></trkpt><trkpt lat="46.0339254" lon="11.8776623"><ele>331.0</ele><time>2026-04-11T16:15:02.536Z</time></trkpt><trkpt lat="46.0339566" lon="11.8775797"><ele>331.0</ele><time>2026-04-11T16:15:03.537Z</time></trkpt><trkpt lat="46.0340222" lon="11.8774359"><ele>331.0</ele><time>2026-04-11T16:15:05.538Z</time></trkpt><trkpt lat="46.0340825" lon="11.8773055"><ele>331.0</ele><time>2026-04-11T16:15:07.538Z</time></trkpt><trkpt lat="46.0341378" lon="11.8771879"><ele>331.4</ele><time>2026-04-11T16:15:09.537Z</time></trkpt><trkpt lat="46.0342083" lon="11.8771056"><ele>331.8</ele><time>2026-04-11T16:15:11.538Z</time></trkpt><trkpt lat="46.0342957" lon="11.8770631"><ele>332.2</ele><time>2026-04-11T16:15:13.538Z</time></trkpt><trkpt lat="46.0343853" lon="11.8770313"><ele>332.59999999999997</ele><time>2026-04-11T16:15:15.537Z</time></trkpt><trkpt lat="46.0344835" lon="11.8770273"><ele>333.0</ele><time>2026-04-11T16:15:17.538Z</time></trkpt><trkpt lat="46.0345853" lon="11.8770513"><ele>333.0</ele><time>2026-04-11T16:15:19.538Z</time></trkpt><trkpt lat="46.0346883" lon="11.877102"><ele>333.0</ele><time>2026-04-11T16:15:21.537Z</time></trkpt><trkpt lat="46.0347848" lon="11.8771698"><ele>333.0</ele><time>2026-04-11T16:15:23.536Z</time></trkpt><trkpt lat="46.0348777" lon="11.8772372"><ele>333.0</ele><time>2026-04-11T16:15:25.538Z</time></trkpt><trkpt lat="46.0349754" lon="11.8773079"><ele>333.0</ele><time>2026-04-11T16:15:27.538Z</time></trkpt><trkpt lat="46.0350707" lon="11.8773844"><ele>333.0</ele><time>2026-04-11T16:15:29.537Z</time></trkpt><trkpt lat="46.0351597" lon="11.8774588"><ele>333.0</ele><time>2026-04-11T16:15:31.538Z</time></trkpt><trkpt lat="46.0352509" lon="11.8775323"><ele>333.0</ele><time>2026-04-11T16:15:33.537Z</time></trkpt><trkpt lat="46.0353447" lon="11.8775983"><ele>333.0</ele><time>2026-04-11T16:15:35.538Z</time></trkpt><trkpt lat="46.0354479" lon="11.8776296"><ele>333.0</ele><time>2026-04-11T16:15:37.538Z</time></trkpt><trkpt lat="46.0355412" lon="11.8776045"><ele>333.2</ele><time>2026-04-11T16:15:39.538Z</time></trkpt><trkpt lat="46.0356137" lon="11.8775324"><ele>333.4</ele><time>2026-04-11T16:15:41.538Z</time></trkpt><trkpt lat="46.0356823" lon="11.8774633"><ele>333.59999999999997</ele><time>2026-04-11T16:15:43.536Z</time></trkpt><trkpt lat="46.035774" lon="11.8774947"><ele>333.79999999999995</ele><time>2026-04-11T16:15:46.537Z</time></trkpt><trkpt lat="46.0358399" lon="11.877602"><ele>334.0</ele><time>2026-04-11T16:15:48.537Z</time></trkpt><trkpt lat="46.0359073" lon="11.8777071"><ele>334.4</ele><time>2026-04-11T16:15:50.537Z</time></trkpt><trkpt lat="46.0359708" lon="11.8778159"><ele>334.79999999999995</ele><time>2026-04-11T16:15:52.538Z</time></trkpt><trkpt lat="46.0360368" lon="11.8779323"><ele>335.20000000000005</ele><time>2026-04-11T16:15:54.538Z</time></trkpt><trkpt lat="46.036106" lon="11.8780551"><ele>335.6</ele><time>2026-04-11T16:15:56.537Z</time></trkpt><trkpt lat="46.0361665" lon="11.8781869"><ele>336.0</ele><time>2026-04-11T16:15:58.538Z</time></trkpt><trkpt lat="46.0362235" lon="11.8783219"><ele>336.20000000000005</ele><time>2026-04-11T16:16:00.538Z</time></trkpt><trkpt lat="46.036278" lon="11.8784539"><ele>336.40000000000003</ele><time>2026-04-11T16:16:02.538Z</time></trkpt><trkpt lat="46.036323" lon="11.8785872"><ele>336.6</ele><time>2026-04-11T16:16:04.536Z</time></trkpt><trkpt lat="46.0363582" lon="11.8787361"><ele>336.8</ele><time>2026-04-11T16:16:06.538Z</time></trkpt><trkpt lat="46.0363889" lon="11.8788795"><ele>337.0</ele><time>2026-04-11T16:16:08.538Z</time></trkpt><trkpt lat="46.036418" lon="11.8790217"><ele>337.0</ele><time>2026-04-11T16:16:10.538Z</time></trkpt><trkpt lat="46.0364388" lon="11.8791653"><ele>337.0</ele><time>2026-04-11T16:16:12.536Z</time></trkpt><trkpt lat="46.0364627" lon="11.8793125"><ele>337.0</ele><time>2026-04-11T16:16:14.536Z</time></trkpt><trkpt lat="46.036486" lon="11.8794602"><ele>337.0</ele><time>2026-04-11T16:16:16.534Z</time></trkpt><trkpt lat="46.036516" lon="11.8796075"><ele>337.0</ele><time>2026-04-11T16:16:18.536Z</time></trkpt><trkpt lat="46.0365543" lon="11.8797509"><ele>336.6</ele><time>2026-04-11T16:16:20.543Z</time></trkpt><trkpt lat="46.0366019" lon="11.8798907"><ele>336.20000000000005</ele><time>2026-04-11T16:16:22.534Z</time></trkpt><trkpt lat="46.0366643" lon="11.8800143"><ele>335.8</ele><time>2026-04-11T16:16:24.534Z</time></trkpt><trkpt lat="46.0367337" lon="11.8801227"><ele>335.4</ele><time>2026-04-11T16:16:26.537Z</time></trkpt><trkpt lat="46.0368152" lon="11.8802199"><ele>335.0</ele><time>2026-04-11T16:16:28.537Z</time></trkpt><trkpt lat="46.0368946" lon="11.8802982"><ele>335.0</ele><time>2026-04-11T16:16:30.537Z</time></trkpt><trkpt lat="46.0369722" lon="11.8803876"><ele>335.0</ele><time>2026-04-11T16:16:32.537Z</time></trkpt><trkpt lat="46.0370324" lon="11.8804932"><ele>335.0</ele><time>2026-04-11T16:16:34.538Z</time></trkpt><trkpt lat="46.0370888" lon="11.8805992"><ele>335.0</ele><time>2026-04-11T16:16:36.538Z</time></trkpt><trkpt lat="46.0371489" lon="11.880706"><ele>335.0</ele><time>2026-04-11T16:16:38.538Z</time></trkpt><trkpt lat="46.0372127" lon="11.8808183"><ele>334.8</ele><time>2026-04-11T16:16:40.538Z</time></trkpt><trkpt lat="46.0372745" lon="11.8809329"><ele>334.6</ele><time>2026-04-11T16:16:42.536Z</time></trkpt><trkpt lat="46.0373333" lon="11.8810457"><ele>334.4</ele><time>2026-04-11T16:16:44.538Z</time></trkpt><trkpt lat="46.0373873" lon="11.8811523"><ele>334.2</ele><time>2026-04-11T16:16:46.537Z</time></trkpt><trkpt lat="46.037444" lon="11.8812515"><ele>334.0</ele><time>2026-04-11T16:16:48.538Z</time></trkpt><trkpt lat="46.0374976" lon="11.8813469"><ele>334.3333333333333</ele><time>2026-04-11T16:16:50.538Z</time></trkpt><trkpt lat="46.0375477" lon="11.8814338"><ele>334.66666666666663</ele><time>2026-04-11T16:16:52.537Z</time></trkpt><trkpt lat="46.0375941" lon="11.8815304"><ele>335.0</ele><time>2026-04-11T16:16:54.538Z</time></trkpt><trkpt lat="46.0376357" lon="11.8816268"><ele>335.3333333333333</ele><time>2026-04-11T16:16:56.537Z</time></trkpt><trkpt lat="46.0376828" lon="11.881694"><ele>335.6666666666667</ele><time>2026-04-11T16:16:58.538Z</time></trkpt><trkpt lat="46.0377599" lon="11.881684"><ele>336.0</ele><time>2026-04-11T16:17:01.538Z</time></trkpt><trkpt lat="46.0378252" lon="11.8816364"><ele>336.0</ele><time>2026-04-11T16:17:03.538Z</time></trkpt><trkpt lat="46.0378929" lon="11.8815951"><ele>336.0</ele><time>2026-04-11T16:17:05.537Z</time></trkpt><trkpt lat="46.0379633" lon="11.8815446"><ele>336.0</ele><time>2026-04-11T16:17:07.538Z</time></trkpt><trkpt lat="46.0380256" lon="11.8814993"><ele>336.0</ele><time>2026-04-11T16:17:09.538Z</time></trkpt><trkpt lat="46.0380937" lon="11.8814581"><ele>336.0</ele><time>2026-04-11T16:17:11.538Z</time></trkpt><trkpt lat="46.0381553" lon="11.8814101"><ele>336.0</ele><time>2026-04-11T16:17:13.537Z</time></trkpt><trkpt lat="46.0382438" lon="11.8813471"><ele>336.5</ele><time>2026-04-11T16:17:16.537Z</time></trkpt><trkpt lat="46.0383076" lon="11.8812938"><ele>337.0</ele><time>2026-04-11T16:17:18.538Z</time></trkpt><trkpt lat="46.0383762" lon="11.8812453"><ele>337.5</ele><time>2026-04-11T16:17:20.538Z</time></trkpt><trkpt lat="46.0384562" lon="11.8811928"><ele>338.0</ele><time>2026-04-11T16:17:22.536Z</time></trkpt><trkpt lat="46.0385306" lon="11.881137"><ele>338.5</ele><time>2026-04-11T16:17:24.538Z</time></trkpt><trkpt lat="46.0386005" lon="11.8810878"><ele>339.0</ele><time>2026-04-11T16:17:26.538Z</time></trkpt><trkpt lat="46.0386686" lon="11.8810351"><ele>339.0</ele><time>2026-04-11T16:17:28.536Z</time></trkpt><trkpt lat="46.0387365" lon="11.8809875"><ele>339.0</ele><time>2026-04-11T16:17:30.537Z</time></trkpt><trkpt lat="46.0388016" lon="11.8809424"><ele>339.0</ele><time>2026-04-11T16:17:32.538Z</time></trkpt><trkpt lat="46.0388647" lon="11.8809024"><ele>339.0</ele><time>2026-04-11T16:17:34.537Z</time></trkpt><trkpt lat="46.0389284" lon="11.8808576"><ele>339.0</ele><time>2026-04-11T16:17:36.538Z</time></trkpt><trkpt lat="46.0389972" lon="11.8808155"><ele>339.0</ele><time>2026-04-11T16:17:38.539Z</time></trkpt><trkpt lat="46.0390563" lon="11.8807761"><ele>339.0</ele><time>2026-04-11T16:17:40.538Z</time></trkpt><trkpt lat="46.0391188" lon="11.8807379"><ele>339.1666666666667</ele><time>2026-04-11T16:17:42.536Z</time></trkpt><trkpt lat="46.0391878" lon="11.880699"><ele>339.3333333333333</ele><time>2026-04-11T16:17:45.535Z</time></trkpt><trkpt lat="46.0392456" lon="11.8806514"><ele>339.5</ele><time>2026-04-11T16:17:48.535Z</time></trkpt><trkpt lat="46.0391721" lon="11.8807139"><ele>339.66666666666663</ele><time>2026-04-11T16:18:41.538Z</time></trkpt><trkpt lat="46.0390858" lon="11.8807805"><ele>339.8333333333333</ele><time>2026-04-11T16:18:44.537Z</time></trkpt><trkpt lat="46.0390205" lon="11.8808264"><ele>340.0</ele><time>2026-04-11T16:18:46.536Z</time></trkpt><trkpt lat="46.0389441" lon="11.8808709"><ele>340.0</ele><time>2026-04-11T16:18:48.537Z</time></trkpt><trkpt lat="46.0388653" lon="11.8809198"><ele>340.0</ele><time>2026-04-11T16:18:50.538Z</time></trkpt><trkpt lat="46.0387889" lon="11.8809769"><ele>340.0</ele><time>2026-04-11T16:18:52.538Z</time></trkpt><trkpt lat="46.0387174" lon="11.8810332"><ele>340.0</ele><time>2026-04-11T16:18:54.538Z</time></trkpt><trkpt lat="46.0386362" lon="11.8810831"><ele>340.0</ele><time>2026-04-11T16:18:56.538Z</time></trkpt><trkpt lat="46.0385637" lon="11.881132"><ele>340.0</ele><time>2026-04-11T16:18:58.536Z</time></trkpt><trkpt lat="46.0384853" lon="11.8811913"><ele>339.8</ele><time>2026-04-11T16:19:00.538Z</time></trkpt><trkpt lat="46.038413" lon="11.8812597"><ele>339.6</ele><time>2026-04-11T16:19:02.538Z</time></trkpt><trkpt lat="46.0383223" lon="11.8813337"><ele>339.4</ele><time>2026-04-11T16:19:04.538Z</time></trkpt><trkpt lat="46.03822" lon="11.8814019"><ele>339.2</ele><time>2026-04-11T16:19:06.537Z</time></trkpt><trkpt lat="46.0381092" lon="11.8814733"><ele>339.0</ele><time>2026-04-11T16:19:08.538Z</time></trkpt><trkpt lat="46.0380064" lon="11.8815531"><ele>338.25</ele><time>2026-04-11T16:19:10.537Z</time></trkpt><trkpt lat="46.0379023" lon="11.8816325"><ele>337.5</ele><time>2026-04-11T16:19:12.538Z</time></trkpt><trkpt lat="46.0377912" lon="11.8817073"><ele>336.75</ele><time>2026-04-11T16:19:14.536Z</time></trkpt><trkpt lat="46.0376831" lon="11.8817802"><ele>336.0</ele><time>2026-04-11T16:19:16.538Z</time></trkpt><trkpt lat="46.0375754" lon="11.8818509"><ele>335.5</ele><time>2026-04-11T16:19:18.536Z</time></trkpt><trkpt lat="46.0374623" lon="11.881927"><ele>335.0</ele><time>2026-04-11T16:19:20.538Z</time></trkpt><trkpt lat="46.0374029" lon="11.8819681"><ele>334.5</ele><time>2026-04-11T16:19:21.538Z</time></trkpt><trkpt lat="46.0373429" lon="11.8820113"><ele>334.0</ele><time>2026-04-11T16:19:22.534Z</time></trkpt><trkpt lat="46.0372849" lon="11.8820552"><ele>333.5</ele><time>2026-04-11T16:19:23.538Z</time></trkpt><trkpt lat="46.0372283" lon="11.8820953"><ele>333.0</ele><time>2026-04-11T16:19:24.538Z</time></trkpt><trkpt lat="46.0371703" lon="11.8821387"><ele>333.0</ele><time>2026-04-11T16:19:25.536Z</time></trkpt><trkpt lat="46.0371125" lon="11.8821767"><ele>333.0</ele><time>2026-04-11T16:19:26.538Z</time></trkpt><trkpt lat="46.0370528" lon="11.8822173"><ele>333.0</ele><time>2026-04-11T16:19:27.538Z</time></trkpt><trkpt lat="46.036992" lon="11.8822592"><ele>333.0</ele><time>2026-04-11T16:19:28.538Z</time></trkpt><trkpt lat="46.0369322" lon="11.882299"><ele>333.0</ele><time>2026-04-11T16:19:29.538Z</time></trkpt><trkpt lat="46.0368216" lon="11.8823707"><ele>333.0</ele><time>2026-04-11T16:19:31.538Z</time></trkpt><trkpt lat="46.0367611" lon="11.8824162"><ele>333.0</ele><time>2026-04-11T16:19:32.538Z</time></trkpt><trkpt lat="46.0367015" lon="11.882456"><ele>333.0</ele><time>2026-04-11T16:19:33.537Z</time></trkpt><trkpt lat="46.0366405" lon="11.882495"><ele>333.0</ele><time>2026-04-11T16:19:34.538Z</time></trkpt><trkpt lat="46.036583" lon="11.8825376"><ele>333.0</ele><time>2026-04-11T16:19:35.538Z</time></trkpt><trkpt lat="46.0364669" lon="11.8826125"><ele>333.0</ele><time>2026-04-11T16:19:37.537Z</time></trkpt><trkpt lat="46.0364079" lon="11.8826554"><ele>333.0</ele><time>2026-04-11T16:19:38.538Z</time></trkpt><trkpt lat="46.0363479" lon="11.882693"><ele>332.14285714285717</ele><time>2026-04-11T16:19:39.537Z</time></trkpt><trkpt lat="46.0362877" lon="11.8827327"><ele>331.2857142857143</ele><time>2026-04-11T16:19:40.537Z</time></trkpt><trkpt lat="46.0362296" lon="11.8827727"><ele>330.42857142857144</ele><time>2026-04-11T16:19:41.537Z</time></trkpt><trkpt lat="46.0361713" lon="11.8828119"><ele>329.57142857142856</ele><time>2026-04-11T16:19:42.535Z</time></trkpt><trkpt lat="46.0361116" lon="11.882849"><ele>328.7142857142857</ele><time>2026-04-11T16:19:43.538Z</time></trkpt><trkpt lat="46.0360523" lon="11.8828903"><ele>327.85714285714283</ele><time>2026-04-11T16:19:44.538Z</time></trkpt><trkpt lat="46.0359929" lon="11.8829319"><ele>327.0</ele><time>2026-04-11T16:19:45.537Z</time></trkpt><trkpt lat="46.0359309" lon="11.8829754"><ele>327.0</ele><time>2026-04-11T16:19:46.538Z</time></trkpt><trkpt lat="46.035871" lon="11.8830215"><ele>327.0</ele><time>2026-04-11T16:19:47.538Z</time></trkpt><trkpt lat="46.0358104" lon="11.8830678"><ele>327.0</ele><time>2026-04-11T16:19:48.538Z</time></trkpt><trkpt lat="46.0357503" lon="11.8831131"><ele>327.0</ele><time>2026-04-11T16:19:49.537Z</time></trkpt><trkpt lat="46.0356904" lon="11.8831596"><ele>327.0</ele><time>2026-04-11T16:19:50.538Z</time></trkpt><trkpt lat="46.0356299" lon="11.8832059"><ele>327.0</ele><time>2026-04-11T16:19:51.538Z</time></trkpt><trkpt lat="46.0355704" lon="11.8832527"><ele>327.0</ele><time>2026-04-11T16:19:52.538Z</time></trkpt><trkpt lat="46.0355152" lon="11.883305"><ele>327.0</ele><time>2026-04-11T16:19:53.537Z</time></trkpt><trkpt lat="46.0354615" lon="11.8833571"><ele>327.0</ele><time>2026-04-11T16:19:54.537Z</time></trkpt><trkpt lat="46.0354072" lon="11.883408"><ele>327.0</ele><time>2026-04-11T16:19:55.538Z</time></trkpt><trkpt lat="46.0353496" lon="11.8834557"><ele>327.0</ele><time>2026-04-11T16:19:56.537Z</time></trkpt><trkpt lat="46.0352899" lon="11.8835088"><ele>327.0</ele><time>2026-04-11T16:19:57.538Z</time></trkpt><trkpt lat="46.0352345" lon="11.8835617"><ele>327.0</ele><time>2026-04-11T16:19:58.537Z</time></trkpt><trkpt lat="46.0351798" lon="11.8836185"><ele>327.0</ele><time>2026-04-11T16:19:59.538Z</time></trkpt><trkpt lat="46.0351268" lon="11.883679"><ele>327.0</ele><time>2026-04-11T16:20:00.537Z</time></trkpt><trkpt lat="46.0350784" lon="11.8837465"><ele>327.0</ele><time>2026-04-11T16:20:01.536Z</time></trkpt><trkpt lat="46.0350326" lon="11.8838176"><ele>327.0</ele><time>2026-04-11T16:20:02.538Z</time></trkpt><trkpt lat="46.0349883" lon="11.8838844"><ele>327.0</ele><time>2026-04-11T16:20:03.536Z</time></trkpt><trkpt lat="46.0349413" lon="11.8839524"><ele>327.0</ele><time>2026-04-11T16:20:04.538Z</time></trkpt><trkpt lat="46.0348947" lon="11.8840175"><ele>327.0</ele><time>2026-04-11T16:20:05.537Z</time></trkpt><trkpt lat="46.034847" lon="11.884079"><ele>327.0</ele><time>2026-04-11T16:20:06.538Z</time></trkpt><trkpt lat="46.0347565" lon="11.8841881"><ele>326.6</ele><time>2026-04-11T16:20:08.538Z</time></trkpt><trkpt lat="46.0346833" lon="11.8842896"><ele>326.20000000000005</ele><time>2026-04-11T16:20:10.537Z</time></trkpt><trkpt lat="46.034662" lon="11.8844117"><ele>325.8</ele><time>2026-04-11T16:20:12.538Z</time></trkpt><trkpt lat="46.034717" lon="11.8845385"><ele>325.4</ele><time>2026-04-11T16:20:14.537Z</time></trkpt><trkpt lat="46.0347886" lon="11.8846458"><ele>325.0</ele><time>2026-04-11T16:20:16.537Z</time></trkpt><trkpt lat="46.034837" lon="11.884753"><ele>325.0</ele><time>2026-04-11T16:20:18.537Z</time></trkpt><trkpt lat="46.0348123" lon="11.8848723"><ele>325.0</ele><time>2026-04-11T16:20:20.538Z</time></trkpt><trkpt lat="46.0347316" lon="11.8849704"><ele>325.0</ele><time>2026-04-11T16:20:22.537Z</time></trkpt><trkpt lat="46.0346407" lon="11.8850767"><ele>325.0</ele><time>2026-04-11T16:20:24.536Z</time></trkpt><trkpt lat="46.0345525" lon="11.8851981"><ele>325.0</ele><time>2026-04-11T16:20:26.538Z</time></trkpt><trkpt lat="46.0344592" lon="11.8853205"><ele>324.6</ele><time>2026-04-11T16:20:28.536Z</time></trkpt><trkpt lat="46.0344113" lon="11.8853799"><ele>324.2</ele><time>2026-04-11T16:20:29.537Z</time></trkpt><trkpt lat="46.0343197" lon="11.8854985"><ele>323.79999999999995</ele><time>2026-04-11T16:20:31.538Z</time></trkpt><trkpt lat="46.0342443" lon="11.885646"><ele>323.4</ele><time>2026-04-11T16:20:33.537Z</time></trkpt><trkpt lat="46.0342358" lon="11.8858341"><ele>323.0</ele><time>2026-04-11T16:20:35.536Z</time></trkpt><trkpt lat="46.0342758" lon="11.885919"><ele>323.14285714285717</ele><time>2026-04-11T16:20:36.537Z</time></trkpt><trkpt lat="46.0343313" lon="11.8859846"><ele>323.2857142857143</ele><time>2026-04-11T16:20:37.537Z</time></trkpt><trkpt lat="46.0343872" lon="11.8860473"><ele>323.42857142857144</ele><time>2026-04-11T16:20:38.537Z</time></trkpt><trkpt lat="46.0344416" lon="11.8861104"><ele>323.57142857142856</ele><time>2026-04-11T16:20:39.538Z</time></trkpt><trkpt lat="46.0344976" lon="11.8861693"><ele>323.7142857142857</ele><time>2026-04-11T16:20:40.537Z</time></trkpt><trkpt lat="46.0345514" lon="11.8862274"><ele>323.8571428571429</ele><time>2026-04-11T16:20:41.538Z</time></trkpt><trkpt lat="46.0346025" lon="11.8862859"><ele>324.0</ele><time>2026-04-11T16:20:42.538Z</time></trkpt><trkpt lat="46.0346521" lon="11.886349"><ele>324.0</ele><time>2026-04-11T16:20:43.537Z</time></trkpt><trkpt lat="46.0347018" lon="11.8864092"><ele>324.0</ele><time>2026-04-11T16:20:44.537Z</time></trkpt><trkpt lat="46.0347988" lon="11.8865215"><ele>324.0</ele><time>2026-04-11T16:20:46.537Z</time></trkpt><trkpt lat="46.0348939" lon="11.8866362"><ele>324.0</ele><time>2026-04-11T16:20:48.536Z</time></trkpt><trkpt lat="46.0349838" lon="11.8867455"><ele>324.0</ele><time>2026-04-11T16:20:50.538Z</time></trkpt><trkpt lat="46.0350718" lon="11.8868424"><ele>323.5</ele><time>2026-04-11T16:20:52.537Z</time></trkpt><trkpt lat="46.0351595" lon="11.8869402"><ele>323.0</ele><time>2026-04-11T16:20:54.537Z</time></trkpt><trkpt lat="46.0352484" lon="11.8870421"><ele>322.5</ele><time>2026-04-11T16:20:56.537Z</time></trkpt><trkpt lat="46.0353373" lon="11.887148"><ele>322.0</ele><time>2026-04-11T16:20:58.536Z</time></trkpt><trkpt lat="46.0354268" lon="11.8872447"><ele>322.0</ele><time>2026-04-11T16:21:00.537Z</time></trkpt><trkpt lat="46.0355187" lon="11.8873365"><ele>322.0</ele><time>2026-04-11T16:21:02.538Z</time></trkpt><trkpt lat="46.0356156" lon="11.8874329"><ele>322.0</ele><time>2026-04-11T16:21:04.536Z</time></trkpt><trkpt lat="46.035713" lon="11.8875306"><ele>322.0</ele><time>2026-04-11T16:21:06.537Z</time></trkpt><trkpt lat="46.0358108" lon="11.8876149"><ele>321.6</ele><time>2026-04-11T16:21:08.538Z</time></trkpt><trkpt lat="46.0359024" lon="11.8877016"><ele>321.20000000000005</ele><time>2026-04-11T16:21:10.537Z</time></trkpt><trkpt lat="46.035994" lon="11.8877944"><ele>320.8</ele><time>2026-04-11T16:21:12.536Z</time></trkpt><trkpt lat="46.0360876" lon="11.887884"><ele>320.4</ele><time>2026-04-11T16:21:14.538Z</time></trkpt><trkpt lat="46.0361832" lon="11.8879746"><ele>320.0</ele><time>2026-04-11T16:21:16.536Z</time></trkpt><trkpt lat="46.0362747" lon="11.8880611"><ele>320.0</ele><time>2026-04-11T16:21:18.536Z</time></trkpt><trkpt lat="46.0363645" lon="11.8881426"><ele>320.0</ele><time>2026-04-11T16:21:20.538Z</time></trkpt><trkpt lat="46.03645" lon="11.8882113"><ele>320.0</ele><time>2026-04-11T16:21:22.536Z</time></trkpt><trkpt lat="46.0365223" lon="11.8882849"><ele>320.0</ele><time>2026-04-11T16:21:24.537Z</time></trkpt><trkpt lat="46.0365469" lon="11.8883856"><ele>320.0</ele><time>2026-04-11T16:21:26.536Z</time></trkpt><trkpt lat="46.0365097" lon="11.8884905"><ele>320.0</ele><time>2026-04-11T16:21:28.537Z</time></trkpt><trkpt lat="46.0364539" lon="11.8886095"><ele>319.8</ele><time>2026-04-11T16:21:30.537Z</time></trkpt><trkpt lat="46.0364147" lon="11.8887517"><ele>319.6</ele><time>2026-04-11T16:21:32.538Z</time></trkpt><trkpt lat="46.0363898" lon="11.8889058"><ele>319.4</ele><time>2026-04-11T16:21:34.537Z</time></trkpt><trkpt lat="46.0363744" lon="11.889065"><ele>319.2</ele><time>2026-04-11T16:21:36.538Z</time></trkpt><trkpt lat="46.0363608" lon="11.8892289"><ele>319.0</ele><time>2026-04-11T16:21:38.538Z</time></trkpt><trkpt lat="46.0363514" lon="11.8893941"><ele>318.4</ele><time>2026-04-11T16:21:40.537Z</time></trkpt><trkpt lat="46.036337" lon="11.8895625"><ele>317.79999999999995</ele><time>2026-04-11T16:21:42.536Z</time></trkpt><trkpt lat="46.0363041" lon="11.8897193"><ele>317.20000000000005</ele><time>2026-04-11T16:21:44.537Z</time></trkpt><trkpt lat="46.0362603" lon="11.8898239"><ele>316.6</ele><time>2026-04-11T16:21:46.536Z</time></trkpt><trkpt lat="46.0362688" lon="11.8899329"><ele>316.0</ele><time>2026-04-11T16:21:49.536Z</time></trkpt><trkpt lat="46.0363372" lon="11.8899515"><ele>316.0</ele><time>2026-04-11T16:21:51.536Z</time></trkpt><trkpt lat="46.0364252" lon="11.8899546"><ele>316.0</ele><time>2026-04-11T16:21:53.536Z</time></trkpt><trkpt lat="46.0365291" lon="11.8899388"><ele>316.0</ele><time>2026-04-11T16:21:55.537Z</time></trkpt><trkpt lat="46.0366314" lon="11.8899221"><ele>316.0</ele><time>2026-04-11T16:21:57.537Z</time></trkpt><trkpt lat="46.0367357" lon="11.8899013"><ele>316.0</ele><time>2026-04-11T16:21:59.538Z</time></trkpt><trkpt lat="46.0368408" lon="11.8898795"><ele>316.2</ele><time>2026-04-11T16:22:01.537Z</time></trkpt><trkpt lat="46.0369507" lon="11.889853"><ele>316.40000000000003</ele><time>2026-04-11T16:22:03.537Z</time></trkpt><trkpt lat="46.0370613" lon="11.8898376"><ele>316.6</ele><time>2026-04-11T16:22:05.538Z</time></trkpt><trkpt lat="46.0371705" lon="11.8898328"><ele>316.8</ele><time>2026-04-11T16:22:07.537Z</time></trkpt><trkpt lat="46.0372775" lon="11.8898336"><ele>317.0</ele><time>2026-04-11T16:22:09.537Z</time></trkpt><trkpt lat="46.0373829" lon="11.8898501"><ele>317.0</ele><time>2026-04-11T16:22:11.536Z</time></trkpt><trkpt lat="46.0374945" lon="11.8898763"><ele>317.0</ele><time>2026-04-11T16:22:13.537Z</time></trkpt><trkpt lat="46.0375944" lon="11.8899378"><ele>317.0</ele><time>2026-04-11T16:22:15.537Z</time></trkpt><trkpt lat="46.0376709" lon="11.8900501"><ele>317.0</ele><time>2026-04-11T16:22:17.536Z</time></trkpt><trkpt lat="46.0377301" lon="11.8901869"><ele>317.0</ele><time>2026-04-11T16:22:19.537Z</time></trkpt><trkpt lat="46.037781" lon="11.8903341"><ele>316.5</ele><time>2026-04-11T16:22:21.537Z</time></trkpt><trkpt lat="46.0378359" lon="11.8904954"><ele>316.0</ele><time>2026-04-11T16:22:23.537Z</time></trkpt><trkpt lat="46.0378955" lon="11.890652"><ele>315.5</ele><time>2026-04-11T16:22:25.537Z</time></trkpt><trkpt lat="46.0379611" lon="11.8907899"><ele>315.0</ele><time>2026-04-11T16:22:27.535Z</time></trkpt><trkpt lat="46.0380208" lon="11.8909196"><ele>315.0</ele><time>2026-04-11T16:22:29.537Z</time></trkpt><trkpt lat="46.0380838" lon="11.8910484"><ele>315.0</ele><time>2026-04-11T16:22:31.537Z</time></trkpt><trkpt lat="46.0381592" lon="11.8911553"><ele>315.0</ele><time>2026-04-11T16:22:33.537Z</time></trkpt><trkpt lat="46.0382394" lon="11.8912586"><ele>315.0</ele><time>2026-04-11T16:22:35.534Z</time></trkpt><trkpt lat="46.0383073" lon="11.8913776"><ele>315.0</ele><time>2026-04-11T16:22:37.537Z</time></trkpt><trkpt lat="46.0383606" lon="11.8915061"><ele>315.8</ele><time>2026-04-11T16:22:39.535Z</time></trkpt><trkpt lat="46.0383858" lon="11.8916417"><ele>316.6</ele><time>2026-04-11T16:22:41.537Z</time></trkpt><trkpt lat="46.0383525" lon="11.8917764"><ele>317.4</ele><time>2026-04-11T16:22:43.538Z</time></trkpt><trkpt lat="46.0382839" lon="11.8918804"><ele>318.2</ele><time>2026-04-11T16:22:45.534Z</time></trkpt><trkpt lat="46.0382039" lon="11.891963"><ele>319.0</ele><time>2026-04-11T16:22:47.537Z</time></trkpt><trkpt lat="46.0381278" lon="11.8920623"><ele>319.2</ele><time>2026-04-11T16:22:49.535Z</time></trkpt><trkpt lat="46.0380512" lon="11.8921628"><ele>319.4</ele><time>2026-04-11T16:22:51.535Z</time></trkpt><trkpt lat="46.0379819" lon="11.8922713"><ele>319.6</ele><time>2026-04-11T16:22:53.535Z</time></trkpt><trkpt lat="46.0379236" lon="11.8923772"><ele>319.8</ele><time>2026-04-11T16:22:55.537Z</time></trkpt><trkpt lat="46.0378643" lon="11.8924719"><ele>320.0</ele><time>2026-04-11T16:22:57.537Z</time></trkpt><trkpt lat="46.0378061" lon="11.8925564"><ele>320.85714285714283</ele><time>2026-04-11T16:22:59.536Z</time></trkpt><trkpt lat="46.0377509" lon="11.8926424"><ele>321.7142857142857</ele><time>2026-04-11T16:23:01.538Z</time></trkpt><trkpt lat="46.0377044" lon="11.8927384"><ele>322.57142857142856</ele><time>2026-04-11T16:23:03.535Z</time></trkpt><trkpt lat="46.0376648" lon="11.8928272"><ele>323.42857142857144</ele><time>2026-04-11T16:23:05.537Z</time></trkpt><trkpt lat="46.0376206" lon="11.8929096"><ele>324.2857142857143</ele><time>2026-04-11T16:23:07.536Z</time></trkpt><trkpt lat="46.0375786" lon="11.8929918"><ele>325.14285714285717</ele><time>2026-04-11T16:23:09.535Z</time></trkpt><trkpt lat="46.0375488" lon="11.893077"><ele>326.0</ele><time>2026-04-11T16:23:11.537Z</time></trkpt><trkpt lat="46.0375194" lon="11.8931962"><ele>326.0</ele><time>2026-04-11T16:23:14.537Z</time></trkpt><trkpt lat="46.0375132" lon="11.893301"><ele>326.0</ele><time>2026-04-11T16:23:17.537Z</time></trkpt><trkpt lat="46.0375255" lon="11.893426"><ele>326.0</ele><time>2026-04-11T16:23:20.537Z</time></trkpt><trkpt lat="46.0375398" lon="11.8935337"><ele>326.0</ele><time>2026-04-11T16:23:22.537Z</time></trkpt><trkpt lat="46.0375536" lon="11.893651"><ele>326.0</ele><time>2026-04-11T16:23:24.536Z</time></trkpt><trkpt lat="46.0375673" lon="11.893783"><ele>326.0</ele><time>2026-04-11T16:23:26.538Z</time></trkpt><trkpt lat="46.0375843" lon="11.893925"><ele>326.0</ele><time>2026-04-11T16:23:28.538Z</time></trkpt><trkpt lat="46.0376045" lon="11.8940692"><ele>326.0</ele><time>2026-04-11T16:23:30.538Z</time></trkpt><trkpt lat="46.0376254" lon="11.8942159"><ele>326.0</ele><time>2026-04-11T16:23:32.538Z</time></trkpt><trkpt lat="46.0376487" lon="11.8943635"><ele>326.0</ele><time>2026-04-11T16:23:34.538Z</time></trkpt><trkpt lat="46.0376741" lon="11.8945135"><ele>326.0</ele><time>2026-04-11T16:23:36.538Z</time></trkpt><trkpt lat="46.0377005" lon="11.8946671"><ele>325.8</ele><time>2026-04-11T16:23:38.538Z</time></trkpt><trkpt lat="46.0377268" lon="11.894811"><ele>325.6</ele><time>2026-04-11T16:23:40.538Z</time></trkpt><trkpt lat="46.0377525" lon="11.8949473"><ele>325.4</ele><time>2026-04-11T16:23:42.537Z</time></trkpt><trkpt lat="46.0377832" lon="11.8950902"><ele>325.2</ele><time>2026-04-11T16:23:44.537Z</time></trkpt><trkpt lat="46.0378126" lon="11.8952288"><ele>325.0</ele><time>2026-04-11T16:23:46.537Z</time></trkpt><trkpt lat="46.0378412" lon="11.8953651"><ele>325.0</ele><time>2026-04-11T16:23:48.535Z</time></trkpt><trkpt lat="46.0378556" lon="11.8954922"><ele>325.0</ele><time>2026-04-11T16:23:50.537Z</time></trkpt><trkpt lat="46.0378305" lon="11.8955806"><ele>325.0</ele><time>2026-04-11T16:23:52.537Z</time></trkpt><trkpt lat="46.0377415" lon="11.8956027"><ele>325.0</ele><time>2026-04-11T16:23:54.538Z</time></trkpt><trkpt lat="46.0376309" lon="11.8956266"><ele>325.0</ele><time>2026-04-11T16:23:56.537Z</time></trkpt><trkpt lat="46.0375106" lon="11.8956502"><ele>324.66666666666663</ele><time>2026-04-11T16:23:58.538Z</time></trkpt><trkpt lat="46.0373834" lon="11.8956724"><ele>324.3333333333333</ele><time>2026-04-11T16:24:00.538Z</time></trkpt><trkpt lat="46.0373187" lon="11.8956885"><ele>324.0</ele><time>2026-04-11T16:24:01.537Z</time></trkpt><trkpt lat="46.0372562" lon="11.895703"><ele>323.6666666666667</ele><time>2026-04-11T16:24:02.538Z</time></trkpt><trkpt lat="46.0371919" lon="11.8957133"><ele>323.33333333333337</ele><time>2026-04-11T16:24:03.537Z</time></trkpt><trkpt lat="46.0371259" lon="11.8957249"><ele>323.0</ele><time>2026-04-11T16:24:04.537Z</time></trkpt><trkpt lat="46.0370627" lon="11.8957367"><ele>323.0</ele><time>2026-04-11T16:24:05.538Z</time></trkpt><trkpt lat="46.0369993" lon="11.8957512"><ele>323.0</ele><time>2026-04-11T16:24:06.537Z</time></trkpt><trkpt lat="46.0369364" lon="11.8957649"><ele>323.0</ele><time>2026-04-11T16:24:07.538Z</time></trkpt><trkpt lat="46.0368169" lon="11.8957924"><ele>323.0</ele><time>2026-04-11T16:24:09.537Z</time></trkpt><trkpt lat="46.0367016" lon="11.8958237"><ele>323.0</ele><time>2026-04-11T16:24:11.538Z</time></trkpt><trkpt lat="46.0365904" lon="11.8958451"><ele>322.4</ele><time>2026-04-11T16:24:13.536Z</time></trkpt><trkpt lat="46.0364802" lon="11.8958678"><ele>321.79999999999995</ele><time>2026-04-11T16:24:15.539Z</time></trkpt><trkpt lat="46.0363731" lon="11.8958931"><ele>321.2</ele><time>2026-04-11T16:24:17.538Z</time></trkpt><trkpt lat="46.0362665" lon="11.8959214"><ele>320.6</ele><time>2026-04-11T16:24:19.538Z</time></trkpt><trkpt lat="46.0361588" lon="11.8959473"><ele>320.0</ele><time>2026-04-11T16:24:21.537Z</time></trkpt><trkpt lat="46.0360526" lon="11.8959725"><ele>320.0</ele><time>2026-04-11T16:24:23.538Z</time></trkpt><trkpt lat="46.035944" lon="11.8959993"><ele>320.0</ele><time>2026-04-11T16:24:25.536Z</time></trkpt><trkpt lat="46.0358369" lon="11.8960327"><ele>320.0</ele><time>2026-04-11T16:24:27.538Z</time></trkpt><trkpt lat="46.0357359" lon="11.8960724"><ele>320.0</ele><time>2026-04-11T16:24:29.537Z</time></trkpt><trkpt lat="46.0356383" lon="11.8961251"><ele>320.0</ele><time>2026-04-11T16:24:31.538Z</time></trkpt><trkpt lat="46.035539" lon="11.8961833"><ele>319.33333333333337</ele><time>2026-04-11T16:24:33.538Z</time></trkpt><trkpt lat="46.0354403" lon="11.8962478"><ele>318.6666666666667</ele><time>2026-04-11T16:24:35.537Z</time></trkpt><trkpt lat="46.0353302" lon="11.8963154"><ele>318.0</ele><time>2026-04-11T16:24:37.538Z</time></trkpt><trkpt lat="46.0352671" lon="11.8963424"><ele>317.3333333333333</ele><time>2026-04-11T16:24:38.537Z</time></trkpt><trkpt lat="46.0351997" lon="11.8963657"><ele>316.66666666666663</ele><time>2026-04-11T16:24:39.539Z</time></trkpt><trkpt lat="46.0351276" lon="11.8963904"><ele>316.0</ele><time>2026-04-11T16:24:40.538Z</time></trkpt><trkpt lat="46.0350527" lon="11.8964167"><ele>316.0</ele><time>2026-04-11T16:24:41.537Z</time></trkpt><trkpt lat="46.0349746" lon="11.8964429"><ele>316.0</ele><time>2026-04-11T16:24:42.537Z</time></trkpt><trkpt lat="46.0348944" lon="11.8964699"><ele>316.0</ele><time>2026-04-11T16:24:43.537Z</time></trkpt><trkpt lat="46.0348142" lon="11.8964869"><ele>316.0</ele><time>2026-04-11T16:24:44.536Z</time></trkpt><trkpt lat="46.0347365" lon="11.8965057"><ele>316.0</ele><time>2026-04-11T16:24:45.537Z</time></trkpt><trkpt lat="46.0346576" lon="11.8965411"><ele>316.0</ele><time>2026-04-11T16:24:46.537Z</time></trkpt><trkpt lat="46.0345785" lon="11.8965889"><ele>314.66666666666663</ele><time>2026-04-11T16:24:47.537Z</time></trkpt><trkpt lat="46.0345031" lon="11.8966438"><ele>313.3333333333333</ele><time>2026-04-11T16:24:48.538Z</time></trkpt><trkpt lat="46.0344301" lon="11.8967078"><ele>312.0</ele><time>2026-04-11T16:24:49.536Z</time></trkpt><trkpt lat="46.0343558" lon="11.8967855"><ele>310.6666666666667</ele><time>2026-04-11T16:24:50.538Z</time></trkpt><trkpt lat="46.0342804" lon="11.8968669"><ele>309.33333333333337</ele><time>2026-04-11T16:24:51.536Z</time></trkpt><trkpt lat="46.0342055" lon="11.8969471"><ele>308.0</ele><time>2026-04-11T16:24:52.537Z</time></trkpt><trkpt lat="46.0341313" lon="11.8970225"><ele>306.6666666666667</ele><time>2026-04-11T16:24:53.538Z</time></trkpt><trkpt lat="46.034059" lon="11.8970852"><ele>305.33333333333337</ele><time>2026-04-11T16:24:54.539Z</time></trkpt><trkpt lat="46.0339844" lon="11.8971358"><ele>304.0</ele><time>2026-04-11T16:24:55.538Z</time></trkpt><trkpt lat="46.0339087" lon="11.8971782"><ele>302.6666666666667</ele><time>2026-04-11T16:24:56.537Z</time></trkpt><trkpt lat="46.0338328" lon="11.8972081"><ele>301.3333333333333</ele><time>2026-04-11T16:24:57.538Z</time></trkpt><trkpt lat="46.0337552" lon="11.897219"><ele>300.0</ele><time>2026-04-11T16:24:58.538Z</time></trkpt><trkpt lat="46.0336769" lon="11.8972083"><ele>300.0</ele><time>2026-04-11T16:24:59.538Z</time></trkpt><trkpt lat="46.0335983" lon="11.8971824"><ele>300.0</ele><time>2026-04-11T16:25:00.537Z</time></trkpt><trkpt lat="46.03352" lon="11.897149"><ele>300.0</ele><time>2026-04-11T16:25:01.536Z</time></trkpt><trkpt lat="46.0334401" lon="11.8971159"><ele>300.0</ele><time>2026-04-11T16:25:02.537Z</time></trkpt><trkpt lat="46.0333573" lon="11.8970935"><ele>300.0</ele><time>2026-04-11T16:25:03.537Z</time></trkpt><trkpt lat="46.0332749" lon="11.8970862"><ele>300.0</ele><time>2026-04-11T16:25:04.537Z</time></trkpt><trkpt lat="46.0331923" lon="11.8971018"><ele>299.3333333333333</ele><time>2026-04-11T16:25:05.537Z</time></trkpt><trkpt lat="46.0331132" lon="11.8971369"><ele>298.6666666666667</ele><time>2026-04-11T16:25:06.537Z</time></trkpt><trkpt lat="46.0330357" lon="11.8971904"><ele>298.0</ele><time>2026-04-11T16:25:07.538Z</time></trkpt><trkpt lat="46.0329589" lon="11.8972539"><ele>297.33333333333337</ele><time>2026-04-11T16:25:08.538Z</time></trkpt><trkpt lat="46.0328855" lon="11.897326"><ele>296.6666666666667</ele><time>2026-04-11T16:25:09.536Z</time></trkpt><trkpt lat="46.0328089" lon="11.8974041"><ele>296.0</ele><time>2026-04-11T16:25:10.537Z</time></trkpt><trkpt lat="46.0327327" lon="11.8974753"><ele>296.0</ele><time>2026-04-11T16:25:11.538Z</time></trkpt><trkpt lat="46.0326581" lon="11.8975487"><ele>296.0</ele><time>2026-04-11T16:25:12.537Z</time></trkpt><trkpt lat="46.0325818" lon="11.8976171"><ele>296.0</ele><time>2026-04-11T16:25:13.538Z</time></trkpt><trkpt lat="46.0325041" lon="11.8976785"><ele>296.0</ele><time>2026-04-11T16:25:14.538Z</time></trkpt><trkpt lat="46.0324311" lon="11.897735"><ele>296.0</ele><time>2026-04-11T16:25:15.538Z</time></trkpt><trkpt lat="46.0323624" lon="11.8977941"><ele>296.0</ele><time>2026-04-11T16:25:16.537Z</time></trkpt><trkpt lat="46.0322986" lon="11.8978574"><ele>296.0</ele><time>2026-04-11T16:25:17.537Z</time></trkpt><trkpt lat="46.0322391" lon="11.8979256"><ele>296.0</ele><time>2026-04-11T16:25:18.537Z</time></trkpt><trkpt lat="46.032181" lon="11.8979951"><ele>296.0</ele><time>2026-04-11T16:25:19.537Z</time></trkpt><trkpt lat="46.0321243" lon="11.8980609"><ele>296.0</ele><time>2026-04-11T16:25:20.538Z</time></trkpt><trkpt lat="46.0320675" lon="11.8981229"><ele>296.0</ele><time>2026-04-11T16:25:21.537Z</time></trkpt><trkpt lat="46.0320103" lon="11.8981855"><ele>296.0</ele><time>2026-04-11T16:25:22.538Z</time></trkpt><trkpt lat="46.0319569" lon="11.8982433"><ele>296.0</ele><time>2026-04-11T16:25:23.537Z</time></trkpt><trkpt lat="46.0318448" lon="11.8983209"><ele>296.0</ele><time>2026-04-11T16:25:25.538Z</time></trkpt><trkpt lat="46.0317823" lon="11.8983596"><ele>296.0</ele><time>2026-04-11T16:25:26.537Z</time></trkpt><trkpt lat="46.0317213" lon="11.898403"><ele>296.0</ele><time>2026-04-11T16:25:27.538Z</time></trkpt><trkpt lat="46.031662" lon="11.8984462"><ele>296.0</ele><time>2026-04-11T16:25:28.537Z</time></trkpt><trkpt lat="46.0316009" lon="11.8984917"><ele>296.0</ele><time>2026-04-11T16:25:29.537Z</time></trkpt><trkpt lat="46.0315404" lon="11.8985443"><ele>296.0</ele><time>2026-04-11T16:25:30.538Z</time></trkpt><trkpt lat="46.0314809" lon="11.8985999"><ele>296.0</ele><time>2026-04-11T16:25:31.535Z</time></trkpt><trkpt lat="46.0314212" lon="11.8986585"><ele>295.33333333333337</ele><time>2026-04-11T16:25:32.538Z</time></trkpt><trkpt lat="46.0313613" lon="11.8987185"><ele>294.6666666666667</ele><time>2026-04-11T16:25:33.536Z</time></trkpt><trkpt lat="46.0313012" lon="11.8987792"><ele>294.0</ele><time>2026-04-11T16:25:34.534Z</time></trkpt><trkpt lat="46.0312389" lon="11.8988394"><ele>293.3333333333333</ele><time>2026-04-11T16:25:35.535Z</time></trkpt><trkpt lat="46.031179" lon="11.898898"><ele>292.66666666666663</ele><time>2026-04-11T16:25:36.536Z</time></trkpt><trkpt lat="46.0311199" lon="11.8989563"><ele>292.0</ele><time>2026-04-11T16:25:37.537Z</time></trkpt><trkpt lat="46.0309992" lon="11.8990657"><ele>292.0</ele><time>2026-04-11T16:25:39.535Z</time></trkpt><trkpt lat="46.0308946" lon="11.8991804"><ele>292.0</ele><time>2026-04-11T16:25:41.533Z</time></trkpt><trkpt lat="46.0308121" lon="11.8992731"><ele>292.0</ele><time>2026-04-11T16:25:43.534Z</time></trkpt><trkpt lat="46.0307235" lon="11.8993405"><ele>292.0</ele><time>2026-04-11T16:25:45.533Z</time></trkpt><trkpt lat="46.0306336" lon="11.899393"><ele>292.0</ele><time>2026-04-11T16:25:47.536Z</time></trkpt><trkpt lat="46.0305354" lon="11.8994299"><ele>291.4</ele><time>2026-04-11T16:25:49.535Z</time></trkpt><trkpt lat="46.0304364" lon="11.8994876"><ele>290.79999999999995</ele><time>2026-04-11T16:25:51.536Z</time></trkpt><trkpt lat="46.030346" lon="11.8995725"><ele>290.2</ele><time>2026-04-11T16:25:53.536Z</time></trkpt><trkpt lat="46.0302614" lon="11.8996715"><ele>289.59999999999997</ele><time>2026-04-11T16:25:55.535Z</time></trkpt><trkpt lat="46.0301754" lon="11.8997714"><ele>289.0</ele><time>2026-04-11T16:25:57.536Z</time></trkpt><trkpt lat="46.0300854" lon="11.8998737"><ele>289.0</ele><time>2026-04-11T16:25:59.538Z</time></trkpt><trkpt lat="46.0299948" lon="11.8999792"><ele>289.0</ele><time>2026-04-11T16:26:01.536Z</time></trkpt><trkpt lat="46.0299076" lon="11.900088"><ele>289.0</ele><time>2026-04-11T16:26:03.536Z</time></trkpt><trkpt lat="46.0298168" lon="11.900188"><ele>289.0</ele><time>2026-04-11T16:26:05.538Z</time></trkpt><trkpt lat="46.0297258" lon="11.9002788"><ele>289.2</ele><time>2026-04-11T16:26:07.535Z</time></trkpt><trkpt lat="46.0296381" lon="11.9003779"><ele>289.4</ele><time>2026-04-11T16:26:09.535Z</time></trkpt><trkpt lat="46.0295494" lon="11.9004827"><ele>289.6</ele><time>2026-04-11T16:26:11.537Z</time></trkpt><trkpt lat="46.0294658" lon="11.9005836"><ele>289.8</ele><time>2026-04-11T16:26:13.535Z</time></trkpt><trkpt lat="46.0293794" lon="11.900684"><ele>290.0</ele><time>2026-04-11T16:26:15.536Z</time></trkpt><trkpt lat="46.0292912" lon="11.9007776"><ele>290.0</ele><time>2026-04-11T16:26:17.535Z</time></trkpt><trkpt lat="46.0292066" lon="11.9008773"><ele>290.0</ele><time>2026-04-11T16:26:19.538Z</time></trkpt><trkpt lat="46.029117" lon="11.9009733"><ele>290.0</ele><time>2026-04-11T16:26:21.537Z</time></trkpt><trkpt lat="46.0290257" lon="11.9010659"><ele>290.0</ele><time>2026-04-11T16:26:23.536Z</time></trkpt><trkpt lat="46.028938" lon="11.901166"><ele>290.0</ele><time>2026-04-11T16:26:25.536Z</time></trkpt><trkpt lat="46.0288467" lon="11.9012643"><ele>289.6</ele><time>2026-04-11T16:26:27.536Z</time></trkpt><trkpt lat="46.0287524" lon="11.9013551"><ele>289.2</ele><time>2026-04-11T16:26:29.538Z</time></trkpt><trkpt lat="46.028661" lon="11.9014479"><ele>288.8</ele><time>2026-04-11T16:26:31.536Z</time></trkpt><trkpt lat="46.0285702" lon="11.9015273"><ele>288.4</ele><time>2026-04-11T16:26:33.535Z</time></trkpt><trkpt lat="46.0284766" lon="11.9016158"><ele>288.0</ele><time>2026-04-11T16:26:35.538Z</time></trkpt><trkpt lat="46.0283809" lon="11.9017039"><ele>287.6</ele><time>2026-04-11T16:26:37.538Z</time></trkpt><trkpt lat="46.0282788" lon="11.9017738"><ele>287.20000000000005</ele><time>2026-04-11T16:26:39.538Z</time></trkpt><trkpt lat="46.0281716" lon="11.9018115"><ele>286.8</ele><time>2026-04-11T16:26:41.538Z</time></trkpt><trkpt lat="46.0280605" lon="11.9018252"><ele>286.40000000000003</ele><time>2026-04-11T16:26:43.535Z</time></trkpt><trkpt lat="46.0279515" lon="11.9018135"><ele>286.0</ele><time>2026-04-11T16:26:45.537Z</time></trkpt><trkpt lat="46.0278417" lon="11.9017902"><ele>286.0</ele><time>2026-04-11T16:26:47.536Z</time></trkpt><trkpt lat="46.0277353" lon="11.9017642"><ele>286.0</ele><time>2026-04-11T16:26:49.536Z</time></trkpt><trkpt lat="46.0276342" lon="11.9017592"><ele>286.0</ele><time>2026-04-11T16:26:51.537Z</time></trkpt><trkpt lat="46.0275447" lon="11.9018029"><ele>286.0</ele><time>2026-04-11T16:26:53.537Z</time></trkpt><trkpt lat="46.0274967" lon="11.9019228"><ele>286.0</ele><time>2026-04-11T16:26:55.535Z</time></trkpt><trkpt lat="46.0274805" lon="11.9020666"><ele>285.6</ele><time>2026-04-11T16:26:57.537Z</time></trkpt><trkpt lat="46.0274542" lon="11.9022086"><ele>285.20000000000005</ele><time>2026-04-11T16:26:59.535Z</time></trkpt><trkpt lat="46.0274091" lon="11.9023457"><ele>284.79999999999995</ele><time>2026-04-11T16:27:01.536Z</time></trkpt><trkpt lat="46.027375" lon="11.9024859"><ele>284.4</ele><time>2026-04-11T16:27:03.535Z</time></trkpt><trkpt lat="46.0273394" lon="11.9026279"><ele>284.0</ele><time>2026-04-11T16:27:05.537Z</time></trkpt><trkpt lat="46.0273166" lon="11.9027795"><ele>283.8</ele><time>2026-04-11T16:27:07.537Z</time></trkpt><trkpt lat="46.0272891" lon="11.9029309"><ele>283.59999999999997</ele><time>2026-04-11T16:27:09.537Z</time></trkpt><trkpt lat="46.0272543" lon="11.9030791"><ele>283.4</ele><time>2026-04-11T16:27:11.537Z</time></trkpt><trkpt lat="46.0272297" lon="11.903232"><ele>283.2</ele><time>2026-04-11T16:27:13.538Z</time></trkpt><trkpt lat="46.0272064" lon="11.9033766"><ele>283.0</ele><time>2026-04-11T16:27:15.537Z</time></trkpt><trkpt lat="46.0271828" lon="11.9035135"><ele>282.8</ele><time>2026-04-11T16:27:17.535Z</time></trkpt><trkpt lat="46.0271477" lon="11.90364"><ele>282.6</ele><time>2026-04-11T16:27:19.536Z</time></trkpt><trkpt lat="46.0270829" lon="11.9037424"><ele>282.4</ele><time>2026-04-11T16:27:21.538Z</time></trkpt><trkpt lat="46.026998" lon="11.9038324"><ele>282.2</ele><time>2026-04-11T16:27:23.538Z</time></trkpt><trkpt lat="46.0269116" lon="11.9039255"><ele>282.0</ele><time>2026-04-11T16:27:25.537Z</time></trkpt><trkpt lat="46.0268222" lon="11.9040175"><ele>282.0</ele><time>2026-04-11T16:27:27.537Z</time></trkpt><trkpt lat="46.0267309" lon="11.9040954"><ele>282.0</ele><time>2026-04-11T16:27:29.537Z</time></trkpt><trkpt lat="46.0266562" lon="11.9041801"><ele>282.0</ele><time>2026-04-11T16:27:31.536Z</time></trkpt><trkpt lat="46.0266114" lon="11.904255"><ele>282.0</ele><time>2026-04-11T16:27:33.537Z</time></trkpt><trkpt lat="46.0266399" lon="11.904376"><ele>282.0</ele><time>2026-04-11T16:27:36.535Z</time></trkpt><trkpt lat="46.0267075" lon="11.9044172"><ele>282.0</ele><time>2026-04-11T16:27:38.536Z</time></trkpt><trkpt lat="46.026793" lon="11.9044229"><ele>282.2</ele><time>2026-04-11T16:27:40.537Z</time></trkpt><trkpt lat="46.0268857" lon="11.9044228"><ele>282.4</ele><time>2026-04-11T16:27:42.538Z</time></trkpt><trkpt lat="46.0269768" lon="11.9044339"><ele>282.6</ele><time>2026-04-11T16:27:44.538Z</time></trkpt><trkpt lat="46.0270657" lon="11.9044458"><ele>282.8</ele><time>2026-04-11T16:27:46.537Z</time></trkpt><trkpt lat="46.0271566" lon="11.9044565"><ele>283.0</ele><time>2026-04-11T16:27:48.536Z</time></trkpt><trkpt lat="46.0272479" lon="11.9044732"><ele>283.0</ele><time>2026-04-11T16:27:50.537Z</time></trkpt><trkpt lat="46.0273393" lon="11.9044942"><ele>283.0</ele><time>2026-04-11T16:27:52.536Z</time></trkpt><trkpt lat="46.0274332" lon="11.9044792"><ele>283.0</ele><time>2026-04-11T16:27:54.537Z</time></trkpt><trkpt lat="46.0275353" lon="11.9044463"><ele>283.0</ele><time>2026-04-11T16:27:56.537Z</time></trkpt><trkpt lat="46.0276354" lon="11.9044217"><ele>283.0</ele><time>2026-04-11T16:27:58.538Z</time></trkpt><trkpt lat="46.027735" lon="11.9044193"><ele>283.0</ele><time>2026-04-11T16:28:00.537Z</time></trkpt><trkpt lat="46.0278331" lon="11.9044231"><ele>283.0</ele><time>2026-04-11T16:28:02.537Z</time></trkpt><trkpt lat="46.0279182" lon="11.9044343"><ele>283.0</ele><time>2026-04-11T16:28:04.534Z</time></trkpt><trkpt lat="46.0279887" lon="11.9044594"><ele>283.0</ele><time>2026-04-11T16:28:06.536Z</time></trkpt><trkpt lat="46.028049" lon="11.9044874"><ele>283.0</ele><time>2026-04-11T16:28:08.537Z</time></trkpt><trkpt lat="46.0281265" lon="11.9044852"><ele>283.0</ele><time>2026-04-11T16:28:12.535Z</time></trkpt><trkpt lat="46.0281783" lon="11.9045446"><ele>283.0</ele><time>2026-04-11T16:28:15.537Z</time></trkpt><trkpt lat="46.0282335" lon="11.9046019"><ele>283.0</ele><time>2026-04-11T16:28:17.538Z</time></trkpt><trkpt lat="46.0283063" lon="11.9046318"><ele>283.0</ele><time>2026-04-11T16:28:19.537Z</time></trkpt><trkpt lat="46.0283803" lon="11.9046708"><ele>283.0</ele><time>2026-04-11T16:28:21.538Z</time></trkpt><trkpt lat="46.0284574" lon="11.9046959"><ele>283.0</ele><time>2026-04-11T16:28:23.535Z</time></trkpt><trkpt lat="46.0285383" lon="11.9047234"><ele>283.0</ele><time>2026-04-11T16:28:25.537Z</time></trkpt><trkpt lat="46.0286175" lon="11.9047498"><ele>283.3333333333333</ele><time>2026-04-11T16:28:27.536Z</time></trkpt><trkpt lat="46.0286921" lon="11.9047818"><ele>283.66666666666663</ele><time>2026-04-11T16:28:29.537Z</time></trkpt><trkpt lat="46.0287408" lon="11.9048629"><ele>284.0</ele><time>2026-04-11T16:28:31.537Z</time></trkpt><trkpt lat="46.0287457" lon="11.9049756"><ele>284.3333333333333</ele><time>2026-04-11T16:28:33.537Z</time></trkpt><trkpt lat="46.0287325" lon="11.9050962"><ele>284.6666666666667</ele><time>2026-04-11T16:28:35.537Z</time></trkpt><trkpt lat="46.0287187" lon="11.9052269"><ele>285.0</ele><time>2026-04-11T16:28:37.537Z</time></trkpt><trkpt lat="46.0286898" lon="11.9053611"><ele>285.2</ele><time>2026-04-11T16:28:39.536Z</time></trkpt><trkpt lat="46.028656" lon="11.9054915"><ele>285.4</ele><time>2026-04-11T16:28:41.535Z</time></trkpt><trkpt lat="46.0286308" lon="11.9056177"><ele>285.6</ele><time>2026-04-11T16:28:43.537Z</time></trkpt><trkpt lat="46.0286033" lon="11.9057392"><ele>285.8</ele><time>2026-04-11T16:28:45.537Z</time></trkpt><trkpt lat="46.0285707" lon="11.905861"><ele>286.0</ele><time>2026-04-11T16:28:47.537Z</time></trkpt><trkpt lat="46.0285308" lon="11.9059837"><ele>286.0</ele><time>2026-04-11T16:28:49.537Z</time></trkpt><trkpt lat="46.0284857" lon="11.9061095"><ele>286.0</ele><time>2026-04-11T16:28:51.537Z</time></trkpt><trkpt lat="46.0284463" lon="11.9062417"><ele>286.0</ele><time>2026-04-11T16:28:53.536Z</time></trkpt><trkpt lat="46.0284282" lon="11.9063839"><ele>286.0</ele><time>2026-04-11T16:28:55.536Z</time></trkpt><trkpt lat="46.0284239" lon="11.906536"><ele>286.0</ele><time>2026-04-11T16:28:57.537Z</time></trkpt><trkpt lat="46.0284244" lon="11.9066815"><ele>286.0</ele><time>2026-04-11T16:28:59.536Z</time></trkpt><trkpt lat="46.0284331" lon="11.9068333"><ele>286.0</ele><time>2026-04-11T16:29:01.537Z</time></trkpt><trkpt lat="46.0284277" lon="11.9069881"><ele>286.0</ele><time>2026-04-11T16:29:03.537Z</time></trkpt><trkpt lat="46.0284145" lon="11.9071356"><ele>286.0</ele><time>2026-04-11T16:29:05.537Z</time></trkpt><trkpt lat="46.0283872" lon="11.9072742"><ele>286.0</ele><time>2026-04-11T16:29:07.535Z</time></trkpt><trkpt lat="46.0283464" lon="11.9074173"><ele>285.40000000000003</ele><time>2026-04-11T16:29:09.537Z</time></trkpt><trkpt lat="46.0283028" lon="11.9075637"><ele>284.8</ele><time>2026-04-11T16:29:11.537Z</time></trkpt><trkpt lat="46.0282637" lon="11.9077076"><ele>284.20000000000005</ele><time>2026-04-11T16:29:13.537Z</time></trkpt><trkpt lat="46.0282515" lon="11.9078582"><ele>283.6</ele><time>2026-04-11T16:29:15.537Z</time></trkpt><trkpt lat="46.0282589" lon="11.908017"><ele>283.0</ele><time>2026-04-11T16:29:17.537Z</time></trkpt><trkpt lat="46.028274" lon="11.9081725"><ele>282.6</ele><time>2026-04-11T16:29:19.537Z</time></trkpt><trkpt lat="46.0282965" lon="11.9083227"><ele>282.20000000000005</ele><time>2026-04-11T16:29:21.537Z</time></trkpt><trkpt lat="46.0283241" lon="11.908468"><ele>281.8</ele><time>2026-04-11T16:29:23.536Z</time></trkpt><trkpt lat="46.0283409" lon="11.9086198"><ele>281.40000000000003</ele><time>2026-04-11T16:29:25.538Z</time></trkpt><trkpt lat="46.0283468" lon="11.908764"><ele>281.0</ele><time>2026-04-11T16:29:27.537Z</time></trkpt><trkpt lat="46.0283754" lon="11.9088978"><ele>282.0</ele><time>2026-04-11T16:29:29.537Z</time></trkpt><trkpt lat="46.0284004" lon="11.9090357"><ele>283.0</ele><time>2026-04-11T16:29:31.537Z</time></trkpt><trkpt lat="46.0284123" lon="11.9091792"><ele>284.0</ele><time>2026-04-11T16:29:33.537Z</time></trkpt><trkpt lat="46.0284274" lon="11.9093219"><ele>285.0</ele><time>2026-04-11T16:29:35.537Z</time></trkpt><trkpt lat="46.0284446" lon="11.9094655"><ele>286.0</ele><time>2026-04-11T16:29:37.537Z</time></trkpt><trkpt lat="46.0284556" lon="11.9096036"><ele>286.0</ele><time>2026-04-11T16:29:39.537Z</time></trkpt><trkpt lat="46.0284648" lon="11.9097414"><ele>286.0</ele><time>2026-04-11T16:29:41.537Z</time></trkpt><trkpt lat="46.0284743" lon="11.9098769"><ele>286.0</ele><time>2026-04-11T16:29:43.537Z</time></trkpt><trkpt lat="46.0284801" lon="11.9100116"><ele>286.0</ele><time>2026-04-11T16:29:45.537Z</time></trkpt><trkpt lat="46.0284833" lon="11.9101511"><ele>286.0</ele><time>2026-04-11T16:29:47.535Z</time></trkpt><trkpt lat="46.028484" lon="11.9102899"><ele>286.2</ele><time>2026-04-11T16:29:49.536Z</time></trkpt><trkpt lat="46.0284863" lon="11.9104332"><ele>286.40000000000003</ele><time>2026-04-11T16:29:51.537Z</time></trkpt><trkpt lat="46.0284848" lon="11.9105751"><ele>286.6</ele><time>2026-04-11T16:29:53.536Z</time></trkpt><trkpt lat="46.0284865" lon="11.9107165"><ele>286.8</ele><time>2026-04-11T16:29:55.537Z</time></trkpt><trkpt lat="46.0284911" lon="11.9108551"><ele>287.0</ele><time>2026-04-11T16:29:57.537Z</time></trkpt><trkpt lat="46.0285002" lon="11.910995"><ele>287.0</ele><time>2026-04-11T16:29:59.537Z</time></trkpt><trkpt lat="46.0285178" lon="11.9111363"><ele>287.0</ele><time>2026-04-11T16:30:01.539Z</time></trkpt><trkpt lat="46.0285305" lon="11.91127"><ele>287.0</ele><time>2026-04-11T16:30:03.536Z</time></trkpt><trkpt lat="46.0285484" lon="11.9114059"><ele>287.0</ele><time>2026-04-11T16:30:05.537Z</time></trkpt><trkpt lat="46.0285639" lon="11.9115412"><ele>287.0</ele><time>2026-04-11T16:30:07.539Z</time></trkpt><trkpt lat="46.028581" lon="11.9116763"><ele>287.0</ele><time>2026-04-11T16:30:09.538Z</time></trkpt><trkpt lat="46.0286007" lon="11.9118082"><ele>287.0</ele><time>2026-04-11T16:30:11.538Z</time></trkpt><trkpt lat="46.0286185" lon="11.9119353"><ele>287.0</ele><time>2026-04-11T16:30:13.537Z</time></trkpt><trkpt lat="46.0286411" lon="11.9120566"><ele>287.0</ele><time>2026-04-11T16:30:15.536Z</time></trkpt><trkpt lat="46.0286609" lon="11.9121737"><ele>287.0</ele><time>2026-04-11T16:30:17.536Z</time></trkpt><trkpt lat="46.0286739" lon="11.9122744"><ele>287.0</ele><time>2026-04-11T16:30:19.536Z</time></trkpt><trkpt lat="46.0286703" lon="11.9123681"><ele>287.0</ele><time>2026-04-11T16:30:22.536Z</time></trkpt><trkpt lat="46.028702" lon="11.9124693"><ele>287.0</ele><time>2026-04-11T16:30:39.536Z</time></trkpt><trkpt lat="46.0287445" lon="11.9125444"><ele>287.0</ele><time>2026-04-11T16:30:41.536Z</time></trkpt><trkpt lat="46.0287725" lon="11.9126545"><ele>287.0</ele><time>2026-04-11T16:30:43.536Z</time></trkpt><trkpt lat="46.0287946" lon="11.9127766"><ele>287.0</ele><time>2026-04-11T16:30:45.537Z</time></trkpt><trkpt lat="46.0288166" lon="11.912902"><ele>287.0</ele><time>2026-04-11T16:30:47.537Z</time></trkpt><trkpt lat="46.0288345" lon="11.9130319"><ele>287.2</ele><time>2026-04-11T16:30:49.537Z</time></trkpt><trkpt lat="46.0288555" lon="11.9131586"><ele>287.4</ele><time>2026-04-11T16:30:51.537Z</time></trkpt><trkpt lat="46.0288798" lon="11.9132856"><ele>287.6</ele><time>2026-04-11T16:30:53.537Z</time></trkpt><trkpt lat="46.0289026" lon="11.9134187"><ele>287.8</ele><time>2026-04-11T16:30:55.537Z</time></trkpt><trkpt lat="46.0289207" lon="11.9135575"><ele>288.0</ele><time>2026-04-11T16:30:57.536Z</time></trkpt><trkpt lat="46.0289427" lon="11.9136923"><ele>288.2</ele><time>2026-04-11T16:30:59.537Z</time></trkpt><trkpt lat="46.0289713" lon="11.9138264"><ele>288.4</ele><time>2026-04-11T16:31:01.537Z</time></trkpt><trkpt lat="46.0289973" lon="11.9139613"><ele>288.59999999999997</ele><time>2026-04-11T16:31:03.537Z</time></trkpt><trkpt lat="46.0290231" lon="11.9140928"><ele>288.8</ele><time>2026-04-11T16:31:05.537Z</time></trkpt><trkpt lat="46.0290316" lon="11.9142239"><ele>289.0</ele><time>2026-04-11T16:31:07.538Z</time></trkpt><trkpt lat="46.0289874" lon="11.9143228"><ele>289.0</ele><time>2026-04-11T16:31:09.536Z</time></trkpt><trkpt lat="46.0289094" lon="11.9143925"><ele>289.0</ele><time>2026-04-11T16:31:11.538Z</time></trkpt><trkpt lat="46.0288276" lon="11.9144716"><ele>289.0</ele><time>2026-04-11T16:31:13.538Z</time></trkpt><trkpt lat="46.0287442" lon="11.9145507"><ele>289.0</ele><time>2026-04-11T16:31:15.536Z</time></trkpt><trkpt lat="46.0286571" lon="11.9146214"><ele>289.0</ele><time>2026-04-11T16:31:17.537Z</time></trkpt><trkpt lat="46.0285671" lon="11.9146717"><ele>289.0</ele><time>2026-04-11T16:31:19.538Z</time></trkpt><trkpt lat="46.0284751" lon="11.9147025"><ele>289.0</ele><time>2026-04-11T16:31:21.538Z</time></trkpt><trkpt lat="46.0283793" lon="11.9147297"><ele>289.0</ele><time>2026-04-11T16:31:23.538Z</time></trkpt><trkpt lat="46.0282777" lon="11.9147482"><ele>289.0</ele><time>2026-04-11T16:31:25.538Z</time></trkpt><trkpt lat="46.0281718" lon="11.9147487"><ele>289.0</ele><time>2026-04-11T16:31:27.537Z</time></trkpt><trkpt lat="46.0280652" lon="11.9147465"><ele>289.0</ele><time>2026-04-11T16:31:29.537Z</time></trkpt><trkpt lat="46.0279583" lon="11.9147482"><ele>289.0</ele><time>2026-04-11T16:31:31.537Z</time></trkpt><trkpt lat="46.0278501" lon="11.9147444"><ele>289.0</ele><time>2026-04-11T16:31:33.538Z</time></trkpt><trkpt lat="46.0277418" lon="11.9147383"><ele>289.0</ele><time>2026-04-11T16:31:35.536Z</time></trkpt><trkpt lat="46.0276274" lon="11.9147419"><ele>289.0</ele><time>2026-04-11T16:31:37.539Z</time></trkpt><trkpt lat="46.0275178" lon="11.9147369"><ele>288.25</ele><time>2026-04-11T16:31:39.538Z</time></trkpt><trkpt lat="46.02741" lon="11.9147298"><ele>287.5</ele><time>2026-04-11T16:31:41.537Z</time></trkpt><trkpt lat="46.0272947" lon="11.9147333"><ele>286.75</ele><time>2026-04-11T16:31:43.538Z</time></trkpt><trkpt lat="46.0271771" lon="11.9147377"><ele>286.0</ele><time>2026-04-11T16:31:45.539Z</time></trkpt><trkpt lat="46.0270622" lon="11.9147351"><ele>286.0</ele><time>2026-04-11T16:31:47.537Z</time></trkpt><trkpt lat="46.0269467" lon="11.9147309"><ele>286.0</ele><time>2026-04-11T16:31:49.537Z</time></trkpt><trkpt lat="46.0268283" lon="11.9147285"><ele>286.0</ele><time>2026-04-11T16:31:51.537Z</time></trkpt><trkpt lat="46.0267095" lon="11.9147196"><ele>286.0</ele><time>2026-04-11T16:31:53.537Z</time></trkpt><trkpt lat="46.0265878" lon="11.9147108"><ele>285.25</ele><time>2026-04-11T16:31:55.537Z</time></trkpt><trkpt lat="46.0264671" lon="11.9147127"><ele>284.5</ele><time>2026-04-11T16:31:57.539Z</time></trkpt><trkpt lat="46.0263471" lon="11.9147056"><ele>283.75</ele><time>2026-04-11T16:31:59.538Z</time></trkpt><trkpt lat="46.0262287" lon="11.9146941"><ele>283.0</ele><time>2026-04-11T16:32:01.54Z</time></trkpt><trkpt lat="46.0261103" lon="11.914689"><ele>283.0</ele><time>2026-04-11T16:32:03.537Z</time></trkpt><trkpt lat="46.0259967" lon="11.9146874"><ele>283.0</ele><time>2026-04-11T16:32:05.538Z</time></trkpt><trkpt lat="46.0258857" lon="11.9146895"><ele>283.0</ele><time>2026-04-11T16:32:07.537Z</time></trkpt><trkpt lat="46.025772" lon="11.9146865"><ele>283.0</ele><time>2026-04-11T16:32:09.535Z</time></trkpt><trkpt lat="46.025654" lon="11.9146845"><ele>282.75</ele><time>2026-04-11T16:32:11.535Z</time></trkpt><trkpt lat="46.025533" lon="11.9146865"><ele>282.5</ele><time>2026-04-11T16:32:13.534Z</time></trkpt><trkpt lat="46.0254108" lon="11.9146863"><ele>282.25</ele><time>2026-04-11T16:32:15.535Z</time></trkpt><trkpt lat="46.0252917" lon="11.9146841"><ele>282.0</ele><time>2026-04-11T16:32:17.535Z</time></trkpt><trkpt lat="46.0251722" lon="11.9146797"><ele>282.0</ele><time>2026-04-11T16:32:19.538Z</time></trkpt><trkpt lat="46.0250516" lon="11.9146789"><ele>282.0</ele><time>2026-04-11T16:32:21.535Z</time></trkpt><trkpt lat="46.0249375" lon="11.9146789"><ele>282.0</ele><time>2026-04-11T16:32:23.537Z</time></trkpt><trkpt lat="46.0248253" lon="11.9146826"><ele>282.0</ele><time>2026-04-11T16:32:25.537Z</time></trkpt><trkpt lat="46.0247147" lon="11.9146783"><ele>281.25</ele><time>2026-04-11T16:32:27.537Z</time></trkpt><trkpt lat="46.0246023" lon="11.9146829"><ele>280.5</ele><time>2026-04-11T16:32:29.538Z</time></trkpt><trkpt lat="46.0244887" lon="11.9146905"><ele>279.75</ele><time>2026-04-11T16:32:31.538Z</time></trkpt><trkpt lat="46.0243747" lon="11.9146908"><ele>279.0</ele><time>2026-04-11T16:32:33.538Z</time></trkpt><trkpt lat="46.0242645" lon="11.9146951"><ele>279.0</ele><time>2026-04-11T16:32:35.538Z</time></trkpt><trkpt lat="46.0241567" lon="11.9146961"><ele>279.0</ele><time>2026-04-11T16:32:37.54Z</time></trkpt><trkpt lat="46.0240513" lon="11.9146873"><ele>279.0</ele><time>2026-04-11T16:32:39.538Z</time></trkpt><trkpt lat="46.0239471" lon="11.9146625"><ele>279.0</ele><time>2026-04-11T16:32:41.537Z</time></trkpt><trkpt lat="46.0238425" lon="11.9146216"><ele>279.0</ele><time>2026-04-11T16:32:43.537Z</time></trkpt><trkpt lat="46.0237347" lon="11.9145787"><ele>278.4</ele><time>2026-04-11T16:32:45.538Z</time></trkpt><trkpt lat="46.0236267" lon="11.9145363"><ele>277.79999999999995</ele><time>2026-04-11T16:32:47.537Z</time></trkpt><trkpt lat="46.023517" lon="11.9145"><ele>277.20000000000005</ele><time>2026-04-11T16:32:49.537Z</time></trkpt><trkpt lat="46.023408" lon="11.9144745"><ele>276.6</ele><time>2026-04-11T16:32:51.538Z</time></trkpt><trkpt lat="46.0233011" lon="11.9144536"><ele>276.0</ele><time>2026-04-11T16:32:53.536Z</time></trkpt><trkpt lat="46.0231952" lon="11.9144572"><ele>275.8</ele><time>2026-04-11T16:32:55.537Z</time></trkpt><trkpt lat="46.0230879" lon="11.9144837"><ele>275.6</ele><time>2026-04-11T16:32:57.538Z</time></trkpt><trkpt lat="46.0229822" lon="11.914517"><ele>275.4</ele><time>2026-04-11T16:32:59.539Z</time></trkpt><trkpt lat="46.0228931" lon="11.9145921"><ele>275.2</ele><time>2026-04-11T16:33:01.538Z</time></trkpt><trkpt lat="46.0228458" lon="11.9147096"><ele>275.0</ele><time>2026-04-11T16:33:03.537Z</time></trkpt><trkpt lat="46.0228408" lon="11.9148314"><ele>275.0</ele><time>2026-04-11T16:33:05.538Z</time></trkpt><trkpt lat="46.0228639" lon="11.9149554"><ele>275.0</ele><time>2026-04-11T16:33:07.538Z</time></trkpt><trkpt lat="46.0228953" lon="11.9150676"><ele>275.0</ele><time>2026-04-11T16:33:09.538Z</time></trkpt><trkpt lat="46.0229064" lon="11.9151924"><ele>275.0</ele><time>2026-04-11T16:33:11.538Z</time></trkpt><trkpt lat="46.0228723" lon="11.9153136"><ele>275.0</ele><time>2026-04-11T16:33:13.536Z</time></trkpt><trkpt lat="46.0228275" lon="11.9154364"><ele>275.0</ele><time>2026-04-11T16:33:15.538Z</time></trkpt><trkpt lat="46.0228051" lon="11.9155579"><ele>275.5</ele><time>2026-04-11T16:33:17.537Z</time></trkpt><trkpt lat="46.0228023" lon="11.9156746"><ele>276.0</ele><time>2026-04-11T16:33:19.538Z</time></trkpt><trkpt lat="46.0228097" lon="11.9157921"><ele>276.5</ele><time>2026-04-11T16:33:21.538Z</time></trkpt><trkpt lat="46.0228133" lon="11.9159168"><ele>277.0</ele><time>2026-04-11T16:33:23.536Z</time></trkpt><trkpt lat="46.0228135" lon="11.9160354"><ele>277.5</ele><time>2026-04-11T16:33:25.536Z</time></trkpt><trkpt lat="46.022817" lon="11.9161573"><ele>278.0</ele><time>2026-04-11T16:33:27.536Z</time></trkpt><trkpt lat="46.0228204" lon="11.9162816"><ele>278.83333333333337</ele><time>2026-04-11T16:33:29.538Z</time></trkpt><trkpt lat="46.0228237" lon="11.9164032"><ele>279.6666666666667</ele><time>2026-04-11T16:33:31.537Z</time></trkpt><trkpt lat="46.022826" lon="11.9165099"><ele>280.5</ele><time>2026-04-11T16:33:33.538Z</time></trkpt><trkpt lat="46.0228241" lon="11.9166241"><ele>281.3333333333333</ele><time>2026-04-11T16:33:36.537Z</time></trkpt><trkpt lat="46.0228651" lon="11.9167192"><ele>282.16666666666663</ele><time>2026-04-11T16:33:39.535Z</time></trkpt><trkpt lat="46.0229263" lon="11.9167982"><ele>283.0</ele><time>2026-04-11T16:33:41.537Z</time></trkpt><trkpt lat="46.0229925" lon="11.9169014"><ele>282.8</ele><time>2026-04-11T16:33:43.538Z</time></trkpt><trkpt lat="46.0230664" lon="11.9170187"><ele>282.6</ele><time>2026-04-11T16:33:45.538Z</time></trkpt><trkpt lat="46.0231413" lon="11.9171348"><ele>282.4</ele><time>2026-04-11T16:33:47.538Z</time></trkpt><trkpt lat="46.0232066" lon="11.917258"><ele>282.2</ele><time>2026-04-11T16:33:49.539Z</time></trkpt><trkpt lat="46.023272" lon="11.9173836"><ele>282.0</ele><time>2026-04-11T16:33:51.537Z</time></trkpt><trkpt lat="46.0233445" lon="11.9175108"><ele>282.0</ele><time>2026-04-11T16:33:53.537Z</time></trkpt><trkpt lat="46.0234105" lon="11.9176392"><ele>282.0</ele><time>2026-04-11T16:33:55.537Z</time></trkpt><trkpt lat="46.0234692" lon="11.917771"><ele>282.0</ele><time>2026-04-11T16:33:57.538Z</time></trkpt><trkpt lat="46.0235317" lon="11.9179078"><ele>282.0</ele><time>2026-04-11T16:33:59.537Z</time></trkpt><trkpt lat="46.0235988" lon="11.9180507"><ele>282.0</ele><time>2026-04-11T16:34:01.537Z</time></trkpt><trkpt lat="46.0236679" lon="11.9181943"><ele>282.0</ele><time>2026-04-11T16:34:03.538Z</time></trkpt><trkpt lat="46.0237364" lon="11.9183213"><ele>282.0</ele><time>2026-04-11T16:34:05.537Z</time></trkpt><trkpt lat="46.0238072" lon="11.9184427"><ele>282.0</ele><time>2026-04-11T16:34:07.537Z</time></trkpt><trkpt lat="46.023883" lon="11.9185646"><ele>281.8</ele><time>2026-04-11T16:34:09.538Z</time></trkpt><trkpt lat="46.0239559" lon="11.9186809"><ele>281.6</ele><time>2026-04-11T16:34:11.536Z</time></trkpt><trkpt lat="46.0240274" lon="11.9187982"><ele>281.40000000000003</ele><time>2026-04-11T16:34:13.535Z</time></trkpt><trkpt lat="46.0241027" lon="11.9189165"><ele>281.2</ele><time>2026-04-11T16:34:15.536Z</time></trkpt><trkpt lat="46.0241763" lon="11.9190325"><ele>281.0</ele><time>2026-04-11T16:34:17.537Z</time></trkpt><trkpt lat="46.0242511" lon="11.9191491"><ele>281.8</ele><time>2026-04-11T16:34:19.536Z</time></trkpt><trkpt lat="46.024331" lon="11.9192617"><ele>282.6</ele><time>2026-04-11T16:34:21.536Z</time></trkpt><trkpt lat="46.0244105" lon="11.9193729"><ele>283.4</ele><time>2026-04-11T16:34:23.537Z</time></trkpt><trkpt lat="46.0244888" lon="11.9194646"><ele>284.2</ele><time>2026-04-11T16:34:25.536Z</time></trkpt><trkpt lat="46.0245783" lon="11.9195361"><ele>285.0</ele><time>2026-04-11T16:34:27.537Z</time></trkpt><trkpt lat="46.0246725" lon="11.9196089"><ele>285.0</ele><time>2026-04-11T16:34:29.538Z</time></trkpt><trkpt lat="46.0247549" lon="11.9196846"><ele>285.0</ele><time>2026-04-11T16:34:31.537Z</time></trkpt><trkpt lat="46.0248235" lon="11.9197758"><ele>285.0</ele><time>2026-04-11T16:34:33.536Z</time></trkpt><trkpt lat="46.0248415" lon="11.9198896"><ele>285.0</ele><time>2026-04-11T16:34:35.537Z</time></trkpt><trkpt lat="46.024794" lon="11.9199669"><ele>285.0</ele><time>2026-04-11T16:34:37.537Z</time></trkpt><trkpt lat="46.0247383" lon="11.9200205"><ele>285.0</ele><time>2026-04-11T16:34:39.538Z</time></trkpt><trkpt lat="46.0246811" lon="11.9200766"><ele>285.2857142857143</ele><time>2026-04-11T16:34:41.537Z</time></trkpt><trkpt lat="46.0246287" lon="11.9201277"><ele>285.57142857142856</ele><time>2026-04-11T16:34:43.537Z</time></trkpt><trkpt lat="46.0245754" lon="11.9201847"><ele>285.8571428571429</ele><time>2026-04-11T16:34:45.538Z</time></trkpt><trkpt lat="46.0245169" lon="11.9202317"><ele>286.1428571428571</ele><time>2026-04-11T16:34:47.536Z</time></trkpt><trkpt lat="46.0244618" lon="11.920285"><ele>286.42857142857144</ele><time>2026-04-11T16:34:49.536Z</time></trkpt><trkpt lat="46.0244051" lon="11.9203357"><ele>286.7142857142857</ele><time>2026-04-11T16:34:51.536Z</time></trkpt><trkpt lat="46.0243521" lon="11.9203964"><ele>287.0</ele><time>2026-04-11T16:34:53.536Z</time></trkpt><trkpt lat="46.0243097" lon="11.920467"><ele>287.0</ele><time>2026-04-11T16:34:55.538Z</time></trkpt><trkpt lat="46.0242938" lon="11.9206005"><ele>287.0</ele><time>2026-04-11T16:34:58.538Z</time></trkpt><trkpt lat="46.0243051" lon="11.9206998"><ele>287.0</ele><time>2026-04-11T16:35:00.537Z</time></trkpt><trkpt lat="46.0243219" lon="11.9208076"><ele>287.0</ele><time>2026-04-11T16:35:02.537Z</time></trkpt><trkpt lat="46.0243486" lon="11.9209164"><ele>287.0</ele><time>2026-04-11T16:35:04.537Z</time></trkpt><trkpt lat="46.0243796" lon="11.9210202"><ele>287.0</ele><time>2026-04-11T16:35:06.536Z</time></trkpt><trkpt lat="46.0244083" lon="11.9211257"><ele>287.5</ele><time>2026-04-11T16:35:08.537Z</time></trkpt><trkpt lat="46.0244357" lon="11.9212329"><ele>288.0</ele><time>2026-04-11T16:35:10.538Z</time></trkpt><trkpt lat="46.024461" lon="11.9213376"><ele>288.5</ele><time>2026-04-11T16:35:12.537Z</time></trkpt><trkpt lat="46.0244853" lon="11.9214456"><ele>289.0</ele><time>2026-04-11T16:35:14.538Z</time></trkpt><trkpt lat="46.0245167" lon="11.9215576"><ele>289.5</ele><time>2026-04-11T16:35:16.537Z</time></trkpt><trkpt lat="46.0245451" lon="11.9216745"><ele>290.0</ele><time>2026-04-11T16:35:18.535Z</time></trkpt><trkpt lat="46.0245656" lon="11.9218005"><ele>290.33333333333337</ele><time>2026-04-11T16:35:20.538Z</time></trkpt><trkpt lat="46.0245781" lon="11.9219256"><ele>290.6666666666667</ele><time>2026-04-11T16:35:22.535Z</time></trkpt><trkpt lat="46.0245921" lon="11.9220437"><ele>291.0</ele><time>2026-04-11T16:35:24.537Z</time></trkpt><trkpt lat="46.0246095" lon="11.922156"><ele>291.3333333333333</ele><time>2026-04-11T16:35:26.538Z</time></trkpt><trkpt lat="46.0246318" lon="11.9222643"><ele>291.66666666666663</ele><time>2026-04-11T16:35:28.537Z</time></trkpt><trkpt lat="46.0246541" lon="11.9223674"><ele>292.0</ele><time>2026-04-11T16:35:30.538Z</time></trkpt><trkpt lat="46.0246801" lon="11.9224655"><ele>292.16666666666663</ele><time>2026-04-11T16:35:32.538Z</time></trkpt><trkpt lat="46.0247185" lon="11.9225754"><ele>292.3333333333333</ele><time>2026-04-11T16:35:35.537Z</time></trkpt><trkpt lat="46.0247701" lon="11.9226426"><ele>292.5</ele><time>2026-04-11T16:35:38.537Z</time></trkpt><trkpt lat="46.0248047" lon="11.9227351"><ele>292.6666666666667</ele><time>2026-04-11T16:35:41.536Z</time></trkpt><trkpt lat="46.0248379" lon="11.9228381"><ele>292.83333333333337</ele><time>2026-04-11T16:35:43.534Z</time></trkpt><trkpt lat="46.0248688" lon="11.922941"><ele>293.0</ele><time>2026-04-11T16:35:45.537Z</time></trkpt><trkpt lat="46.0249087" lon="11.9230376"><ele>292.99999999999994</ele><time>2026-04-11T16:35:47.537Z</time></trkpt><trkpt lat="46.0249423" lon="11.9231371"><ele>293.0</ele><time>2026-04-11T16:35:49.535Z</time></trkpt><trkpt lat="46.024937" lon="11.9232319"><ele>293.0</ele><time>2026-04-11T16:35:51.537Z</time></trkpt><trkpt lat="46.0248858" lon="11.9233074"><ele>293.0</ele><time>2026-04-11T16:35:53.537Z</time></trkpt><trkpt lat="46.0248289" lon="11.9233762"><ele>293.0</ele><time>2026-04-11T16:35:55.534Z</time></trkpt><trkpt lat="46.0247704" lon="11.9234447"><ele>292.99999999999994</ele><time>2026-04-11T16:35:57.539Z</time></trkpt><trkpt lat="46.0247171" lon="11.9235171"><ele>293.0</ele><time>2026-04-11T16:35:59.538Z</time></trkpt><trkpt lat="46.0246638" lon="11.9235925"><ele>293.5</ele><time>2026-04-11T16:36:01.537Z</time></trkpt><trkpt lat="46.024609" lon="11.9236796"><ele>294.0</ele><time>2026-04-11T16:36:03.537Z</time></trkpt><trkpt lat="46.0245526" lon="11.9237706"><ele>294.5</ele><time>2026-04-11T16:36:05.536Z</time></trkpt><trkpt lat="46.0245001" lon="11.923859"><ele>295.0</ele><time>2026-04-11T16:36:07.537Z</time></trkpt><trkpt lat="46.0244608" lon="11.9239504"><ele>295.5</ele><time>2026-04-11T16:36:09.536Z</time></trkpt><trkpt lat="46.0244282" lon="11.9240442"><ele>296.0</ele><time>2026-04-11T16:36:11.537Z</time></trkpt><trkpt lat="46.0243945" lon="11.9241247"><ele>296.0</ele><time>2026-04-11T16:36:13.537Z</time></trkpt><trkpt lat="46.0243877" lon="11.9242159"><ele>296.0</ele><time>2026-04-11T16:36:15.536Z</time></trkpt><trkpt lat="46.0243997" lon="11.9243052"><ele>296.0</ele><time>2026-04-11T16:36:17.536Z</time></trkpt><trkpt lat="46.0244134" lon="11.9243943"><ele>296.0</ele><time>2026-04-11T16:36:19.536Z</time></trkpt><trkpt lat="46.0244672" lon="11.9244724"><ele>296.0</ele><time>2026-04-11T16:36:22.536Z</time></trkpt><trkpt lat="46.0245175" lon="11.9245357"><ele>296.0</ele><time>2026-04-11T16:39:35.538Z</time></trkpt><trkpt lat="46.0244667" lon="11.9244488"><ele>296.0</ele><time>2026-04-11T16:39:39.538Z</time></trkpt><trkpt lat="46.0244263" lon="11.9243325"><ele>296.0</ele><time>2026-04-11T16:39:42.536Z</time></trkpt><trkpt lat="46.0244098" lon="11.9242432"><ele>296.0</ele><time>2026-04-11T16:39:44.537Z</time></trkpt><trkpt lat="46.0244095" lon="11.9241416"><ele>296.0</ele><time>2026-04-11T16:39:46.538Z</time></trkpt><trkpt lat="46.0244507" lon="11.92406"><ele>296.0</ele><time>2026-04-11T16:39:48.537Z</time></trkpt><trkpt lat="46.024505" lon="11.9239715"><ele>296.0</ele><time>2026-04-11T16:39:50.538Z</time></trkpt><trkpt lat="46.0245682" lon="11.9238784"><ele>296.0</ele><time>2026-04-11T16:39:52.536Z</time></trkpt><trkpt lat="46.0246319" lon="11.9237898"><ele>296.0</ele><time>2026-04-11T16:39:54.538Z</time></trkpt><trkpt lat="46.0246851" lon="11.9236964"><ele>296.0</ele><time>2026-04-11T16:39:56.538Z</time></trkpt><trkpt lat="46.0247399" lon="11.9235966"><ele>296.0</ele><time>2026-04-11T16:39:58.538Z</time></trkpt><trkpt lat="46.0247942" lon="11.9234998"><ele>296.0</ele><time>2026-04-11T16:40:00.538Z</time></trkpt><trkpt lat="46.0248505" lon="11.9234104"><ele>296.0</ele><time>2026-04-11T16:40:02.537Z</time></trkpt><trkpt lat="46.0249095" lon="11.9233254"><ele>296.0</ele><time>2026-04-11T16:40:04.537Z</time></trkpt><trkpt lat="46.0249553" lon="11.9232334"><ele>295.5</ele><time>2026-04-11T16:40:06.539Z</time></trkpt><trkpt lat="46.0249635" lon="11.9231348"><ele>295.0</ele><time>2026-04-11T16:40:08.537Z</time></trkpt><trkpt lat="46.0249343" lon="11.9230373"><ele>294.5</ele><time>2026-04-11T16:40:10.537Z</time></trkpt><trkpt lat="46.024906" lon="11.9229526"><ele>294.0</ele><time>2026-04-11T16:40:12.537Z</time></trkpt><trkpt lat="46.0248707" lon="11.9228323"><ele>293.5</ele><time>2026-04-11T16:40:15.538Z</time></trkpt><trkpt lat="46.0248314" lon="11.9227267"><ele>293.0</ele><time>2026-04-11T16:40:18.537Z</time></trkpt><trkpt lat="46.0247843" lon="11.9226436"><ele>292.83333333333337</ele><time>2026-04-11T16:40:21.538Z</time></trkpt><trkpt lat="46.0247417" lon="11.9225393"><ele>292.6666666666667</ele><time>2026-04-11T16:40:24.538Z</time></trkpt><trkpt lat="46.0247106" lon="11.9224421"><ele>292.5</ele><time>2026-04-11T16:40:26.538Z</time></trkpt><trkpt lat="46.0246792" lon="11.9223292"><ele>292.3333333333333</ele><time>2026-04-11T16:40:28.535Z</time></trkpt><trkpt lat="46.0246509" lon="11.9222013"><ele>292.16666666666663</ele><time>2026-04-11T16:40:30.537Z</time></trkpt><trkpt lat="46.0246321" lon="11.9220562"><ele>292.0</ele><time>2026-04-11T16:40:32.538Z</time></trkpt><trkpt lat="46.0246111" lon="11.9218986"><ele>292.0</ele><time>2026-04-11T16:40:34.537Z</time></trkpt><trkpt lat="46.0245913" lon="11.9217366"><ele>292.0</ele><time>2026-04-11T16:40:36.537Z</time></trkpt><trkpt lat="46.0245604" lon="11.9215841"><ele>292.0</ele><time>2026-04-11T16:40:38.534Z</time></trkpt><trkpt lat="46.0245207" lon="11.9214384"><ele>292.0</ele><time>2026-04-11T16:40:40.537Z</time></trkpt><trkpt lat="46.024486" lon="11.9213015"><ele>292.0</ele><time>2026-04-11T16:40:42.537Z</time></trkpt><trkpt lat="46.0244489" lon="11.9211717"><ele>291.6</ele><time>2026-04-11T16:40:44.538Z</time></trkpt><trkpt lat="46.0244082" lon="11.9210428"><ele>291.2</ele><time>2026-04-11T16:40:46.536Z</time></trkpt><trkpt lat="46.024367" lon="11.9209117"><ele>290.8</ele><time>2026-04-11T16:40:48.537Z</time></trkpt><trkpt lat="46.024326" lon="11.9207687"><ele>290.4</ele><time>2026-04-11T16:40:50.538Z</time></trkpt><trkpt lat="46.0242965" lon="11.9206224"><ele>290.0</ele><time>2026-04-11T16:40:52.536Z</time></trkpt><trkpt lat="46.0243336" lon="11.9204664"><ele>289.57142857142856</ele><time>2026-04-11T16:40:54.537Z</time></trkpt><trkpt lat="46.0243855" lon="11.9204112"><ele>289.14285714285717</ele><time>2026-04-11T16:40:55.537Z</time></trkpt><trkpt lat="46.0244455" lon="11.9203606"><ele>288.7142857142857</ele><time>2026-04-11T16:40:56.538Z</time></trkpt><trkpt lat="46.0245069" lon="11.9203063"><ele>288.2857142857143</ele><time>2026-04-11T16:40:57.536Z</time></trkpt><trkpt lat="46.0245701" lon="11.920244"><ele>287.8571428571429</ele><time>2026-04-11T16:40:58.537Z</time></trkpt><trkpt lat="46.0246331" lon="11.9201834"><ele>287.42857142857144</ele><time>2026-04-11T16:40:59.538Z</time></trkpt><trkpt lat="46.0246914" lon="11.9201248"><ele>287.0</ele><time>2026-04-11T16:41:00.538Z</time></trkpt><trkpt lat="46.0247438" lon="11.9200699"><ele>286.6666666666667</ele><time>2026-04-11T16:41:01.535Z</time></trkpt><trkpt lat="46.0248268" lon="11.9199799"><ele>286.33333333333337</ele><time>2026-04-11T16:41:03.538Z</time></trkpt><trkpt lat="46.0248689" lon="11.9199049"><ele>286.0</ele><time>2026-04-11T16:41:05.537Z</time></trkpt><trkpt lat="46.0248293" lon="11.9197762"><ele>285.6666666666667</ele><time>2026-04-11T16:41:08.538Z</time></trkpt><trkpt lat="46.0247637" lon="11.9196998"><ele>285.3333333333333</ele><time>2026-04-11T16:41:10.538Z</time></trkpt><trkpt lat="46.024691" lon="11.9196257"><ele>285.0</ele><time>2026-04-11T16:41:12.536Z</time></trkpt><trkpt lat="46.0246121" lon="11.9195494"><ele>285.0</ele><time>2026-04-11T16:41:14.537Z</time></trkpt><trkpt lat="46.0245304" lon="11.9194706"><ele>285.0</ele><time>2026-04-11T16:41:16.537Z</time></trkpt><trkpt lat="46.0244439" lon="11.919375"><ele>285.0</ele><time>2026-04-11T16:41:18.537Z</time></trkpt><trkpt lat="46.0243623" lon="11.919253"><ele>285.0</ele><time>2026-04-11T16:41:20.538Z</time></trkpt><trkpt lat="46.0242847" lon="11.9191322"><ele>285.0</ele><time>2026-04-11T16:41:22.537Z</time></trkpt><trkpt lat="46.0242127" lon="11.9190139"><ele>285.2</ele><time>2026-04-11T16:41:24.536Z</time></trkpt><trkpt lat="46.0241394" lon="11.9188954"><ele>285.4</ele><time>2026-04-11T16:41:26.538Z</time></trkpt><trkpt lat="46.0240678" lon="11.9187774"><ele>285.6</ele><time>2026-04-11T16:41:28.538Z</time></trkpt><trkpt lat="46.0239965" lon="11.9186627"><ele>285.8</ele><time>2026-04-11T16:41:30.536Z</time></trkpt><trkpt lat="46.0239269" lon="11.9185546"><ele>286.0</ele><time>2026-04-11T16:41:32.538Z</time></trkpt><trkpt lat="46.0238575" lon="11.9184417"><ele>285.2</ele><time>2026-04-11T16:41:34.537Z</time></trkpt><trkpt lat="46.0237924" lon="11.9183282"><ele>284.40000000000003</ele><time>2026-04-11T16:41:36.539Z</time></trkpt><trkpt lat="46.0237287" lon="11.9182201"><ele>283.6</ele><time>2026-04-11T16:41:38.537Z</time></trkpt><trkpt lat="46.0236713" lon="11.9181135"><ele>282.8</ele><time>2026-04-11T16:41:40.537Z</time></trkpt><trkpt lat="46.0236163" lon="11.9180008"><ele>282.0</ele><time>2026-04-11T16:41:42.537Z</time></trkpt><trkpt lat="46.0235612" lon="11.9178918"><ele>282.0</ele><time>2026-04-11T16:41:44.538Z</time></trkpt><trkpt lat="46.0235083" lon="11.917777"><ele>282.0</ele><time>2026-04-11T16:41:46.536Z</time></trkpt><trkpt lat="46.0234544" lon="11.9176624"><ele>282.0</ele><time>2026-04-11T16:41:48.536Z</time></trkpt><trkpt lat="46.0234025" lon="11.917549"><ele>282.0</ele><time>2026-04-11T16:41:50.538Z</time></trkpt><trkpt lat="46.0233479" lon="11.9174349"><ele>282.0</ele><time>2026-04-11T16:41:52.537Z</time></trkpt><trkpt lat="46.0232947" lon="11.9173243"><ele>282.6666666666667</ele><time>2026-04-11T16:41:54.538Z</time></trkpt><trkpt lat="46.0232422" lon="11.9172166"><ele>283.3333333333333</ele><time>2026-04-11T16:41:56.538Z</time></trkpt><trkpt lat="46.0231884" lon="11.9171131"><ele>284.0</ele><time>2026-04-11T16:41:58.537Z</time></trkpt><trkpt lat="46.0231294" lon="11.9170164"><ele>284.66666666666663</ele><time>2026-04-11T16:42:00.537Z</time></trkpt><trkpt lat="46.023067" lon="11.9169272"><ele>285.3333333333333</ele><time>2026-04-11T16:42:02.538Z</time></trkpt><trkpt lat="46.0230047" lon="11.9168472"><ele>286.0</ele><time>2026-04-11T16:42:04.536Z</time></trkpt><trkpt lat="46.0229466" lon="11.9167844"><ele>285.5</ele><time>2026-04-11T16:42:06.538Z</time></trkpt><trkpt lat="46.0228954" lon="11.9167311"><ele>285.0</ele><time>2026-04-11T16:42:08.538Z</time></trkpt><trkpt lat="46.0228583" lon="11.9166237"><ele>284.5</ele><time>2026-04-11T16:42:12.536Z</time></trkpt><trkpt lat="46.0228516" lon="11.91653"><ele>284.0</ele><time>2026-04-11T16:42:14.538Z</time></trkpt><trkpt lat="46.0228492" lon="11.9164146"><ele>283.5</ele><time>2026-04-11T16:42:16.536Z</time></trkpt><trkpt lat="46.022851" lon="11.9162919"><ele>283.0</ele><time>2026-04-11T16:42:18.537Z</time></trkpt><trkpt lat="46.0228524" lon="11.9161529"><ele>283.0</ele><time>2026-04-11T16:42:20.538Z</time></trkpt><trkpt lat="46.022848" lon="11.9160055"><ele>283.0</ele><time>2026-04-11T16:42:22.537Z</time></trkpt><trkpt lat="46.0228377" lon="11.9157299"><ele>283.0</ele><time>2026-04-11T16:42:26.537Z</time></trkpt><trkpt lat="46.0228303" lon="11.9155838"><ele>283.0</ele><time>2026-04-11T16:42:28.534Z</time></trkpt><trkpt lat="46.022866" lon="11.9154484"><ele>282.0</ele><time>2026-04-11T16:42:30.535Z</time></trkpt><trkpt lat="46.0229064" lon="11.9152986"><ele>281.0</ele><time>2026-04-11T16:42:32.535Z</time></trkpt><trkpt lat="46.0229305" lon="11.9151556"><ele>280.0</ele><time>2026-04-11T16:42:34.536Z</time></trkpt><trkpt lat="46.0229042" lon="11.9150293"><ele>279.0</ele><time>2026-04-11T16:42:36.534Z</time></trkpt><trkpt lat="46.0228592" lon="11.9149046"><ele>278.0</ele><time>2026-04-11T16:42:38.539Z</time></trkpt><trkpt lat="46.0228457" lon="11.914765"><ele>277.4</ele><time>2026-04-11T16:42:40.538Z</time></trkpt><trkpt lat="46.0228711" lon="11.9146309"><ele>276.8</ele><time>2026-04-11T16:42:42.537Z</time></trkpt><trkpt lat="46.0229457" lon="11.9145419"><ele>276.2</ele><time>2026-04-11T16:42:44.537Z</time></trkpt><trkpt lat="46.023037" lon="11.9145054"><ele>275.6</ele><time>2026-04-11T16:42:46.536Z</time></trkpt><trkpt lat="46.0231312" lon="11.9144935"><ele>275.0</ele><time>2026-04-11T16:42:48.537Z</time></trkpt><trkpt lat="46.0232253" lon="11.9145029"><ele>275.2</ele><time>2026-04-11T16:42:50.537Z</time></trkpt><trkpt lat="46.0233195" lon="11.9145083"><ele>275.4</ele><time>2026-04-11T16:42:52.537Z</time></trkpt><trkpt lat="46.0234126" lon="11.914524"><ele>275.6</ele><time>2026-04-11T16:42:54.536Z</time></trkpt><trkpt lat="46.0235075" lon="11.9145437"><ele>275.8</ele><time>2026-04-11T16:42:56.537Z</time></trkpt><trkpt lat="46.0235999" lon="11.9145635"><ele>276.0</ele><time>2026-04-11T16:42:58.537Z</time></trkpt><trkpt lat="46.0236934" lon="11.9145883"><ele>276.0</ele><time>2026-04-11T16:43:00.538Z</time></trkpt><trkpt lat="46.0237902" lon="11.9146233"><ele>276.0</ele><time>2026-04-11T16:43:02.538Z</time></trkpt><trkpt lat="46.0238822" lon="11.9146701"><ele>276.0</ele><time>2026-04-11T16:43:04.534Z</time></trkpt><trkpt lat="46.0239701" lon="11.9147153"><ele>276.0</ele><time>2026-04-11T16:43:06.536Z</time></trkpt><trkpt lat="46.0240634" lon="11.9147343"><ele>276.0</ele><time>2026-04-11T16:43:08.538Z</time></trkpt><trkpt lat="46.0241577" lon="11.9147393"><ele>276.6</ele><time>2026-04-11T16:43:10.536Z</time></trkpt><trkpt lat="46.0242597" lon="11.9147393"><ele>277.20000000000005</ele><time>2026-04-11T16:43:12.537Z</time></trkpt><trkpt lat="46.0243549" lon="11.9147312"><ele>277.79999999999995</ele><time>2026-04-11T16:43:14.536Z</time></trkpt><trkpt lat="46.0244484" lon="11.914718"><ele>278.4</ele><time>2026-04-11T16:43:16.537Z</time></trkpt><trkpt lat="46.0245497" lon="11.914711"><ele>279.0</ele><time>2026-04-11T16:43:18.537Z</time></trkpt><trkpt lat="46.024647" lon="11.9147076"><ele>279.0</ele><time>2026-04-11T16:43:20.537Z</time></trkpt><trkpt lat="46.0247357" lon="11.9147123"><ele>279.0</ele><time>2026-04-11T16:43:22.537Z</time></trkpt><trkpt lat="46.0248157" lon="11.9147102"><ele>279.0</ele><time>2026-04-11T16:43:24.537Z</time></trkpt><trkpt lat="46.0248956" lon="11.9147092"><ele>279.0</ele><time>2026-04-11T16:43:26.537Z</time></trkpt><trkpt lat="46.0249861" lon="11.9147123"><ele>279.0</ele><time>2026-04-11T16:43:28.536Z</time></trkpt><trkpt lat="46.0250727" lon="11.9147126"><ele>279.0</ele><time>2026-04-11T16:43:30.537Z</time></trkpt><trkpt lat="46.0251555" lon="11.9147114"><ele>279.5</ele><time>2026-04-11T16:43:32.537Z</time></trkpt><trkpt lat="46.0252426" lon="11.9147238"><ele>280.0</ele><time>2026-04-11T16:43:34.537Z</time></trkpt><trkpt lat="46.0253337" lon="11.9147333"><ele>280.5</ele><time>2026-04-11T16:43:36.535Z</time></trkpt><trkpt lat="46.0254255" lon="11.9147353"><ele>281.0</ele><time>2026-04-11T16:43:38.538Z</time></trkpt><trkpt lat="46.0255097" lon="11.9147345"><ele>281.5</ele><time>2026-04-11T16:43:40.537Z</time></trkpt><trkpt lat="46.025596" lon="11.9147313"><ele>282.0</ele><time>2026-04-11T16:43:42.538Z</time></trkpt><trkpt lat="46.0256826" lon="11.9147291"><ele>282.0</ele><time>2026-04-11T16:43:44.538Z</time></trkpt><trkpt lat="46.0257714" lon="11.9147286"><ele>282.0</ele><time>2026-04-11T16:43:46.537Z</time></trkpt><trkpt lat="46.0258554" lon="11.9147372"><ele>282.0</ele><time>2026-04-11T16:43:48.537Z</time></trkpt><trkpt lat="46.0259399" lon="11.9147378"><ele>282.0</ele><time>2026-04-11T16:43:50.538Z</time></trkpt><trkpt lat="46.0260226" lon="11.9147451"><ele>282.0</ele><time>2026-04-11T16:43:52.537Z</time></trkpt><trkpt lat="46.0261038" lon="11.9147354"><ele>282.0</ele><time>2026-04-11T16:43:54.538Z</time></trkpt><trkpt lat="46.026185" lon="11.9147331"><ele>282.14285714285717</ele><time>2026-04-11T16:43:56.537Z</time></trkpt><trkpt lat="46.0262609" lon="11.9147405"><ele>282.2857142857143</ele><time>2026-04-11T16:43:58.537Z</time></trkpt><trkpt lat="46.026338" lon="11.9147422"><ele>282.42857142857144</ele><time>2026-04-11T16:44:00.536Z</time></trkpt><trkpt lat="46.0264117" lon="11.9147488"><ele>282.57142857142856</ele><time>2026-04-11T16:44:02.536Z</time></trkpt><trkpt lat="46.026486" lon="11.9147424"><ele>282.7142857142857</ele><time>2026-04-11T16:44:04.537Z</time></trkpt><trkpt lat="46.0265352" lon="11.9146822"><ele>282.8571428571429</ele><time>2026-04-11T16:44:06.534Z</time></trkpt><trkpt lat="46.0265379" lon="11.9145812"><ele>283.0</ele><time>2026-04-11T16:44:08.537Z</time></trkpt><trkpt lat="46.0265274" lon="11.9144771"><ele>283.0</ele><time>2026-04-11T16:44:10.536Z</time></trkpt><trkpt lat="46.0265207" lon="11.9143624"><ele>283.0</ele><time>2026-04-11T16:44:12.537Z</time></trkpt><trkpt lat="46.0265181" lon="11.9142509"><ele>283.0</ele><time>2026-04-11T16:44:14.537Z</time></trkpt><trkpt lat="46.0265181" lon="11.9141402"><ele>283.0</ele><time>2026-04-11T16:44:16.537Z</time></trkpt><trkpt lat="46.0265077" lon="11.9140153"><ele>283.0</ele><time>2026-04-11T16:44:18.537Z</time></trkpt><trkpt lat="46.0264928" lon="11.9138832"><ele>283.0</ele><time>2026-04-11T16:44:20.538Z</time></trkpt><trkpt lat="46.026477" lon="11.9137542"><ele>283.0</ele><time>2026-04-11T16:44:22.536Z</time></trkpt><trkpt lat="46.0264683" lon="11.9136323"><ele>283.0</ele><time>2026-04-11T16:44:24.537Z</time></trkpt><trkpt lat="46.0264485" lon="11.9135069"><ele>283.0</ele><time>2026-04-11T16:44:26.536Z</time></trkpt><trkpt lat="46.0264322" lon="11.9133768"><ele>283.0</ele><time>2026-04-11T16:44:28.536Z</time></trkpt><trkpt lat="46.0264247" lon="11.9132552"><ele>283.0</ele><time>2026-04-11T16:44:30.537Z</time></trkpt><trkpt lat="46.0264295" lon="11.9131432"><ele>283.0</ele><time>2026-04-11T16:44:32.536Z</time></trkpt><trkpt lat="46.026414" lon="11.9130212"><ele>283.16666666666663</ele><time>2026-04-11T16:44:34.536Z</time></trkpt><trkpt lat="46.0264039" lon="11.9128985"><ele>283.3333333333333</ele><time>2026-04-11T16:44:36.537Z</time></trkpt><trkpt lat="46.0263988" lon="11.9127921"><ele>283.5</ele><time>2026-04-11T16:44:38.538Z</time></trkpt><trkpt lat="46.0264235" lon="11.9126856"><ele>283.6666666666667</ele><time>2026-04-11T16:44:41.537Z</time></trkpt><trkpt lat="46.0264829" lon="11.9126435"><ele>283.83333333333337</ele><time>2026-04-11T16:44:43.537Z</time></trkpt><trkpt lat="46.0265551" lon="11.9126286"><ele>284.0</ele><time>2026-04-11T16:44:45.537Z</time></trkpt><trkpt lat="46.0266354" lon="11.9126247"><ele>284.33333333333337</ele><time>2026-04-11T16:44:47.536Z</time></trkpt><trkpt lat="46.0267165" lon="11.9126155"><ele>284.6666666666667</ele><time>2026-04-11T16:44:49.536Z</time></trkpt><trkpt lat="46.0267924" lon="11.9126115"><ele>285.0</ele><time>2026-04-11T16:44:51.537Z</time></trkpt><trkpt lat="46.0268673" lon="11.9126011"><ele>285.3333333333333</ele><time>2026-04-11T16:44:53.537Z</time></trkpt><trkpt lat="46.0269416" lon="11.9125972"><ele>285.66666666666663</ele><time>2026-04-11T16:44:55.536Z</time></trkpt><trkpt lat="46.0270185" lon="11.912591"><ele>286.0</ele><time>2026-04-11T16:44:57.536Z</time></trkpt><trkpt lat="46.0270945" lon="11.9125846"><ele>285.99999999999994</ele><time>2026-04-11T16:44:59.537Z</time></trkpt><trkpt lat="46.0271706" lon="11.9125817"><ele>286.0</ele><time>2026-04-11T16:45:01.536Z</time></trkpt><trkpt lat="46.0272381" lon="11.9125828"><ele>286.0</ele><time>2026-04-11T16:45:03.535Z</time></trkpt><trkpt lat="46.0273011" lon="11.912582"><ele>286.0</ele><time>2026-04-11T16:45:05.537Z</time></trkpt><trkpt lat="46.0273675" lon="11.9126163"><ele>286.0</ele><time>2026-04-11T16:45:08.536Z</time></trkpt><trkpt lat="46.027387" lon="11.9127361"><ele>285.99999999999994</ele><time>2026-04-11T16:45:11.536Z</time></trkpt><trkpt lat="46.0273932" lon="11.9128461"><ele>286.0</ele><time>2026-04-11T16:45:14.537Z</time></trkpt><trkpt lat="46.027401" lon="11.9129507"><ele>286.0</ele><time>2026-04-11T16:45:17.537Z</time></trkpt><trkpt lat="46.0274026" lon="11.9130635"><ele>286.0</ele><time>2026-04-11T16:45:40.536Z</time></trkpt><trkpt lat="46.0273855" lon="11.9131756"><ele>286.0</ele><time>2026-04-11T16:46:42.535Z</time></trkpt></trkseg></trk></gpx>